
Distance (Route):
Temperature : 4.8°C
Humidity : 92.8%
Pressure : 806.3hPa| Receiver | Frames | First received | Last received |
|---|---|---|---|
| AA1-15 | 1029 | 2026-09-02 22:47:59 | 2026-09-03 01:31:07 |
| DL1XH-15 | 246 | 2026-09-02 22:55:39 | 2026-09-03 01:00:18 |
| DO2SHX-10 | 199 | 2026-09-02 23:16:52 | 2026-09-03 00:58:54 |
| DB0DAN | 104 | 2026-09-02 22:50:10 | 2026-09-03 01:31:25 |
| DL1XH-west | 98 | 2026-09-02 23:17:08 | 2026-09-03 01:05:25 |
| AM1SDL-15 | 76 | 2026-09-02 22:57:27 | 2026-09-03 01:25:14 |
| DL1XH1-15 | 59 | 2026-09-02 23:17:35 | 2026-09-03 01:04:48 |
| MECKS9 | 52 | 2026-09-02 22:48:10 | 2026-09-03 01:26:26 |
| SP3WXH-11 | 47 | 2026-09-02 23:27:51 | 2026-09-03 01:35:10 |
| SONDE2-11 | 39 | 2026-09-02 23:08:00 | 2026-09-03 01:31:53 |
| SP3BTT-10 | 33 | 2026-09-02 23:07:19 | 2026-09-03 01:37:41 |
| EDDB2-11 | 29 | 2026-09-02 23:40:57 | 2026-09-03 01:36:51 |
| S3001 | 28 | 2026-09-02 23:01:06 | 2026-09-03 00:59:05 |
| DG6HD-11 | 28 | 2026-09-02 23:04:39 | 2026-09-03 00:50:08 |
| DJ2DS-15 | 27 | 2026-09-02 23:28:46 | 2026-09-03 01:00:40 |
| DK1YY | 16 | 2026-09-02 23:22:31 | 2026-09-03 01:00:19 |
| DM0DOS-11 | 15 | 2026-09-02 23:37:23 | 2026-09-03 01:02:33 |
| DG6HD-15 | 9 | 2026-09-02 23:09:11 | 2026-09-02 23:12:25 |
| EDDB2-12 | 9 | 2026-09-03 01:12:46 | 2026-09-03 01:29:51 |
| KRY50SP | 6 | 2026-09-02 23:25:42 | 2026-09-03 01:15:58 |
| Receiver | Date | Latitude | Longitude | Direction | Speed | Altitude | Climb | Temperature | Humidity | Pressure | Voltage | Killtimer | Uptime | BKT | XDATA |
|---|---|---|---|---|---|---|---|---|---|---|---|---|---|---|---|
| SP3BTT-10 | 2026-09-03 01:37:41 | 53.70103 | 15.21073 | 84° | 37km/h | 1973m | -4.0m/s | 4.8°C | 92.8% | 806.3hPa | 2.6V | 00:00:00 | 00:00:00 | 00:00:00 | |
| SP3BTT-10 | 2026-09-03 01:37:02 | 53.70089 | 15.20476 | 92° | 37km/h | 2131m | -4.1m/s | 4.0°C | 90.7% | 790.8hPa | 2.7V | 00:00:00 | 00:00:00 | 00:00:00 | |
| EDDB2-11 | 2026-09-03 01:36:51 | 53.70093 | 15.20305 | 91° | 35km/h | 2177m | -4.2m/s | 3.7°C | 91.3% | 786.4hPa | 2.7V | 00:00:00 | 00:00:00 | 00:00:00 | |
| SP3BTT-10 | 2026-09-03 01:36:42 | 53.70095 | 15.20166 | 92° | 35km/h | 2214m | -4.1m/s | 3.3°C | 93.1% | 782.8hPa | 2.7V | 00:00:00 | 00:00:00 | 00:00:00 | |
| EDDB2-11 | 2026-09-03 01:36:20 | 53.70099 | 15.19827 | 91° | 35km/h | 2304m | -4.1m/s | 2.9°C | 87.2% | 774.1hPa | 2.7V | 00:00:00 | 00:00:00 | 00:00:00 | |
| SP3BTT-10 | 2026-09-03 01:36:12 | 53.70102 | 15.19707 | 93° | 33km/h | 2337m | -4.2m/s | 2.6°C | 89.4% | 770.9hPa | 2.7V | 07:35:00 | 00:00:00 | 00:00:00 | |
| EDDB2-11 | 2026-09-03 01:35:49 | 53.70120 | 15.19374 | 99° | 33km/h | 2436m | -4.2m/s | 1.7°C | 92.6% | 761.5hPa | 2.7V | 00:00:00 | 00:00:00 | 00:00:00 | |
| SP3BTT-10 | 2026-09-03 01:35:30 | 53.70137 | 15.19110 | 96° | 31km/h | 2520m | -4.3m/s | 1.1°C | 95.0% | 753.6hPa | 2.7V | 00:00:00 | 00:00:00 | 00:00:00 | |
| EDDB2-11 | 2026-09-03 01:35:18 | 53.70130 | 15.18791 | 85° | 27km/h | 2631m | -4.2m/s | 0.6°C | 88.0% | 743.3hPa | 2.7V | 00:00:00 | 00:00:00 | 00:00:00 | |
| SP3WXH-11 | 2026-09-03 01:35:10 | 53.70129 | 15.18766 | 84° | 27km/h | 2639m | -4.1m/s | 0.6°C | 87.4% | 742.6hPa | 2.7V | 00:00:00 | 00:00:00 | 00:00:00 | |
| SP3WXH-11 | 2026-09-03 01:34:38 | 53.70111 | 15.18461 | 86° | 31km/h | 2738m | -4.3m/s | -0.3°C | 93.0% | 733.6hPa | 2.7V | 00:00:00 | 00:00:00 | 00:00:00 | |
| SP3BTT-10 | 2026-09-03 01:34:32 | 53.70107 | 15.18381 | 88° | 33km/h | 2764m | -4.3m/s | -0.6°C | 95.9% | 731.1hPa | 2.7V | 00:00:00 | 00:00:00 | 00:00:00 | |
| EDDB2-11 | 2026-09-03 01:34:16 | 53.70099 | 15.18163 | 86° | 31km/h | 2833m | -4.3m/s | -1.2°C | 98.1% | 725.0hPa | 2.7V | 00:00:00 | 00:00:00 | 00:00:00 | |
| SP3BTT-10 | 2026-09-03 01:34:12 | 53.70097 | 15.18109 | 88° | 33km/h | 2851m | -4.2m/s | -1.3°C | 0% | 723.3hPa | 2.7V | 00:00:00 | 00:00:00 | 00:00:00 | |
| SP3WXH-11 | 2026-09-03 01:34:08 | 53.70096 | 15.18043 | 86° | 29km/h | 2872m | -4.4m/s | -1.5°C | 99.0% | 721.3hPa | 2.7V | 00:00:00 | 00:00:00 | 00:00:00 | |
| EDDB2-11 | 2026-09-03 01:33:45 | 53.70095 | 15.17739 | 89° | 31km/h | 2966m | -4.2m/s | -1.9°C | 96.9% | 712.9hPa | 2.7V | 00:00:00 | 00:00:00 | 00:00:00 | |
| SP3BTT-10 | 2026-09-03 01:33:42 | 53.70094 | 15.17697 | 90° | 37km/h | 2979m | -4.2m/s | -1.8°C | 96.3% | 711.9hPa | 2.7V | 00:00:00 | 00:00:00 | 00:00:00 | |
| SP3WXH-11 | 2026-09-03 01:33:36 | 53.70094 | 15.17610 | 89° | 35km/h | 3004m | -4.2m/s | -1.8°C | 93.1% | 709.5hPa | 2.7V | 00:00:00 | 00:00:00 | 00:00:00 | |
| SP3BTT-10 | 2026-09-03 01:33:18 | 53.70091 | 15.17332 | 88° | 38km/h | 3080m | -4.2m/s | -2.3°C | 91.8% | 702.8hPa | 2.7V | 00:00:00 | 00:00:00 | 00:00:00 | |
| EDDB2-11 | 2026-09-03 01:33:14 | 53.70089 | 15.17267 | 86° | 37km/h | 3096m | -4.3m/s | -2.4°C | 88.9% | 701.3hPa | 2.7V | 00:00:00 | 00:00:00 | 00:00:00 | |
| SP3WXH-11 | 2026-09-03 01:33:05 | 53.70084 | 15.17122 | 88° | 37km/h | 3135m | -4.3m/s | -2.7°C | 85.7% | 697.9hPa | 2.7V | 00:00:00 | 00:00:00 | 00:00:00 | |
| SP3BTT-10 | 2026-09-03 01:32:57 | 53.70082 | 15.16993 | 87° | 42km/h | 3169m | -4.0m/s | -2.9°C | 83.3% | 694.9hPa | 2.7V | 00:00:00 | 00:00:00 | 00:00:00 | |
| EDDB2-11 | 2026-09-03 01:32:43 | 53.70067 | 15.16758 | 83° | 40km/h | 3228m | -4.2m/s | -3.4°C | 91.1% | 689.7hPa | 2.7V | 00:00:00 | 00:00:00 | 00:00:00 | |
| SP3WXH-11 | 2026-09-03 01:32:34 | 53.70056 | 15.16600 | 82° | 42km/h | 3266m | -4.1m/s | -3.4°C | 90.9% | 686.5hPa | 2.7V | 00:00:00 | 00:00:00 | 00:00:00 | |
| SP3BTT-10 | 2026-09-03 01:32:27 | 53.70045 | 15.16470 | 83° | 47km/h | 3295m | -4.3m/s | -3.6°C | 92.4% | 683.9hPa | 2.7V | 07:38:00 | 00:00:00 | 00:00:00 | |
| EDDB2-11 | 2026-09-03 01:32:12 | 53.70010 | 15.16163 | 75° | 47km/h | 3363m | -4.3m/s | -4.0°C | 83.5% | 678.1hPa | 2.7V | 00:00:00 | 00:00:00 | 00:00:00 | |
| SP3WXH-11 | 2026-09-03 01:32:04 | 53.69985 | 15.16006 | 75° | 46km/h | 3398m | -4.4m/s | -3.9°C | 83.4% | 675.1hPa | 2.7V | 00:00:00 | 00:00:00 | 00:00:00 | |
| SONDE2-11 | 2026-09-03 01:31:53 | 53.69950 | 15.15794 | 73° | 46km/h | 3445m | -4.3m/s | -4.0°C | 83.9% | 671.0hPa | 2.7V | 00:00:00 | 00:00:00 | 00:00:00 | |
| SP3BTT-10 | 2026-09-03 01:31:45 | 53.69926 | 15.15661 | 74° | 44km/h | 3476m | -4.3m/s | -4.1°C | 86.0% | 668.5hPa | 2.7V | 00:00:00 | 00:00:00 | 00:00:00 | |
| EDDB2-11 | 2026-09-03 01:31:41 | 53.69910 | 15.15565 | 73° | 46km/h | 3498m | -4.4m/s | -4.4°C | 85.4% | 666.7hPa | 2.6V | 00:00:00 | 00:00:00 | 00:00:00 | |
| SP3WXH-11 | 2026-09-03 01:31:32 | 53.69884 | 15.15417 | 74° | 42km/h | 3533m | -4.3m/s | -4.7°C | 86.5% | 663.7hPa | 2.6V | 00:00:00 | 00:00:00 | 00:00:00 | |
| DB0DAN | 2026-09-03 01:31:25 | 53.69864 | 15.15291 | 75° | 42km/h | 3563m | -4.4m/s | -4.9°C | 86.7% | 661.05hPa | 2.6V | 00:00:00 | 00:00:00 | 00:00:00 | |
| SONDE2-11 | 2026-09-03 01:31:22 | 53.69842 | 15.15148 | 76° | 42km/h | 3598m | -4.4m/s | -4.9°C | 82.6% | 658.2hPa | 2.6V | 00:00:00 | 00:00:00 | 00:00:00 | |
| DB0DAN | 2026-09-03 01:31:10 | 53.69825 | 15.15026 | 77° | 38km/h | 3629m | -4.4m/s | -5°C | 82% | 655.65hPa | 2.6V | 00:00:00 | 00:00:00 | 00:00:00 | |
| AA1-15 | 2026-09-03 01:31:07 | 53.69819 | 15.14974 | 78° | 42km/h | 3642m | -4.4m/s | -5.1°C | 84% | 654.6hPa | 2.6V | 07:40:33 | 03:11:37 | 00:00:00 | |
| AA1-15 | 2026-09-03 01:30:57 | 53.69795 | 15.14798 | 78° | 40km/h | 3687m | -4.5m/s | -5.4°C | 83.4% | 651hPa | 2.6V | 07:40:33 | 03:11:27 | 00:00:00 | |
| DB0DAN | 2026-09-03 01:30:55 | 53.69791 | 15.14764 | 79° | 38km/h | 3695m | -4.5m/s | -5.5°C | 80.2% | 650.2hPa | 2.6V | 00:00:00 | 00:00:00 | 00:00:00 | |
| AA1-15 | 2026-09-03 01:30:46 | 53.69772 | 15.14609 | 78° | 42km/h | 3734m | -4.3m/s | -5.7°C | 83.1% | 647hPa | 2.6V | 07:40:33 | 03:11:16 | 00:00:00 | |
| DB0DAN | 2026-09-03 01:30:40 | 53.69760 | 15.14507 | 80° | 38km/h | 3761m | -4.4m/s | -5.9°C | 80.2% | 644.64hPa | 2.6V | 00:00:00 | 00:00:00 | 00:00:00 | |
| AA1-15 | 2026-09-03 01:30:36 | 53.69753 | 15.14439 | 81° | 40km/h | 3778m | -4.4m/s | -6°C | 84.2% | 643.2hPa | 2.6V | 07:41:24 | 03:11:06 | 00:00:00 | |
| AA1-15 | 2026-09-03 01:30:25 | 53.69737 | 15.14254 | 81° | 40km/h | 3827m | -4.4m/s | -6.4°C | 85.3% | 639.3hPa | 2.6V | 07:41:24 | 03:10:55 | 00:00:00 | |
| DB0DAN | 2026-09-03 01:30:25 | 53.69737 | 15.14254 | 81° | 38km/h | 3826m | -4.4m/s | -6.4°C | 82.6% | 639.32hPa | 2.6V | 00:00:00 | 00:00:00 | 00:00:00 | |
| AA1-15 | 2026-09-03 01:30:15 | 53.69724 | 15.14087 | 84° | 38km/h | 3871m | -4.5m/s | -6.6°C | 84.6% | 635.9hPa | 2.6V | 07:41:24 | 03:10:45 | 00:00:00 | |
| DB0DAN | 2026-09-03 01:30:10 | 53.69718 | 15.14007 | 81° | 35km/h | 3893m | -4.5m/s | -6.9°C | 83.3% | 633.97hPa | 2.6V | 00:00:00 | 00:00:00 | 00:00:00 | |
| AA1-15 | 2026-09-03 01:30:04 | 53.69710 | 15.13915 | 83° | 37km/h | 3919m | -4.4m/s | -7.1°C | 88.1% | 631.8hPa | 2.6V | 07:41:24 | 03:10:34 | 00:00:00 | |
| SP3WXH-11 | 2026-09-03 01:29:59 | 53.69705 | 15.13836 | 86° | 37km/h | 3941m | -4.4m/s | -7.3°C | 87.5% | 629.9hPa | 2.6V | 00:00:00 | 00:00:00 | 00:00:00 | |
| DB0DAN | 2026-09-03 01:29:55 | 53.69703 | 15.13772 | 88° | 37km/h | 3959m | -4.4m/s | -7.4°C | 88.2% | 628.51hPa | 2.6V | 00:00:00 | 00:00:00 | 00:00:00 | |
| AA1-15 | 2026-09-03 01:29:54 | 53.69703 | 15.13756 | 87° | 37km/h | 3964m | -4.6m/s | -7.4°C | 90.4% | 628.2hPa | 2.6V | 07:41:24 | 03:10:24 | 00:00:00 | |
| EDDB2-12 | 2026-09-03 01:29:51 | 53.69701 | 15.13693 | 87° | 37km/h | 3981m | -4.4m/s | -7.4°C | 88.7% | 626.7hPa | 2.6V | 00:00:00 | 00:00:00 | 00:00:00 | |
| SONDE2-11 | 2026-09-03 01:29:49 | 53.69700 | 15.13662 | 87° | 37km/h | 3990m | -4.6m/s | -7.5°C | 87.5% | 626.1hPa | 2.6V | 00:00:00 | 00:00:00 | 00:00:00 | |
| AA1-15 | 2026-09-03 01:29:43 | 53.69698 | 15.13583 | 89° | 37km/h | 4012m | -4.4m/s | -7.5°C | 87.6% | 624.3hPa | 2.6V | 07:42:15 | 03:10:13 | 00:00:00 | |
| DB0DAN | 2026-09-03 01:29:40 | 53.69698 | 15.13536 | 89° | 35km/h | 4025m | -4.4m/s | -7.6°C | 84.3% | 623.24hPa | 2.6V | 00:00:00 | 00:00:00 | 00:00:00 | |
| AA1-15 | 2026-09-03 01:29:33 | 53.69697 | 15.13426 | 89° | 37km/h | 4056m | -4.4m/s | -7.9°C | 87.2% | 620.8hPa | 2.6V | 07:42:15 | 03:10:03 | 00:00:00 | |
| AA1-15 | 2026-09-03 01:29:23 | 53.69696 | 15.13272 | 90° | 37km/h | 4100m | -4.7m/s | -8.3°C | 88.9% | 617.3hPa | 2.6V | 07:42:15 | 03:09:53 | 00:00:00 | |
| AA1-15 | 2026-09-03 01:29:11 | 53.69698 | 15.13079 | 91° | 38km/h | 4154m | -4.4m/s | -8.8°C | 90.2% | 612.9hPa | 2.6V | 07:42:15 | 03:09:41 | 00:00:00 | |
| AA1-15 | 2026-09-03 01:29:00 | 53.69702 | 15.12896 | 93° | 40km/h | 4201m | -4.3m/s | -9.1°C | 91.1% | 609.2hPa | 2.6V | 07:43:06 | 03:09:30 | 00:00:00 | |
| AA1-15 | 2026-09-03 01:28:50 | 53.69707 | 15.12730 | 91° | 38km/h | 4245m | -4.6m/s | -9.4°C | 92.4% | 605.9hPa | 2.6V | 07:43:06 | 03:09:20 | 00:00:00 | |
| EDDB2-12 | 2026-09-03 01:28:48 | 53.69708 | 15.12697 | 91° | 38km/h | 4254m | -4.4m/s | -9.5°C | 91.5% | 605.1hPa | 2.5V | 00:00:00 | 00:00:00 | 00:00:00 | |
| SONDE2-11 | 2026-09-03 01:28:47 | 53.69709 | 15.12663 | 92° | 38km/h | 4263m | -4.5m/s | -9.5°C | 90.9% | 604.4hPa | 2.5V | 00:00:00 | 00:00:00 | 00:00:00 | |
| AA1-15 | 2026-09-03 01:28:39 | 53.69716 | 15.12545 | 98° | 40km/h | 4293m | -4.3m/s | -9.7°C | 92.3% | 602hPa | 2.5V | 07:43:06 | 03:09:09 | 00:00:00 | |
| AA1-15 | 2026-09-03 01:28:28 | 53.69726 | 15.12360 | 94° | 40km/h | 4342m | -4.4m/s | -9.9°C | 88.2% | 598.3hPa | 2.6V | 07:43:06 | 03:08:58 | 00:00:00 | |
| AA1-15 | 2026-09-03 01:28:18 | 53.69736 | 15.12190 | 95° | 42km/h | 4386m | -4.6m/s | -10°C | 84.6% | 594.8hPa | 2.6V | 07:43:06 | 03:08:48 | 00:00:00 | |
| AA1-15 | 2026-09-03 01:28:07 | 53.69745 | 15.11992 | 94° | 42km/h | 4435m | -4.3m/s | -10.3°C | 83.6% | 591hPa | 2.5V | 07:43:57 | 03:08:37 | 00:00:00 | |
| AA1-15 | 2026-09-03 01:27:57 | 53.69750 | 15.11807 | 92° | 44km/h | 4480m | -4.5m/s | -10.4°C | 80.2% | 587.6hPa | 2.6V | 07:43:57 | 03:08:27 | 00:00:00 | |
| AA1-15 | 2026-09-03 01:27:47 | 53.69752 | 15.11617 | 91° | 44km/h | 4525m | -4.5m/s | -10.6°C | 78.1% | 584.3hPa | 2.6V | 07:43:57 | 03:08:17 | 00:00:00 | |
| EDDB2-12 | 2026-09-03 01:27:46 | 53.69752 | 15.11599 | 89° | 44km/h | 4529m | -4.5m/s | -10.7°C | 75.5% | 583.9hPa | 2.6V | 00:00:00 | 00:00:00 | 00:00:00 | |
| SONDE2-11 | 2026-09-03 01:27:44 | 53.69752 | 15.11561 | 89° | 42km/h | 4538m | -4.6m/s | -10.7°C | 76.3% | 583.3hPa | 2.6V | 00:00:00 | 00:00:00 | 00:00:00 | |
| AA1-15 | 2026-09-03 01:27:36 | 53.69751 | 15.11414 | 88° | 42km/h | 4574m | -4.6m/s | -11.1°C | 83% | 580.5hPa | 2.6V | 07:43:57 | 03:08:06 | 00:00:00 | |
| AA1-15 | 2026-09-03 01:27:25 | 53.69746 | 15.11216 | 87° | 42km/h | 4624m | -4.6m/s | -11.5°C | 84.7% | 576.7hPa | 2.5V | 07:43:57 | 03:07:55 | 00:00:00 | |
| AA1-15 | 2026-09-03 01:27:15 | 53.69739 | 15.11035 | 85° | 42km/h | 4670m | -4.7m/s | -11.8°C | 84.2% | 573.5hPa | 2.5V | 07:44:48 | 03:07:45 | 00:00:00 | |
| AA1-15 | 2026-09-03 01:27:04 | 53.69725 | 15.10837 | 82° | 42km/h | 4719m | -4.4m/s | -12°C | 82.3% | 569.7hPa | 2.5V | 07:44:48 | 03:07:34 | 00:00:00 | |
| AA1-15 | 2026-09-03 01:26:54 | 53.69709 | 15.10659 | 82° | 42km/h | 4765m | -4.5m/s | -12.3°C | 80.5% | 566.3hPa | 2.5V | 07:44:48 | 03:07:24 | 00:00:00 | |
| SP3WXH-11 | 2026-09-03 01:26:53 | 53.69708 | 15.10642 | 82° | 42km/h | 4769m | -4.5m/s | -12.3°C | 78.5% | 566.0hPa | 2.6V | 00:00:00 | 00:00:00 | 00:00:00 | |
| EDDB2-12 | 2026-09-03 01:26:44 | 53.69693 | 15.10482 | 81° | 42km/h | 4809m | -4.5m/s | -12.6°C | 78.9% | 563.1hPa | 2.6V | 00:00:00 | 00:00:00 | 00:00:00 | |
| AA1-15 | 2026-09-03 01:26:43 | 53.69692 | 15.10464 | 82° | 44km/h | 4814m | -4.5m/s | -12.7°C | 81.5% | 562.6hPa | 2.6V | 07:44:48 | 03:07:13 | 00:00:00 | |
| SONDE2-11 | 2026-09-03 01:26:42 | 53.69691 | 15.10446 | 83° | 42km/h | 4819m | -4.7m/s | -12.7°C | 79.5% | 562.3hPa | 2.5V | 00:00:00 | 00:00:00 | 00:00:00 | |
| DB0DAN | 2026-09-03 01:26:40 | 53.69688 | 15.10410 | 85° | 40km/h | 4828m | -4.5m/s | -12.8°C | 80% | 561.66hPa | 2.5V | 00:00:00 | 00:00:00 | 00:00:00 | |
| AA1-15 | 2026-09-03 01:26:32 | 53.69683 | 15.10265 | 87° | 42km/h | 4864m | -4.6m/s | -13.2°C | 83.4% | 559hPa | 2.6V | 07:44:48 | 03:07:02 | 00:00:00 | |
| EDDB2-11 | 2026-09-03 01:26:30 | 53.69682 | 15.10229 | 86° | 42km/h | 4873m | -4.6m/s | -13.2°C | 82.6% | 558.3hPa | 2.6V | 00:00:00 | 00:00:00 | 00:00:00 | |
| MECKS9 | 2026-09-03 01:26:26 | 53.69680 | 15.10175 | 87° | 42km/h | 4888m | -4.7m/s | -13.4°C | 82.9% | 557.4hPa | 2.6V | 00:00:00 | 00:00:00 | 00:00:00 | |
| DB0DAN | 2026-09-03 01:26:25 | 53.69678 | 15.10138 | 86° | 40km/h | 4897m | -4.5m/s | -13.4°C | 82.7% | 556.62hPa | 2.6V | 00:00:00 | 00:00:00 | 00:00:00 | |
| AA1-15 | 2026-09-03 01:26:22 | 53.69676 | 15.10084 | 86° | 42km/h | 4910m | -4.4m/s | -13.5°C | 83.7% | 555.6hPa | 2.5V | 07:45:39 | 03:06:52 | 00:00:00 | |
| AA1-15 | 2026-09-03 01:26:11 | 53.69667 | 15.09890 | 86° | 42km/h | 4960m | -4.5m/s | -13.9°C | 84.3% | 551.9hPa | 2.6V | 07:45:39 | 03:06:41 | 00:00:00 | |
| DB0DAN | 2026-09-03 01:26:10 | 53.69667 | 15.09873 | 86° | 40km/h | 4965m | -4.5m/s | -14°C | 83.4% | 551.66hPa | 2.6V | 00:00:00 | 00:00:00 | 00:00:00 | |
| AA1-15 | 2026-09-03 01:26:00 | 53.69662 | 15.09696 | 86° | 42km/h | 5011m | -4.7m/s | -14.3°C | 84.7% | 548.4hPa | 2.5V | 07:45:39 | 03:06:30 | 00:00:00 | |
| EDDB2-11 | 2026-09-03 01:25:59 | 53.69661 | 15.09679 | 85° | 40km/h | 5015m | -4.5m/s | -14.3°C | 85.1% | 548.0hPa | 2.5V | 00:00:00 | 00:00:00 | 00:00:00 | |
| DB0DAN | 2026-09-03 01:25:55 | 53.69658 | 15.09609 | 86° | 38km/h | 5033m | -4.7m/s | -14.3°C | 84.4% | 546.71hPa | 2.5V | 00:00:00 | 00:00:00 | 00:00:00 | |
| AA1-15 | 2026-09-03 01:25:49 | 53.69654 | 15.09508 | 85° | 38km/h | 5061m | -4.5m/s | -14.5°C | 80.1% | 544.7hPa | 2.5V | 07:45:39 | 03:06:19 | 00:00:00 | |
| DB0DAN | 2026-09-03 01:25:40 | 53.69645 | 15.09353 | 85° | 40km/h | 5102m | -4.6m/s | -14.6°C | 70.5% | 541.74hPa | 2.6V | 00:00:00 | 00:00:00 | 00:00:00 | |
| AA1-15 | 2026-09-03 01:25:39 | 53.69645 | 15.09335 | 86° | 42km/h | 5106m | -4.5m/s | -14.6°C | 70.9% | 541.5hPa | 2.6V | 07:45:39 | 03:06:09 | 00:00:00 | |
| AA1-15 | 2026-09-03 01:25:29 | 53.69637 | 15.09154 | 87° | 42km/h | 5151m | -4.6m/s | -14.9°C | 72.8% | 538.3hPa | 2.5V | 07:46:30 | 03:05:59 | 00:00:00 | |
| EDDB2-11 | 2026-09-03 01:25:28 | 53.69636 | 15.09136 | 86° | 40km/h | 5156m | -4.5m/s | -14.9°C | 72.3% | 537.9hPa | 2.6V | 00:00:00 | 00:00:00 | 00:00:00 | |
| DB0DAN | 2026-09-03 01:25:25 | 53.69635 | 15.09082 | 89° | 40km/h | 5169m | -4.4m/s | -14.9°C | 72.3% | 536.92hPa | 2.6V | 00:00:00 | 00:00:00 | 00:00:00 | |
| AA1-15 | 2026-09-03 01:25:18 | 53.69636 | 15.08956 | 92° | 42km/h | 5201m | -4.5m/s | -14.9°C | 63.9% | 534.7hPa | 2.6V | 07:46:30 | 03:05:48 | 00:00:00 | |
| AM1SDL-15 | 2026-09-03 01:25:14 | 53.69638 | 15.08884 | 94° | 40km/h | 5219m | -4.4m/s | -14.9°C | 61.0% | 533.4hPa | 2.5V | 00:00:00 | 03:05:44 | 00:00:00 | |
| DB0DAN | 2026-09-03 01:25:10 | 53.69640 | 15.08815 | 95° | 38km/h | 5237m | -4.7m/s | -15.1°C | 57.6% | 532.16hPa | 2.5V | 00:00:00 | 00:00:00 | 00:00:00 | |
| AA1-15 | 2026-09-03 01:25:08 | 53.69642 | 15.08780 | 96° | 40km/h | 5247m | -4.5m/s | -15.1°C | 60.2% | 531.5hPa | 2.5V | 07:46:30 | 03:05:38 | 00:00:00 | |
| AA1-15 | 2026-09-03 01:24:57 | 53.69654 | 15.08596 | 99° | 38km/h | 5297m | -4.5m/s | -15.4°C | 56.5% | 528hPa | 2.6V | 07:46:30 | 03:05:27 | 00:00:00 | |
| DB0DAN | 2026-09-03 01:24:55 | 53.69658 | 15.08563 | 100° | 37km/h | 5306m | -4.5m/s | -15.4°C | 52.7% | 527.34hPa | 2.5V | 00:00:00 | 00:00:00 | 00:00:00 | |
| AA1-15 | 2026-09-03 01:24:47 | 53.69671 | 15.08434 | 101° | 38km/h | 5343m | -4.6m/s | -15.7°C | 53.7% | 524.7hPa | 2.6V | 07:47:21 | 03:05:17 | 00:00:00 | |
| DB0DAN | 2026-09-03 01:24:40 | 53.69684 | 15.08319 | 101° | 38km/h | 5375m | -4.7m/s | -15.9°C | 47.5% | 522.52hPa | 2.5V | 00:00:00 | 00:00:00 | 00:00:00 | |
| AA1-15 | 2026-09-03 01:24:36 | 53.69692 | 15.08253 | 101° | 40km/h | 5393m | -4.6m/s | -16°C | 50.4% | 521.3hPa | 2.6V | 07:47:21 | 03:05:06 | 00:00:00 | |
| AA1-15 | 2026-09-03 01:24:26 | 53.69710 | 15.08082 | 100° | 42km/h | 5439m | -4.8m/s | -16.4°C | 50.5% | 518.2hPa | 2.5V | 07:47:21 | 03:04:56 | 00:00:00 | |
| DB0DAN | 2026-09-03 01:24:25 | 53.69712 | 15.08064 | 99° | 40km/h | 5443m | -4.5m/s | -16.4°C | 46.8% | 517.82hPa | 2.5V | 00:00:00 | 00:00:00 | 00:00:00 | |
| AA1-15 | 2026-09-03 01:24:15 | 53.69730 | 15.07885 | 99° | 44km/h | 5490m | -4.6m/s | -16.8°C | 51.5% | 514.6hPa | 2.5V | 07:47:21 | 03:04:45 | 00:00:00 | |
| AM1SDL-15 | 2026-09-03 01:24:13 | 53.69733 | 15.07849 | 100° | 44km/h | 5499m | -4.5m/s | -16.8°C | 50.3% | 514.0hPa | 2.5V | 00:00:00 | 03:04:43 | 00:00:00 | |
| DB0DAN | 2026-09-03 01:24:10 | 53.69739 | 15.07794 | 100° | 42km/h | 5512m | -4.6m/s | -17°C | 49.9% | 513.03hPa | 2.6V | 00:00:00 | 00:00:00 | 00:00:00 | |
| AA1-15 | 2026-09-03 01:24:05 | 53.69749 | 15.07703 | 101° | 44km/h | 5535m | -4.7m/s | -17.2°C | 54.7% | 511.5hPa | 2.6V | 07:47:21 | 03:04:35 | 00:00:00 | |
| AA1-15 | 2026-09-03 01:23:54 | 53.69774 | 15.07502 | 103° | 42km/h | 5585m | -4.7m/s | -17.6°C | 57.7% | 508.2hPa | 2.6V | 07:48:12 | 03:04:24 | 00:00:00 | |
| AA1-15 | 2026-09-03 01:23:44 | 53.69801 | 15.07327 | 105° | 42km/h | 5631m | -4.7m/s | -18°C | 60.3% | 505hPa | 2.5V | 07:48:12 | 03:04:14 | 00:00:00 | |
| AA1-15 | 2026-09-03 01:23:33 | 53.69835 | 15.07141 | 108° | 40km/h | 5682m | -4.7m/s | -18.2°C | 59.1% | 501.5hPa | 2.5V | 07:48:12 | 03:04:03 | 00:00:00 | |
| AA1-15 | 2026-09-03 01:23:22 | 53.69870 | 15.06962 | 109° | 40km/h | 5734m | -4.7m/s | -18.6°C | 62.2% | 498.1hPa | 2.5V | 07:48:12 | 03:03:52 | 00:00:00 | |
| AA1-15 | 2026-09-03 01:23:12 | 53.69903 | 15.06801 | 108° | 40km/h | 5781m | -4.8m/s | -18.9°C | 62.8% | 495hPa | 2.6V | 07:48:12 | 03:03:42 | 00:00:00 | |
| AA1-15 | 2026-09-03 01:23:02 | 53.69935 | 15.06635 | 108° | 40km/h | 5829m | -5m/s | -19.3°C | 64.7% | 491.8hPa | 2.6V | 07:49:03 | 03:03:32 | 00:00:00 | |
| AM1SDL-15 | 2026-09-03 01:22:59 | 53.69945 | 15.06585 | 109° | 42km/h | 5843m | -4.6m/s | -19.3°C | 67.9% | 490.8hPa | 2.5V | 00:00:00 | 03:03:29 | 00:00:00 | |
| DB0DAN | 2026-09-03 01:22:55 | 53.69958 | 15.06518 | 107° | 40km/h | 5862m | -5m/s | -19.5°C | 66.9% | 489.55hPa | 2.5V | 00:00:00 | 00:00:00 | 00:00:00 | |
| AA1-15 | 2026-09-03 01:22:51 | 53.69969 | 15.06451 | 106° | 42km/h | 5882m | -4.9m/s | -19.7°C | 68.7% | 488.3hPa | 2.5V | 07:49:03 | 03:03:21 | 00:00:00 | |
| SP3WXH-11 | 2026-09-03 01:22:45 | 53.69986 | 15.06351 | 105° | 40km/h | 5910m | -4.8m/s | -19.8°C | 66.4% | 486.4hPa | 2.5V | 00:00:00 | 00:00:00 | 00:00:00 | |
| DB0DAN | 2026-09-03 01:22:40 | 53.70000 | 15.06264 | 105° | 40km/h | 5934m | -4.7m/s | -20.1°C | 66.5% | 484.84hPa | 2.5V | 00:00:00 | 00:00:00 | 00:00:00 | |
| AA1-15 | 2026-09-03 01:22:40 | 53.70000 | 15.06264 | 105° | 42km/h | 5934m | -4.7m/s | -20.1°C | 67.9% | 484.8hPa | 2.5V | 07:49:03 | 03:03:10 | 00:00:00 | |
| AA1-15 | 2026-09-03 01:22:30 | 53.70028 | 15.06086 | 106° | 44km/h | 5982m | -4.7m/s | -20.4°C | 66% | 481.7hPa | 2.6V | 07:49:03 | 03:03:00 | 00:00:00 | |
| AA1-15 | 2026-09-03 01:22:20 | 53.70057 | 15.05903 | 103° | 47km/h | 6030m | -4.9m/s | -20.7°C | 65.1% | 478.5hPa | 2.6V | 07:49:03 | 03:02:50 | 00:00:00 | |
| AA1-15 | 2026-09-03 01:22:10 | 53.70086 | 15.05696 | 104° | 53km/h | 6079m | -5m/s | -21°C | 68.6% | 475.5hPa | 2.5V | 07:49:54 | 03:02:40 | 00:00:00 | |
| AA1-15 | 2026-09-03 01:21:59 | 53.70124 | 15.05450 | 105° | 57km/h | 6131m | -5.3m/s | -21°C | 71.4% | 472.1hPa | 2.6V | 07:49:54 | 03:02:29 | 00:00:00 | |
| DB0DAN | 2026-09-03 01:21:55 | 53.70141 | 15.05359 | 109° | 53km/h | 6151m | -4.7m/s | -20.9°C | 75.4% | 470.85hPa | 2.5V | 00:00:00 | 00:00:00 | 00:00:00 | |
| AA1-15 | 2026-09-03 01:21:48 | 53.70176 | 15.05196 | 111° | 60km/h | 6184m | -4.7m/s | -21.1°C | 77.5% | 468.7hPa | 2.5V | 07:49:54 | 03:02:18 | 00:00:00 | |
| AM1SDL-15 | 2026-09-03 01:21:47 | 53.70181 | 15.05172 | 112° | 62km/h | 6189m | -4.5m/s | -21.0°C | 81.7% | 468.4hPa | 2.6V | 00:00:00 | 03:02:17 | 00:00:00 | |
| SP3WXH-11 | 2026-09-03 01:21:43 | 53.70205 | 15.05074 | 112° | 60km/h | 6208m | -4.6m/s | -21.1°C | 81.2% | 467.2hPa | 2.5V | 00:00:00 | 00:00:00 | 00:00:00 | |
| DB0DAN | 2026-09-03 01:21:40 | 53.70223 | 15.05002 | 113° | 58km/h | 6223m | -5.1m/s | -21.1°C | 82.9% | 466.2hPa | 2.5V | 00:00:00 | 00:00:00 | 00:00:00 | |
| AA1-15 | 2026-09-03 01:21:38 | 53.70236 | 15.04954 | 115° | 62km/h | 6233m | -5m/s | -21.1°C | 81.9% | 465.7hPa | 2.6V | 07:49:54 | 03:02:08 | 00:00:00 | |
| AA1-15 | 2026-09-03 01:21:27 | 53.70311 | 15.04685 | 116° | 66km/h | 6286m | -4.8m/s | -21.1°C | 82.4% | 462.3hPa | 2.6V | 07:49:54 | 03:01:57 | 00:00:00 | |
| DB0DAN | 2026-09-03 01:21:25 | 53.70326 | 15.04636 | 117° | 62km/h | 6296m | -5.1m/s | -21.1°C | 82.5% | 461.69hPa | 2.5V | 00:00:00 | 00:00:00 | 00:00:00 | |
| AA1-15 | 2026-09-03 01:21:16 | 53.70395 | 15.04413 | 118° | 66km/h | 6340m | -5m/s | -21.5°C | 84.5% | 459hPa | 2.6V | 07:50:45 | 03:01:46 | 00:00:00 | |
| DB0DAN | 2026-09-03 01:21:10 | 53.70444 | 15.04263 | 119° | 66km/h | 6369m | -5m/s | -21.7°C | 85.2% | 457.16hPa | 2.6V | 00:00:00 | 00:00:00 | 00:00:00 | |
| AA1-15 | 2026-09-03 01:21:06 | 53.70478 | 15.04161 | 120° | 68km/h | 6389m | -5.3m/s | -21.9°C | 85.7% | 456hPa | 2.5V | 07:50:45 | 03:01:36 | 00:00:00 | |
| EDDB2-12 | 2026-09-03 01:21:03 | 53.70512 | 15.04058 | 118° | 68km/h | 6408m | -5.0m/s | -22.0°C | 85.7% | 454.7hPa | 2.5V | 00:00:00 | 00:00:00 | 00:00:00 | |
| SONDE2-11 | 2026-09-03 01:21:01 | 53.70528 | 15.04007 | 117° | 68km/h | 6418m | -4.8m/s | -22.1°C | 85.8% | 454.2hPa | 2.5V | 00:00:00 | 00:00:00 | 00:00:00 | |
| AM1SDL-15 | 2026-09-03 01:20:59 | 53.70536 | 15.03980 | 118° | 68km/h | 6422m | -4.7m/s | -22.1°C | 88.8% | 453.8hPa | 2.5V | 00:00:00 | 03:01:29 | 00:00:00 | |
| DB0DAN | 2026-09-03 01:20:55 | 53.70568 | 15.03875 | 117° | 66km/h | 6441m | -4.9m/s | -22.2°C | 86% | 452.62hPa | 2.5V | 00:00:00 | 00:00:00 | 00:00:00 | |
| AA1-15 | 2026-09-03 01:20:55 | 53.70568 | 15.03875 | 117° | 68km/h | 6441m | -4.9m/s | -22.2°C | 86% | 452.6hPa | 2.5V | 07:50:45 | 03:01:25 | 00:00:00 | |
| AA1-15 | 2026-09-03 01:20:44 | 53.70651 | 15.03589 | 115° | 68km/h | 6493m | -5m/s | -22.6°C | 86.2% | 449.3hPa | 2.6V | 07:50:45 | 03:01:14 | 00:00:00 | |
| DB0DAN | 2026-09-03 01:20:40 | 53.70680 | 15.03485 | 115° | 64km/h | 6512m | -5m/s | -22.7°C | 84.2% | 448.27hPa | 2.6V | 00:00:00 | 00:00:00 | 00:00:00 | |
| AA1-15 | 2026-09-03 01:20:33 | 53.70731 | 15.03305 | 116° | 66km/h | 6546m | -4.7m/s | -22.9°C | 83.5% | 446.2hPa | 2.6V | 07:50:45 | 03:01:03 | 00:00:00 | |
| EDDB2-12 | 2026-09-03 01:20:32 | 53.70745 | 15.03255 | 116° | 66km/h | 6556m | -4.7m/s | -23.0°C | 82.2% | 445.6hPa | 2.5V | 00:00:00 | 00:00:00 | 00:00:00 | |
| SONDE2-11 | 2026-09-03 01:20:30 | 53.70760 | 15.03204 | 115° | 66km/h | 6565m | -4.9m/s | -23.1°C | 81.5% | 445.1hPa | 2.5V | 00:00:00 | 00:00:00 | 00:00:00 | |
| DB0DAN | 2026-09-03 01:20:25 | 53.70789 | 15.03102 | 115° | 64km/h | 6584m | -5.1m/s | -23.2°C | 81.4% | 443.88hPa | 2.5V | 00:00:00 | 00:00:00 | 00:00:00 | |
| AA1-15 | 2026-09-03 01:20:22 | 53.70810 | 15.03025 | 115° | 66km/h | 6599m | -4.8m/s | -23.3°C | 82.2% | 443.1hPa | 2.6V | 07:51:36 | 03:00:52 | 00:00:00 | |
| AA1-15 | 2026-09-03 01:20:11 | 53.70890 | 15.02752 | 118° | 64km/h | 6651m | -4.8m/s | -23.8°C | 82.5% | 440hPa | 2.5V | 07:51:36 | 03:00:41 | 00:00:00 | |
| DB0DAN | 2026-09-03 01:20:10 | 53.70898 | 15.02728 | 117° | 62km/h | 6656m | -4.8m/s | -23.8°C | 80.7% | 439.67hPa | 2.6V | 00:00:00 | 00:00:00 | 00:00:00 | |
| AA1-15 | 2026-09-03 01:20:01 | 53.70965 | 15.02507 | 117° | 66km/h | 6698m | -4.8m/s | -24.1°C | 80.3% | 437hPa | 2.5V | 07:51:36 | 03:00:31 | 00:00:00 | |
| EDDB2-12 | 2026-09-03 01:20:01 | 53.70972 | 15.02483 | 116° | 64km/h | 6703m | -4.7m/s | -24.2°C | 78.3% | 436.8hPa | 2.6V | 00:00:00 | 00:00:00 | 00:00:00 | |
| SONDE2-11 | 2026-09-03 01:19:59 | 53.70987 | 15.02434 | 116° | 62km/h | 6712m | -4.8m/s | -24.2°C | 0% | 436.2hPa | 2.6V | 00:00:00 | 00:00:00 | 00:00:00 | |
| AM1SDL-15 | 2026-09-03 01:19:58 | 53.70987 | 15.02434 | 117° | 64km/h | 6712m | -4.7m/s | -24.2°C | 81.5% | 436.2hPa | 2.6V | 00:00:00 | 03:00:28 | 00:00:00 | |
| MECKS9 | 2026-09-03 01:19:57 | 53.70986 | 15.02433 | 117° | 64km/h | 6712m | -4.8m/s | -24.2°C | 78.5% | 436.2hPa | 2.5V | 00:00:00 | 00:00:00 | 00:00:00 | |
| DB0DAN | 2026-09-03 01:19:55 | 53.71008 | 15.02361 | 115° | 60km/h | 6726m | -4.6m/s | -24.4°C | 79% | 435.38hPa | 2.5V | 00:00:00 | 00:00:00 | 00:00:00 | |
| AA1-15 | 2026-09-03 01:19:51 | 53.71035 | 15.02264 | 115° | 62km/h | 6744m | -4.8m/s | -24.5°C | 80.6% | 434.3hPa | 2.6V | 07:51:36 | 03:00:21 | 00:00:00 | |
| EDDB2-11 | 2026-09-03 01:19:47 | 53.71070 | 15.02141 | 116° | 64km/h | 6768m | -4.9m/s | -24.7°C | 77.9% | 432.9hPa | 2.5V | 00:00:00 | 00:00:00 | 00:00:00 | |
| AA1-15 | 2026-09-03 01:19:40 | 53.71113 | 15.01993 | 116° | 64km/h | 6796m | -4.8m/s | -24.9°C | 77.8% | 431.1hPa | 2.5V | 07:52:27 | 03:00:10 | 00:00:00 | |
| AA1-15 | 2026-09-03 01:19:29 | 53.71193 | 15.01722 | 118° | 66km/h | 6847m | -5m/s | -25.2°C | 80.7% | 428.1hPa | 2.5V | 07:52:27 | 02:59:59 | 00:00:00 | |
| SONDE2-11 | 2026-09-03 01:19:28 | 53.71209 | 15.01673 | 117° | 66km/h | 6857m | -5.2m/s | -25.3°C | 78.8% | 427.6hPa | 2.6V | 00:00:00 | 00:00:00 | 00:00:00 | |
| DB0DAN | 2026-09-03 01:19:25 | 53.71224 | 15.01624 | 118° | 62km/h | 6867m | -5.3m/s | -25.4°C | 79.3% | 426.92hPa | 2.6V | 00:00:00 | 00:00:00 | 00:00:00 | |
| AA1-15 | 2026-09-03 01:19:19 | 53.71280 | 15.01451 | 119° | 66km/h | 6902m | -4.9m/s | -25.7°C | 82.8% | 425hPa | 2.5V | 07:52:27 | 02:59:48 | 00:00:00 | |
| AA1-15 | 2026-09-03 01:19:07 | 53.71373 | 15.01178 | 120° | 68km/h | 6955m | -5m/s | -26.1°C | 83.6% | 421.9hPa | 2.6V | 07:52:27 | 02:59:37 | 00:00:00 | |
| AA1-15 | 2026-09-03 01:18:57 | 53.71459 | 15.00930 | 120° | 68km/h | 7003m | -4.7m/s | -26.4°C | 82.2% | 419hPa | 2.5V | 07:52:27 | 02:59:27 | 00:00:00 | |
| SONDE2-11 | 2026-09-03 01:18:57 | 53.71467 | 15.00905 | 120° | 68km/h | 7008m | -4.9m/s | -26.5°C | 79.8% | 418.8hPa | 2.6V | 00:00:00 | 00:00:00 | 00:00:00 | |
| DB0DAN | 2026-09-03 01:18:55 | 53.71476 | 15.00879 | 120° | 64km/h | 7013m | -4.3m/s | -26.5°C | 79.9% | 418.46hPa | 2.6V | 00:00:00 | 00:00:00 | 00:00:00 | |
| AA1-15 | 2026-09-03 01:18:46 | 53.71553 | 15.00656 | 119° | 68km/h | 7057m | -5.3m/s | -26.9°C | 83.6% | 415.9hPa | 2.6V | 07:53:18 | 02:59:16 | 00:00:00 | |
| EDDB2-11 | 2026-09-03 01:18:45 | 53.71570 | 15.00606 | 120° | 68km/h | 7066m | -5.1m/s | -27.0°C | 81.1% | 415.3hPa | 2.5V | 00:00:00 | 00:00:00 | 00:00:00 | |
| AM1SDL-15 | 2026-09-03 01:18:44 | 53.71570 | 15.00606 | 121° | 68km/h | 7067m | -5.1m/s | -26.9°C | 84.6% | 415.3hPa | 2.5V | 00:00:00 | 02:59:14 | 00:00:00 | |
| DB0DAN | 2026-09-03 01:18:40 | 53.71605 | 15.00505 | 120° | 66km/h | 7086m | -5.2m/s | -27.1°C | 80.7% | 414.17hPa | 2.6V | 00:00:00 | 00:00:00 | 00:00:00 | |
| AA1-15 | 2026-09-03 01:18:35 | 53.71648 | 15.00377 | 119° | 69km/h | 7111m | -5.2m/s | -27.3°C | 82.7% | 412.8hPa | 2.6V | 07:53:18 | 02:59:05 | 00:00:00 | |
| AM1SDL-15 | 2026-09-03 01:18:32 | 53.71674 | 15.00300 | 120° | 69km/h | 7126m | -5.1m/s | -27.3°C | 83.7% | 411.8hPa | 2.6V | 00:00:00 | 02:59:02 | 00:00:00 | |
| SP3BTT-10 | 2026-09-03 01:18:27 | 53.71717 | 15.00170 | 120° | 71km/h | 7151m | -4.7m/s | -27.5°C | 82.8% | 410.4hPa | 2.6V | 00:00:00 | 00:00:00 | 00:00:00 | |
| DB0DAN | 2026-09-03 01:18:25 | 53.71734 | 15.00118 | 119° | 68km/h | 7161m | -4.9m/s | -27.7°C | 79.2% | 409.93hPa | 2.6V | 00:00:00 | 00:00:00 | 00:00:00 | |
| AA1-15 | 2026-09-03 01:18:24 | 53.71743 | 15.00092 | 119° | 69km/h | 7166m | -5.1m/s | -27.7°C | 81.9% | 409.6hPa | 2.6V | 07:53:18 | 02:58:54 | 00:00:00 | |
| AA1-15 | 2026-09-03 01:18:13 | 53.71837 | 14.99804 | 119° | 71km/h | 7220m | -5.2m/s | -28.1°C | 81.2% | 406.6hPa | 2.6V | 07:53:18 | 02:58:43 | 00:00:00 | |
| DB0DAN | 2026-09-03 01:18:10 | 53.71862 | 14.99725 | 118° | 68km/h | 7235m | -5m/s | -28.3°C | 78.5% | 405.73hPa | 2.5V | 00:00:00 | 00:00:00 | 00:00:00 | |
| AA1-15 | 2026-09-03 01:18:03 | 53.71923 | 14.99542 | 119° | 71km/h | 7269m | -4.8m/s | -28.6°C | 82.4% | 403.7hPa | 2.6V | 07:53:18 | 02:58:33 | 00:00:00 | |
| MECKS9 | 2026-09-03 01:18:02 | 53.71923 | 14.99542 | 120° | 71km/h | 7269m | -4.8m/s | -28.6°C | 79.4% | 403.7hPa | 2.6V | 00:00:00 | 00:00:00 | 00:00:00 | |
| EDDB2-12 | 2026-09-03 01:17:57 | 53.71984 | 14.99356 | 118° | 71km/h | 7302m | -5.2m/s | -28.9°C | 79.6% | 401.8hPa | 2.6V | 00:00:00 | 00:00:00 | 00:00:00 | |
| DB0DAN | 2026-09-03 01:17:55 | 53.71992 | 14.99329 | 119° | 69km/h | 7308m | -5.3m/s | -28.9°C | 79.6% | 401.52hPa | 2.6V | 00:00:00 | 00:00:00 | 00:00:00 | |
| AA1-15 | 2026-09-03 01:17:53 | 53.72010 | 14.99276 | 118° | 71km/h | 7318m | -5m/s | -29°C | 82.6% | 401hPa | 2.5V | 07:54:09 | 02:58:23 | 00:00:00 | |
| AA1-15 | 2026-09-03 01:17:42 | 53.72107 | 14.98977 | 118° | 73km/h | 7372m | -5.2m/s | -29.4°C | 83.1% | 398hPa | 2.5V | 07:54:09 | 02:58:12 | 00:00:00 | |
| DB0DAN | 2026-09-03 01:17:40 | 53.72124 | 14.98922 | 118° | 69km/h | 7382m | -5.2m/s | -29.5°C | 79.4% | 397.36hPa | 2.5V | 00:00:00 | 00:00:00 | 00:00:00 | |
| AA1-15 | 2026-09-03 01:17:31 | 53.72200 | 14.98679 | 117° | 71km/h | 7428m | -5.2m/s | -29.8°C | 80.5% | 394.9hPa | 2.5V | 07:54:09 | 02:58:01 | 00:00:00 | |
| DB0DAN | 2026-09-03 01:17:25 | 53.72251 | 14.98520 | 117° | 68km/h | 7459m | -5.3m/s | -30.1°C | 76.1% | 393.18hPa | 2.5V | 00:00:00 | 00:00:00 | 00:00:00 | |
| AA1-15 | 2026-09-03 01:17:20 | 53.72292 | 14.98387 | 118° | 71km/h | 7485m | -4.9m/s | -30.3°C | 78.6% | 391.8hPa | 2.5V | 07:54:09 | 02:57:50 | 00:00:00 | |
| MECKS9 | 2026-09-03 01:17:15 | 53.72325 | 14.98281 | 120° | 71km/h | 7506m | -5.4m/s | -30.5°C | 75.4% | 390.6hPa | 2.6V | 07:54:00 | 00:00:00 | 00:00:00 | |
| SP3BTT-10 | 2026-09-03 01:17:13 | 53.72351 | 14.98202 | 119° | 69km/h | 7521m | -5.3m/s | -30.6°C | 79.6% | 389.8hPa | 2.6V | 00:00:00 | 00:00:00 | 00:00:00 | |
| DB0DAN | 2026-09-03 01:17:10 | 53.72377 | 14.98124 | 118° | 66km/h | 7536m | -5.2m/s | -30.8°C | 76.4% | 388.97hPa | 2.5V | 00:00:00 | 00:00:00 | 00:00:00 | |
| AA1-15 | 2026-09-03 01:17:10 | 53.72377 | 14.98124 | 118° | 69km/h | 7536m | -5.2m/s | -30.8°C | 80.1% | 389hPa | 2.5V | 07:54:09 | 02:57:40 | 00:00:00 | |
| AA1-15 | 2026-09-03 01:16:59 | 53.72471 | 14.97837 | 120° | 69km/h | 7593m | -5.3m/s | -31.3°C | 79.9% | 385.9hPa | 2.6V | 07:55:00 | 02:57:29 | 00:00:00 | |
| AA1-15 | 2026-09-03 01:16:49 | 53.72558 | 14.97575 | 119° | 71km/h | 7644m | -5m/s | -31.7°C | 79.4% | 383.1hPa | 2.5V | 07:55:00 | 02:57:19 | 00:00:00 | |
| AA1-15 | 2026-09-03 01:16:38 | 53.72654 | 14.97288 | 118° | 69km/h | 7699m | -5m/s | -32.2°C | 80.2% | 380.1hPa | 2.6V | 07:55:00 | 02:57:08 | 00:00:00 | |
| AA1-15 | 2026-09-03 01:16:28 | 53.72736 | 14.97029 | 117° | 69km/h | 7751m | -5.1m/s | -32.7°C | 79.4% | 377.3hPa | 2.5V | 07:55:00 | 02:56:58 | 00:00:00 | |
| DB0DAN | 2026-09-03 01:16:25 | 53.72760 | 14.96950 | 116° | 66km/h | 7766m | -5.6m/s | -32.8°C | 76% | 376.54hPa | 2.5V | 00:00:00 | 00:00:00 | 00:00:00 | |
| AA1-15 | 2026-09-03 01:16:14 | 53.72847 | 14.96662 | 116° | 68km/h | 7823m | -5.6m/s | -33.3°C | 81.5% | 373.6hPa | 2.5V | 07:55:51 | 02:56:44 | 00:00:00 | |
| DB0DAN | 2026-09-03 01:16:10 | 53.72877 | 14.96559 | 116° | 64km/h | 7844m | -5.1m/s | -33.5°C | 78.1% | 372.42hPa | 2.5V | 00:00:00 | 00:00:00 | 00:00:00 | |
| AA1-15 | 2026-09-03 01:16:03 | 53.72931 | 14.96378 | 117° | 68km/h | 7880m | -5.4m/s | -33.8°C | 81.4% | 370.5hPa | 2.5V | 07:55:51 | 02:56:33 | 00:00:00 | |
| SP3WXH-11 | 2026-09-03 01:16:02 | 53.72946 | 14.96326 | 116° | 66km/h | 7890m | -5.6m/s | -33.9°C | 76.8% | 370.0hPa | 2.5V | 00:00:00 | 00:00:00 | 00:00:00 | |
| KRY50SP | 2026-09-03 01:15:58 | 53.72961 | 14.96275 | 118° | 68km/h | 7901m | -5.1m/s | -34.0°C | 76.1% | 369.5hPa | 2.5V | 00:00:00 | 00:00:00 | 00:00:00 | |
| DB0DAN | 2026-09-03 01:15:55 | 53.72991 | 14.96174 | 117° | 62km/h | 7923m | -5.3m/s | -34.2°C | 75.8% | 368.37hPa | 2.5V | 00:00:00 | 00:00:00 | 00:00:00 | |
| AA1-15 | 2026-09-03 01:15:52 | 53.73013 | 14.96099 | 116° | 66km/h | 7939m | -5.3m/s | -34.3°C | 79.7% | 367.5hPa | 2.5V | 07:55:51 | 02:56:22 | 00:00:00 | |
| SONDE2-11 | 2026-09-03 01:15:51 | 53.73028 | 14.96049 | 116° | 66km/h | 7949m | -5.5m/s | -34.4°C | 76.0% | 366.9hPa | 2.5V | 00:00:00 | 00:00:00 | 00:00:00 | |
| AA1-15 | 2026-09-03 01:15:41 | 53.73095 | 14.95822 | 116° | 66km/h | 7996m | -5.2m/s | -34.8°C | 80.6% | 364.5hPa | 2.5V | 07:55:51 | 02:56:11 | 00:00:00 | |
| DB0DAN | 2026-09-03 01:15:40 | 53.73102 | 14.95797 | 116° | 62km/h | 8002m | -5.5m/s | -34.9°C | 76.9% | 364.23hPa | 2.5V | 00:00:00 | 00:00:00 | 00:00:00 | |
| AA1-15 | 2026-09-03 01:15:30 | 53.73175 | 14.95548 | 117° | 66km/h | 8053m | -5.3m/s | -35.3°C | 80.4% | 361.5hPa | 2.5V | 07:55:51 | 02:56:00 | 00:00:00 | |
| AA1-15 | 2026-09-03 01:15:19 | 53.73257 | 14.95275 | 117° | 66km/h | 8112m | -5.2m/s | -35.8°C | 80.6% | 358.5hPa | 2.5V | 07:56:42 | 02:55:49 | 00:00:00 | |
| KRY50SP | 2026-09-03 01:15:13 | 53.73294 | 14.95150 | 117° | 66km/h | 8138m | -5.4m/s | -36.0°C | 76.6% | 357.1hPa | 2.5V | 07:56:00 | 00:00:00 | 00:00:00 | |
| DB0DAN | 2026-09-03 01:15:10 | 53.73324 | 14.95052 | 117° | 62km/h | 8159m | -5.5m/s | -36.2°C | 76.7% | 355.98hPa | 2.5V | 00:00:00 | 00:00:00 | 00:00:00 | |
| AA1-15 | 2026-09-03 01:15:08 | 53.73339 | 14.95003 | 116° | 66km/h | 8170m | -6.4m/s | -36.3°C | 80.5% | 355.4hPa | 2.5V | 07:56:42 | 02:55:38 | 00:00:00 | |
| AA1-15 | 2026-09-03 01:14:58 | 53.73410 | 14.94749 | 115° | 68km/h | 8225m | -5.1m/s | -36.8°C | 80.8% | 352.7hPa | 2.5V | 07:56:42 | 02:55:28 | 00:00:00 | |
| DB0DAN | 2026-09-03 01:14:55 | 53.73432 | 14.94672 | 115° | 64km/h | 8241m | -5.3m/s | -36.9°C | 76.9% | 351.82hPa | 2.5V | 00:00:00 | 00:00:00 | 00:00:00 | |
| AA1-15 | 2026-09-03 01:14:48 | 53.73481 | 14.94492 | 114° | 66km/h | 8279m | -5.1m/s | -37.2°C | 78.5% | 349.9hPa | 2.5V | 07:56:42 | 02:55:18 | 00:00:00 | |
| AA1-15 | 2026-09-03 01:14:38 | 53.73552 | 14.94229 | 113° | 69km/h | 8330m | -5.2m/s | -37.7°C | 79.1% | 347.3hPa | 2.5V | 07:56:42 | 02:55:08 | 00:00:00 | |
| AA1-15 | 2026-09-03 01:14:27 | 53.73635 | 14.93929 | 116° | 71km/h | 8390m | -5.4m/s | -38.2°C | 83.9% | 344.3hPa | 2.5V | 07:57:33 | 02:54:57 | 00:00:00 | |
| AA1-15 | 2026-09-03 01:14:16 | 53.73720 | 14.93623 | 115° | 71km/h | 8450m | -5.6m/s | -38.7°C | 87.1% | 341.2hPa | 2.5V | 07:57:33 | 02:54:46 | 00:00:00 | |
| AA1-15 | 2026-09-03 01:14:06 | 53.73798 | 14.93349 | 116° | 71km/h | 8505m | -5.6m/s | -39.2°C | 83.1% | 338.5hPa | 2.5V | 07:57:33 | 02:54:36 | 00:00:00 | |
| EDDB2-11 | 2026-09-03 01:14:05 | 53.73806 | 14.93322 | 115° | 69km/h | 8511m | -5.6m/s | -39.2°C | 78.2% | 338.3hPa | 2.5V | 00:00:00 | 00:00:00 | 00:00:00 | |
| KRY50SP | 2026-09-03 01:14:01 | 53.73830 | 14.93240 | 117° | 71km/h | 8528m | -5.4m/s | -39.4°C | 0% | 337.5hPa | 2.5V | 07:57:00 | 00:00:00 | 00:00:00 | |
| SP3WXH-11 | 2026-09-03 01:13:58 | 53.73869 | 14.93102 | 115° | 71km/h | 8555m | -5.3m/s | -39.6°C | 74.5% | 336.1hPa | 2.5V | 00:00:00 | 00:00:00 | 00:00:00 | |
| DB0DAN | 2026-09-03 01:13:55 | 53.73884 | 14.93048 | 117° | 68km/h | 8565m | -5.7m/s | -39.7°C | 74.4% | 335.66hPa | 2.5V | 00:00:00 | 00:00:00 | 00:00:00 | |
| AA1-15 | 2026-09-03 01:13:55 | 53.73884 | 14.93048 | 117° | 71km/h | 8565m | -5.7m/s | -39.7°C | 78.8% | 335.7hPa | 2.5V | 07:57:33 | 02:54:25 | 00:00:00 | |
| AA1-15 | 2026-09-03 01:13:45 | 53.73964 | 14.92775 | 116° | 71km/h | 8619m | -5.3m/s | -40.2°C | 79.7% | 333hPa | 2.5V | 07:57:33 | 02:54:15 | 00:00:00 | |
| KRY50SP | 2026-09-03 01:13:45 | 53.73964 | 14.92775 | 117° | 71km/h | 8620m | -5.3m/s | -40.2°C | 0% | 333.0hPa | 2.5V | 07:57:00 | 00:00:00 | 00:00:00 | |
| MECKS9 | 2026-09-03 01:13:44 | 53.73964 | 14.92775 | 117° | 71km/h | 8620m | -5.3m/s | -40.2°C | 75.4% | 333.0hPa | 2.5V | 07:57:00 | 00:00:00 | 00:00:00 | |
| DB0DAN | 2026-09-03 01:13:40 | 53.74003 | 14.92638 | 116° | 68km/h | 8646m | -5.5m/s | -40.5°C | 74.9% | 331.64hPa | 2.5V | 00:00:00 | 00:00:00 | 00:00:00 | |
| AA1-15 | 2026-09-03 01:13:35 | 53.74042 | 14.92501 | 115° | 71km/h | 8674m | -5.5m/s | -40.7°C | 79% | 330.3hPa | 2.5V | 07:58:24 | 02:54:05 | 00:00:00 | |
| EDDB2-11 | 2026-09-03 01:13:34 | 53.74050 | 14.92474 | 115° | 69km/h | 8679m | -5.8m/s | -40.7°C | 74.0% | 330.1hPa | 2.5V | 00:00:00 | 00:00:00 | 00:00:00 | |
| MECKS9 | 2026-09-03 01:13:33 | 53.74050 | 14.92474 | 117° | 71km/h | 8679m | -5.8m/s | -40.7°C | 74.1% | 330.1hPa | 2.5V | 00:00:00 | 00:00:00 | 00:00:00 | |
| DB0DAN | 2026-09-03 01:13:25 | 53.74119 | 14.92227 | 115° | 68km/h | 8730m | -5.7m/s | -41.2°C | 75% | 327.58hPa | 2.5V | 00:00:00 | 00:00:00 | 00:00:00 | |
| AA1-15 | 2026-09-03 01:13:25 | 53.74119 | 14.92227 | 115° | 71km/h | 8730m | -5.7m/s | -41.2°C | 80% | 327.6hPa | 2.5V | 07:58:24 | 02:53:55 | 00:00:00 | |
| AA1-15 | 2026-09-03 01:13:14 | 53.74205 | 14.91926 | 116° | 71km/h | 8792m | -5.7m/s | -41.8°C | 82.1% | 324.6hPa | 2.5V | 07:58:24 | 02:53:44 | 00:00:00 | |
| AA1-15 | 2026-09-03 01:13:04 | 53.74285 | 14.91653 | 118° | 73km/h | 8848m | -5.7m/s | -42.4°C | 80.4% | 322hPa | 2.5V | 07:58:24 | 02:53:34 | 00:00:00 | |
| EDDB2-11 | 2026-09-03 01:13:03 | 53.74293 | 14.91625 | 116° | 71km/h | 8853m | -5.8m/s | -42.4°C | 74.8% | 321.7hPa | 2.5V | 00:00:00 | 00:00:00 | 00:00:00 | |
| SP3WXH-11 | 2026-09-03 01:12:56 | 53.74362 | 14.91409 | 118° | 73km/h | 8897m | -5.5m/s | -42.8°C | 66.9% | 319.6hPa | 2.5V | 00:00:00 | 00:00:00 | 00:00:00 | |
| DB0DAN | 2026-09-03 01:12:55 | 53.74362 | 14.91409 | 118° | 69km/h | 8897m | -5.5m/s | -42.8°C | 66.9% | 319.56hPa | 2.5V | 00:00:00 | 00:00:00 | 00:00:00 | |
| AA1-15 | 2026-09-03 01:12:54 | 53.74371 | 14.91381 | 119° | 73km/h | 8903m | -5.8m/s | -42.9°C | 70.4% | 319.3hPa | 2.5V | 07:58:24 | 02:53:24 | 00:00:00 | |
| EDDB2-12 | 2026-09-03 01:12:46 | 53.74444 | 14.91161 | 120° | 73km/h | 8950m | -5.6m/s | 0°C | -1.0% | 317.2hPa | 2.5V | 00:00:00 | 00:00:00 | 00:00:00 | |
| SONDE2-11 | 2026-09-03 01:12:44 | 53.74464 | 14.91107 | 121° | 73km/h | 8961m | -5.9m/s | -43.3°C | 55.5% | 316.6hPa | 2.5V | 00:00:00 | 00:00:00 | 00:00:00 | |
| AA1-15 | 2026-09-03 01:12:43 | 53.74473 | 14.91079 | 121° | 75km/h | 8967m | -5.5m/s | -43.3°C | 60.3% | 316.4hPa | 2.5V | 07:59:15 | 02:53:13 | 00:00:00 | |
| AA1-15 | 2026-09-03 01:12:33 | 53.74575 | 14.90802 | 122° | 78km/h | 9022m | -5.6m/s | -43.7°C | 54.2% | 313.8hPa | 2.5V | 07:59:15 | 02:53:03 | 00:00:00 | |
| AA1-15 | 2026-09-03 01:12:22 | 53.74691 | 14.90490 | 122° | 80km/h | 9082m | -5.8m/s | -44.2°C | 50% | 311hPa | 2.5V | 07:59:15 | 02:52:52 | 00:00:00 | |
| AA1-15 | 2026-09-03 01:12:12 | 53.74797 | 14.90202 | 121° | 80km/h | 9139m | -6.2m/s | -44.6°C | 51.2% | 308.3hPa | 2.5V | 07:59:15 | 02:52:42 | 00:00:00 | |
| DB0DAN | 2026-09-03 01:12:10 | 53.74817 | 14.90144 | 121° | 77km/h | 9152m | -6m/s | -44.7°C | 45.3% | 307.82hPa | 2.5V | 00:00:00 | 00:00:00 | 00:00:00 | |
| AA1-15 | 2026-09-03 01:12:01 | 53.74911 | 14.89880 | 120° | 80km/h | 9204m | -5.6m/s | -45.2°C | 53.3% | 305.4hPa | 2.5V | 08:00:06 | 02:52:31 | 00:00:00 | |
| AA1-15 | 2026-09-03 01:11:50 | 53.75022 | 14.89551 | 119° | 84km/h | 9267m | -5.6m/s | -45.7°C | 54.6% | 302.6hPa | 2.5V | 08:00:06 | 02:52:20 | 00:00:00 | |
| AM1SDL-15 | 2026-09-03 01:11:47 | 53.75054 | 14.89458 | 121° | 84km/h | 9285m | -5.7m/s | -45.8°C | 52.7% | 301.7hPa | 2.5V | 00:00:00 | 02:52:17 | 00:00:00 | |
| SONDE2-11 | 2026-09-03 01:11:42 | 53.75109 | 14.89303 | 120° | 84km/h | 9313m | -6.3m/s | -46.1°C | 47.0% | 300.5hPa | 2.5V | 00:00:00 | 00:00:00 | 00:00:00 | |
| DB0DAN | 2026-09-03 01:11:40 | 53.75131 | 14.89241 | 121° | 82km/h | 9326m | -6m/s | -46.2°C | 46.1% | 299.91hPa | 2.5V | 00:00:00 | 00:00:00 | 00:00:00 | |
| AA1-15 | 2026-09-03 01:11:39 | 53.75143 | 14.89210 | 122° | 86km/h | 9332m | -6.1m/s | -46.3°C | 52.3% | 299.7hPa | 2.5V | 08:00:06 | 02:52:09 | 00:00:00 | |
| AA1-15 | 2026-09-03 01:11:29 | 53.75258 | 14.88897 | 123° | 88km/h | 9392m | -5.9m/s | -46.6°C | 50.9% | 297hPa | 2.5V | 08:00:06 | 02:51:59 | 00:00:00 | |
| DB0DAN | 2026-09-03 01:11:25 | 53.75308 | 14.88770 | 124° | 84km/h | 9416m | -5.9m/s | -46.9°C | 43.9% | 295.96hPa | 2.5V | 00:00:00 | 00:00:00 | 00:00:00 | |
| AA1-15 | 2026-09-03 01:11:18 | 53.75396 | 14.88549 | 125° | 91km/h | 9457m | -5.9m/s | -47.1°C | 48.4% | 294.1hPa | 2.5V | 08:00:06 | 02:51:48 | 00:00:00 | |
| DB0DAN | 2026-09-03 01:11:10 | 53.75506 | 14.88292 | 126° | 89km/h | 9505m | -5.9m/s | -47.5°C | 41.1% | 292.01hPa | 2.5V | 00:00:00 | 00:00:00 | 00:00:00 | |
| AA1-15 | 2026-09-03 01:11:08 | 53.75533 | 14.88228 | 126° | 93km/h | 9518m | -5.9m/s | -47.6°C | 48% | 291.5hPa | 2.5V | 08:00:57 | 02:51:38 | 00:00:00 | |
| AA1-15 | 2026-09-03 01:10:57 | 53.75685 | 14.87878 | 127° | 91km/h | 9582m | -6.3m/s | -48.1°C | 47.4% | 288.6hPa | 2.5V | 08:00:57 | 02:51:27 | 00:00:00 | |
| DB0DAN | 2026-09-03 01:10:55 | 53.75713 | 14.87815 | 127° | 86km/h | 9595m | -5.6m/s | -48.2°C | 40.1% | 288.11hPa | 2.5V | 00:00:00 | 00:00:00 | 00:00:00 | |
| AA1-15 | 2026-09-03 01:10:47 | 53.75822 | 14.87568 | 127° | 89km/h | 9642m | -6.1m/s | -48.6°C | 46.9% | 286hPa | 2.6V | 08:00:57 | 02:51:17 | 00:00:00 | |
| AA1-15 | 2026-09-03 01:10:37 | 53.75973 | 14.87235 | 127° | 88km/h | 9709m | -6.2m/s | -49.1°C | 45.4% | 283.1hPa | 2.5V | 08:00:57 | 02:51:06 | 00:00:00 | |
| AM1SDL-15 | 2026-09-03 01:10:35 | 53.75986 | 14.87205 | 128° | 89km/h | 9716m | -6.1m/s | -49.1°C | 43.0% | 282.7hPa | 2.5V | 00:00:00 | 02:51:05 | 00:00:00 | |
| MECKS9 | 2026-09-03 01:10:29 | 53.76054 | 14.87056 | 129° | 89km/h | 9745m | -6.0m/s | -49.4°C | 36.9% | 281.5hPa | 2.5V | 08:00:00 | 00:00:00 | 00:00:00 | |
| EDDB2-11 | 2026-09-03 01:10:28 | 53.76095 | 14.86966 | 127° | 88km/h | 9763m | -6.1m/s | -49.6°C | 36.0% | 280.7hPa | 2.5V | 00:00:00 | 00:00:00 | 00:00:00 | |
| DB0DAN | 2026-09-03 01:10:25 | 53.76123 | 14.86906 | 127° | 86km/h | 9775m | -6m/s | -49.7°C | 35.3% | 280.22hPa | 2.5V | 00:00:00 | 00:00:00 | 00:00:00 | |
| AA1-15 | 2026-09-03 01:10:25 | 53.76123 | 14.86906 | 127° | 89km/h | 9775m | -6m/s | -49.7°C | 42.2% | 280.2hPa | 2.5V | 08:00:57 | 02:50:55 | 00:00:00 | |
| AA1-15 | 2026-09-03 01:10:14 | 53.76278 | 14.86569 | 129° | 91km/h | 9842m | -6.2m/s | -50°C | 38.8% | 277.3hPa | 2.5V | 08:01:48 | 02:50:44 | 00:00:00 | |
| DB0DAN | 2026-09-03 01:10:10 | 53.76336 | 14.86447 | 129° | 86km/h | 9867m | -6.2m/s | -50.1°C | 31.4% | 276.26hPa | 2.5V | 00:00:00 | 00:00:00 | 00:00:00 | |
| AA1-15 | 2026-09-03 01:10:04 | 53.76424 | 14.86266 | 130° | 93km/h | 9904m | -6m/s | -50.5°C | 37.4% | 274.7hPa | 2.5V | 08:01:48 | 02:50:34 | 00:00:00 | |
| AA1-15 | 2026-09-03 01:09:53 | 53.76592 | 14.85931 | 131° | 93km/h | 9971m | -6.1m/s | -51°C | 34% | 271.9hPa | 2.5V | 08:01:48 | 02:50:23 | 00:00:00 | |
| SP3WXH-11 | 2026-09-03 01:09:50 | 53.76654 | 14.85811 | 130° | 93km/h | 9995m | -6.1m/s | -51.0°C | 26.4% | 270.9hPa | 2.5V | 00:00:00 | 00:00:00 | 00:00:00 | |
| AA1-15 | 2026-09-03 01:09:42 | 53.76760 | 14.85599 | 130° | 91km/h | 10038m | -6.2m/s | -50.9°C | 30.1% | 269.1hPa | 2.5V | 08:01:48 | 02:50:12 | 00:00:00 | |
| AA1-15 | 2026-09-03 01:09:31 | 53.76924 | 14.85270 | 128° | 93km/h | 10107m | -5.8m/s | -51.1°C | 29.8% | 266.3hPa | 2.5V | 08:01:48 | 02:50:01 | 00:00:00 | |
| AA1-15 | 2026-09-03 01:09:20 | 53.77081 | 14.84913 | 125° | 97km/h | 10174m | -6.3m/s | -51.3°C | 30.3% | 263.6hPa | 2.5V | 08:02:39 | 02:49:50 | 00:00:00 | |
| AA1-15 | 2026-09-03 01:09:09 | 53.77235 | 14.84529 | 124° | 100km/h | 10243m | -6.2m/s | -51.4°C | 32% | 260.8hPa | 2.5V | 08:02:39 | 02:49:39 | 00:00:00 | |
| AA1-15 | 2026-09-03 01:08:59 | 53.77381 | 14.84161 | 124° | 104km/h | 10305m | -6.4m/s | -51.9°C | 33.9% | 258.3hPa | 2.5V | 08:02:39 | 02:49:29 | 00:00:00 | |
| AA1-15 | 2026-09-03 01:08:48 | 53.77542 | 14.83759 | 123° | 104km/h | 10375m | -6.2m/s | -52.4°C | 33.9% | 255.6hPa | 2.5V | 08:02:39 | 02:49:18 | 00:00:00 | |
| SP3WXH-11 | 2026-09-03 01:08:47 | 53.77557 | 14.83722 | 123° | 102km/h | 10381m | -6.3m/s | -52.4°C | 27.3% | 255.3hPa | 2.5V | 00:00:00 | 00:00:00 | 00:00:00 | |
| AA1-15 | 2026-09-03 01:08:38 | 53.77683 | 14.83395 | 123° | 102km/h | 10438m | -6.2m/s | -52.6°C | 33% | 253.1hPa | 2.5V | 08:03:30 | 02:49:08 | 00:00:00 | |
| AA1-15 | 2026-09-03 01:08:27 | 53.77839 | 14.82997 | 124° | 100km/h | 10508m | -6.4m/s | -52.8°C | 32.7% | 250.4hPa | 2.5V | 08:03:30 | 02:48:57 | 00:00:00 | |
| AA1-15 | 2026-09-03 01:08:16 | 53.77994 | 14.82601 | 124° | 102km/h | 10577m | -6.2m/s | -53.3°C | 32.3% | 247.7hPa | 2.5V | 08:03:30 | 02:48:46 | 00:00:00 | |
| AA1-15 | 2026-09-03 01:08:05 | 53.78156 | 14.82205 | 126° | 102km/h | 10647m | -6.1m/s | -53.5°C | 31.6% | 244.9hPa | 2.5V | 08:03:30 | 02:48:35 | 00:00:00 | |
| AA1-15 | 2026-09-03 01:07:54 | 53.78325 | 14.81809 | 126° | 106km/h | 10719m | -6.7m/s | -53.8°C | 32.1% | 242.3hPa | 2.5V | 08:03:30 | 02:48:24 | 00:00:00 | |
| AA1-15 | 2026-09-03 01:07:44 | 53.78487 | 14.81446 | 127° | 110km/h | 10784m | -6.3m/s | -54°C | 32.5% | 239.9hPa | 2.5V | 08:04:21 | 02:48:14 | 00:00:00 | |
| AA1-15 | 2026-09-03 01:07:34 | 53.78653 | 14.81067 | 126° | 113km/h | 10850m | -6.5m/s | -54.3°C | 32.3% | 237.4hPa | 2.5V | 08:04:21 | 02:48:04 | 00:00:00 | |
| AA1-15 | 2026-09-03 01:07:23 | 53.78840 | 14.80639 | 127° | 113km/h | 10924m | -6.5m/s | -54.6°C | 31.6% | 234.7hPa | 2.5V | 08:04:21 | 02:47:53 | 00:00:00 | |
| AA1-15 | 2026-09-03 01:07:12 | 53.79031 | 14.80211 | 128° | 113km/h | 10997m | -6.8m/s | -55°C | 29.9% | 232.1hPa | 2.5V | 08:04:21 | 02:47:42 | 00:00:00 | |
| AA1-15 | 2026-09-03 01:07:02 | 53.79208 | 14.79839 | 128° | 111km/h | 11063m | -6.8m/s | -55.1°C | 28.1% | 229.7hPa | 2.6V | 08:04:21 | 02:47:32 | 00:00:00 | |
| AA1-15 | 2026-09-03 01:06:52 | 53.79377 | 14.79457 | 127° | 113km/h | 11129m | -6.6m/s | -55.4°C | 26% | 227.3hPa | 2.5V | 08:05:12 | 02:47:22 | 00:00:00 | |
| EDDB2-11 | 2026-09-03 01:06:51 | 53.79411 | 14.79379 | 126° | 113km/h | 11142m | -6.9m/s | -55.4°C | 20.4% | 226.8hPa | 2.5V | 00:00:00 | 00:00:00 | 00:00:00 | |
| AA1-15 | 2026-09-03 01:06:42 | 53.79551 | 14.79068 | 129° | 115km/h | 11195m | -6.9m/s | -55.3°C | 23.1% | 224.9hPa | 2.5V | 08:05:12 | 02:47:12 | 00:00:00 | |
| AA1-15 | 2026-09-03 01:06:31 | 53.79766 | 14.78647 | 132° | 117km/h | 11272m | -6.8m/s | -55.4°C | 20.1% | 222.2hPa | 2.5V | 08:05:12 | 02:47:01 | 00:00:00 | |
| AA1-15 | 2026-09-03 01:06:20 | 53.79972 | 14.78239 | 129° | 111km/h | 11347m | -6.9m/s | -55°C | 17.1% | 219.7hPa | 2.5V | 08:05:12 | 02:46:50 | 00:00:00 | |
| AA1-15 | 2026-09-03 01:06:09 | 53.80150 | 14.77833 | 124° | 106km/h | 11423m | -6.9m/s | -54.7°C | 15% | 217.1hPa | 2.6V | 08:05:12 | 02:46:39 | 00:00:00 | |
| AA1-15 | 2026-09-03 01:05:59 | 53.80303 | 14.77448 | 124° | 108km/h | 11492m | -7.1m/s | -54.5°C | 12.8% | 214.7hPa | 2.5V | 08:06:03 | 02:46:29 | 00:00:00 | |
| AA1-15 | 2026-09-03 01:05:48 | 53.80465 | 14.77020 | 123° | 110km/h | 11570m | -7m/s | -53.9°C | 10.4% | 212.1hPa | 2.5V | 08:06:03 | 02:46:18 | 00:00:00 | |
| AA1-15 | 2026-09-03 01:05:37 | 53.80633 | 14.76599 | 125° | 110km/h | 11647m | -7.2m/s | -53.4°C | 8.2% | 209.6hPa | 2.5V | 08:06:03 | 02:46:07 | 00:00:00 | |
| AA1-15 | 2026-09-03 01:05:27 | 53.80793 | 14.76224 | 126° | 108km/h | 11720m | -7.3m/s | -53.2°C | 6.7% | 207.2hPa | 2.5V | 08:06:03 | 02:45:57 | 00:00:00 | |
| DL1XH-west | 2026-09-03 01:05:25 | 53.80825 | 14.76150 | 126° | 106km/h | 11734m | -7.1m/s | -53.2°C | 6.4% | 206.7hPa | 2.5V | 08:06:54 | 02:45:55 | 00:00:00 | |
| AA1-15 | 2026-09-03 01:05:17 | 53.80953 | 14.75875 | 131° | 99km/h | 11791m | -7.1m/s | -53°C | 4.9% | 204.9hPa | 2.6V | 08:06:03 | 02:45:47 | 00:00:00 | |
| AA1-15 | 2026-09-03 01:05:07 | 53.81103 | 14.75571 | 129° | 86km/h | 11865m | -7.4m/s | -52.4°C | 2.9% | 202.6hPa | 2.5V | 08:06:54 | 02:45:37 | 00:00:00 | |
| DL1XH-west | 2026-09-03 01:04:59 | 53.81211 | 14.75356 | 129° | 82km/h | 11922m | -7.4m/s | -51.8°C | 1.5% | 200.8hPa | 2.5V | 08:06:54 | 02:45:29 | 00:00:00 | |
| AA1-15 | 2026-09-03 01:04:56 | 53.81249 | 14.75275 | 129° | 80km/h | 11945m | -7.2m/s | -51.6°C | 1.2% | 200.1hPa | 2.5V | 08:06:54 | 02:45:26 | 00:00:00 | |
| SP3BTT-10 | 2026-09-03 01:04:53 | 53.81285 | 14.75197 | 128° | 78km/h | 11966m | -7.3m/s | -51.0°C | 3.9% | 199.4hPa | 2.6V | 00:00:00 | 00:00:00 | 00:00:00 | |
| DL1XH1-15 | 2026-09-03 01:04:48 | 53.81396 | 14.74933 | 124° | 77km/h | 12040m | -7.1m/s | -51°C | 3.7% | 197.2hPa | 2.5V | 08:06:35 | 02:45:13 | 00:00:00 | |
| DL1XH-west | 2026-09-03 01:04:48 | 53.81342 | 14.75068 | 125° | 75km/h | 12003m | -7.3m/s | -50.9°C | 0.7% | 198.3hPa | 2.5V | 08:06:54 | 02:45:18 | 00:00:00 | |
| AA1-15 | 2026-09-03 01:04:46 | 53.81364 | 14.75014 | 124° | 77km/h | 12018m | -7.4m/s | -51°C | 0.7% | 197.9hPa | 2.6V | 08:06:54 | 02:45:16 | 00:00:00 | |
| DL1XH-west | 2026-09-03 01:04:37 | 53.81460 | 14.74770 | 122° | 77km/h | 12084m | -7.3m/s | -50.9°C | 0.5% | 195.9hPa | 2.6V | 08:06:54 | 02:45:07 | 00:00:00 | |
| AA1-15 | 2026-09-03 01:04:36 | 53.81471 | 14.74742 | 122° | 77km/h | 12091m | -7.3m/s | -50.9°C | 0.5% | 195.7hPa | 2.5V | 08:06:54 | 02:45:06 | 00:00:00 | |
| DL1XH-west | 2026-09-03 01:04:26 | 53.81575 | 14.74443 | 120° | 86km/h | 12166m | -7.1m/s | -50.8°C | 0.4% | 193.5hPa | 2.5V | 08:06:54 | 02:44:56 | 00:00:00 | |
| AA1-15 | 2026-09-03 01:04:25 | 53.81586 | 14.74412 | 121° | 84km/h | 12173m | -7.2m/s | -50.7°C | 0.5% | 193.2hPa | 2.5V | 08:06:54 | 02:44:55 | 00:00:00 | |
| DL1XH-west | 2026-09-03 01:04:16 | 53.81683 | 14.74146 | 122° | 82km/h | 12238m | -7.4m/s | -50.4°C | 0.4% | 191.4hPa | 2.5V | 08:07:45 | 02:44:46 | 00:00:00 | |
| AA1-15 | 2026-09-03 01:04:14 | 53.81706 | 14.74086 | 122° | 84km/h | 12253m | -7.6m/s | -50.1°C | 0.2% | 190.9hPa | 2.6V | 08:07:45 | 02:44:44 | 00:00:00 | |
| SP3WXH-11 | 2026-09-03 01:04:08 | 53.81774 | 14.73906 | 122° | 82km/h | 12298m | -7.4m/s | -49.6°C | 1.2% | 189.6hPa | 2.5V | 00:00:00 | 00:00:00 | 00:00:00 | |
| DL1XH1-15 | 2026-09-03 01:04:07 | 53.81844 | 14.73722 | 123° | 89km/h | 12343m | -7.7m/s | -49.3°C | 3.3% | 188.3hPa | 2.5V | 08:07:16 | 02:44:32 | 00:00:00 | |
| DL1XH-west | 2026-09-03 01:04:06 | 53.81797 | 14.73846 | 123° | 84km/h | 12313m | -7.5m/s | -49.4°C | 0.2% | 189.2hPa | 2.5V | 08:07:45 | 02:44:36 | 00:00:00 | |
| AA1-15 | 2026-09-03 01:04:04 | 53.81820 | 14.73785 | 123° | 86km/h | 12328m | -7.3m/s | -49.4°C | 0.2% | 188.7hPa | 2.5V | 08:07:45 | 02:44:34 | 00:00:00 | |
| DL1XH-west | 2026-09-03 01:03:56 | 53.81921 | 14.73531 | 123° | 89km/h | 12387m | -7.8m/s | -49.3°C | 0.2% | 187hPa | 2.6V | 08:07:45 | 02:44:26 | 00:00:00 | |
| DL1XH1-15 | 2026-09-03 01:03:55 | 53.81969 | 14.73405 | 123° | 86km/h | 12418m | -7.5m/s | -49.4°C | 3.4% | 186.2hPa | 2.5V | 08:07:26 | 02:44:22 | 00:00:00 | |
| AA1-15 | 2026-09-03 01:03:54 | 53.81945 | 14.73468 | 123° | 88km/h | 12403m | -7.7m/s | -49.4°C | 0.3% | 186.6hPa | 2.5V | 08:07:45 | 02:44:24 | 00:00:00 | |
| DL1XH-west | 2026-09-03 01:03:45 | 53.82050 | 14.73198 | 124° | 80km/h | 12469m | -7.4m/s | -48.7°C | 0.2% | 184.7hPa | 2.5V | 08:07:45 | 02:44:15 | 00:00:00 | |
| AA1-15 | 2026-09-03 01:03:44 | 53.82061 | 14.73170 | 123° | 78km/h | 12476m | -7.3m/s | -48.7°C | 0.2% | 184.5hPa | 2.5V | 08:07:45 | 02:44:14 | 00:00:00 | |
| DL1XH1-15 | 2026-09-03 01:03:42 | 53.82082 | 14.73114 | 122° | 77km/h | 12491m | -7.5m/s | -48.8°C | 3.2% | 184.1hPa | 2.5V | 08:07:36 | 02:44:12 | 00:00:00 | |
| SP3BTT-10 | 2026-09-03 01:03:38 | 53.82123 | 14.73004 | 123° | 78km/h | 12522m | -7.4m/s | -48.7°C | 3.2% | 183.2hPa | 2.6V | 00:00:00 | 00:00:00 | 00:00:00 | |
| SP3WXH-11 | 2026-09-03 01:03:37 | 53.82145 | 14.72949 | 123° | 75km/h | 12537m | -7.4m/s | -48.8°C | 1.3% | 182.9hPa | 2.6V | 00:00:00 | 00:00:00 | 00:00:00 | |
| DL1XH1-15 | 2026-09-03 01:03:36 | 53.82188 | 14.72839 | 122° | 78km/h | 12568m | -7.6m/s | -48.8°C | 3.2% | 182hPa | 2.6V | 08:07:46 | 02:44:02 | 00:00:00 | |
| DL1XH-west | 2026-09-03 01:03:35 | 53.82155 | 14.72922 | 124° | 77km/h | 12545m | -7.7m/s | -48.8°C | 0.3% | 182.6hPa | 2.5V | 08:07:45 | 02:44:05 | 00:00:00 | |
| AA1-15 | 2026-09-03 01:03:34 | 53.82166 | 14.72894 | 123° | 77km/h | 12553m | -7.3m/s | -48.8°C | 0.3% | 182.4hPa | 2.5V | 08:07:45 | 02:44:04 | 00:00:00 | |
| DL1XH1-15 | 2026-09-03 01:03:25 | 53.82301 | 14.72549 | 124° | 86km/h | 12641m | -7.6m/s | -48.9°C | 3.2% | 180hPa | 2.5V | 08:07:56 | 02:43:52 | 00:00:00 | |
| DL1XH-west | 2026-09-03 01:03:25 | 53.82276 | 14.72609 | 124° | 84km/h | 12627m | -7.1m/s | -48.8°C | 0.3% | 180.4hPa | 2.5V | 08:08:36 | 02:43:54 | 00:00:00 | |
| AA1-15 | 2026-09-03 01:03:23 | 53.82289 | 14.72579 | 125° | 86km/h | 12634m | -6.9m/s | -48.9°C | 0.3% | 180.2hPa | 2.5V | 08:08:36 | 02:43:53 | 00:00:00 | |
| DL1XH-west | 2026-09-03 01:03:14 | 53.82402 | 14.72303 | 124° | 86km/h | 12703m | -7.7m/s | -49.3°C | 0.3% | 178.3hPa | 2.6V | 08:08:36 | 02:43:44 | 00:00:00 | |
| AA1-15 | 2026-09-03 01:03:13 | 53.82414 | 14.72272 | 123° | 86km/h | 12710m | -7.5m/s | -49.3°C | 0.4% | 178.1hPa | 2.5V | 08:08:36 | 02:43:43 | 00:00:00 | |
| DL1XH-west | 2026-09-03 01:03:03 | 53.82523 | 14.71968 | 120° | 80km/h | 12786m | -7.4m/s | -49.3°C | 0.4% | 176.1hPa | 2.5V | 08:08:36 | 02:43:33 | 00:00:00 | |
| DL1XH1-15 | 2026-09-03 01:03:00 | 53.82584 | 14.71791 | 120° | 80km/h | 12831m | -7.7m/s | -49.4°C | 3.4% | 174.8hPa | 2.6V | 08:08:21 | 02:43:27 | 00:00:00 | |
| DL1XH-west | 2026-09-03 01:02:52 | 53.82637 | 14.71647 | 123° | 78km/h | 12870m | -7.8m/s | -49.4°C | 0.5% | 173.8hPa | 2.5V | 08:08:36 | 02:43:22 | 00:00:00 | |
| DL1XH1-15 | 2026-09-03 01:02:48 | 53.82691 | 14.71505 | 123° | 80km/h | 12909m | -7.8m/s | -49.5°C | 3.4% | 172.8hPa | 2.5V | 08:08:31 | 02:43:17 | 00:00:00 | |
| DL1XH-west | 2026-09-03 01:02:42 | 53.82747 | 14.71360 | 124° | 82km/h | 12946m | -7.9m/s | -49.5°C | 0.5% | 171.9hPa | 2.5V | 08:08:36 | 02:43:12 | 00:00:00 | |
| MECKS9 | 2026-09-03 01:02:34 | 53.82826 | 14.71162 | 124° | 78km/h | 13001m | -7.6m/s | -49.6°C | 1.3% | 170.4hPa | 2.5V | 08:09:00 | 00:00:00 | 00:00:00 | |
| DM0DOS-11 | 2026-09-03 01:02:33 | 53.82897 | 14.70959 | 119° | 78km/h | 13055m | -7.9m/s | 0°C | 0% | 0hPa | 2.5V | 08:08:50 | 02:42:58 | 00:00:00 | |
| DL1XH-west | 2026-09-03 01:02:32 | 53.82857 | 14.71077 | 121° | 78km/h | 13024m | -7.8m/s | -49.7°C | 0.4% | 169.8hPa | 2.6V | 08:09:27 | 02:43:02 | 00:00:00 | |
| SONDE2-11 | 2026-09-03 01:02:23 | 53.82944 | 14.70810 | 117° | 77km/h | 13094m | -7.8m/s | -49.8°C | 1.4% | 168.0hPa | 2.5V | 00:00:00 | 00:00:00 | 00:00:00 | |
| DM0DOS-11 | 2026-09-03 01:02:21 | 53.82988 | 14.70660 | 114° | 78km/h | 13134m | -7.6m/s | 0°C | 0% | 0hPa | 2.5V | 08:09:00 | 02:42:48 | 00:00:00 | |
| DL1XH-west | 2026-09-03 01:02:21 | 53.82962 | 14.70751 | 117° | 78km/h | 13109m | -7.9m/s | -49.8°C | 0.5% | 167.6hPa | 2.6V | 08:09:27 | 02:42:51 | 00:00:00 | |
| DL1XH-west | 2026-09-03 01:02:11 | 53.83045 | 14.70453 | 116° | 73km/h | 13188m | -8.3m/s | -50.1°C | 0.4% | 165.6hPa | 2.5V | 08:09:27 | 02:42:41 | 00:00:00 | |
| DL1XH1-15 | 2026-09-03 01:02:06 | 53.83085 | 14.70319 | 117° | 69km/h | 13230m | -7.7m/s | -50.2°C | 3.5% | 164.6hPa | 2.5V | 08:09:12 | 02:42:36 | 00:00:00 | |
| DM0DOS-11 | 2026-09-03 01:02:04 | 53.83131 | 14.70163 | 114° | 68km/h | 13276m | -8m/s | 0°C | 0% | 0hPa | 2.5V | 08:09:18 | 02:42:30 | 00:00:00 | |
| AA1-15 | 2026-09-03 01:02:01 | 53.83124 | 14.70189 | 115° | 68km/h | 13268m | -7.8m/s | -50.3°C | 0.4% | 163.6hPa | 2.5V | 08:09:27 | 02:42:31 | 00:00:00 | |
| DL1XH-west | 2026-09-03 01:02:00 | 53.83131 | 14.70163 | 115° | 68km/h | 13276m | -8m/s | -50.4°C | 0.4% | 163.4hPa | 2.5V | 08:09:27 | 02:42:30 | 00:00:00 | |
| SONDE2-11 | 2026-09-03 01:01:52 | 53.83183 | 14.69954 | 111° | 66km/h | 13340m | -8.1m/s | -50.3°C | 1.3% | 161.9hPa | 2.6V | 00:00:00 | 00:00:00 | 00:00:00 | |
| DM0DOS-11 | 2026-09-03 01:01:51 | 53.83201 | 14.69871 | 110° | 71km/h | 13364m | -7.6m/s | 0°C | 0% | 0hPa | 2.6V | 08:09:29 | 02:42:19 | 00:00:00 | |
| AA1-15 | 2026-09-03 01:01:51 | 53.83189 | 14.69926 | 110° | 69km/h | 13348m | -8.1m/s | -50.3°C | 0.4% | 161.7hPa | 2.5V | 08:09:27 | 02:42:21 | 00:00:00 | |
| DL1XH-west | 2026-09-03 01:01:49 | 53.83201 | 14.69871 | 110° | 71km/h | 13364m | -7.6m/s | -50.4°C | 0.4% | 161.2hPa | 2.6V | 08:10:18 | 02:42:19 | 00:00:00 | |
| DL1XH1-15 | 2026-09-03 01:01:48 | 53.83219 | 14.69786 | 110° | 71km/h | 13387m | -7.8m/s | -50.4°C | 3.5% | 160.7hPa | 2.5V | 08:09:32 | 02:42:16 | 00:00:00 | |
| AA1-15 | 2026-09-03 01:01:40 | 53.83257 | 14.69612 | 110° | 75km/h | 13435m | -8.2m/s | -49.9°C | 0.3% | 159.5hPa | 2.5V | 08:10:18 | 02:42:10 | 00:00:00 | |
| DL1XH-west | 2026-09-03 01:01:39 | 53.83264 | 14.69582 | 109° | 75km/h | 13443m | -8m/s | -49.9°C | 0.3% | 159.3hPa | 2.6V | 08:10:18 | 02:42:09 | 00:00:00 | |
| DL1XH1-15 | 2026-09-03 01:01:36 | 53.83282 | 14.69490 | 109° | 77km/h | 13467m | -8.3m/s | -50°C | 3.4% | 158.7hPa | 2.5V | 08:09:42 | 02:42:06 | 00:00:00 | |
| MECKS9 | 2026-09-03 01:01:34 | 53.83289 | 14.69459 | 110° | 77km/h | 13476m | -8.1m/s | -50.0°C | 1.3% | 158.5hPa | 2.6V | 00:00:00 | 00:00:00 | 00:00:00 | |
| SP3WXH-11 | 2026-09-03 01:01:33 | 53.83309 | 14.69367 | 111° | 77km/h | 13501m | -7.8m/s | -50.0°C | 1.2% | 157.9hPa | 2.6V | 00:00:00 | 00:00:00 | 00:00:00 | |
| DL1XH1-15 | 2026-09-03 01:01:30 | 53.83351 | 14.69182 | 109° | 80km/h | 13550m | -8m/s | -49.8°C | 3.3% | 156.8hPa | 2.6V | 08:09:52 | 02:41:56 | 00:00:00 | |
| AA1-15 | 2026-09-03 01:01:29 | 53.83330 | 14.69275 | 111° | 77km/h | 13526m | -8m/s | -49.9°C | 0.3% | 157.3hPa | 2.5V | 08:10:18 | 02:41:59 | 00:00:00 | |
| DL1XH-west | 2026-09-03 01:01:28 | 53.83337 | 14.69244 | 111° | 77km/h | 13534m | -7.9m/s | -49.9°C | 0.3% | 157.1hPa | 2.5V | 08:10:18 | 02:41:58 | 00:00:00 | |
| SONDE2-11 | 2026-09-03 01:01:21 | 53.83390 | 14.68989 | 109° | 78km/h | 13596m | -8.4m/s | -49.9°C | 1.2% | 155.6hPa | 2.5V | 00:00:00 | 00:00:00 | 00:00:00 | |
| DL1XH1-15 | 2026-09-03 01:01:18 | 53.83419 | 14.68861 | 111° | 80km/h | 13627m | -8.4m/s | -49.9°C | 3.4% | 154.8hPa | 2.5V | 08:10:02 | 02:41:46 | 00:00:00 | |
| AA1-15 | 2026-09-03 01:01:18 | 53.83404 | 14.68925 | 111° | 78km/h | 13612m | -8.1m/s | -49.9°C | 0.3% | 155.2hPa | 2.5V | 08:10:18 | 02:41:48 | 00:00:00 | |
| DL1XH-west | 2026-09-03 01:01:17 | 53.83412 | 14.68893 | 111° | 80km/h | 13620m | -8.1m/s | -49.9°C | 0.3% | 155hPa | 2.5V | 08:10:18 | 02:41:47 | 00:00:00 | |
| AA1-15 | 2026-09-03 01:01:08 | 53.83479 | 14.68594 | 111° | 88km/h | 13692m | -8.3m/s | -50°C | 0.3% | 153.3hPa | 2.6V | 08:10:18 | 02:41:38 | 00:00:00 | |
| DL1XH-west | 2026-09-03 01:01:07 | 53.83487 | 14.68560 | 112° | 88km/h | 13701m | -8.3m/s | -50.1°C | 0.3% | 153.1hPa | 2.5V | 08:10:18 | 02:41:37 | 00:00:00 | |
| DL1XH1-15 | 2026-09-03 01:01:06 | 53.83495 | 14.68525 | 112° | 88km/h | 13710m | -7.9m/s | -50.1°C | 3.4% | 152.9hPa | 2.5V | 08:10:12 | 02:41:36 | 00:00:00 | |
| SP3WXH-11 | 2026-09-03 01:01:02 | 53.83538 | 14.68358 | 115° | 80km/h | 13752m | -8.0m/s | -50.3°C | 1.2% | 151.9hPa | 2.6V | 00:00:00 | 00:00:00 | 00:00:00 | |
| DL1XH1-15 | 2026-09-03 01:01:00 | 53.83584 | 14.68202 | 118° | 80km/h | 13792m | -8.2m/s | -50.3°C | 3.5% | 151hPa | 2.6V | 08:10:22 | 02:41:26 | 00:00:00 | |
| AA1-15 | 2026-09-03 01:00:57 | 53.83575 | 14.68233 | 118° | 82km/h | 13784m | -8.2m/s | -50.3°C | 0.3% | 151.2hPa | 2.5V | 08:11:09 | 02:41:27 | 00:00:00 | |
| DL1XH-west | 2026-09-03 01:00:56 | 53.83584 | 14.68202 | 118° | 80km/h | 13792m | -8.2m/s | -50.3°C | 0.4% | 151hPa | 2.6V | 08:11:09 | 02:41:26 | 00:00:00 | |
| SONDE2-11 | 2026-09-03 01:00:50 | 53.83643 | 14.68025 | 120° | 77km/h | 13842m | -8.2m/s | -49.8°C | 1.2% | 149.8hPa | 2.6V | 00:00:00 | 00:00:00 | 00:00:00 | |
| DL1XH1-15 | 2026-09-03 01:00:49 | 53.83692 | 14.67886 | 121° | 75km/h | 13882m | -8m/s | -49.5°C | 3.2% | 148.9hPa | 2.6V | 08:10:33 | 02:41:15 | 00:00:00 | |
| AA1-15 | 2026-09-03 01:00:47 | 53.83672 | 14.67941 | 120° | 75km/h | 13866m | -8m/s | -49.5°C | 0.2% | 149.3hPa | 2.5V | 08:11:09 | 02:41:17 | 00:00:00 | |
| DL1XH-west | 2026-09-03 01:00:45 | 53.83692 | 14.67886 | 122° | 75km/h | 13882m | -8m/s | -49.5°C | 0.2% | 148.9hPa | 2.6V | 08:11:09 | 02:41:15 | 00:00:00 | |
| DJ2DS-15 | 2026-09-03 01:00:40 | 53.83754 | 14.67722 | 124° | 77km/h | 13931m | -8.2m/s | -49.7°C | 1.2% | 147.8hPa | 2.5V | 00:00:00 | 00:00:00 | 00:00:00 | |
| EDDB2-11 | 2026-09-03 01:00:38 | 53.83765 | 14.67695 | 126° | 78km/h | 13939m | -8.2m/s | -49.8°C | 1.2% | 147.6hPa | 2.5V | 00:00:00 | 00:00:00 | 00:00:00 | |
| DL1XH1-15 | 2026-09-03 01:00:36 | 53.83800 | 14.67614 | 126° | 78km/h | 13965m | -8.2m/s | -49.8°C | 3.3% | 147.1hPa | 2.5V | 08:10:43 | 02:41:05 | 00:00:00 | |
| AA1-15 | 2026-09-03 01:00:36 | 53.83789 | 14.67641 | 127° | 78km/h | 13956m | -8.2m/s | -49.8°C | 0.3% | 147.3hPa | 2.5V | 08:11:09 | 02:41:06 | 00:00:00 | |
| DL1XH-west | 2026-09-03 01:00:34 | 53.83812 | 14.67588 | 127° | 77km/h | 13973m | -8.5m/s | -49.7°C | 0.3% | 146.9hPa | 2.5V | 08:11:09 | 02:41:04 | 00:00:00 | |
| SP3WXH-11 | 2026-09-03 01:00:31 | 53.83857 | 14.67484 | 124° | 73km/h | 14005m | -8.2m/s | -49.9°C | 1.2% | 146.1hPa | 2.6V | 00:00:00 | 00:00:00 | 00:00:00 | |
| DL1XH1-15 | 2026-09-03 01:00:30 | 53.83908 | 14.67357 | 123° | 69km/h | 14045m | -8.1m/s | -50.1°C | 3.3% | 145.2hPa | 2.6V | 08:10:53 | 02:40:55 | 00:00:00 | |
| AA1-15 | 2026-09-03 01:00:26 | 53.83899 | 14.67382 | 124° | 71km/h | 14037m | -8.5m/s | -50.1°C | 0.3% | 145.4hPa | 2.5V | 08:11:09 | 02:40:56 | 00:00:00 | |
| DL1XH-west | 2026-09-03 01:00:24 | 53.83918 | 14.67333 | 124° | 68km/h | 14053m | -8.4m/s | -50°C | 0.3% | 145.1hPa | 2.6V | 08:11:09 | 02:40:54 | 00:00:00 | |
| DK1YY | 2026-09-03 01:00:19 | 53.83963 | 14.67214 | 121° | 64km/h | 14095m | -8.4m/s | -49.8°C | 1.2% | 144.1hPa | 2.6V | 00:00:00 | 00:00:00 | 00:00:00 | |
| DL1XH-15 | 2026-09-03 01:00:18 | 53.84015 | 14.67076 | 121° | 64km/h | 14146m | -8.3m/s | -49.9°C | 3.3% | 143.1hPa | 2.6V | 08:11:05 | 02:40:43 | 00:00:00 | |
| DL1XH1-15 | 2026-09-03 01:00:18 | 53.83997 | 14.67121 | 123° | 64km/h | 14128m | -8.4m/s | -49.8°C | 3.2% | 143.4hPa | 2.5V | 08:11:03 | 02:40:45 | 00:00:00 | |
| AA1-15 | 2026-09-03 01:00:16 | 53.83997 | 14.67121 | 123° | 64km/h | 14128m | -8.4m/s | -49.8°C | 0.2% | 143.4hPa | 2.5V | 08:11:09 | 02:40:45 | 00:00:00 | |
| DL1XH-west | 2026-09-03 01:00:13 | 53.84015 | 14.67076 | 121° | 64km/h | 14146m | -8.3m/s | -49.9°C | 0.2% | 143.1hPa | 2.6V | 08:11:09 | 02:40:43 | 00:00:00 | |
| DL1XH1-15 | 2026-09-03 01:00:07 | 53.84076 | 14.66888 | 116° | 62km/h | 14213m | -8.5m/s | -50.5°C | 3.4% | 141.6hPa | 2.5V | 08:11:13 | 02:40:35 | 00:00:00 | |
| EDDB2-11 | 2026-09-03 01:00:07 | 53.84061 | 14.66935 | 117° | 60km/h | 14197m | -8.4m/s | -50.3°C | 1.2% | 142.0hPa | 2.6V | 00:00:00 | 00:00:00 | 00:00:00 | |
| DL1XH-15 | 2026-09-03 01:00:06 | 53.84103 | 14.66792 | 116° | 64km/h | 14247m | -8.3m/s | -50.7°C | 3.5% | 140.9hPa | 2.6V | 08:11:17 | 02:40:31 | 00:00:00 | |
| AA1-15 | 2026-09-03 01:00:05 | 53.84076 | 14.66888 | 116° | 62km/h | 14213m | -8.5m/s | -50.5°C | 0.4% | 141.6hPa | 2.5V | 08:12:00 | 02:40:35 | 00:00:00 | |
| DL1XH-west | 2026-09-03 01:00:03 | 53.84096 | 14.66816 | 116° | 64km/h | 14238m | -8.4m/s | -50.7°C | 0.4% | 141.1hPa | 2.6V | 08:12:51 | 02:40:32 | 00:00:00 | |
| SP3WXH-11 | 2026-09-03 01:00:00 | 53.84118 | 14.66743 | 116° | 64km/h | 14263m | -8.2m/s | -50.8°C | 1.2% | 140.5hPa | 2.6V | 00:00:00 | 00:00:00 | 00:00:00 | |
| MECKS9 | 2026-09-03 00:59:57 | 53.84125 | 14.66717 | 117° | 68km/h | 14272m | -8.4m/s | -50.8°C | 1.2% | 140.4hPa | 2.6V | 00:00:00 | 00:00:00 | 00:00:00 | |
| DL1XH1-15 | 2026-09-03 00:59:56 | 53.84148 | 14.66639 | 115° | 69km/h | 14297m | -8.2m/s | -50.9°C | 3.5% | 139.8hPa | 2.6V | 08:11:23 | 02:40:25 | 00:00:00 | |
| AA1-15 | 2026-09-03 00:59:54 | 53.84156 | 14.66613 | 116° | 68km/h | 14305m | -8.3m/s | -50.9°C | 0.4% | 139.6hPa | 2.6V | 08:12:00 | 02:40:24 | 00:00:00 | |
| DJ2DS-15 | 2026-09-03 00:59:54 | 53.84156 | 14.66613 | 117° | 68km/h | 14305m | -8.2m/s | -50.9°C | 3.5% | 139.6hPa | 2.5V | 00:00:00 | 02:40:24 | 00:00:00 | |
| DL1XH-15 | 2026-09-03 00:59:53 | 53.84187 | 14.66510 | 116° | 66km/h | 14340m | -8.6m/s | -50.9°C | 3.5% | 138.9hPa | 2.5V | 08:11:28 | 02:40:20 | 00:00:00 | |
| DL1XH1-15 | 2026-09-03 00:59:51 | 53.84227 | 14.66368 | 115° | 58km/h | 14391m | -8.2m/s | -50.8°C | 3.4% | 137.8hPa | 2.6V | 08:11:34 | 02:40:14 | 00:00:00 | |
| DK1YY | 2026-09-03 00:59:48 | 53.84201 | 14.66461 | 116° | 60km/h | 14357m | -8.5m/s | -50.9°C | 1.2% | 138.6hPa | 2.6V | 00:00:00 | 00:00:00 | 00:00:00 | |
| AA1-15 | 2026-09-03 00:59:44 | 53.84233 | 14.66345 | 114° | 60km/h | 14400m | -8.4m/s | -50.8°C | 0.4% | 137.7hPa | 2.6V | 08:12:00 | 02:40:13 | 00:00:00 | |
| AM1SDL-15 | 2026-09-03 00:59:38 | 53.84266 | 14.66229 | 116° | 64km/h | 14443m | -8.6m/s | -50.7°C | 3.4% | 136.7hPa | 2.6V | 00:00:00 | 02:40:08 | 00:00:00 | |
| DL1XH1-15 | 2026-09-03 00:59:37 | 53.84293 | 14.66129 | 115° | 66km/h | 14477m | -8.7m/s | -50.5°C | 3.4% | 136hPa | 2.5V | 08:11:44 | 02:40:04 | 00:00:00 | |
| AA1-15 | 2026-09-03 00:59:36 | 53.84307 | 14.66079 | 115° | 66km/h | 14494m | -8.5m/s | -50.5°C | 0.3% | 135.7hPa | 2.5V | 08:12:00 | 02:40:02 | 00:00:00 | |
| AA1-15 | 2026-09-03 00:59:21 | 53.84383 | 14.65804 | 114° | 64km/h | 14590m | -8.9m/s | -50.8°C | 0.3% | 133.6hPa | 2.5V | 08:12:00 | 02:39:51 | 00:00:00 | |
| DL1XH-west | 2026-09-03 00:59:19 | 53.84397 | 14.65755 | 115° | 64km/h | 14608m | -8.7m/s | -50.9°C | 0.3% | 133.3hPa | 2.6V | 08:12:51 | 02:39:49 | 00:00:00 | |
| DL1XH-15 | 2026-09-03 00:59:19 | 53.84397 | 14.65755 | 115° | 64km/h | 14608m | -8.7m/s | -50.9°C | 3.5% | 133.3hPa | 2.6V | 08:11:59 | 02:39:49 | 00:00:00 | |
| AA1-15 | 2026-09-03 00:59:11 | 53.84451 | 14.65569 | 118° | 57km/h | 14679m | -8.8m/s | -50.5°C | 0.2% | 131.8hPa | 2.5V | 08:12:51 | 02:39:41 | 00:00:00 | |
| DM0DOS-11 | 2026-09-03 00:59:09 | 53.84468 | 14.65505 | 114° | 55km/h | 14705m | -9.1m/s | 0°C | 0% | 0hPa | 2.6V | 08:12:10 | 02:39:38 | 00:00:00 | |
| DL1XH1-15 | 2026-09-03 00:59:09 | 53.84463 | 14.65527 | 114° | 55km/h | 14697m | -8.6m/s | -50.5°C | 3.3% | 131.4hPa | 2.5V | 08:12:09 | 02:39:39 | 00:00:00 | |
| DL1XH-west | 2026-09-03 00:59:08 | 53.84468 | 14.65505 | 114° | 55km/h | 14705m | -9.1m/s | -50.6°C | 0.2% | 131.3hPa | 2.6V | 08:12:51 | 02:39:38 | 00:00:00 | |
| DL1XH-15 | 2026-09-03 00:59:07 | 53.84474 | 14.65484 | 114° | 53km/h | 14715m | -8.8m/s | -50.5°C | 3.3% | 131.1hPa | 2.6V | 08:12:11 | 02:39:37 | 00:00:00 | |
| S3001 | 2026-09-03 00:59:05 | 53.84524 | 14.65271 | 112° | 51km/h | 14804m | -9.3m/s | -50.8°C | 1.1% | 129.4hPa | 2.5V | 00:00:00 | 00:00:00 | 00:00:00 | |
| DL1XH1-15 | 2026-09-03 00:59:03 | 53.84514 | 14.65314 | 112° | 55km/h | 14786m | -9m/s | -50.8°C | 3.4% | 129.7hPa | 2.5V | 08:12:19 | 02:39:29 | 00:00:00 | |
| DL1XH-15 | 2026-09-03 00:59:01 | 53.84524 | 14.65271 | 112° | 53km/h | 14804m | -9.3m/s | -50.8°C | 3.4% | 129.4hPa | 2.5V | 08:12:21 | 02:39:27 | 00:00:00 | |
| AA1-15 | 2026-09-03 00:59:00 | 53.84509 | 14.65336 | 111° | 55km/h | 14777m | -8.7m/s | -50.7°C | 0.2% | 129.8hPa | 2.6V | 08:12:51 | 02:39:30 | 00:00:00 | |
| DL1XH-west | 2026-09-03 00:58:57 | 53.84524 | 14.65271 | 112° | 53km/h | 14804m | -9.3m/s | -50.8°C | 0.2% | 129.4hPa | 2.5V | 08:12:51 | 02:39:27 | 00:00:00 | |
| DO2SHX-10 | 2026-09-03 00:58:54 | 53.84539 | 14.65207 | 112° | 57km/h | 14832m | -8.9m/s | -50.6°C | 3.3% | 128.8hPa | 2.6V | 00:00:00 | 02:39:24 | 00:00:00 | |
| DL1XH1-15 | 2026-09-03 00:58:52 | 53.84565 | 14.65096 | 112° | 58km/h | 14878m | -8.8m/s | -50.6°C | 3.4% | 127.9hPa | 2.6V | 08:12:29 | 02:39:19 | 00:00:00 | |
| AA1-15 | 2026-09-03 00:58:49 | 53.84565 | 14.65096 | 112° | 58km/h | 14878m | -8.8m/s | -50.6°C | 0.2% | 127.9hPa | 2.6V | 08:12:51 | 02:39:19 | 00:00:00 | |
| DL1XH-west | 2026-09-03 00:58:47 | 53.84577 | 14.65049 | 114° | 60km/h | 14896m | -8.8m/s | -50.7°C | 0.2% | 127.6hPa | 2.5V | 08:12:51 | 02:39:17 | 00:00:00 | |
| SONDE2-11 | 2026-09-03 00:58:46 | 53.84589 | 14.65001 | 115° | 60km/h | 14913m | -8.8m/s | -50.8°C | 1.1% | 127.2hPa | 2.5V | 00:00:00 | 00:00:00 | 00:00:00 | |
| AA1-15 | 2026-09-03 00:58:38 | 53.84636 | 14.64848 | 118° | 57km/h | 14976m | -9.1m/s | -50.8°C | 0.2% | 126hPa | 2.5V | 08:12:51 | 02:39:08 | 00:00:00 | |
| DL1XH-15 | 2026-09-03 00:58:37 | 53.84642 | 14.64827 | 117° | 57km/h | 14985m | -9.5m/s | -50.8°C | 3.4% | 125.8hPa | 2.6V | 08:12:41 | 02:39:07 | 00:00:00 | |
| DL1XH-west | 2026-09-03 00:58:37 | 53.84642 | 14.64827 | 118° | 57km/h | 14985m | -9.5m/s | -50.8°C | 0.2% | 125.8hPa | 2.6V | 08:12:51 | 02:39:07 | 00:00:00 | |
| DO2SHX-10 | 2026-09-03 00:58:36 | 53.84649 | 14.64805 | 119° | 58km/h | 14995m | -9.4m/s | -50.8°C | 3.4% | 125.6hPa | 2.5V | 00:00:00 | 02:39:06 | 00:00:00 | |
| DL1XH1-15 | 2026-09-03 00:58:35 | 53.84692 | 14.64670 | 117° | 62km/h | 15050m | -9.2m/s | -50.6°C | 3.3% | 124.6hPa | 2.5V | 08:12:48 | 02:39:00 | 00:00:00 | |
| DL1XH-15 | 2026-09-03 00:58:32 | 53.84713 | 14.64599 | 114° | 62km/h | 15078m | -9.3m/s | -50.6°C | 3.3% | 124.1hPa | 2.5V | 08:12:51 | 02:38:57 | 00:00:00 | |
| DL1XH-west | 2026-09-03 00:58:27 | 53.84713 | 14.64599 | 114° | 62km/h | 15078m | -9.3m/s | -50.6°C | 0.1% | 124.1hPa | 2.5V | 08:12:51 | 02:38:57 | 00:00:00 | |
| DO2SHX-10 | 2026-09-03 00:58:27 | 53.84713 | 14.64599 | 115° | 62km/h | 15078m | -9.2m/s | -50.5°C | 3.3% | 124.0hPa | 2.5V | 08:12:00 | 02:38:57 | 00:00:00 | |
| SP3WXH-11 | 2026-09-03 00:58:26 | 53.84719 | 14.64575 | 113° | 62km/h | 15087m | -9.5m/s | -50.6°C | 1.1% | 123.9hPa | 2.5V | 00:00:00 | 00:00:00 | 00:00:00 | |
| DO2SHX-10 | 2026-09-03 00:58:24 | 53.84731 | 14.64525 | 114° | 64km/h | 15106m | -9.3m/s | -50.5°C | 3.3% | 123.5hPa | 2.5V | 00:00:00 | 02:38:54 | 00:00:00 | |
| DL1XH1-15 | 2026-09-03 00:58:23 | 53.84757 | 14.64419 | 112° | 68km/h | 15142m | -9.3m/s | -50.8°C | 3.3% | 122.8hPa | 2.5V | 08:12:58 | 02:38:50 | 00:00:00 | |
| DL1XH-15 | 2026-09-03 00:58:21 | 53.84778 | 14.64339 | 115° | 69km/h | 15170m | -9m/s | -51°C | 3.4% | 122.3hPa | 2.5V | 08:13:01 | 02:38:47 | 00:00:00 | |
| AA1-15 | 2026-09-03 00:58:16 | 53.84785 | 14.64313 | 117° | 69km/h | 15179m | -9.1m/s | -51°C | 0.2% | 122.2hPa | 2.5V | 08:13:42 | 02:38:46 | 00:00:00 | |
| SONDE2-11 | 2026-09-03 00:58:15 | 53.84801 | 14.64261 | 119° | 68km/h | 15197m | -9.3m/s | -51.1°C | 1.1% | 121.8hPa | 2.6V | 00:00:00 | 00:00:00 | 00:00:00 | |
| DO2SHX-10 | 2026-09-03 00:58:11 | 53.84826 | 14.64186 | 121° | 60km/h | 15226m | -9.3m/s | -51.1°C | 3.4% | 121.3hPa | 2.6V | 00:00:00 | 02:38:41 | 00:00:00 | |
| DL1XH-15 | 2026-09-03 00:58:09 | 53.84870 | 14.64071 | 123° | 62km/h | 15271m | -8.7m/s | -50.8°C | 3.4% | 120.5hPa | 2.6V | 08:13:12 | 02:38:36 | 00:00:00 | |
| AA1-15 | 2026-09-03 00:58:06 | 53.84870 | 14.64071 | 124° | 62km/h | 15271m | -8.7m/s | -50.8°C | 0.2% | 120.5hPa | 2.6V | 08:13:42 | 02:38:36 | 00:00:00 | |
| DL1XH-west | 2026-09-03 00:58:05 | 53.84878 | 14.64049 | 125° | 60km/h | 15280m | -8.8m/s | -50.7°C | 0.2% | 120.3hPa | 2.6V | 08:13:42 | 02:38:35 | 00:00:00 | |
| EDDB2-11 | 2026-09-03 00:58:03 | 53.84905 | 14.63986 | 125° | 58km/h | 15306m | -9.1m/s | -50.5°C | 1.0% | 119.8hPa | 2.5V | 00:00:00 | 00:00:00 | 00:00:00 | |
| DJ2DS-15 | 2026-09-03 00:58:00 | 53.84922 | 14.63946 | 127° | 47km/h | 15324m | -9.1m/s | -50.5°C | 3.3% | 119.4hPa | 2.5V | 00:00:00 | 02:38:30 | 00:00:00 | |
| SP3BTT-10 | 2026-09-03 00:57:59 | 53.84930 | 14.63926 | 126° | 42km/h | 15333m | -9.3m/s | -50.5°C | 3.3% | 119.2hPa | 2.5V | 00:00:00 | 00:00:00 | 00:00:00 | |
| DL1XH-15 | 2026-09-03 00:57:57 | 53.84954 | 14.63870 | 124° | 53km/h | 15361m | -9m/s | -50.6°C | 3.3% | 118.8hPa | 2.5V | 08:13:22 | 02:38:26 | 00:00:00 | |
| AA1-15 | 2026-09-03 00:57:56 | 53.84954 | 14.63870 | 125° | 53km/h | 15361m | -9m/s | -50.6°C | 0.2% | 118.8hPa | 2.5V | 08:13:42 | 02:38:26 | 00:00:00 | |
| DL1XH-west | 2026-09-03 00:57:54 | 53.84969 | 14.63834 | 124° | 51km/h | 15379m | -9.1m/s | -50.8°C | 0.2% | 118.4hPa | 2.6V | 08:13:42 | 02:38:24 | 00:00:00 | |
| DO2SHX-10 | 2026-09-03 00:57:54 | 53.84969 | 14.63834 | 125° | 49km/h | 15379m | -9.0m/s | -50.7°C | 3.3% | 118.4hPa | 2.5V | 00:00:00 | 02:38:24 | 00:00:00 | |
| DO2SHX-10 | 2026-09-03 00:57:51 | 53.84990 | 14.63783 | 125° | 46km/h | 15407m | -9.3m/s | -50.8°C | 3.3% | 117.9hPa | 2.5V | 00:00:00 | 02:38:21 | 00:00:00 | |
| MECKS9 | 2026-09-03 00:57:50 | 53.84991 | 14.63783 | 125° | 46km/h | 15407m | -9.4m/s | -50.8°C | 1.1% | 117.9hPa | 2.5V | 00:00:00 | 00:00:00 | 00:00:00 | |
| DO2SHX-10 | 2026-09-03 00:57:48 | 53.85010 | 14.63735 | 124° | 46km/h | 15435m | -9.2m/s | -51.0°C | 3.4% | 117.4hPa | 2.5V | 00:00:00 | 02:38:18 | 00:00:00 | |
| DL1XH-15 | 2026-09-03 00:57:46 | 53.85046 | 14.63619 | 112° | 44km/h | 15502m | -9.1m/s | -51.3°C | 3.4% | 116.2hPa | 2.5V | 08:13:37 | 02:38:11 | 00:00:00 | |
| AA1-15 | 2026-09-03 00:57:45 | 53.85027 | 14.63686 | 119° | 44km/h | 15463m | -9.6m/s | -51.2°C | 0.2% | 116.9hPa | 2.5V | 08:13:42 | 02:38:15 | 00:00:00 | |
| DL1XH-west | 2026-09-03 00:57:44 | 53.85032 | 14.63670 | 117° | 44km/h | 15473m | -9.5m/s | -51.3°C | 0.2% | 116.7hPa | 2.5V | 08:13:42 | 02:38:14 | 00:00:00 | |
| DO2SHX-10 | 2026-09-03 00:57:44 | 53.85032 | 14.63670 | 117° | 44km/h | 15473m | -9.5m/s | -51.2°C | 3.4% | 116.7hPa | 2.5V | 00:00:00 | 02:38:14 | 00:00:00 | |
| DL1XH1-15 | 2026-09-03 00:57:41 | 53.85050 | 14.63601 | 111° | 44km/h | 15511m | -9.1m/s | -51.3°C | 3.4% | 116.1hPa | 2.5V | 08:13:38 | 02:38:10 | 00:00:00 | |
| DO2SHX-10 | 2026-09-03 00:57:41 | 53.85046 | 14.63619 | 113° | 44km/h | 15502m | -9.1m/s | -51.2°C | 3.4% | 116.2hPa | 2.5V | 08:13:00 | 02:38:11 | 00:00:00 | |
| MECKS9 | 2026-09-03 00:57:40 | 53.85050 | 14.63601 | 112° | 44km/h | 15512m | -9.1m/s | -51.3°C | 1.0% | 116.1hPa | 2.5V | 00:00:00 | 00:00:00 | 00:00:00 | |
| DO2SHX-10 | 2026-09-03 00:57:38 | 53.85058 | 14.63567 | 112° | 44km/h | 15530m | -9.4m/s | -51.4°C | 3.4% | 115.7hPa | 2.5V | 00:00:00 | 02:38:08 | 00:00:00 | |
| DL1XH-15 | 2026-09-03 00:57:36 | 53.85085 | 14.63440 | 107° | 47km/h | 15597m | -9.4m/s | -51.2°C | 3.4% | 114.6hPa | 2.5V | 08:13:47 | 02:38:01 | 00:00:00 | |
| AA1-15 | 2026-09-03 00:57:34 | 53.85075 | 14.63495 | 110° | 46km/h | 15567m | -9.6m/s | -51.3°C | 0.2% | 115.1hPa | 2.5V | 08:14:33 | 02:38:04 | 00:00:00 | |
| DL1XH-west | 2026-09-03 00:57:33 | 53.85078 | 14.63477 | 109° | 46km/h | 15577m | -9.6m/s | -51.3°C | 0.2% | 114.9hPa | 2.5V | 08:14:33 | 02:38:03 | 00:00:00 | |
| DO2SHX-10 | 2026-09-03 00:57:32 | 53.85082 | 14.63458 | 108° | 47km/h | 15587m | -9.4m/s | -51.2°C | 3.4% | 114.7hPa | 2.5V | 00:00:00 | 02:38:02 | 00:00:00 | |
| DL1XH1-15 | 2026-09-03 00:57:31 | 53.85089 | 14.63420 | 105° | 47km/h | 15606m | -9.4m/s | -51.3°C | 3.4% | 114.4hPa | 2.6V | 08:13:48 | 02:38:00 | 00:00:00 | |
| AA1-15 | 2026-09-03 00:57:23 | 53.85101 | 14.63278 | 93° | 47km/h | 15671m | -9.4m/s | -51.8°C | 0.2% | 113.3hPa | 2.5V | 08:14:33 | 02:37:53 | 00:00:00 | |
| DL1XH-west | 2026-09-03 00:57:22 | 53.85101 | 14.63258 | 93° | 47km/h | 15681m | -9.5m/s | -51.9°C | 0.3% | 113.1hPa | 2.5V | 08:14:33 | 02:37:52 | 00:00:00 | |
| DL1XH-15 | 2026-09-03 00:57:21 | 53.85102 | 14.63237 | 93° | 47km/h | 15690m | -9.4m/s | -51.9°C | 3.6% | 112.9hPa | 2.5V | 08:13:57 | 02:37:51 | 00:00:00 | |
| DL1XH1-15 | 2026-09-03 00:57:20 | 53.85103 | 14.63217 | 93° | 46km/h | 15700m | -9.2m/s | -52°C | 3.6% | 112.8hPa | 2.6V | 08:13:58 | 02:37:50 | 00:00:00 | |
| AA1-15 | 2026-09-03 00:57:13 | 53.85110 | 14.63077 | 96° | 49km/h | 15765m | -9.4m/s | -51.6°C | 0.3% | 111.6hPa | 2.6V | 08:14:33 | 02:37:43 | 00:00:00 | |
| DL1XH-west | 2026-09-03 00:57:11 | 53.85112 | 14.63035 | 96° | 51km/h | 15784m | -9.5m/s | -51.7°C | 0.3% | 111.3hPa | 2.5V | 08:14:33 | 02:37:41 | 00:00:00 | |
| DL1XH-15 | 2026-09-03 00:57:11 | 53.85112 | 14.63035 | 95° | 51km/h | 15784m | -9.5m/s | -51.6°C | 3.5% | 111.3hPa | 2.5V | 08:14:07 | 02:37:41 | 00:00:00 | |
| DL1XH1-15 | 2026-09-03 00:57:10 | 53.85114 | 14.63013 | 96° | 51km/h | 15794m | -9.3m/s | -51.7°C | 3.5% | 111.1hPa | 2.5V | 08:14:08 | 02:37:40 | 00:00:00 | |
| DO2SHX-10 | 2026-09-03 00:57:08 | 53.85116 | 14.62969 | 96° | 51km/h | 15813m | -9.5m/s | -51.7°C | 3.5% | 110.8hPa | 2.5V | 08:14:00 | 02:37:38 | 00:00:00 | |
| DL1XH-15 | 2026-09-03 00:57:06 | 53.85132 | 14.62820 | 103° | 49km/h | 15878m | -9.4m/s | -52°C | 3.5% | 109.7hPa | 2.6V | 08:14:17 | 02:37:31 | 00:00:00 | |
| DL1XH1-15 | 2026-09-03 00:57:05 | 53.85135 | 14.62799 | 106° | 49km/h | 15888m | -9.6m/s | -52°C | 3.6% | 109.5hPa | 2.5V | 08:14:18 | 02:37:30 | 00:00:00 | |
| AA1-15 | 2026-09-03 00:57:02 | 53.85129 | 14.62841 | 103° | 51km/h | 15869m | -9.5m/s | -51.9°C | 0.3% | 109.8hPa | 2.6V | 08:14:33 | 02:37:32 | 00:00:00 | |
| DL1XH-west | 2026-09-03 00:57:00 | 53.85135 | 14.62799 | 106° | 49km/h | 15888m | -9.6m/s | -52°C | 0.4% | 109.5hPa | 2.5V | 08:14:33 | 02:37:30 | 00:00:00 | |
| DJ2DS-15 | 2026-09-03 00:57:00 | 53.85135 | 14.62799 | 107° | 49km/h | 15888m | -9.5m/s | -52.0°C | 3.6% | 109.5hPa | 2.6V | 00:00:00 | 02:37:30 | 00:00:00 | |
| DL1XH1-15 | 2026-09-03 00:56:55 | 53.85171 | 14.62605 | 105° | 49km/h | 15985m | -9.6m/s | -51.7°C | 3.5% | 107.9hPa | 2.6V | 08:14:28 | 02:37:20 | 00:00:00 | |
| SP3WXH-11 | 2026-09-03 00:56:54 | 53.85160 | 14.62662 | 108° | 46km/h | 15956m | -9.5m/s | -51.9°C | 1.1% | 108.4hPa | 2.5V | 00:00:00 | 00:00:00 | 00:00:00 | |
| DO2SHX-10 | 2026-09-03 00:56:53 | 53.85160 | 14.62662 | 109° | 47km/h | 15956m | -9.4m/s | -51.9°C | 3.6% | 108.3hPa | 2.5V | 00:00:00 | 02:37:23 | 00:00:00 | |
| DL1XH-15 | 2026-09-03 00:56:51 | 53.85168 | 14.62624 | 107° | 47km/h | 15975m | -9.8m/s | -51.8°C | 3.6% | 108.1hPa | 2.6V | 08:14:27 | 02:37:21 | 00:00:00 | |
| AA1-15 | 2026-09-03 00:56:51 | 53.85168 | 14.62624 | 108° | 47km/h | 15975m | -9.8m/s | -51.8°C | 0.3% | 108.1hPa | 2.6V | 08:14:33 | 02:37:21 | 00:00:00 | |
| DL1XH-west | 2026-09-03 00:56:50 | 53.85174 | 14.62584 | 105° | 49km/h | 15994m | -9.7m/s | -51.7°C | 0.3% | 107.8hPa | 2.6V | 08:14:33 | 02:37:19 | 00:00:00 | |
| DO2SHX-10 | 2026-09-03 00:56:46 | 53.85184 | 14.62522 | 106° | 51km/h | 16025m | -9.6m/s | -51.7°C | 3.5% | 107.2hPa | 2.6V | 00:00:00 | 02:37:16 | 00:00:00 | |
| DM0DOS-11 | 2026-09-03 00:56:44 | 53.85210 | 14.62356 | 105° | 49km/h | 16101m | -9.6m/s | 0°C | 0% | 0hPa | 2.6V | 00:00:00 | 02:37:08 | 00:00:00 | |
| DL1XH1-15 | 2026-09-03 00:56:44 | 53.85204 | 14.62397 | 104° | 49km/h | 16082m | -9.4m/s | -51.9°C | 3.6% | 106.3hPa | 2.5V | 08:14:38 | 02:37:10 | 00:00:00 | |
| DO2SHX-10 | 2026-09-03 00:56:43 | 53.85194 | 14.62458 | 106° | 49km/h | 16054m | -9.4m/s | -51.8°C | 3.5% | 106.8hPa | 2.6V | 00:00:00 | 02:37:13 | 00:00:00 | |
| DL1XH-15 | 2026-09-03 00:56:41 | 53.85201 | 14.62417 | 105° | 49km/h | 16072m | -9.5m/s | -51.9°C | 3.6% | 106.5hPa | 2.5V | 08:14:37 | 02:37:11 | 00:00:00 | |
| AA1-15 | 2026-09-03 00:56:40 | 53.85204 | 14.62397 | 105° | 49km/h | 16082m | -9.4m/s | -51.9°C | 0.4% | 106.4hPa | 2.5V | 08:15:24 | 02:37:10 | 00:00:00 | |
| DL1XH-west | 2026-09-03 00:56:39 | 53.85214 | 14.62336 | 106° | 49km/h | 16111m | -9.6m/s | -52°C | 0.3% | 105.9hPa | 2.5V | 08:15:24 | 02:37:07 | 00:00:00 | |
| MECKS9 | 2026-09-03 00:56:38 | 53.85207 | 14.62377 | 107° | 49km/h | 16092m | -9.5m/s | -52.0°C | 1.1% | 106.2hPa | 2.5V | 00:00:00 | 00:00:00 | 00:00:00 | |
| DO2SHX-10 | 2026-09-03 00:56:37 | 53.85214 | 14.62336 | 107° | 47km/h | 16112m | -9.6m/s | -51.9°C | 3.6% | 105.8hPa | 2.5V | 00:00:00 | 02:37:07 | 00:00:00 | |
| DL1XH1-15 | 2026-09-03 00:56:34 | 53.85242 | 14.62201 | 115° | 47km/h | 16179m | -9.6m/s | -51.5°C | 3.4% | 104.8hPa | 2.5V | 08:14:48 | 02:37:00 | 00:00:00 | |
| DM0DOS-11 | 2026-09-03 00:56:33 | 53.85248 | 14.62183 | 114° | 47km/h | 16189m | -9.6m/s | 0°C | 0% | 0hPa | 2.5V | 00:00:00 | 02:36:59 | 00:00:00 | |
| DL1XH-15 | 2026-09-03 00:56:31 | 53.85238 | 14.62219 | 113° | 47km/h | 16169m | -9.7m/s | -51.5°C | 3.5% | 105hPa | 2.5V | 08:14:47 | 02:37:01 | 00:00:00 | |
| AA1-15 | 2026-09-03 00:56:29 | 53.85248 | 14.62183 | 115° | 47km/h | 16189m | -9.6m/s | -51.6°C | 0.3% | 104.6hPa | 2.5V | 08:15:24 | 02:36:59 | 00:00:00 | |
| DL1XH-west | 2026-09-03 00:56:28 | 53.85253 | 14.62165 | 115° | 46km/h | 16198m | -9.4m/s | -51.6°C | 0.3% | 104.5hPa | 2.6V | 08:15:24 | 02:36:58 | 00:00:00 | |
| MECKS9 | 2026-09-03 00:56:28 | 53.85252 | 14.62164 | 116° | 46km/h | 16199m | -9.4m/s | -51.6°C | 1.1% | 104.5hPa | 2.6V | 00:00:00 | 00:00:00 | 00:00:00 | |
| DJ2DS-15 | 2026-09-03 00:56:27 | 53.85257 | 14.62147 | 115° | 44km/h | 16208m | -9.5m/s | -51.6°C | 1.1% | 104.3hPa | 2.6V | 00:00:00 | 00:00:00 | 00:00:00 | |
| DL1XH1-15 | 2026-09-03 00:56:24 | 53.85288 | 14.62029 | 112° | 42km/h | 16277m | -10m/s | -51.6°C | 3.5% | 103.2hPa | 2.6V | 08:14:58 | 02:36:50 | 00:00:00 | |
| DM0DOS-11 | 2026-09-03 00:56:23 | 53.85292 | 14.62012 | 110° | 44km/h | 16286m | -9.9m/s | 0°C | 0% | 0hPa | 2.5V | 00:00:00 | 02:36:49 | 00:00:00 | |
| AA1-15 | 2026-09-03 00:56:18 | 53.85297 | 14.61994 | 110° | 44km/h | 16296m | -9.9m/s | -51.5°C | 0.2% | 102.9hPa | 2.5V | 08:15:24 | 02:36:48 | 00:00:00 | |
| DL1XH-west | 2026-09-03 00:56:17 | 53.85301 | 14.61976 | 111° | 46km/h | 16306m | -9.8m/s | -51.4°C | 0.2% | 102.8hPa | 2.5V | 08:15:24 | 02:36:47 | 00:00:00 | |
| DO2SHX-10 | 2026-09-03 00:56:15 | 53.85309 | 14.61940 | 112° | 46km/h | 16325m | -9.6m/s | -51.4°C | 3.5% | 102.4hPa | 2.6V | 00:00:00 | 02:36:45 | 00:00:00 | |
| DL1XH1-15 | 2026-09-03 00:56:14 | 53.85329 | 14.61844 | 109° | 46km/h | 16375m | -9.7m/s | -51.7°C | 3.6% | 101.7hPa | 2.6V | 08:15:08 | 02:36:40 | 00:00:00 | |
| AA1-15 | 2026-09-03 00:56:08 | 53.85336 | 14.61808 | 110° | 42km/h | 16394m | -9.9m/s | -51.6°C | 0.3% | 101.3hPa | 2.5V | 08:15:24 | 02:36:38 | 00:00:00 | |
| DL1XH-west | 2026-09-03 00:56:06 | 53.85347 | 14.61755 | 106° | 44km/h | 16424m | -10.2m/s | -51.5°C | 0.2% | 100.9hPa | 2.6V | 08:15:24 | 02:36:35 | 00:00:00 | |
| DO2SHX-10 | 2026-09-03 00:56:04 | 53.85350 | 14.61736 | 106° | 46km/h | 16434m | -10.1m/s | -51.5°C | 3.5% | 100.7hPa | 2.5V | 00:00:00 | 02:36:34 | 00:00:00 | |
| DL1XH-15 | 2026-09-03 00:56:01 | 53.85358 | 14.61678 | 101° | 47km/h | 16464m | -10m/s | -51.6°C | 3.5% | 100.2hPa | 2.5V | 08:15:17 | 02:36:31 | 00:00:00 | |
| AA1-15 | 2026-09-03 00:55:57 | 53.85368 | 14.61592 | 102° | 51km/h | 16505m | -10.5m/s | -51.5°C | 0.2% | 99.7hPa | 2.6V | 08:15:24 | 02:36:27 | 00:00:00 | |
| DL1XH-west | 2026-09-03 00:55:55 | 53.85373 | 14.61549 | 102° | 51km/h | 16526m | -10m/s | -51.6°C | 0.2% | 99.3hPa | 2.5V | 08:15:24 | 02:36:25 | 00:00:00 | |
| DL1XH1-15 | 2026-09-03 00:55:54 | 53.85387 | 14.61452 | 104° | 42km/h | 16577m | -9.9m/s | -51.5°C | 3.4% | 98.6hPa | 2.5V | 08:15:28 | 02:36:20 | 00:00:00 | |
| AA1-15 | 2026-09-03 00:55:46 | 53.85398 | 14.61387 | 108° | 38km/h | 16616m | -9.8m/s | -51.2°C | 0.1% | 98hPa | 2.6V | 08:16:15 | 02:36:16 | 00:00:00 | |
| DL1XH-west | 2026-09-03 00:55:44 | 53.85405 | 14.61355 | 110° | 40km/h | 16635m | -10m/s | -51.1°C | 0.2% | 97.6hPa | 2.5V | 08:16:15 | 02:36:14 | 00:00:00 | |
| AA1-15 | 2026-09-03 00:55:35 | 53.85436 | 14.61209 | 108° | 37km/h | 16726m | -10.1m/s | -51°C | 0.1% | 96.3hPa | 2.6V | 08:16:15 | 02:36:05 | 00:00:00 | |
| DL1XH-west | 2026-09-03 00:55:34 | 53.85441 | 14.61181 | 104° | 35km/h | 16747m | -10.1m/s | -51.1°C | 0.2% | 96hPa | 2.5V | 08:16:15 | 02:36:03 | 00:00:00 | |
| DL1XH1-15 | 2026-09-03 00:55:34 | 53.85446 | 14.61141 | 96° | 31km/h | 16777m | -10m/s | -50.8°C | 3.3% | 95.6hPa | 2.6V | 08:15:48 | 02:36:00 | 00:00:00 | |
| AA1-15 | 2026-09-03 00:55:25 | 53.85449 | 14.61075 | 91° | 31km/h | 16829m | -10.2m/s | -50.9°C | 0.1% | 94.8hPa | 2.5V | 08:16:15 | 02:35:55 | 00:00:00 | |
| DL1XH1-15 | 2026-09-03 00:55:24 | 53.85446 | 14.61005 | 84° | 35km/h | 16881m | -10.6m/s | -50.9°C | 3.3% | 94.1hPa | 2.5V | 08:15:58 | 02:35:50 | 00:00:00 | |
| DL1XH-west | 2026-09-03 00:55:24 | 53.85449 | 14.61062 | 88° | 33km/h | 16839m | -10.4m/s | -50.8°C | 0.1% | 94.6hPa | 2.6V | 08:16:15 | 02:35:54 | 00:00:00 | |
| AA1-15 | 2026-09-03 00:55:15 | 53.85441 | 14.60928 | 85° | 37km/h | 16933m | -10.6m/s | -51.3°C | 0.1% | 93.3hPa | 2.5V | 08:16:15 | 02:35:45 | 00:00:00 | |
| DL1XH-west | 2026-09-03 00:55:13 | 53.85440 | 14.60897 | 86° | 37km/h | 16954m | -10.6m/s | -51.5°C | 0.3% | 93hPa | 2.5V | 08:16:15 | 02:35:43 | 00:00:00 | |
| DL1XH-15 | 2026-09-03 00:55:11 | 53.85439 | 14.60864 | 88° | 38km/h | 16975m | -10.4m/s | -51.5°C | 3.5% | 92.7hPa | 2.6V | 08:16:07 | 02:35:41 | 00:00:00 | |
| DO2SHX-10 | 2026-09-03 00:55:11 | 53.85439 | 14.60864 | 89° | 40km/h | 16976m | -10.4m/s | -51.5°C | 3.5% | 92.6hPa | 2.6V | 00:00:00 | 02:35:41 | 00:00:00 | |
| SONDE2-11 | 2026-09-03 00:55:08 | 53.85440 | 14.60813 | 92° | 40km/h | 17006m | -10.5m/s | -51.3°C | 1.0% | 92.3hPa | 2.6V | 00:00:00 | 00:00:00 | 00:00:00 | |
| MECKS9 | 2026-09-03 00:55:07 | 53.85440 | 14.60813 | 93° | 40km/h | 17006m | -10.5m/s | -51.3°C | 1.0% | 92.3hPa | 2.6V | 00:00:00 | 00:00:00 | 00:00:00 | |
| DL1XH-15 | 2026-09-03 00:55:06 | 53.85444 | 14.60682 | 92° | 46km/h | 17079m | -10.4m/s | -51.4°C | 3.5% | 91.2hPa | 2.6V | 08:16:17 | 02:35:31 | 00:00:00 | |
| AA1-15 | 2026-09-03 00:55:05 | 53.85441 | 14.60759 | 95° | 44km/h | 17037m | -10.4m/s | -51.5°C | 0.2% | 91.8hPa | 2.5V | 08:16:15 | 02:35:35 | 00:00:00 | |
| DL1XH-west | 2026-09-03 00:55:03 | 53.85443 | 14.60722 | 92° | 46km/h | 17058m | -10.6m/s | -51.5°C | 0.2% | 91.5hPa | 2.5V | 08:16:15 | 02:35:33 | 00:00:00 | |
| DO2SHX-10 | 2026-09-03 00:55:03 | 53.85443 | 14.60722 | 92° | 46km/h | 17058m | -10.6m/s | -51.5°C | 3.4% | 91.5hPa | 2.5V | 00:00:00 | 02:35:33 | 00:00:00 | |
| EDDB2-11 | 2026-09-03 00:54:56 | 53.85455 | 14.60536 | 100° | 49km/h | 17154m | -10.4m/s | -51.2°C | 0.9% | 90.2hPa | 2.5V | 00:00:00 | 00:00:00 | 00:00:00 | |
| DL1XH-15 | 2026-09-03 00:54:55 | 53.85463 | 14.60471 | 104° | 51km/h | 17186m | -10.5m/s | -51.3°C | 3.4% | 89.8hPa | 2.5V | 08:16:27 | 02:35:21 | 00:00:00 | |
| DL1XH1-15 | 2026-09-03 00:54:54 | 53.85467 | 14.60450 | 104° | 53km/h | 17196m | -10.2m/s | -51.2°C | 3.4% | 0hPa | 2.5V | 08:16:28 | 02:35:20 | 00:00:00 | |
| AA1-15 | 2026-09-03 00:54:54 | 53.85455 | 14.60536 | 101° | 51km/h | 17154m | -10.4m/s | -51.2°C | 0.1% | 90.2hPa | 2.6V | 08:17:06 | 02:35:24 | 00:00:00 | |
| DL1XH-west | 2026-09-03 00:54:52 | 53.85463 | 14.60471 | 104° | 51km/h | 17186m | -10.5m/s | -51.3°C | 0.1% | 89.8hPa | 2.5V | 08:17:06 | 02:35:21 | 00:00:00 | |
| DO2SHX-10 | 2026-09-03 00:54:50 | 53.85467 | 14.60449 | 105° | 51km/h | 17196m | -10.1m/s | -51.2°C | 3.4% | 89.6hPa | 2.5V | 00:00:00 | 02:35:20 | 00:00:00 | |
| DO2SHX-10 | 2026-09-03 00:54:47 | 53.85477 | 14.60387 | 107° | 49km/h | 17228m | -10.4m/s | -51.0°C | 3.3% | 89.1hPa | 2.5V | 00:00:00 | 02:35:17 | 00:00:00 | |
| DL1XH-15 | 2026-09-03 00:54:45 | 53.85505 | 14.60272 | 116° | 46km/h | 17293m | -10.8m/s | -51°C | 3.3% | 88.3hPa | 2.5V | 08:16:37 | 02:35:11 | 00:00:00 | |
| DL1XH1-15 | 2026-09-03 00:54:44 | 53.85509 | 14.60254 | 115° | 46km/h | 17303m | -11.1m/s | -51.1°C | 3.3% | 0hPa | 2.5V | 08:16:38 | 02:35:10 | 00:00:00 | |
| AA1-15 | 2026-09-03 00:54:44 | 53.85490 | 14.60327 | 111° | 47km/h | 17260m | -10.9m/s | -50.9°C | 0.1% | 88.7hPa | 2.6V | 08:17:06 | 02:35:14 | 00:00:00 | |
| DL1XH-west | 2026-09-03 00:54:41 | 53.85510 | 14.60254 | 116° | 46km/h | 17303m | -11.1m/s | -51.1°C | 0.2% | 88.1hPa | 2.5V | 08:17:06 | 02:35:10 | 00:00:00 | |
| DJ2DS-15 | 2026-09-03 00:54:40 | 53.85510 | 14.60254 | 116° | 46km/h | 17303m | -11.1m/s | -51.0°C | 3.3% | 88.1hPa | 2.5V | 00:00:00 | 02:35:10 | 00:00:00 | |
| DK1YY | 2026-09-03 00:54:38 | 53.85530 | 14.60183 | 115° | 46km/h | 17347m | -10.8m/s | -51.3°C | 1.0% | 87.6hPa | 2.5V | 00:00:00 | 00:00:00 | 00:00:00 | |
| DL1XH-15 | 2026-09-03 00:54:35 | 53.85551 | 14.60092 | 108° | 44km/h | 17400m | -11m/s | -51.4°C | 3.5% | 86.8hPa | 2.5V | 08:16:47 | 02:35:01 | 00:00:00 | |
| DO2SHX-10 | 2026-09-03 00:54:35 | 53.85535 | 14.60165 | 113° | 46km/h | 17358m | -10.4m/s | -51.4°C | 3.5% | 87.4hPa | 2.5V | 00:00:00 | 02:35:05 | 00:00:00 | |
| DL1XH1-15 | 2026-09-03 00:54:34 | 53.85554 | 14.60075 | 106° | 44km/h | 17411m | -10.8m/s | -51.3°C | 0% | 0hPa | 2.5V | 08:16:48 | 02:35:00 | 00:00:00 | |
| AA1-15 | 2026-09-03 00:54:33 | 53.85544 | 14.60128 | 110° | 46km/h | 17379m | -10.9m/s | -51.4°C | 0.2% | 87.1hPa | 2.6V | 08:17:06 | 02:35:03 | 00:00:00 | |
| DL1XH-west | 2026-09-03 00:54:30 | 53.85554 | 14.60075 | 107° | 44km/h | 17411m | -10.8m/s | -51.3°C | 0.2% | 86.7hPa | 2.5V | 08:17:06 | 02:35:00 | 00:00:00 | |
| DO2SHX-10 | 2026-09-03 00:54:29 | 53.85557 | 14.60057 | 107° | 42km/h | 17422m | -10.9m/s | -51.3°C | 3.4% | 86.5hPa | 2.6V | 08:16:00 | 02:34:59 | 00:00:00 | |
| DO2SHX-10 | 2026-09-03 00:54:26 | 53.85566 | 14.60003 | 105° | 44km/h | 17455m | -10.9m/s | -51.5°C | 3.5% | 86.1hPa | 2.5V | 00:00:00 | 02:34:56 | 00:00:00 | |
| DL1XH-15 | 2026-09-03 00:54:25 | 53.85581 | 14.59912 | 108° | 46km/h | 17509m | -10.6m/s | -51.4°C | 3.5% | 85.4hPa | 2.5V | 08:16:57 | 02:34:51 | 00:00:00 | |
| DL1XH1-15 | 2026-09-03 00:54:24 | 53.85585 | 14.59893 | 108° | 46km/h | 17519m | -11.2m/s | -51.4°C | 0% | 0hPa | 2.5V | 08:16:58 | 02:34:50 | 00:00:00 | |
| AA1-15 | 2026-09-03 00:54:22 | 53.85578 | 14.59930 | 107° | 46km/h | 17498m | -10.7m/s | -51.4°C | 0.2% | 85.5hPa | 2.5V | 08:17:06 | 02:34:52 | 00:00:00 | |
| DL1XH-west | 2026-09-03 00:54:20 | 53.85585 | 14.59893 | 109° | 46km/h | 17519m | -11.2m/s | -51.5°C | 0.2% | 85.2hPa | 2.5V | 08:17:06 | 02:34:50 | 00:00:00 | |
| DO2SHX-10 | 2026-09-03 00:54:20 | 53.85584 | 14.59893 | 109° | 46km/h | 17519m | -11.1m/s | -51.4°C | 3.4% | 85.2hPa | 2.5V | 00:00:00 | 02:34:50 | 00:00:00 | |
| DO2SHX-10 | 2026-09-03 00:54:17 | 53.85595 | 14.59837 | 108° | 42km/h | 17553m | -11.5m/s | -51.1°C | 3.3% | 84.8hPa | 2.6V | 00:00:00 | 02:34:47 | 00:00:00 | |
| DL1XH-15 | 2026-09-03 00:54:15 | 53.85612 | 14.59737 | 107° | 40km/h | 17622m | -11.3m/s | -50.9°C | 3.3% | 83.9hPa | 2.6V | 08:17:07 | 02:34:41 | 00:00:00 | |
| DL1XH1-15 | 2026-09-03 00:54:14 | 53.85616 | 14.59721 | 108° | 40km/h | 17633m | -11.6m/s | 0°C | 0% | 0hPa | 2.5V | 00:00:00 | 02:34:40 | 00:00:00 | |
| AA1-15 | 2026-09-03 00:54:11 | 53.85612 | 14.59737 | 108° | 40km/h | 17622m | -11.3m/s | -50.9°C | 0.1% | 83.9hPa | 2.6V | 08:17:57 | 02:34:41 | 00:00:00 | |
| DL1XH-west | 2026-09-03 00:54:10 | 53.85616 | 14.59721 | 109° | 40km/h | 17633m | -11.6m/s | -50.9°C | 0.1% | 83.8hPa | 2.5V | 08:17:57 | 02:34:40 | 00:00:00 | |
| DK1YY | 2026-09-03 00:54:07 | 53.85629 | 14.59654 | 110° | 42km/h | 17679m | -11.6m/s | -50.9°C | 0.9% | 83.2hPa | 2.6V | 00:00:00 | 00:00:00 | 00:00:00 | |
| DL1XH-15 | 2026-09-03 00:54:05 | 53.85650 | 14.59567 | 106° | 40km/h | 17734m | -11.9m/s | -51.4°C | 3.4% | 82.5hPa | 2.6V | 08:17:17 | 02:34:31 | 00:00:00 | |
| DO2SHX-10 | 2026-09-03 00:54:05 | 53.85633 | 14.59637 | 112° | 44km/h | 17690m | -11.3m/s | -50.9°C | 3.3% | 83.0hPa | 2.6V | 00:00:00 | 02:34:35 | 00:00:00 | |
| DL1XH1-15 | 2026-09-03 00:54:03 | 53.85653 | 14.59551 | 107° | 42km/h | 17746m | -11.6m/s | 0°C | 0% | 0hPa | 2.6V | 00:00:00 | 02:34:30 | 00:00:00 | |
| AA1-15 | 2026-09-03 00:54:01 | 53.85650 | 14.59567 | 106° | 40km/h | 17734m | -11.9m/s | -51.4°C | 0.1% | 82.5hPa | 2.6V | 08:17:57 | 02:34:31 | 00:00:00 | |
| DL1XH-west | 2026-09-03 00:54:00 | 53.85653 | 14.59551 | 107° | 42km/h | 17746m | -11.6m/s | -51.5°C | 0.2% | 82.3hPa | 2.6V | 08:17:57 | 02:34:30 | 00:00:00 | |
| DJ2DS-15 | 2026-09-03 00:54:00 | 53.85653 | 14.59551 | 108° | 38km/h | 17746m | -11.5m/s | -51.4°C | 3.4% | 82.3hPa | 2.6V | 00:00:00 | 02:34:30 | 00:00:00 | |
| DO2SHX-10 | 2026-09-03 00:53:59 | 53.85656 | 14.59534 | 114° | 40km/h | 17758m | -11.7m/s | -51.5°C | 3.5% | 82.2hPa | 2.6V | 00:00:00 | 02:34:29 | 00:00:00 | |
| DO2SHX-10 | 2026-09-03 00:53:56 | 53.85668 | 14.59489 | 112° | 37km/h | 17794m | -11.2m/s | -51.7°C | 3.5% | 81.7hPa | 2.6V | 00:00:00 | 02:34:26 | 00:00:00 | |
| DL1XH-15 | 2026-09-03 00:53:54 | 53.85684 | 14.59418 | 106° | 37km/h | 17853m | -11.2m/s | -51.8°C | 3.5% | 81hPa | 2.6V | 08:17:27 | 02:34:21 | 00:00:00 | |
| DO2SHX-10 | 2026-09-03 00:53:53 | 53.85678 | 14.59446 | 111° | 37km/h | 17829m | -11.4m/s | -51.7°C | 3.5% | 81.3hPa | 2.5V | 00:00:00 | 02:34:23 | 00:00:00 | |
| DL1XH1-15 | 2026-09-03 00:53:52 | 53.85687 | 14.59402 | 105° | 37km/h | 17864m | -11.2m/s | 0°C | 0% | 0hPa | 2.6V | 00:00:00 | 02:34:20 | 00:00:00 | |
| AA1-15 | 2026-09-03 00:53:50 | 53.85687 | 14.59402 | 105° | 37km/h | 17865m | -11.3m/s | -51.8°C | 0.3% | 80.9hPa | 2.6V | 08:17:57 | 02:34:20 | 00:00:00 | |
| DL1XH-west | 2026-09-03 00:53:49 | 53.85690 | 14.59387 | 105° | 38km/h | 17875m | -11.6m/s | -51.8°C | 0.3% | 80.7hPa | 2.5V | 08:17:57 | 02:34:19 | 00:00:00 | |
| DO2SHX-10 | 2026-09-03 00:53:47 | 53.85694 | 14.59356 | 104° | 38km/h | 17898m | -11.8m/s | -51.7°C | 3.6% | 80.4hPa | 2.5V | 00:00:00 | 02:34:17 | 00:00:00 | |
| DL1XH-15 | 2026-09-03 00:53:44 | 53.85707 | 14.59255 | 106° | 42km/h | 17969m | -11.7m/s | -51.5°C | 3.5% | 79.6hPa | 2.5V | 08:17:37 | 02:34:11 | 00:00:00 | |
| DL1XH-west | 2026-09-03 00:53:39 | 53.85713 | 14.59221 | 109° | 44km/h | 17993m | -11.4m/s | -51.4°C | 0.2% | 79.3hPa | 2.6V | 08:17:57 | 02:34:09 | 00:00:00 | |
| DO2SHX-10 | 2026-09-03 00:53:38 | 53.85717 | 14.59203 | 111° | 42km/h | 18005m | -11.5m/s | -51.3°C | 3.4% | 79.1hPa | 2.6V | 00:00:00 | 02:34:08 | 00:00:00 | |
| DL1XH1-15 | 2026-09-03 00:53:36 | 53.85741 | 14.59108 | 110° | 37km/h | 18073m | -11.5m/s | 0°C | 0% | 0hPa | 2.6V | 00:00:00 | 02:34:02 | 00:00:00 | |
| DO2SHX-10 | 2026-09-03 00:53:35 | 53.85730 | 14.59153 | 114° | 38km/h | 18039m | -11.6m/s | -51.2°C | 3.4% | 78.7hPa | 2.5V | 08:17:00 | 02:34:05 | 00:00:00 | |
| DL1XH-15 | 2026-09-03 00:53:34 | 53.85744 | 14.59093 | 111° | 37km/h | 18085m | -11.8m/s | -51.3°C | 3.5% | 78.2hPa | 2.5V | 08:17:47 | 02:34:01 | 00:00:00 | |
| DL1XH-west | 2026-09-03 00:53:29 | 53.85750 | 14.59064 | 109° | 37km/h | 18108m | -11.6m/s | -51.3°C | 0.2% | 77.9hPa | 2.5V | 08:17:57 | 02:33:59 | 00:00:00 | |
| DO2SHX-10 | 2026-09-03 00:53:27 | 53.85756 | 14.59034 | 108° | 38km/h | 18131m | -11.8m/s | -51.1°C | 3.4% | 77.6hPa | 2.5V | 00:00:00 | 02:33:57 | 00:00:00 | |
| DL1XH-15 | 2026-09-03 00:53:24 | 53.85772 | 14.58940 | 102° | 38km/h | 18202m | -12.1m/s | -51°C | 3.4% | 76.8hPa | 2.5V | 08:17:57 | 02:33:51 | 00:00:00 | |
| AA1-15 | 2026-09-03 00:53:19 | 53.85777 | 14.58908 | 106° | 38km/h | 18226m | -12.1m/s | -51.1°C | 0.2% | 76.5hPa | 2.5V | 08:18:48 | 02:33:49 | 00:00:00 | |
| DL1XH1-15 | 2026-09-03 00:53:18 | 53.85790 | 14.58828 | 105° | 38km/h | 18288m | -12m/s | 0°C | 0% | 0hPa | 2.5V | 00:00:00 | 02:33:44 | 00:00:00 | |
| DL1XH-west | 2026-09-03 00:53:18 | 53.85780 | 14.58892 | 105° | 38km/h | 18239m | -12m/s | -51.2°C | 0.2% | 76.3hPa | 2.6V | 08:19:39 | 02:33:48 | 00:00:00 | |
| DO2SHX-10 | 2026-09-03 00:53:18 | 53.85780 | 14.58892 | 105° | 38km/h | 18239m | -12.0m/s | -51.1°C | 3.4% | 76.3hPa | 2.5V | 00:00:00 | 02:33:48 | 00:00:00 | |
| DO2SHX-10 | 2026-09-03 00:53:15 | 53.85788 | 14.58844 | 106° | 38km/h | 18276m | -12.0m/s | -51.2°C | 3.4% | 75.9hPa | 2.5V | 00:00:00 | 02:33:45 | 00:00:00 | |
| DL1XH-15 | 2026-09-03 00:53:14 | 53.85798 | 14.58779 | 101° | 40km/h | 18324m | -12m/s | -51°C | 3.4% | 75.4hPa | 2.5V | 08:18:07 | 02:33:41 | 00:00:00 | |
| AA1-15 | 2026-09-03 00:53:08 | 53.85803 | 14.58729 | 101° | 38km/h | 18361m | -12.1m/s | -51°C | 0.1% | 74.9hPa | 2.6V | 08:18:48 | 02:33:38 | 00:00:00 | |
| DL1XH-west | 2026-09-03 00:53:07 | 53.85805 | 14.58712 | 101° | 40km/h | 18373m | -12.4m/s | -51°C | 0.2% | 74.8hPa | 2.6V | 08:19:39 | 02:33:37 | 00:00:00 | |
| DO2SHX-10 | 2026-09-03 00:53:06 | 53.85807 | 14.58695 | 100° | 38km/h | 18386m | -12.3m/s | -50.8°C | 3.4% | 74.6hPa | 2.5V | 08:18:00 | 02:33:36 | 00:00:00 | |
| DL1XH-15 | 2026-09-03 00:53:04 | 53.85812 | 14.58618 | 92° | 33km/h | 18447m | -12m/s | -50.4°C | 3.2% | 74hPa | 2.5V | 08:18:17 | 02:33:31 | 00:00:00 | |
| DL1XH-west | 2026-09-03 00:52:57 | 53.85813 | 14.58563 | 94° | 33km/h | 18496m | -12m/s | -50.7°C | 0.1% | 73.4hPa | 2.6V | 08:19:39 | 02:33:27 | 00:00:00 | |
| AA1-15 | 2026-09-03 00:52:47 | 53.85819 | 14.58410 | 90° | 35km/h | 18616m | -12.1m/s | -51.1°C | 0.2% | 72.1hPa | 2.5V | 08:18:48 | 02:33:17 | 00:00:00 | |
| DL1XH-west | 2026-09-03 00:52:46 | 53.85819 | 14.58395 | 89° | 37km/h | 18628m | -12.4m/s | -51°C | 0.2% | 71.9hPa | 2.5V | 08:19:39 | 02:33:16 | 00:00:00 | |
| DO2SHX-10 | 2026-09-03 00:52:44 | 53.85818 | 14.58365 | 88° | 37km/h | 18653m | -12.2m/s | -50.6°C | 3.3% | 71.6hPa | 2.5V | 00:00:00 | 02:33:14 | 00:00:00 | |
| AM1SDL-15 | 2026-09-03 00:52:43 | 53.85818 | 14.58349 | 87° | 37km/h | 18665m | -12.4m/s | -50.6°C | 3.3% | 71.5hPa | 2.5V | 00:00:00 | 02:33:13 | 00:00:00 | |
| DL1XH-15 | 2026-09-03 00:52:42 | 53.85816 | 14.58319 | 85° | 37km/h | 18690m | -12.1m/s | -50.8°C | 3.4% | 71.3hPa | 2.5V | 08:18:37 | 02:33:11 | 00:00:00 | |
| AA1-15 | 2026-09-03 00:52:37 | 53.85813 | 14.58257 | 83° | 37km/h | 18739m | -12.2m/s | -50.4°C | 0.1% | 70.8hPa | 2.5V | 08:18:48 | 02:33:07 | 00:00:00 | |
| DL1XH-15 | 2026-09-03 00:52:37 | 53.85809 | 14.58163 | 88° | 38km/h | 18814m | -12.7m/s | -50.9°C | 3.4% | 69.9hPa | 2.5V | 08:18:47 | 02:33:01 | 00:00:00 | |
| DL1XH-west | 2026-09-03 00:52:35 | 53.85811 | 14.58226 | 83° | 37km/h | 18764m | -12.3m/s | -50.6°C | 0.2% | 70.5hPa | 2.6V | 08:19:39 | 02:33:05 | 00:00:00 | |
| AA1-15 | 2026-09-03 00:52:26 | 53.85811 | 14.58079 | 97° | 42km/h | 18878m | -12.3m/s | -50.9°C | 0.2% | 69.2hPa | 2.5V | 08:19:39 | 02:32:56 | 00:00:00 | |
| DL1XH-15 | 2026-09-03 00:52:26 | 53.85821 | 14.57993 | 107° | 38km/h | 18939m | -12.5m/s | -50.8°C | 3.4% | 68.6hPa | 2.5V | 08:18:57 | 02:32:51 | 00:00:00 | |
| DL1XH-west | 2026-09-03 00:52:24 | 53.85814 | 14.58044 | 100° | 40km/h | 18902m | -12.7m/s | -50.8°C | 0.2% | 69hPa | 2.6V | 08:19:39 | 02:32:54 | 00:00:00 | |
| AA1-15 | 2026-09-03 00:52:16 | 53.85838 | 14.57923 | 118° | 33km/h | 19002m | -12.7m/s | -50.7°C | 0.1% | 67.9hPa | 2.5V | 08:19:39 | 02:32:46 | 00:00:00 | |
| DL1XH-west | 2026-09-03 00:52:11 | 53.85857 | 14.57866 | 120° | 29km/h | 19066m | -12.8m/s | -50.5°C | 0.1% | 67.3hPa | 2.5V | 08:19:39 | 02:32:41 | 00:00:00 | |
| AA1-15 | 2026-09-03 00:52:06 | 53.85874 | 14.57815 | 119° | 26km/h | 19130m | -12.7m/s | -50.7°C | 0.2% | 66.6hPa | 2.5V | 08:19:39 | 02:32:36 | 00:00:00 | |
| DL1XH-west | 2026-09-03 00:52:00 | 53.85895 | 14.57771 | 140° | 18km/h | 19205m | -12.4m/s | -50.7°C | 0.2% | 65.8hPa | 2.6V | 08:19:39 | 02:32:30 | 00:00:00 | |
| DJ2DS-15 | 2026-09-03 00:52:00 | 53.85895 | 14.57771 | 141° | 24km/h | 19205m | -12.4m/s | -50.6°C | 3.3% | 65.8hPa | 2.6V | 00:00:00 | 02:32:30 | 00:00:00 | |
| DO2SHX-10 | 2026-09-03 00:51:59 | 53.85898 | 14.57766 | 139° | 18km/h | 19218m | -12.4m/s | -50.7°C | 3.3% | 65.7hPa | 2.6V | 00:00:00 | 02:32:29 | 00:00:00 | |
| DL1XH-15 | 2026-09-03 00:51:57 | 53.85917 | 14.57712 | 94° | 24km/h | 19318m | -13.3m/s | -51.1°C | 3.4% | 64.7hPa | 2.5V | 08:19:27 | 02:32:21 | 00:00:00 | |
| AA1-15 | 2026-09-03 00:51:55 | 53.85911 | 14.57745 | 123° | 18km/h | 19267m | -12.7m/s | -50.9°C | 0.3% | 65.2hPa | 2.6V | 08:19:39 | 02:32:25 | 00:00:00 | |
| DL1XH-west | 2026-09-03 00:51:50 | 53.85917 | 14.57702 | 88° | 24km/h | 19331m | -13.3m/s | -51.1°C | 0.2% | 64.5hPa | 2.6V | 08:19:39 | 02:32:20 | 00:00:00 | |
| AA1-15 | 2026-09-03 00:51:45 | 53.85914 | 14.57646 | 85° | 27km/h | 19397m | -13.2m/s | -50.9°C | 0.3% | 63.9hPa | 2.6V | 08:19:39 | 02:32:15 | 00:00:00 | |
| DO2SHX-10 | 2026-09-03 00:51:45 | 53.85914 | 14.57646 | 85° | 27km/h | 19397m | -13.1m/s | -50.9°C | 3.4% | 63.9hPa | 2.5V | 00:00:00 | 02:32:15 | 00:00:00 | |
| DL1XH-15 | 2026-09-03 00:51:41 | 53.85915 | 14.57600 | 100° | 29km/h | 19451m | -13.4m/s | -51°C | 3.5% | 63.4hPa | 2.5V | 08:19:37 | 02:32:11 | 00:00:00 | |
| DL1XH-west | 2026-09-03 00:51:40 | 53.85917 | 14.57588 | 104° | 29km/h | 19465m | -13.3m/s | 0°C | 0% | 63.3hPa | 2.6V | 08:19:39 | 02:32:10 | 00:00:00 | |
| AA1-15 | 2026-09-03 00:51:34 | 53.85935 | 14.57519 | 121° | 27km/h | 19545m | -13.5m/s | -50.7°C | 0.2% | 62.5hPa | 2.6V | 08:20:30 | 02:32:04 | 00:00:00 | |
| DO2SHX-10 | 2026-09-03 00:51:34 | 53.85934 | 14.57519 | 122° | 24km/h | 19545m | -13.4m/s | -50.6°C | 3.4% | 62.5hPa | 2.5V | 00:00:00 | 02:32:04 | 00:00:00 | |
| DL1XH-15 | 2026-09-03 00:51:31 | 53.85945 | 14.57492 | 119° | 24km/h | 19586m | -13.2m/s | -50.6°C | 3.3% | 62.1hPa | 2.5V | 08:19:47 | 02:32:01 | 00:00:00 | |
| DL1XH-west | 2026-09-03 00:51:29 | 53.85950 | 14.57474 | 115° | 20km/h | 19611m | -13.5m/s | 0°C | 0% | 0hPa | 2.6V | 18:12:15 | 02:31:59 | 00:00:00 | |
| DL1XH-15 | 2026-09-03 00:51:21 | 53.85952 | 14.57396 | 84° | 29km/h | 19719m | -13.5m/s | -50.4°C | 3.3% | 60.9hPa | 2.5V | 08:19:57 | 02:31:51 | 00:00:00 | |
| DL1XH-west | 2026-09-03 00:51:19 | 53.85951 | 14.57369 | 85° | 31km/h | 19746m | -13.5m/s | 0°C | 0% | 0hPa | 2.6V | 18:12:15 | 02:31:49 | 00:00:00 | |
| AA1-15 | 2026-09-03 00:51:13 | 53.85952 | 14.57291 | 97° | 27km/h | 19827m | -13.5m/s | -50.7°C | 0.2% | 59.9hPa | 2.5V | 08:20:30 | 02:31:43 | 00:00:00 | |
| DO2SHX-10 | 2026-09-03 00:51:13 | 53.85951 | 14.57291 | 98° | 26km/h | 19828m | -13.4m/s | -50.6°C | 3.4% | 59.8hPa | 2.5V | 00:00:00 | 02:31:43 | 00:00:00 | |
| DL1XH-15 | 2026-09-03 00:51:11 | 53.85954 | 14.57269 | 99° | 26km/h | 19855m | -13.6m/s | -50.4°C | 3.2% | 59.6hPa | 2.5V | 08:20:07 | 02:31:41 | 00:00:00 | |
| DL1XH-west | 2026-09-03 00:51:06 | 53.85960 | 14.57225 | 106° | 16km/h | 19923m | -13.7m/s | 0°C | 0% | 0hPa | 2.5V | 18:12:15 | 02:31:36 | 00:00:00 | |
| DL1XH-15 | 2026-09-03 00:51:06 | 53.85966 | 14.57197 | 108° | 11km/h | 19991m | -13.5m/s | -50.6°C | 3.3% | 58.4hPa | 2.5V | 08:20:17 | 02:31:31 | 00:00:00 | |
| AA1-15 | 2026-09-03 00:51:02 | 53.85965 | 14.57202 | 116° | 13km/h | 19978m | -13.7m/s | -50.6°C | 0.2% | 58.5hPa | 2.5V | 08:20:30 | 02:31:32 | 00:00:00 | |
| DO2SHX-10 | 2026-09-03 00:51:00 | 53.85967 | 14.57192 | 110° | 13km/h | 20004m | -13.4m/s | -50.6°C | 3.3% | 58.2hPa | 2.6V | 08:20:00 | 02:31:30 | 00:00:00 | |
| DJ2DS-15 | 2026-09-03 00:50:59 | 53.85968 | 14.57186 | 102° | 16km/h | 20018m | -13.6m/s | -50.6°C | 3.4% | 58.1hPa | 2.5V | 00:00:00 | 02:31:29 | 00:00:00 | |
| AM1SDL-15 | 2026-09-03 00:50:58 | 53.85969 | 14.57180 | 96° | 18km/h | 20031m | -13.8m/s | -50.7°C | 3.4% | 58.0hPa | 2.5V | 00:00:00 | 02:31:28 | 00:00:00 | |
| DO2SHX-10 | 2026-09-03 00:50:57 | 53.85969 | 14.57174 | 102° | 16km/h | 20045m | -13.8m/s | -50.7°C | 3.4% | 57.9hPa | 2.5V | 00:00:00 | 02:31:27 | 00:00:00 | |
| DL1XH-15 | 2026-09-03 00:50:55 | 53.85972 | 14.57124 | 92° | 22km/h | 20130m | -13.8m/s | -50.7°C | 3.4% | 57.1hPa | 2.5V | 08:20:27 | 02:31:21 | 00:00:00 | |
| AA1-15 | 2026-09-03 00:50:51 | 53.85972 | 14.57124 | 93° | 22km/h | 20130m | -13.8m/s | -50.7°C | 0.2% | 57.1hPa | 2.5V | 08:20:30 | 02:31:21 | 00:00:00 | |
| S3001 | 2026-09-03 00:50:48 | 53.85972 | 14.57099 | 79° | 18km/h | 20172m | -13.7m/s | -50.4°C | 0.9% | 56.8hPa | 2.5V | 00:00:00 | 00:00:00 | 00:00:00 | |
| DO2SHX-10 | 2026-09-03 00:50:46 | 53.85970 | 14.57085 | 75° | 16km/h | 20199m | -13.9m/s | -50.2°C | 3.3% | 56.5hPa | 2.5V | 00:00:00 | 02:31:16 | 00:00:00 | |
| DL1XH-15 | 2026-09-03 00:50:44 | 53.85964 | 14.57056 | 74° | 13km/h | 20268m | -14.2m/s | -50.3°C | 3.3% | 56hPa | 2.5V | 00:00:00 | 02:31:11 | 00:00:00 | |
| AA1-15 | 2026-09-03 00:50:40 | 53.85963 | 14.57051 | 75° | 13km/h | 20282m | -13.8m/s | -50.3°C | 0.1% | 55.8hPa | 2.6V | 08:21:21 | 02:31:10 | 00:00:00 | |
| DO2SHX-10 | 2026-09-03 00:50:40 | 53.85963 | 14.57051 | 75° | 13km/h | 20283m | -13.8m/s | -50.3°C | 3.2% | 55.8hPa | 2.6V | 00:00:00 | 02:31:10 | 00:00:00 | |
| DJ2DS-15 | 2026-09-03 00:50:39 | 53.85962 | 14.57045 | 79° | 18km/h | 20296m | -14.1m/s | -50.3°C | 3.2% | 55.7hPa | 2.5V | 00:00:00 | 02:31:09 | 00:00:00 | |
| DO2SHX-10 | 2026-09-03 00:50:37 | 53.85960 | 14.57034 | 80° | 15km/h | 20324m | -14.3m/s | -50.4°C | 3.2% | 55.4hPa | 2.5V | 00:00:00 | 02:31:07 | 00:00:00 | |
| SP3WXH-11 | 2026-09-03 00:50:36 | 53.85960 | 14.57028 | 82° | 15km/h | 20338m | -14.2m/s | -50.4°C | 0.8% | 55.3hPa | 2.5V | 00:00:00 | 00:00:00 | 00:00:00 | |
| DL1XH-15 | 2026-09-03 00:50:34 | 53.85958 | 14.56992 | 87° | 20km/h | 20410m | -14.1m/s | -50.1°C | 3.1% | 54.8hPa | 2.5V | 00:00:00 | 02:31:01 | 00:00:00 | |
| AA1-15 | 2026-09-03 00:50:29 | 53.85958 | 14.56976 | 91° | 20km/h | 20439m | -14.1m/s | -50.3°C | 0% | 54.5hPa | 2.6V | 08:21:21 | 02:30:59 | 00:00:00 | |
| DO2SHX-10 | 2026-09-03 00:50:28 | 53.85958 | 14.56968 | 90° | 18km/h | 20454m | -14.6m/s | -50.3°C | 3.2% | 54.3hPa | 2.5V | 00:00:00 | 02:30:58 | 00:00:00 | |
| DJ2DS-15 | 2026-09-03 00:50:26 | 53.85959 | 14.56952 | 93° | 18km/h | 20483m | -14.1m/s | -50.6°C | 0.8% | 54.1hPa | 2.5V | 00:00:00 | 00:00:00 | 00:00:00 | |
| DO2SHX-10 | 2026-09-03 00:50:25 | 53.85959 | 14.56944 | 92° | 18km/h | 20497m | -14.0m/s | -50.6°C | 3.3% | 54.0hPa | 2.5V | 00:00:00 | 02:30:55 | 00:00:00 | |
| DL1XH-15 | 2026-09-03 00:50:22 | 53.85960 | 14.56911 | 91° | 22km/h | 20555m | -14.3m/s | -51.1°C | 3.4% | 53.6hPa | 2.5V | 00:00:00 | 02:30:51 | 00:00:00 | |
| AA1-15 | 2026-09-03 00:50:18 | 53.85961 | 14.56880 | 95° | 27km/h | 20599m | -14.1m/s | -51.5°C | 0.3% | 53.2hPa | 2.5V | 08:21:21 | 02:30:48 | 00:00:00 | |
| DO2SHX-10 | 2026-09-03 00:50:18 | 53.85961 | 14.56880 | 95° | 29km/h | 20599m | -14.0m/s | -51.4°C | 3.5% | 53.2hPa | 2.5V | 00:00:00 | 02:30:48 | 00:00:00 | |
| S3001 | 2026-09-03 00:50:17 | 53.85962 | 14.56868 | 93° | 27km/h | 20613m | -14.1m/s | -51.6°C | 0.9% | 53.1hPa | 2.5V | 00:00:00 | 00:00:00 | 00:00:00 | |
| DL1XH-15 | 2026-09-03 00:50:16 | 53.85971 | 14.56798 | 114° | 26km/h | 20700m | -14.1m/s | -51.7°C | 0% | 52.4hPa | 2.5V | 00:00:00 | 02:30:41 | 00:00:00 | |
| AA1-15 | 2026-09-03 00:50:08 | 53.85980 | 14.56759 | 106° | 24km/h | 20758m | -14.4m/s | -51.6°C | 0.3% | 51.9hPa | 2.5V | 08:21:21 | 02:30:37 | 00:00:00 | |
| DG6HD-11 | 2026-09-03 00:50:08 | 53.85977 | 14.56769 | 111° | 20km/h | 20744m | -14.1m/s | -51.6°C | 3.5% | 52.0hPa | 2.5V | 00:00:00 | 00:00:00 | 00:00:00 | |
| DL1XH-15 | 2026-09-03 00:50:06 | 53.85985 | 14.56692 | 93° | 26km/h | 20846m | -14.3m/s | -51.5°C | 0% | 51.2hPa | 2.5V | 00:00:00 | 02:30:31 | 00:00:00 | |
| AA1-15 | 2026-09-03 00:49:57 | 53.85986 | 14.56640 | 99° | 22km/h | 20918m | -14.5m/s | -51.5°C | 0.2% | 50.7hPa | 2.5V | 08:22:12 | 02:30:26 | 00:00:00 | |
| AA1-15 | 2026-09-03 00:49:46 | 53.85987 | 14.56579 | 66° | 15km/h | 21064m | -14.6m/s | -51.3°C | 0.3% | 49.6hPa | 2.5V | 08:22:12 | 02:30:16 | 00:00:00 | |
| AA1-15 | 2026-09-03 00:49:36 | 53.85972 | 14.56492 | 96° | 26km/h | 21210m | -14.7m/s | -51.2°C | 0.3% | 48.5hPa | 2.5V | 08:22:12 | 02:30:06 | 00:00:00 | |
| DO2SHX-10 | 2026-09-03 00:49:36 | 53.85972 | 14.56492 | 97° | 26km/h | 21210m | -14.7m/s | -51.2°C | 3.5% | 48.4hPa | 2.5V | 00:00:00 | 02:30:06 | 00:00:00 | |
| SP3WXH-11 | 2026-09-03 00:49:34 | 53.85975 | 14.56471 | 106° | 24km/h | 21239m | -14.6m/s | -51.2°C | 0.9% | 48.2hPa | 2.5V | 00:00:00 | 00:00:00 | 00:00:00 | |
| DL1XH-15 | 2026-09-03 00:49:33 | 53.85982 | 14.56445 | 112° | 22km/h | 21284m | -14.7m/s | -51.4°C | 0% | 47.9hPa | 2.5V | 00:00:00 | 02:30:01 | 00:00:00 | |
| DO2SHX-10 | 2026-09-03 00:49:33 | 53.85977 | 14.56462 | 113° | 24km/h | 21254m | -14.8m/s | -51.2°C | 3.4% | 48.1hPa | 2.5V | 08:21:00 | 02:30:03 | 00:00:00 | |
| DO2SHX-10 | 2026-09-03 00:49:27 | 53.85990 | 14.56417 | 113° | 15km/h | 21344m | -14.9m/s | -51.5°C | 3.5% | 47.4hPa | 2.5V | 00:00:00 | 02:29:57 | 00:00:00 | |
| DL1XH-15 | 2026-09-03 00:49:26 | 53.85994 | 14.56386 | 89° | 11km/h | 21434m | -14.5m/s | -51.6°C | 0% | 46.8hPa | 2.5V | 00:00:00 | 02:29:51 | 00:00:00 | |
| AA1-15 | 2026-09-03 00:49:25 | 53.85993 | 14.56406 | 110° | 13km/h | 21374m | -15.2m/s | -51.5°C | 0.3% | 47.3hPa | 2.6V | 08:22:12 | 02:29:55 | 00:00:00 | |
| AA1-15 | 2026-09-03 00:49:14 | 53.86000 | 14.56363 | 136° | 7km/h | 21541m | -15.4m/s | -51.9°C | 0.4% | 46hPa | 2.6V | 08:22:12 | 02:29:44 | 00:00:00 | |
| AA1-15 | 2026-09-03 00:49:04 | 53.86011 | 14.56343 | 120° | 7km/h | 21694m | -15m/s | -51.5°C | 0.3% | 45hPa | 2.5V | 08:23:03 | 02:29:34 | 00:00:00 | |
| AA1-15 | 2026-09-03 00:48:53 | 53.86032 | 14.56287 | 109° | 20km/h | 21865m | -15.7m/s | -51.5°C | 0.3% | 43.8hPa | 2.6V | 08:23:03 | 02:29:23 | 00:00:00 | |
| DO2SHX-10 | 2026-09-03 00:48:51 | 53.86035 | 14.56270 | 112° | 24km/h | 21897m | -15.6m/s | -51.5°C | 3.4% | 43.5hPa | 2.6V | 00:00:00 | 02:29:21 | 00:00:00 | |
| MECKS9 | 2026-09-03 00:48:50 | 53.86035 | 14.56270 | 112° | 24km/h | 21897m | -15.6m/s | -51.5°C | 0.9% | 43.6hPa | 2.6V | 00:00:00 | 00:00:00 | 00:00:00 | |
| DL1XH-15 | 2026-09-03 00:48:47 | 53.86041 | 14.56235 | 98° | 18km/h | 21960m | -15.3m/s | -51.7°C | 0% | 43.2hPa | 2.6V | 00:00:00 | 02:29:17 | 00:00:00 | |
| AA1-15 | 2026-09-03 00:48:42 | 53.86039 | 14.56205 | 61° | 15km/h | 22039m | -16m/s | -52°C | 0.4% | 42.7hPa | 2.6V | 08:23:03 | 02:29:12 | 00:00:00 | |
| AA1-15 | 2026-09-03 00:48:32 | 53.86018 | 14.56103 | 91° | 33km/h | 22198m | -16m/s | -52.4°C | 0.5% | 41.6hPa | 2.6V | 08:23:03 | 02:29:02 | 00:00:00 | |
| AA1-15 | 2026-09-03 00:48:22 | 53.86040 | 14.55958 | 118° | 33km/h | 22359m | -16.4m/s | -51.2°C | 0.2% | 40.6hPa | 2.5V | 08:23:03 | 02:28:52 | 00:00:00 | |
| AA1-15 | 2026-09-03 00:48:11 | 53.86093 | 14.55853 | 126° | 26km/h | 22538m | -16.3m/s | -51.6°C | 0.3% | 39.5hPa | 2.6V | 08:23:54 | 02:28:41 | 00:00:00 | |
| AA1-15 | 2026-09-03 00:48:01 | 53.86123 | 14.55797 | 116° | 9km/h | 22705m | -16.3m/s | -51.7°C | 0.3% | 38.5hPa | 2.5V | 08:23:54 | 02:28:31 | 00:00:00 | |
| AA1-15 | 2026-09-03 00:47:50 | 53.86129 | 14.55755 | 91° | 15km/h | 22889m | -16.5m/s | -51.6°C | 0.4% | 37.4hPa | 2.5V | 08:23:54 | 02:28:20 | 00:00:00 | |
| AA1-15 | 2026-09-03 00:47:39 | 53.86152 | 14.55683 | 143° | 24km/h | 23074m | -17.4m/s | -51.6°C | 0.3% | 36.4hPa | 2.5V | 08:23:54 | 02:28:09 | 00:00:00 | |
| AA1-15 | 2026-09-03 00:47:28 | 53.86205 | 14.55659 | 211° | 16km/h | 23264m | -17.4m/s | -51.7°C | 0.4% | 35.3hPa | 2.5V | 08:23:54 | 02:27:58 | 00:00:00 | |
| AM1SDL-15 | 2026-09-03 00:47:27 | 53.86208 | 14.55664 | 215° | 7km/h | 23282m | -17.5m/s | -51.8°C | 3.6% | 35.2hPa | 2.5V | 00:00:00 | 02:27:57 | 00:00:00 | |
| DO2SHX-10 | 2026-09-03 00:47:26 | 53.86211 | 14.55667 | 224° | 11km/h | 23300m | -17.4m/s | -51.8°C | 3.5% | 35.1hPa | 2.6V | 00:00:00 | 02:27:56 | 00:00:00 | |
| AA1-15 | 2026-09-03 00:47:07 | 53.86233 | 14.55705 | 258° | 5km/h | 23635m | -17.5m/s | -51.8°C | 0.4% | 33.4hPa | 2.6V | 08:24:45 | 02:27:37 | 00:00:00 | |
| AA1-15 | 2026-09-03 00:46:57 | 53.86238 | 14.55707 | 120° | 5km/h | 23816m | -18.3m/s | -51.8°C | 0.3% | 32.5hPa | 2.5V | 08:24:45 | 02:27:27 | 00:00:00 | |
| AA1-15 | 2026-09-03 00:46:46 | 53.86240 | 14.55710 | 302° | 16km/h | 24019m | -18.5m/s | -51.6°C | 0.4% | 31.5hPa | 2.5V | 08:24:45 | 02:27:16 | 00:00:00 | |
| AA1-15 | 2026-09-03 00:46:35 | 53.86205 | 14.55757 | 11° | 13km/h | 24226m | -19m/s | -51.8°C | 0.5% | 30.5hPa | 2.5V | 08:24:45 | 02:27:05 | 00:00:00 | |
| AA1-15 | 2026-09-03 00:46:24 | 53.86186 | 14.55715 | 79° | 11km/h | 24435m | -18.7m/s | -51°C | 0.3% | 29.5hPa | 2.5V | 08:25:36 | 02:26:54 | 00:00:00 | |
| AA1-15 | 2026-09-03 00:46:14 | 53.86186 | 14.55653 | 78° | 18km/h | 24627m | -19.4m/s | -51.2°C | 0.3% | 28.7hPa | 2.5V | 08:25:36 | 02:26:44 | 00:00:00 | |
| AA1-15 | 2026-09-03 00:46:04 | 53.86184 | 14.55594 | 132° | 13km/h | 24822m | -19.6m/s | -51.3°C | 0.4% | 27.8hPa | 2.5V | 08:25:36 | 02:26:34 | 00:00:00 | |
| AA1-15 | 2026-09-03 00:45:53 | 53.86193 | 14.55579 | 356° | 9km/h | 25037m | -19.5m/s | -50.9°C | 0.3% | 26.9hPa | 2.5V | 08:25:36 | 02:26:23 | 00:00:00 | |
| SONDE2-11 | 2026-09-03 00:45:49 | 53.86183 | 14.55576 | 22° | 9km/h | 25116m | -20.7m/s | -51.1°C | 0.9% | 26.6hPa | 2.6V | 00:00:00 | 00:00:00 | 00:00:00 | |
| AA1-15 | 2026-09-03 00:45:43 | 53.86175 | 14.55543 | 86° | 26km/h | 25239m | -20.7m/s | -50.8°C | 0.4% | 26.1hPa | 2.6V | 08:25:36 | 02:26:13 | 00:00:00 | |
| AA1-15 | 2026-09-03 00:45:33 | 53.86196 | 14.55393 | 122° | 40km/h | 25443m | -20.8m/s | -49.8°C | 0.2% | 25.3hPa | 2.5V | 08:26:27 | 02:26:03 | 00:00:00 | |
| AA1-15 | 2026-09-03 00:45:22 | 53.86279 | 14.55312 | 163° | 29km/h | 25675m | -20.7m/s | -49.2°C | 0.1% | 24.4hPa | 2.6V | 08:26:27 | 02:25:52 | 00:00:00 | |
| AA1-15 | 2026-09-03 00:45:12 | 53.86357 | 14.55293 | 183° | 29km/h | 25882m | -21.4m/s | -48.5°C | 0% | 23.6hPa | 2.6V | 08:26:27 | 02:25:42 | 00:00:00 | |
| AA1-15 | 2026-09-03 00:45:02 | 53.86420 | 14.55288 | 180° | 26km/h | 26094m | -21.6m/s | -48.6°C | 0% | 22.9hPa | 2.5V | 08:26:27 | 02:25:32 | 00:00:00 | |
| AA1-15 | 2026-09-03 00:44:52 | 53.86492 | 14.55280 | 188° | 20km/h | 26335m | -22.8m/s | -49°C | 0% | 22.1hPa | 2.6V | 08:26:27 | 02:25:21 | 00:00:00 | |
| DO2SHX-10 | 2026-09-03 00:44:51 | 53.86492 | 14.55280 | 188° | 20km/h | 26335m | -22.8m/s | -48.9°C | 3.1% | 22.0hPa | 2.5V | 00:00:00 | 02:25:21 | 00:00:00 | |
| DL1XH-15 | 2026-09-03 00:44:50 | 53.86507 | 14.55282 | 189° | 20km/h | 26403m | -22.6m/s | -49.1°C | 0% | 21.9hPa | 2.5V | 00:00:00 | 02:25:18 | 00:00:00 | |
| DK1YY | 2026-09-03 00:44:48 | 53.86511 | 14.55282 | 189° | 18km/h | 26427m | -22.3m/s | -49.2°C | 0.8% | 21.8hPa | 2.5V | 00:00:00 | 00:00:00 | 00:00:00 | |
| SONDE2-11 | 2026-09-03 00:44:47 | 53.86511 | 14.55282 | 189° | 18km/h | 26427m | -22.3m/s | -49.2°C | 0.8% | 21.8hPa | 2.5V | 00:00:00 | 00:00:00 | 00:00:00 | |
| AA1-15 | 2026-09-03 00:44:41 | 53.86541 | 14.55281 | 170° | 20km/h | 26561m | -22m/s | -49.7°C | 0.3% | 21.3hPa | 2.5V | 08:27:18 | 02:25:11 | 00:00:00 | |
| AA1-15 | 2026-09-03 00:44:31 | 53.86579 | 14.55257 | 179° | 11km/h | 26789m | -22.9m/s | -49.3°C | 0.1% | 20.6hPa | 2.5V | 08:27:18 | 02:25:01 | 00:00:00 | |
| AA1-15 | 2026-09-03 00:44:20 | 53.86626 | 14.55286 | 176° | 7km/h | 27045m | -23.2m/s | -49.5°C | 0.2% | 19.8hPa | 2.5V | 08:27:18 | 02:24:50 | 00:00:00 | |
| AA1-15 | 2026-09-03 00:44:10 | 53.86634 | 14.55269 | 186° | 5km/h | 27281m | -25.2m/s | -49.7°C | 0.3% | 19.1hPa | 2.5V | 08:27:18 | 02:24:40 | 00:00:00 | |
| DL1XH-15 | 2026-09-03 00:44:07 | 53.86644 | 14.55265 | 142° | 7km/h | 27430m | -24.9m/s | 0°C | 0% | 0hPa | 2.5V | 00:00:00 | 02:24:34 | 00:00:00 | |
| AA1-15 | 2026-09-03 00:44:00 | 53.86647 | 14.55254 | 87° | 9km/h | 27527m | -25.1m/s | -49.3°C | 0.3% | 18.4hPa | 2.6V | 08:27:18 | 02:24:30 | 00:00:00 | |
| DL1XH-15 | 2026-09-03 00:43:57 | 53.86649 | 14.55221 | 105° | 16km/h | 27677m | -25.1m/s | 0°C | 0% | 0hPa | 2.6V | 00:00:00 | 02:24:24 | 00:00:00 | |
| AA1-15 | 2026-09-03 00:43:49 | 53.86653 | 14.55181 | 99° | 16km/h | 27804m | -25.5m/s | -48°C | 0.1% | 17.6hPa | 2.5V | 08:28:09 | 02:24:19 | 00:00:00 | |
| DK1YY | 2026-09-03 00:43:45 | 53.86657 | 14.55162 | 137° | 9km/h | 27902m | -25.2m/s | -47.6°C | 0.7% | 17.4hPa | 2.6V | 00:00:00 | 00:00:00 | 00:00:00 | |
| AA1-15 | 2026-09-03 00:43:39 | 53.86663 | 14.55157 | 296° | 5km/h | 28055m | -26.5m/s | -47.3°C | 0.1% | 17hPa | 2.6V | 08:28:09 | 02:24:09 | 00:00:00 | |
| DL1XH-15 | 2026-09-03 00:43:37 | 53.86657 | 14.55165 | 315° | 9km/h | 28186m | -26.3m/s | 0°C | 0% | 0hPa | 2.6V | 00:00:00 | 02:24:04 | 00:00:00 | |
| AA1-15 | 2026-09-03 00:43:28 | 53.86651 | 14.55189 | 267° | 9km/h | 28338m | -26.5m/s | -46°C | 0% | 16.3hPa | 2.5V | 08:28:09 | 02:23:58 | 00:00:00 | |
| AA1-15 | 2026-09-03 00:43:18 | 53.86659 | 14.55141 | 79° | 27km/h | 28602m | -27.2m/s | -46.1°C | 0% | 15.7hPa | 2.6V | 08:28:09 | 02:23:48 | 00:00:00 | |
| AA1-15 | 2026-09-03 00:43:07 | 53.86678 | 14.55054 | 152° | 22km/h | 28901m | -28.2m/s | -46.1°C | 0% | 14.9hPa | 2.5V | 08:29:00 | 02:23:37 | 00:00:00 | |
| AA1-15 | 2026-09-03 00:42:56 | 53.86704 | 14.55039 | 300° | 5km/h | 29214m | -27.7m/s | -45.9°C | 0% | 14.3hPa | 2.5V | 08:29:00 | 02:23:26 | 00:00:00 | |
| AA1-15 | 2026-09-03 00:42:46 | 53.86692 | 14.55018 | 62° | 13km/h | 29496m | -29.6m/s | -45.2°C | 0% | 13.7hPa | 2.5V | 08:29:00 | 02:23:16 | 00:00:00 | |
| AA1-15 | 2026-09-03 00:42:36 | 53.86673 | 14.55000 | 21° | 11km/h | 29795m | -29.8m/s | -45.3°C | 0% | 13.1hPa | 2.6V | 08:29:00 | 02:23:06 | 00:00:00 | |
| AA1-15 | 2026-09-03 00:42:25 | 53.86668 | 14.54936 | 127° | 16km/h | 30119m | -31.1m/s | -44.5°C | 0% | 12.5hPa | 2.5V | 08:29:00 | 02:22:55 | 00:00:00 | |
| AA1-15 | 2026-09-03 00:42:15 | 53.86668 | 14.54884 | 65° | 11km/h | 30430m | -33.2m/s | -42°C | 0% | 11.9hPa | 2.6V | 08:29:51 | 02:22:45 | 00:00:00 | |
| AA1-15 | 2026-09-03 00:42:04 | 53.86711 | 14.54817 | 181° | 22km/h | 30788m | -33.9m/s | -40.5°C | 0% | 11.3hPa | 2.5V | 08:29:51 | 02:22:34 | 00:00:00 | |
| AA1-15 | 2026-09-03 00:41:54 | 53.86707 | 14.54797 | 11° | 38km/h | 31111m | -32.3m/s | -40.4°C | 0% | 10.8hPa | 2.6V | 08:29:51 | 02:22:24 | 00:00:00 | |
| AA1-15 | 2026-09-03 00:41:44 | 53.86680 | 14.54724 | 98° | 47km/h | 31430m | -34m/s | -40.7°C | 0% | 10.3hPa | 2.5V | 08:29:51 | 02:22:14 | 00:00:00 | |
| AA1-15 | 2026-09-03 00:41:33 | 53.86721 | 14.54583 | 80° | 15km/h | 31789m | -33.6m/s | -40.4°C | 0% | 9.7hPa | 2.6V | 08:29:51 | 02:22:03 | 00:00:00 | |
| AA1-15 | 2026-09-03 00:41:23 | 53.86699 | 14.54468 | 124° | 38km/h | 32153m | -36.3m/s | -39.3°C | 0% | 9.3hPa | 2.5V | 18:12:15 | 02:21:53 | 00:00:00 | |
| AA1-15 | 2026-09-03 00:41:13 | 53.86728 | 14.54347 | 74° | 35km/h | 32503m | -37.7m/s | -38.4°C | 0% | 8.8hPa | 2.6V | 18:12:15 | 02:21:43 | 00:00:00 | |
| AA1-15 | 2026-09-03 00:41:02 | 53.86732 | 14.54247 | 43° | 20km/h | 32941m | -43m/s | -37.6°C | 0% | 8.2hPa | 2.5V | 18:12:15 | 02:21:32 | 00:00:00 | |
| AA1-15 | 2026-09-03 00:40:51 | 53.86658 | 14.54172 | 84° | 35km/h | 33428m | -27.3m/s | -38.1°C | 0% | 7.6hPa | 2.6V | 18:12:15 | 02:21:21 | 00:00:00 | |
| DJ2DS-15 | 2026-09-03 00:40:49 | 53.86658 | 14.54136 | 89° | 38km/h | 33467m | -9.2m/s | -38.2°C | 0.4% | 7.6hPa | 2.6V | 00:00:00 | 00:00:00 | 00:00:00 | |
| SP3WXH-11 | 2026-09-03 00:40:46 | 53.86656 | 14.54087 | 94° | 37km/h | 33461m | 4.7m/s | -38.2°C | 0.4% | 7.6hPa | 2.6V | 00:00:00 | 00:00:00 | 00:00:00 | |
| AA1-15 | 2026-09-03 00:40:41 | 53.86648 | 14.54028 | 43° | 22km/h | 33430m | 4.7m/s | -38.2°C | 0% | 7.6hPa | 2.6V | 18:12:15 | 02:21:10 | 00:00:00 | |
| AA1-15 | 2026-09-03 00:40:29 | 53.86624 | 14.53896 | 89° | 18km/h | 33368m | 5.6m/s | -38.6°C | 0% | 7.7hPa | 2.5V | 18:12:15 | 02:20:59 | 00:00:00 | |
| DO2SHX-10 | 2026-09-03 00:40:28 | 53.86624 | 14.53888 | 90° | 22km/h | 33362m | 5.7m/s | -38.6°C | 2.0% | 7.6hPa | 2.6V | 00:00:00 | 02:20:58 | 00:00:00 | |
| DO2SHX-10 | 2026-09-03 00:40:25 | 53.86620 | 14.53860 | 68° | 29km/h | 33347m | 5.4m/s | -38.7°C | 2.0% | 7.6hPa | 2.6V | 00:00:00 | 02:20:55 | 00:00:00 | |
| AA1-15 | 2026-09-03 00:40:08 | 53.86588 | 14.53680 | 71° | 37km/h | 33251m | 5.9m/s | -38.5°C | 0% | 7.8hPa | 2.6V | 18:12:15 | 02:20:38 | 00:00:00 | |
| AA1-15 | 2026-09-03 00:39:58 | 53.86571 | 14.53564 | 82° | 18km/h | 33196m | 4.6m/s | -38.7°C | 0% | 7.9hPa | 2.5V | 18:12:15 | 02:20:28 | 00:00:00 | |
| AA1-15 | 2026-09-03 00:39:47 | 53.86525 | 14.53449 | 64° | 26km/h | 33130m | 6.2m/s | -38.6°C | 0% | 8hPa | 2.5V | 18:12:15 | 02:20:16 | 00:00:00 | |
| MECKS9 | 2026-09-03 00:39:38 | 53.86501 | 14.53403 | 62° | 31km/h | 33093m | 5.3m/s | -38.5°C | 0.4% | 8.0hPa | 2.6V | 00:00:00 | 00:00:00 | 00:00:00 | |
| AA1-15 | 2026-09-03 00:39:36 | 53.86483 | 14.53358 | 43° | 29km/h | 33073m | 6.1m/s | -38.4°C | 0% | 8hPa | 2.6V | 18:12:15 | 02:20:05 | 00:00:00 | |
| AA1-15 | 2026-09-03 00:39:25 | 53.86446 | 14.53274 | 82° | 24km/h | 33020m | 5.3m/s | -38.4°C | 0% | 8.1hPa | 2.5V | 18:12:15 | 02:19:55 | 00:00:00 | |
| AA1-15 | 2026-09-03 00:39:15 | 53.86426 | 14.53206 | 54° | 26km/h | 32968m | 5.2m/s | -38.4°C | 0% | 8.1hPa | 2.5V | 18:12:15 | 02:19:45 | 00:00:00 | |
| AA1-15 | 2026-09-03 00:39:04 | 53.86404 | 14.53131 | 97° | 7km/h | 32910m | 5.4m/s | -38.4°C | 0% | 8.2hPa | 2.6V | 18:12:15 | 02:19:34 | 00:00:00 | |
| AA1-15 | 2026-09-03 00:38:53 | 53.86381 | 14.53054 | 93° | 7km/h | 32853m | 4.9m/s | -38.8°C | 0% | 8.3hPa | 2.6V | 18:12:15 | 02:19:23 | 00:00:00 | |
| AA1-15 | 2026-09-03 00:38:43 | 53.86381 | 14.52988 | 56° | 20km/h | 32801m | 4.7m/s | -38.9°C | 0% | 8.3hPa | 2.5V | 18:12:15 | 02:19:13 | 00:00:00 | |
| AA1-15 | 2026-09-03 00:38:32 | 53.86396 | 14.52886 | 91° | 24km/h | 32743m | 5.9m/s | -39°C | 0% | 8.4hPa | 2.5V | 18:12:15 | 02:19:02 | 00:00:00 | |
| AA1-15 | 2026-09-03 00:38:21 | 53.86402 | 14.52731 | 116° | 27km/h | 32674m | 5.7m/s | -39.2°C | 0% | 8.5hPa | 2.5V | 18:12:15 | 02:18:49 | 00:00:00 | |
| AA1-15 | 2026-09-03 00:38:08 | 53.86394 | 14.52587 | 126° | 31km/h | 32615m | 5.8m/s | -39.2°C | 0% | 8.6hPa | 2.5V | 18:12:15 | 02:18:38 | 00:00:00 | |
| AA1-15 | 2026-09-03 00:37:58 | 53.86404 | 14.52444 | 70° | 33km/h | 32563m | 5.8m/s | -39.1°C | 0% | 8.7hPa | 2.5V | 18:12:15 | 02:18:28 | 00:00:00 | |
| DO2SHX-10 | 2026-09-03 00:37:52 | 53.86401 | 14.52377 | 96° | 38km/h | 32533m | 5.5m/s | -39.1°C | 2.0% | 8.6hPa | 2.5V | 00:00:00 | 02:18:22 | 08:30:00 | |
| AA1-15 | 2026-09-03 00:37:47 | 53.86403 | 14.52290 | 91° | 37km/h | 32505m | 5.8m/s | -39.3°C | 0% | 8.7hPa | 2.6V | 18:12:15 | 02:18:17 | 00:00:00 | |
| DO2SHX-10 | 2026-09-03 00:37:46 | 53.86403 | 14.52276 | 89° | 35km/h | 32500m | 5.5m/s | -39.2°C | 2.0% | 8.7hPa | 2.6V | 00:00:00 | 02:18:16 | 00:00:00 | |
| AA1-15 | 2026-09-03 00:37:37 | 53.86388 | 14.52132 | 74° | 31km/h | 32450m | 5.6m/s | -39.3°C | 0% | 8.8hPa | 2.6V | 18:12:15 | 02:18:07 | 00:00:00 | |
| AA1-15 | 2026-09-03 00:37:26 | 53.86356 | 14.51961 | 96° | 35km/h | 32393m | 4.9m/s | -39.5°C | 0% | 8.9hPa | 2.6V | 18:12:15 | 02:17:56 | 00:00:00 | |
| AA1-15 | 2026-09-03 00:37:16 | 53.86333 | 14.51822 | 104° | 38km/h | 32334m | 6m/s | -39.9°C | 0% | 8.9hPa | 2.5V | 18:12:15 | 02:17:45 | 00:00:00 | |
| AA1-15 | 2026-09-03 00:37:05 | 53.86322 | 14.51676 | 80° | 22km/h | 32272m | 4.8m/s | -39.8°C | 0% | 9hPa | 2.5V | 18:12:15 | 02:17:34 | 00:00:00 | |
| AA1-15 | 2026-09-03 00:36:53 | 53.86301 | 14.51548 | 80° | 26km/h | 32209m | 6m/s | -39.7°C | 0% | 9.1hPa | 2.5V | 18:12:15 | 02:17:23 | 00:00:00 | |
| AA1-15 | 2026-09-03 00:36:42 | 53.86276 | 14.51408 | 61° | 38km/h | 32143m | 5.6m/s | -39.6°C | 0% | 9.2hPa | 2.5V | 18:12:15 | 02:17:12 | 00:00:00 | |
| AA1-15 | 2026-09-03 00:36:32 | 53.86243 | 14.51296 | 72° | 33km/h | 32087m | 5.1m/s | -39.6°C | 0% | 9.3hPa | 2.5V | 18:12:15 | 02:17:02 | 00:00:00 | |
| AA1-15 | 2026-09-03 00:36:21 | 53.86199 | 14.51167 | 53° | 26km/h | 32020m | 6.7m/s | -39.8°C | 0% | 9.4hPa | 2.5V | 18:12:15 | 02:16:51 | 00:00:00 | |
| AA1-15 | 2026-09-03 00:36:11 | 53.86163 | 14.51052 | 65° | 27km/h | 31956m | 5.1m/s | -40.2°C | 0% | 9.5hPa | 2.5V | 18:12:15 | 02:16:40 | 00:00:00 | |
| AA1-15 | 2026-09-03 00:36:00 | 53.86126 | 14.50950 | 35° | 33km/h | 31893m | 7.1m/s | -40.3°C | 0% | 9.5hPa | 2.6V | 18:12:15 | 02:16:30 | 00:00:00 | |
| AA1-15 | 2026-09-03 00:35:49 | 53.86072 | 14.50867 | 55° | 33km/h | 31829m | 5.5m/s | -40.4°C | 0% | 9.6hPa | 2.5V | 18:12:15 | 02:16:19 | 00:00:00 | |
| AA1-15 | 2026-09-03 00:35:39 | 53.86040 | 14.50773 | 65° | 26km/h | 31771m | 5.8m/s | -40.3°C | 0% | 9.7hPa | 2.6V | 18:12:15 | 02:16:09 | 00:00:00 | |
| AA1-15 | 2026-09-03 00:35:28 | 53.86008 | 14.50680 | 42° | 27km/h | 31708m | 5.6m/s | -40.4°C | 0% | 9.8hPa | 2.6V | 18:12:15 | 02:15:58 | 00:00:00 | |
| AA1-15 | 2026-09-03 00:35:18 | 53.85993 | 14.50613 | 49° | 27km/h | 31652m | 5m/s | -40.3°C | 0% | 9.9hPa | 2.5V | 18:12:15 | 02:15:48 | 00:00:00 | |
| AA1-15 | 2026-09-03 00:35:07 | 53.85977 | 14.50564 | 83° | 24km/h | 31589m | 5.7m/s | -40.2°C | 0% | 10hPa | 2.6V | 18:12:15 | 02:15:37 | 00:00:00 | |
| AA1-15 | 2026-09-03 00:34:56 | 53.85968 | 14.50537 | 61° | 15km/h | 31524m | 5.1m/s | -40.2°C | 0% | 10.1hPa | 2.6V | 18:12:15 | 02:15:26 | 00:00:00 | |
| AA1-15 | 2026-09-03 00:34:45 | 53.85947 | 14.50454 | 2° | 5km/h | 31461m | 5.4m/s | -40.5°C | 0% | 10.2hPa | 2.6V | 18:12:15 | 02:15:15 | 00:00:00 | |
| AA1-15 | 2026-09-03 00:34:35 | 53.85928 | 14.50358 | 60° | 26km/h | 31405m | 6.3m/s | -40.6°C | 0% | 10.2hPa | 2.6V | 18:12:15 | 02:15:05 | 00:00:00 | |
| AA1-15 | 2026-09-03 00:34:24 | 53.85909 | 14.50285 | 78° | 26km/h | 31338m | 5m/s | -40.5°C | 0% | 10.4hPa | 2.6V | 18:12:15 | 02:14:54 | 00:00:00 | |
| AA1-15 | 2026-09-03 00:34:14 | 53.85879 | 14.50231 | 94° | 5km/h | 31282m | 5.5m/s | -40.3°C | 0% | 10.4hPa | 2.6V | 18:12:15 | 02:14:44 | 00:00:00 | |
| AA1-15 | 2026-09-03 00:34:04 | 53.85863 | 14.50173 | 29° | 16km/h | 31224m | 6.6m/s | -40.2°C | 0% | 10.5hPa | 2.6V | 18:12:15 | 02:14:34 | 00:00:00 | |
| AA1-15 | 2026-09-03 00:33:54 | 53.85858 | 14.50151 | 62° | 13km/h | 31168m | 5.3m/s | -40.4°C | 0% | 10.6hPa | 2.6V | 18:12:15 | 02:14:24 | 00:00:00 | |
| AA1-15 | 2026-09-03 00:33:43 | 53.85845 | 14.50122 | 35° | 20km/h | 31108m | 4.8m/s | -40.5°C | 0% | 10.7hPa | 2.5V | 18:12:15 | 02:14:13 | 00:00:00 | |
| AA1-15 | 2026-09-03 00:33:32 | 53.85823 | 14.50109 | 69° | 9km/h | 31046m | 6.2m/s | -40.3°C | 0% | 10.8hPa | 2.5V | 18:12:15 | 02:14:02 | 00:00:00 | |
| AA1-15 | 2026-09-03 00:33:21 | 53.85829 | 14.50070 | 272° | 9km/h | 30984m | 6.2m/s | -40.1°C | 0% | 10.9hPa | 2.5V | 18:12:15 | 02:13:51 | 00:00:00 | |
| AA1-15 | 2026-09-03 00:33:11 | 53.85840 | 14.50051 | 143° | 7km/h | 30931m | 6.3m/s | -40.2°C | 0% | 11hPa | 2.5V | 18:12:15 | 02:13:41 | 00:00:00 | |
| AA1-15 | 2026-09-03 00:33:00 | 53.85869 | 14.50044 | 144° | 15km/h | 30863m | 5.5m/s | -40.3°C | 0% | 11.1hPa | 2.6V | 18:12:15 | 02:13:29 | 00:00:00 | |
| DK1YY | 2026-09-03 00:32:54 | 53.85898 | 14.50034 | 188° | 13km/h | 30823m | 4.9m/s | -40.5°C | 0.5% | 11.2hPa | 2.6V | 00:00:00 | 00:00:00 | 00:00:00 | |
| AA1-15 | 2026-09-03 00:32:50 | 53.85906 | 14.50034 | 176° | 20km/h | 30811m | 6.1m/s | -40.6°C | 0% | 11.2hPa | 2.6V | 18:12:15 | 02:13:20 | 00:00:00 | |
| MECKS9 | 2026-09-03 00:32:48 | 53.85911 | 14.50033 | 169° | 22km/h | 30806m | 4.7m/s | -40.7°C | 0.5% | 11.2hPa | 2.5V | 00:00:00 | 00:00:00 | 00:00:00 | |
| AA1-15 | 2026-09-03 00:32:39 | 53.85957 | 14.49971 | 140° | 13km/h | 30742m | 6m/s | -41°C | 0% | 11.3hPa | 2.5V | 18:12:15 | 02:13:08 | 00:00:00 | |
| AA1-15 | 2026-09-03 00:32:28 | 53.85995 | 14.49910 | 125° | 24km/h | 30687m | 5.8m/s | -41.3°C | 0% | 11.4hPa | 2.5V | 18:12:15 | 02:12:58 | 00:00:00 | |
| AA1-15 | 2026-09-03 00:32:16 | 53.86015 | 14.49845 | 105° | 33km/h | 30623m | 5.2m/s | -41.5°C | 0% | 11.5hPa | 2.5V | 18:12:15 | 02:12:46 | 00:00:00 | |
| AA1-15 | 2026-09-03 00:32:05 | 53.86008 | 14.49771 | 65° | 20km/h | 30564m | 5.9m/s | -41.3°C | 0% | 11.6hPa | 2.6V | 18:12:15 | 02:12:35 | 00:00:00 | |
| AA1-15 | 2026-09-03 00:31:54 | 53.86000 | 14.49695 | 35° | 9km/h | 30502m | 5.1m/s | -41.8°C | 0% | 11.7hPa | 2.6V | 18:12:15 | 02:12:24 | 00:00:00 | |
| DK1YY | 2026-09-03 00:31:52 | 53.85994 | 14.49686 | 42° | 13km/h | 30485m | 6.5m/s | -41.8°C | 0.5% | 11.7hPa | 2.6V | 00:00:00 | 00:00:00 | 00:00:00 | |
| AA1-15 | 2026-09-03 00:31:44 | 53.85981 | 14.49638 | 61° | 18km/h | 30443m | 6m/s | -42°C | 0% | 11.8hPa | 2.6V | 18:12:15 | 02:12:14 | 00:00:00 | |
| AA1-15 | 2026-09-03 00:31:33 | 53.85961 | 14.49604 | 78° | 13km/h | 30382m | 5.2m/s | -42.5°C | 0% | 11.9hPa | 2.5V | 18:12:15 | 02:12:03 | 00:00:00 | |
| AA1-15 | 2026-09-03 00:31:23 | 53.85965 | 14.49546 | 140° | 13km/h | 30324m | 5.6m/s | -43°C | 0% | 12hPa | 2.5V | 18:12:15 | 02:11:53 | 00:00:00 | |
| AA1-15 | 2026-09-03 00:31:12 | 53.85976 | 14.49465 | 119° | 22km/h | 30263m | 4.5m/s | -44°C | 0% | 12.2hPa | 2.5V | 18:12:15 | 02:11:42 | 00:00:00 | |
| AA1-15 | 2026-09-03 00:31:02 | 53.85979 | 14.49404 | 112° | 13km/h | 30207m | 6.6m/s | -44.7°C | 0% | 12.2hPa | 2.5V | 18:12:15 | 02:11:32 | 00:00:00 | |
| AA1-15 | 2026-09-03 00:30:51 | 53.86002 | 14.49317 | 97° | 16km/h | 30147m | 5.6m/s | -45.2°C | 0% | 12.4hPa | 2.5V | 18:12:15 | 02:11:21 | 00:00:00 | |
| SONDE2-11 | 2026-09-03 00:30:49 | 53.86008 | 14.49298 | 129° | 16km/h | 30129m | 5.1m/s | -45.2°C | 0.6% | 12.4hPa | 2.6V | 00:00:00 | 00:00:00 | 00:00:00 | |
| AA1-15 | 2026-09-03 00:30:40 | 53.86013 | 14.49219 | 101° | 24km/h | 30083m | 5.7m/s | -45.2°C | 0% | 12.5hPa | 2.6V | 18:12:15 | 02:11:10 | 00:00:00 | |
| AA1-15 | 2026-09-03 00:30:30 | 53.86020 | 14.49152 | 59° | 7km/h | 30027m | 4.8m/s | -45.2°C | 0% | 12.6hPa | 2.6V | 18:12:15 | 02:11:00 | 00:00:00 | |
| AM1SDL-15 | 2026-09-03 00:30:27 | 53.86012 | 14.49144 | 23° | 13km/h | 30009m | 5.5m/s | -45.3°C | 2.7% | 12.6hPa | 2.6V | 00:00:00 | 02:10:57 | 00:00:00 | |
| DB0DAN | 2026-09-03 00:30:25 | 53.86004 | 14.49138 | 32° | 15km/h | 29998m | 6m/s | -45.4°C | 0.6% | 12.61hPa | 2.6V | 00:00:00 | 00:00:00 | 00:00:00 | |
| AA1-15 | 2026-09-03 00:30:20 | 53.85998 | 14.49117 | 60° | 13km/h | 29964m | 6m/s | -45.5°C | 0% | 12.7hPa | 2.6V | 18:12:15 | 02:10:49 | 00:00:00 | |
| AA1-15 | 2026-09-03 00:30:09 | 53.85985 | 14.49070 | 60° | 11km/h | 29908m | 6.3m/s | -45.7°C | 0% | 12.8hPa | 2.6V | 18:12:15 | 02:10:39 | 00:00:00 | |
| AA1-15 | 2026-09-03 00:29:58 | 53.85967 | 14.49051 | 2° | 13km/h | 29843m | 6m/s | -45.8°C | 0% | 12.9hPa | 2.5V | 18:12:15 | 02:10:28 | 00:00:00 | |
| AA1-15 | 2026-09-03 00:29:48 | 53.85945 | 14.49032 | 358° | 11km/h | 29783m | 5.2m/s | -45.7°C | 0% | 13.1hPa | 2.5V | 18:12:15 | 02:10:18 | 00:00:00 | |
| DK1YY | 2026-09-03 00:29:47 | 53.85942 | 14.49033 | 347° | 11km/h | 29778m | 4.8m/s | -45.6°C | 0.7% | 13.1hPa | 2.5V | 00:00:00 | 00:00:00 | 00:00:00 | |
| AA1-15 | 2026-09-03 00:29:37 | 53.85922 | 14.49013 | 35° | 15km/h | 29720m | 5.4m/s | -45.3°C | 0% | 13.2hPa | 2.5V | 18:12:15 | 02:10:07 | 00:00:00 | |
| AA1-15 | 2026-09-03 00:29:27 | 53.85918 | 14.49002 | 89° | 15km/h | 29665m | 6.5m/s | -45.5°C | 0% | 13.3hPa | 2.5V | 18:12:15 | 02:09:57 | 00:00:00 | |
| AA1-15 | 2026-09-03 00:29:16 | 53.85921 | 14.48957 | 99° | 9km/h | 29599m | 5.6m/s | -45.6°C | 0% | 13.4hPa | 2.5V | 18:12:15 | 02:09:46 | 00:00:00 | |
| AA1-15 | 2026-09-03 00:29:05 | 53.85913 | 14.48908 | 38° | 13km/h | 29533m | 5.8m/s | -45.8°C | 0% | 13.5hPa | 2.6V | 18:12:15 | 02:09:35 | 00:00:00 | |
| AA1-15 | 2026-09-03 00:28:55 | 53.85899 | 14.48854 | 7° | 2km/h | 29469m | 6.8m/s | -46.1°C | 0% | 13.7hPa | 2.6V | 18:12:15 | 02:09:24 | 00:00:00 | |
| AA1-15 | 2026-09-03 00:28:44 | 53.85884 | 14.48880 | 303° | 2km/h | 29409m | 6.1m/s | -46.4°C | 0% | 13.8hPa | 2.6V | 18:12:15 | 02:09:14 | 00:00:00 | |
| AA1-15 | 2026-09-03 00:28:34 | 53.85890 | 14.48928 | 286° | 15km/h | 29347m | 6.8m/s | -46.6°C | 0% | 13.9hPa | 2.6V | 18:12:15 | 02:09:04 | 00:00:00 | |
| AA1-15 | 2026-09-03 00:28:23 | 53.85894 | 14.48933 | 0° | 2km/h | 29285m | 5.3m/s | -46.7°C | 0% | 14.1hPa | 2.5V | 18:12:15 | 02:08:53 | 00:00:00 | |
| AA1-15 | 2026-09-03 00:28:13 | 53.85897 | 14.48944 | 194° | 4km/h | 29228m | 5.4m/s | -46.7°C | 0% | 14.2hPa | 2.5V | 18:12:15 | 02:08:43 | 00:00:00 | |
| AA1-15 | 2026-09-03 00:28:02 | 53.85922 | 14.48937 | 204° | 15km/h | 29163m | 5.5m/s | -46.6°C | 0% | 14.3hPa | 2.6V | 18:12:15 | 02:08:32 | 00:00:00 | |
| AA1-15 | 2026-09-03 00:27:51 | 53.85960 | 14.48921 | 160° | 24km/h | 29102m | 6.1m/s | -46.6°C | 0% | 14.5hPa | 2.6V | 18:12:15 | 02:08:21 | 00:00:00 | |
| SP3WXH-11 | 2026-09-03 00:27:50 | 53.85966 | 14.48917 | 152° | 20km/h | 29095m | 6.3m/s | -46.6°C | 0.7% | 14.5hPa | 2.5V | 00:00:00 | 00:00:00 | 00:00:00 | |
| AA1-15 | 2026-09-03 00:27:40 | 53.86000 | 14.48883 | 148° | 18km/h | 29037m | 5.2m/s | -46.6°C | 0% | 14.6hPa | 2.5V | 18:12:15 | 02:08:10 | 00:00:00 | |
| AA1-15 | 2026-09-03 00:27:29 | 53.86050 | 14.48822 | 137° | 13km/h | 28975m | 4.4m/s | -46.8°C | 0% | 14.7hPa | 2.6V | 18:12:15 | 02:07:59 | 00:00:00 | |
| AA1-15 | 2026-09-03 00:27:18 | 53.86090 | 14.48739 | 105° | 16km/h | 28915m | 6.2m/s | -46.9°C | 0% | 14.9hPa | 2.6V | 18:12:15 | 02:07:48 | 00:00:00 | |
| AA1-15 | 2026-09-03 00:27:07 | 53.86095 | 14.48653 | 121° | 27km/h | 28850m | 6m/s | -46.6°C | 0% | 15hPa | 2.5V | 18:12:15 | 02:07:37 | 00:00:00 | |
| AA1-15 | 2026-09-03 00:26:57 | 53.86107 | 14.48559 | 90° | 20km/h | 28794m | 5.3m/s | -46.7°C | 0% | 15.1hPa | 2.6V | 18:12:15 | 02:07:27 | 00:00:00 | |
| AA1-15 | 2026-09-03 00:26:46 | 53.86112 | 14.48429 | 62° | 27km/h | 28731m | 4.9m/s | -46.7°C | 0% | 15.3hPa | 2.6V | 18:12:15 | 02:07:16 | 00:00:00 | |
| AA1-15 | 2026-09-03 00:26:36 | 53.86094 | 14.48340 | 96° | 20km/h | 28675m | 6.5m/s | -46.8°C | 0% | 15.4hPa | 2.6V | 18:12:15 | 02:07:06 | 00:00:00 | |
| AA1-15 | 2026-09-03 00:26:25 | 53.86096 | 14.48268 | 50° | 18km/h | 28612m | 6.8m/s | -46.9°C | 0% | 15.6hPa | 2.6V | 18:12:15 | 02:06:55 | 00:00:00 | |
| AA1-15 | 2026-09-03 00:26:14 | 53.86098 | 14.48218 | 166° | 9km/h | 28552m | 6.1m/s | -46.8°C | 0% | 15.7hPa | 2.5V | 18:12:15 | 02:06:44 | 00:00:00 | |
| AA1-15 | 2026-09-03 00:26:04 | 53.86096 | 14.48210 | 210° | 9km/h | 28496m | 5.3m/s | -46.5°C | 0% | 15.8hPa | 2.5V | 18:12:15 | 02:06:34 | 00:00:00 | |
| AA1-15 | 2026-09-03 00:25:54 | 53.86100 | 14.48228 | 337° | 9km/h | 28440m | 6.3m/s | -46.6°C | 0% | 16hPa | 2.5V | 18:12:15 | 02:06:24 | 00:00:00 | |
| SP3WXH-11 | 2026-09-03 00:25:46 | 53.86104 | 14.48243 | 236° | 5km/h | 28397m | 6.1m/s | -47.0°C | 0.7% | 16.1hPa | 2.5V | 00:00:00 | 00:00:00 | 00:00:00 | |
| AA1-15 | 2026-09-03 00:25:43 | 53.86105 | 14.48250 | 275° | 7km/h | 28380m | 6.7m/s | -47.1°C | 0% | 16.1hPa | 2.5V | 18:12:15 | 02:06:13 | 00:00:00 | |
| AA1-15 | 2026-09-03 00:25:33 | 53.86086 | 14.48270 | 292° | 11km/h | 28321m | 5.2m/s | -47.1°C | 0% | 16.3hPa | 2.5V | 18:12:15 | 02:06:03 | 00:00:00 | |
| AA1-15 | 2026-09-03 00:25:23 | 53.86081 | 14.48316 | 196° | 4km/h | 28265m | 5.3m/s | -47°C | 0% | 16.4hPa | 2.6V | 18:12:15 | 02:05:53 | 00:00:00 | |
| AA1-15 | 2026-09-03 00:25:12 | 53.86094 | 14.48350 | 234° | 13km/h | 28205m | 5.4m/s | -47.3°C | 0% | 16.6hPa | 2.6V | 18:12:15 | 02:05:42 | 00:00:00 | |
| AA1-15 | 2026-09-03 00:25:01 | 53.86124 | 14.48360 | 236° | 7km/h | 28143m | 5.7m/s | -47.8°C | 0% | 16.7hPa | 2.6V | 18:12:15 | 02:05:31 | 00:00:00 | |
| AA1-15 | 2026-09-03 00:24:51 | 53.86132 | 14.48372 | 154° | 9km/h | 28088m | 6.1m/s | -48.2°C | 0.1% | 16.9hPa | 2.6V | 18:12:15 | 02:05:21 | 00:00:00 | |
| SP3WXH-11 | 2026-09-03 00:24:44 | 53.86145 | 14.48372 | 317° | 0km/h | 28048m | 5.2m/s | -48.3°C | 0.8% | 16.9hPa | 2.5V | 00:00:00 | 00:00:00 | 00:00:00 | |
| AA1-15 | 2026-09-03 00:24:41 | 53.86143 | 14.48377 | 311° | 7km/h | 28032m | 4.6m/s | -48.2°C | 0.1% | 17hPa | 2.5V | 18:12:15 | 02:05:11 | 00:00:00 | |
| AA1-15 | 2026-09-03 00:24:30 | 53.86154 | 14.48367 | 124° | 4km/h | 27968m | 6.2m/s | -47.8°C | 0% | 17.2hPa | 2.5V | 18:12:15 | 02:05:00 | 00:00:00 | |
| AA1-15 | 2026-09-03 00:24:19 | 53.86162 | 14.48334 | 132° | 11km/h | 27905m | 6m/s | -48.2°C | 0.1% | 17.3hPa | 2.5V | 18:12:15 | 02:04:49 | 00:00:00 | |
| AA1-15 | 2026-09-03 00:24:09 | 53.86178 | 14.48274 | 120° | 24km/h | 27848m | 5.4m/s | -48.4°C | 0.1% | 17.5hPa | 2.5V | 18:12:15 | 02:04:39 | 00:00:00 | |
| AA1-15 | 2026-09-03 00:23:58 | 53.86196 | 14.48206 | 145° | 11km/h | 27786m | 4.6m/s | -48.4°C | 0% | 17.6hPa | 2.5V | 18:12:15 | 02:04:28 | 00:00:00 | |
| AA1-15 | 2026-09-03 00:23:48 | 53.86206 | 14.48160 | 75° | 20km/h | 27732m | 5.2m/s | -49°C | 0.1% | 17.8hPa | 2.6V | 18:12:15 | 02:04:18 | 00:00:00 | |
| AA1-15 | 2026-09-03 00:23:37 | 53.86201 | 14.48119 | 74° | 11km/h | 27675m | 6.3m/s | -49.1°C | 0.1% | 17.9hPa | 2.6V | 18:12:15 | 02:04:07 | 00:00:00 | |
| AA1-15 | 2026-09-03 00:23:26 | 53.86198 | 14.48081 | 86° | 11km/h | 27613m | 6.4m/s | -49.3°C | 0.2% | 18.1hPa | 2.5V | 18:12:15 | 02:03:56 | 00:00:00 | |
| AA1-15 | 2026-09-03 00:23:15 | 53.86201 | 14.48062 | 118° | 2km/h | 27546m | 6.5m/s | -49.7°C | 0.2% | 18.3hPa | 2.6V | 18:12:15 | 02:03:45 | 00:00:00 | |
| AA1-15 | 2026-09-03 00:23:04 | 53.86223 | 14.48054 | 295° | 7km/h | 27487m | 5.9m/s | -49.7°C | 0.3% | 18.4hPa | 2.6V | 18:12:15 | 02:03:34 | 00:00:00 | |
| AA1-15 | 2026-09-03 00:22:53 | 53.86245 | 14.48064 | 197° | 13km/h | 27429m | 5.5m/s | -49.9°C | 0.2% | 18.6hPa | 2.5V | 18:12:15 | 02:03:23 | 00:00:00 | |
| EDDB2-11 | 2026-09-03 00:22:51 | 53.86248 | 14.48071 | 271° | 13km/h | 27416m | 5.9m/s | 0°C | -1.0% | -1.0hPa | 2.6V | 00:00:00 | 00:00:00 | 00:00:00 | |
| AA1-15 | 2026-09-03 00:22:42 | 53.86257 | 14.48091 | 185° | 22km/h | 27367m | 5.2m/s | -49.8°C | 0.2% | 18.8hPa | 2.6V | 18:12:15 | 02:03:12 | 00:00:00 | |
| AA1-15 | 2026-09-03 00:22:31 | 53.86272 | 14.48091 | 51° | 2km/h | 27306m | 5.1m/s | -49.9°C | 0.2% | 18.9hPa | 2.6V | 18:12:15 | 02:03:01 | 00:00:00 | |
| AA1-15 | 2026-09-03 00:22:21 | 53.86296 | 14.48091 | 272° | 5km/h | 27249m | 5.1m/s | -50°C | 0.2% | 19.1hPa | 2.5V | 18:12:15 | 02:02:51 | 00:00:00 | |
| AA1-15 | 2026-09-03 00:22:10 | 53.86296 | 14.48077 | 121° | 11km/h | 27189m | 5.2m/s | -49.9°C | 0.2% | 19.3hPa | 2.5V | 18:12:15 | 02:02:40 | 00:00:00 | |
| AA1-15 | 2026-09-03 00:22:00 | 53.86311 | 14.48085 | 186° | 13km/h | 27134m | 4.8m/s | -49.8°C | 0.3% | 19.5hPa | 2.5V | 18:12:15 | 02:02:30 | 00:00:00 | |
| AA1-15 | 2026-09-03 00:21:49 | 53.86346 | 14.48106 | 199° | 13km/h | 27074m | 4.6m/s | -49.7°C | 0.2% | 19.7hPa | 2.5V | 18:12:15 | 02:02:19 | 00:00:00 | |
| AA1-15 | 2026-09-03 00:21:39 | 53.86402 | 14.48106 | 204° | 22km/h | 27020m | 6.2m/s | -49.6°C | 0.3% | 19.8hPa | 2.5V | 18:12:15 | 02:02:09 | 00:00:00 | |
| AA1-15 | 2026-09-03 00:21:29 | 53.86448 | 14.48137 | 190° | 24km/h | 26967m | 4.7m/s | -49.7°C | 0.2% | 20hPa | 2.5V | 18:12:15 | 02:01:59 | 00:00:00 | |
| AA1-15 | 2026-09-03 00:21:18 | 53.86494 | 14.48168 | 201° | 16km/h | 26907m | 5.4m/s | -49.3°C | 0.2% | 20.2hPa | 2.6V | 18:12:15 | 02:01:48 | 00:00:00 | |
| AA1-15 | 2026-09-03 00:21:07 | 53.86546 | 14.48180 | 205° | 16km/h | 26846m | 5.9m/s | -49.2°C | 0.1% | 20.4hPa | 2.5V | 18:12:15 | 02:01:37 | 00:00:00 | |
| AA1-15 | 2026-09-03 00:20:56 | 53.86589 | 14.48169 | 147° | 18km/h | 26785m | 5.9m/s | -49.4°C | 0.2% | 20.5hPa | 2.5V | 18:12:15 | 02:01:26 | 00:00:00 | |
| AA1-15 | 2026-09-03 00:20:46 | 53.86629 | 14.48162 | 198° | 11km/h | 26732m | 4.6m/s | -49.5°C | 0.2% | 20.7hPa | 2.5V | 18:12:15 | 02:01:16 | 00:00:00 | |
| AA1-15 | 2026-09-03 00:20:35 | 53.86670 | 14.48120 | 141° | 11km/h | 26674m | 4.5m/s | -49.7°C | 0.2% | 20.9hPa | 2.5V | 18:12:15 | 02:01:05 | 00:00:00 | |
| AA1-15 | 2026-09-03 00:20:25 | 53.86706 | 14.48102 | 167° | 20km/h | 26620m | 5.5m/s | -49.8°C | 0.2% | 21.1hPa | 2.5V | 18:12:15 | 02:00:55 | 00:00:00 | |
| AA1-15 | 2026-09-03 00:20:14 | 53.86749 | 14.48102 | 166° | 18km/h | 26559m | 4.7m/s | -49.8°C | 0.2% | 21.3hPa | 2.6V | 18:12:15 | 02:00:44 | 00:00:00 | |
| AA1-15 | 2026-09-03 00:20:03 | 53.86805 | 14.48104 | 187° | 22km/h | 26499m | 4.1m/s | -49.6°C | 0.2% | 21.5hPa | 2.6V | 18:12:15 | 02:00:33 | 00:00:00 | |
| AA1-15 | 2026-09-03 00:19:53 | 53.86861 | 14.48085 | 167° | 16km/h | 26444m | 5m/s | -49.5°C | 0.2% | 21.7hPa | 2.5V | 18:12:15 | 02:00:23 | 00:00:00 | |
| DJ2DS-15 | 2026-09-03 00:19:47 | 53.86897 | 14.48091 | 175° | 24km/h | 26408m | 6.2m/s | -49.4°C | 0.8% | 21.8hPa | 2.5V | 00:00:00 | 00:00:00 | 00:00:00 | |
| AA1-15 | 2026-09-03 00:19:42 | 53.86918 | 14.48075 | 154° | 24km/h | 26386m | 6.1m/s | -49.5°C | 0.2% | 21.8hPa | 2.5V | 18:12:15 | 02:00:12 | 00:00:00 | |
| AA1-15 | 2026-09-03 00:19:31 | 53.86982 | 14.48055 | 164° | 24km/h | 26323m | 6.1m/s | -49.4°C | 0.2% | 22.1hPa | 2.5V | 18:12:15 | 02:00:01 | 00:00:00 | |
| AA1-15 | 2026-09-03 00:19:20 | 53.87047 | 14.48020 | 183° | 27km/h | 26262m | 4.8m/s | -49.1°C | 0.2% | 22.3hPa | 2.5V | 18:12:15 | 01:59:50 | 00:00:00 | |
| AA1-15 | 2026-09-03 00:19:10 | 53.87110 | 14.48000 | 148° | 22km/h | 26202m | 4.8m/s | -49.2°C | 0.3% | 22.5hPa | 2.5V | 18:12:15 | 01:59:39 | 00:00:00 | |
| AA1-15 | 2026-09-03 00:18:59 | 53.87164 | 14.47985 | 181° | 22km/h | 26145m | 5.7m/s | -49.3°C | 0.2% | 22.7hPa | 2.6V | 18:12:15 | 01:59:29 | 00:00:00 | |
| AA1-15 | 2026-09-03 00:18:48 | 53.87233 | 14.47966 | 170° | 33km/h | 26084m | 4.8m/s | -49.1°C | 0.2% | 22.9hPa | 2.5V | 18:12:15 | 01:59:18 | 00:00:00 | |
| AA1-15 | 2026-09-03 00:18:38 | 53.87295 | 14.47975 | 173° | 27km/h | 26031m | 6.2m/s | -49°C | 0.2% | 23.1hPa | 2.5V | 18:12:15 | 01:59:08 | 00:00:00 | |
| AA1-15 | 2026-09-03 00:18:28 | 53.87377 | 14.47963 | 185° | 24km/h | 25976m | 6.1m/s | -48.8°C | 0.2% | 23.3hPa | 2.5V | 18:12:15 | 01:58:58 | 00:00:00 | |
| AA1-15 | 2026-09-03 00:18:17 | 53.87455 | 14.47947 | 177° | 35km/h | 25915m | 5.6m/s | -48.7°C | 0.1% | 23.5hPa | 2.5V | 18:12:15 | 01:58:47 | 00:00:00 | |
| AA1-15 | 2026-09-03 00:18:07 | 53.87533 | 14.47910 | 164° | 35km/h | 25863m | 6.4m/s | -48.7°C | 0.2% | 23.7hPa | 2.5V | 18:12:15 | 01:58:37 | 00:00:00 | |
| AA1-15 | 2026-09-03 00:17:57 | 53.87610 | 14.47880 | 152° | 33km/h | 25809m | 6m/s | -48.8°C | 0.1% | 23.9hPa | 2.6V | 18:12:15 | 01:58:27 | 00:00:00 | |
| AA1-15 | 2026-09-03 00:17:47 | 53.87690 | 14.47846 | 180° | 33km/h | 25751m | 5.8m/s | -48.8°C | 0.1% | 24.1hPa | 2.5V | 18:12:15 | 01:58:17 | 00:00:00 | |
| AA1-15 | 2026-09-03 00:17:36 | 53.87773 | 14.47782 | 162° | 35km/h | 25695m | 6m/s | -48.9°C | 0.2% | 24.3hPa | 2.5V | 18:12:15 | 01:58:06 | 00:00:00 | |
| AA1-15 | 2026-09-03 00:17:26 | 53.87858 | 14.47750 | 153° | 38km/h | 25645m | 4.3m/s | -48.9°C | 0.1% | 24.5hPa | 2.5V | 18:12:15 | 01:57:56 | 00:00:00 | |
| AA1-15 | 2026-09-03 00:17:15 | 53.87948 | 14.47667 | 144° | 38km/h | 25586m | 5m/s | -49.1°C | 0.1% | 24.7hPa | 2.6V | 18:12:15 | 01:57:45 | 00:00:00 | |
| AA1-15 | 2026-09-03 00:17:04 | 53.88022 | 14.47551 | 140° | 38km/h | 25526m | 5.2m/s | -49.4°C | 0.1% | 24.9hPa | 2.6V | 18:12:15 | 01:57:34 | 00:00:00 | |
| AA1-15 | 2026-09-03 00:16:53 | 53.88080 | 14.47393 | 116° | 40km/h | 25467m | 5.9m/s | -50°C | 0.2% | 25.1hPa | 2.5V | 18:12:15 | 01:57:23 | 00:00:00 | |
| DK1YY | 2026-09-03 00:16:51 | 53.88088 | 14.47365 | 120° | 35km/h | 25457m | 5.0m/s | -50.1°C | 0.8% | 25.2hPa | 2.5V | 00:00:00 | 00:00:00 | 00:00:00 | |
| SONDE2-11 | 2026-09-03 00:16:50 | 53.88092 | 14.47352 | 115° | 33km/h | 25452m | 6.3m/s | -50.1°C | 0.8% | 25.2hPa | 2.5V | 00:00:00 | 00:00:00 | 00:00:00 | |
| AA1-15 | 2026-09-03 00:16:43 | 53.88116 | 14.47245 | 101° | 47km/h | 25413m | 5.9m/s | -50.4°C | 0.2% | 25.3hPa | 2.5V | 18:12:15 | 01:57:13 | 00:00:00 | |
| AA1-15 | 2026-09-03 00:16:32 | 53.88119 | 14.47076 | 89° | 31km/h | 25359m | 4.9m/s | -50.7°C | 0.3% | 25.6hPa | 2.5V | 18:12:15 | 01:57:02 | 00:00:00 | |
| AA1-15 | 2026-09-03 00:16:21 | 53.88112 | 14.46917 | 64° | 22km/h | 25304m | 4.7m/s | -50.8°C | 0.3% | 25.8hPa | 2.5V | 18:12:15 | 01:56:51 | 00:00:00 | |
| AA1-15 | 2026-09-03 00:16:11 | 53.88102 | 14.46827 | 84° | 22km/h | 25251m | 4.9m/s | -50.8°C | 0.3% | 26hPa | 2.5V | 18:12:15 | 01:56:41 | 00:00:00 | |
| AA1-15 | 2026-09-03 00:16:01 | 53.88081 | 14.46778 | 77° | 15km/h | 25199m | 5.5m/s | -50.9°C | 0.3% | 26.2hPa | 2.6V | 18:12:15 | 01:56:31 | 00:00:00 | |
| AA1-15 | 2026-09-03 00:15:50 | 53.88047 | 14.46729 | 330° | 15km/h | 25142m | 5.1m/s | -51.2°C | 0.4% | 26.4hPa | 2.6V | 18:12:15 | 01:56:20 | 00:00:00 | |
| DK1YY | 2026-09-03 00:15:49 | 53.88044 | 14.46732 | 326° | 11km/h | 25136m | 6.2m/s | -51.2°C | 0.9% | 26.5hPa | 2.5V | 00:00:00 | 00:00:00 | 00:00:00 | |
| SONDE2-11 | 2026-09-03 00:15:48 | 53.88042 | 14.46735 | 327° | 5km/h | 25130m | 5.0m/s | -51.2°C | -1.0% | -1.0hPa | 2.5V | 00:00:00 | 00:00:00 | 00:00:00 | |
| AA1-15 | 2026-09-03 00:15:39 | 53.88025 | 14.46733 | 11° | 16km/h | 25084m | 5.6m/s | -51°C | 0.3% | 26.7hPa | 2.5V | 18:12:15 | 01:56:09 | 00:00:00 | |
| AA1-15 | 2026-09-03 00:15:28 | 53.88030 | 14.46737 | 87° | 9km/h | 25026m | 6.1m/s | -51.1°C | 0.4% | 26.9hPa | 2.6V | 18:12:15 | 01:55:58 | 00:00:00 | |
| AA1-15 | 2026-09-03 00:15:18 | 53.88038 | 14.46717 | 191° | 18km/h | 24972m | 5.3m/s | -51.1°C | 0.4% | 27.1hPa | 2.5V | 18:12:15 | 01:55:48 | 00:00:00 | |
| AA1-15 | 2026-09-03 00:15:08 | 53.88054 | 14.46685 | 77° | 9km/h | 24920m | 5m/s | -50.9°C | 0.4% | 27.3hPa | 2.5V | 18:12:15 | 01:55:38 | 00:00:00 | |
| AA1-15 | 2026-09-03 00:14:57 | 53.88082 | 14.46658 | 71° | 11km/h | 24860m | 4.9m/s | -51.1°C | 0.3% | 27.6hPa | 2.6V | 18:12:15 | 01:55:27 | 00:00:00 | |
| AA1-15 | 2026-09-03 00:14:47 | 53.88090 | 14.46618 | 141° | 16km/h | 24805m | 5.1m/s | -51.1°C | 0.4% | 27.8hPa | 2.6V | 18:12:15 | 01:55:17 | 00:00:00 | |
| AA1-15 | 2026-09-03 00:14:37 | 53.88084 | 14.46552 | 77° | 16km/h | 24752m | 6.2m/s | -51°C | 0.4% | 28.1hPa | 2.5V | 18:12:15 | 01:55:07 | 00:00:00 | |
| AA1-15 | 2026-09-03 00:14:27 | 53.88087 | 14.46500 | 66° | 20km/h | 24695m | 6.6m/s | -51°C | 0.3% | 28.3hPa | 2.5V | 18:12:15 | 01:54:57 | 00:00:00 | |
| AA1-15 | 2026-09-03 00:14:16 | 53.88070 | 14.46419 | 89° | 13km/h | 24633m | 5m/s | -51°C | 0.3% | 28.6hPa | 2.6V | 18:12:15 | 01:54:46 | 00:00:00 | |
| AA1-15 | 2026-09-03 00:14:05 | 53.88062 | 14.46340 | 102° | 13km/h | 24576m | 5.9m/s | -50.9°C | 0.3% | 28.8hPa | 2.6V | 18:12:15 | 01:54:35 | 00:00:00 | |
| AA1-15 | 2026-09-03 00:13:55 | 53.88066 | 14.46291 | 74° | 16km/h | 24521m | 5.4m/s | -50.8°C | 0.4% | 29.1hPa | 2.6V | 18:12:15 | 01:54:25 | 00:00:00 | |
| AA1-15 | 2026-09-03 00:13:45 | 53.88063 | 14.46244 | 133° | 13km/h | 24466m | 4.3m/s | -50.7°C | 0.3% | 29.3hPa | 2.5V | 18:12:15 | 01:54:15 | 00:00:00 | |
| DK1YY | 2026-09-03 00:13:45 | 53.88066 | 14.46240 | 124° | 11km/h | 24461m | 6.2m/s | -50.7°C | 0.9% | 29.4hPa | 2.5V | 00:00:00 | 00:00:00 | 00:00:00 | |
| AA1-15 | 2026-09-03 00:13:34 | 53.88059 | 14.46188 | 97° | 5km/h | 24407m | 4.6m/s | -50.8°C | 0.3% | 29.6hPa | 2.5V | 18:12:15 | 01:54:04 | 00:00:00 | |
| AA1-15 | 2026-09-03 00:13:24 | 53.88060 | 14.46141 | 73° | 18km/h | 24352m | 4.2m/s | -51°C | 0.4% | 29.8hPa | 2.6V | 18:12:15 | 01:53:54 | 00:00:00 | |
| AA1-15 | 2026-09-03 00:13:13 | 53.88039 | 14.46091 | 76° | 15km/h | 24292m | 6.4m/s | -51.1°C | 0.3% | 30.1hPa | 2.5V | 18:12:15 | 01:53:43 | 00:00:00 | |
| AA1-15 | 2026-09-03 00:13:03 | 53.88018 | 14.46049 | 51° | 11km/h | 24239m | 4.4m/s | -51.1°C | 0.4% | 30.4hPa | 2.6V | 18:12:15 | 01:53:33 | 00:00:00 | |
| AA1-15 | 2026-09-03 00:12:53 | 53.87998 | 14.46040 | 14° | 16km/h | 24183m | 5.4m/s | -51.1°C | 0.3% | 30.6hPa | 2.5V | 18:12:15 | 01:53:23 | 00:00:00 | |
| SP3WXH-11 | 2026-09-03 00:12:50 | 53.87986 | 14.46035 | 16° | 13km/h | 24168m | 5.4m/s | -51.1°C | 0.9% | 30.7hPa | 2.6V | 00:00:00 | 00:00:00 | 00:00:00 | |
| AA1-15 | 2026-09-03 00:12:42 | 53.87971 | 14.46042 | 315° | 7km/h | 24127m | 4.8m/s | -51.2°C | 0.3% | 30.9hPa | 2.6V | 18:12:15 | 01:53:12 | 00:00:00 | |
| AA1-15 | 2026-09-03 00:12:31 | 53.87942 | 14.46072 | 285° | 2km/h | 24067m | 5.8m/s | -51.4°C | 0.3% | 31.2hPa | 2.5V | 18:12:15 | 01:53:01 | 00:00:00 | |
| AA1-15 | 2026-09-03 00:12:20 | 53.87930 | 14.46116 | 248° | 5km/h | 24010m | 4.4m/s | -51.4°C | 0.4% | 31.4hPa | 2.5V | 18:12:15 | 01:52:50 | 00:00:00 | |
| AA1-15 | 2026-09-03 00:12:09 | 53.87939 | 14.46113 | 292° | 4km/h | 23954m | 4.4m/s | -51.4°C | 0.3% | 31.7hPa | 2.5V | 18:12:15 | 01:52:39 | 00:00:00 | |
| AA1-15 | 2026-09-03 00:11:59 | 53.87952 | 14.46089 | 144° | 9km/h | 23903m | 4.2m/s | -51.6°C | 0.4% | 32hPa | 2.5V | 18:12:15 | 01:52:29 | 00:00:00 | |
| AA1-15 | 2026-09-03 00:11:48 | 53.87962 | 14.46049 | 107° | 15km/h | 23848m | 4.9m/s | -51.6°C | 0.4% | 32.3hPa | 2.6V | 18:12:15 | 01:52:18 | 00:00:00 | |
| AA1-15 | 2026-09-03 00:11:37 | 53.87973 | 14.46016 | 126° | 15km/h | 23791m | 4.9m/s | -51.6°C | 0.4% | 32.5hPa | 2.6V | 18:12:15 | 01:52:07 | 00:00:00 | |
| AA1-15 | 2026-09-03 00:11:27 | 53.87993 | 14.45991 | 150° | 5km/h | 23739m | 4.4m/s | -51.7°C | 0.4% | 32.8hPa | 2.6V | 18:12:15 | 01:51:57 | 00:00:00 | |
| AA1-15 | 2026-09-03 00:11:17 | 53.88012 | 14.45977 | 238° | 13km/h | 23692m | 4.6m/s | -51.8°C | 0.3% | 33hPa | 2.5V | 18:12:15 | 01:51:47 | 00:00:00 | |
| AA1-15 | 2026-09-03 00:11:06 | 53.88029 | 14.45992 | 166° | 11km/h | 23637m | 5.4m/s | -52°C | 0.5% | 33.3hPa | 2.5V | 18:12:15 | 01:51:36 | 00:00:00 | |
| AA1-15 | 2026-09-03 00:10:56 | 53.88052 | 14.46003 | 192° | 9km/h | 23585m | 5.9m/s | -51.9°C | 0.4% | 33.5hPa | 2.5V | 18:12:15 | 01:51:26 | 00:00:00 | |
| AA1-15 | 2026-09-03 00:10:45 | 53.88081 | 14.46013 | 185° | 13km/h | 23529m | 4.8m/s | -51.9°C | 0.5% | 33.9hPa | 2.5V | 18:12:15 | 01:51:15 | 00:00:00 | |
| AA1-15 | 2026-09-03 00:10:34 | 53.88114 | 14.45992 | 153° | 13km/h | 23473m | 4.3m/s | -52°C | 0.4% | 34.1hPa | 2.5V | 18:12:15 | 01:51:04 | 00:00:00 | |
| AA1-15 | 2026-09-03 00:10:24 | 53.88145 | 14.45974 | 168° | 15km/h | 23423m | 4.9m/s | -52.1°C | 0.5% | 34.4hPa | 2.6V | 18:12:15 | 01:50:54 | 00:00:00 | |
| AA1-15 | 2026-09-03 00:10:13 | 53.88183 | 14.45989 | 200° | 16km/h | 23367m | 5.4m/s | -52°C | 0.5% | 34.7hPa | 2.6V | 18:12:15 | 01:50:43 | 00:00:00 | |
| AA1-15 | 2026-09-03 00:10:03 | 53.88223 | 14.46014 | 177° | 16km/h | 23317m | 5.7m/s | -51.8°C | 0.5% | 35hPa | 2.6V | 18:12:15 | 01:50:33 | 00:00:00 | |
| AA1-15 | 2026-09-03 00:09:52 | 53.88278 | 14.45990 | 166° | 20km/h | 23259m | 4.3m/s | -51.5°C | 0.4% | 35.3hPa | 2.5V | 18:12:15 | 01:50:22 | 00:00:00 | |
| SP3WXH-11 | 2026-09-03 00:09:44 | 53.88318 | 14.45963 | 143° | 20km/h | 23215m | 5.1m/s | -51.4°C | 0.9% | 35.5hPa | 2.5V | 00:00:00 | 00:00:00 | 00:00:00 | |
| AA1-15 | 2026-09-03 00:09:42 | 53.88328 | 14.45952 | 149° | 24km/h | 23205m | 5.6m/s | -51.4°C | 0.4% | 35.6hPa | 2.5V | 18:12:15 | 01:50:12 | 00:00:00 | |
| AA1-15 | 2026-09-03 00:09:32 | 53.88379 | 14.45912 | 139° | 26km/h | 23153m | 5.2m/s | -51.7°C | 0.4% | 35.9hPa | 2.5V | 18:12:15 | 01:50:02 | 00:00:00 | |
| AA1-15 | 2026-09-03 00:09:22 | 53.88432 | 14.45827 | 133° | 27km/h | 23100m | 5.5m/s | -51.7°C | 0.4% | 36.1hPa | 2.5V | 18:12:15 | 01:49:52 | 00:00:00 | |
| AA1-15 | 2026-09-03 00:09:12 | 53.88470 | 14.45732 | 123° | 31km/h | 23050m | 5.6m/s | -51.8°C | 0.5% | 36.4hPa | 2.5V | 18:12:15 | 01:49:42 | 00:00:00 | |
| AA1-15 | 2026-09-03 00:09:01 | 53.88487 | 14.45629 | 114° | 16km/h | 22995m | 5m/s | -51.7°C | 0.4% | 36.8hPa | 2.5V | 18:12:15 | 01:49:31 | 00:00:00 | |
| AA1-15 | 2026-09-03 00:08:51 | 53.88498 | 14.45554 | 92° | 20km/h | 22945m | 4.2m/s | -51.8°C | 0.4% | 37hPa | 2.5V | 18:12:15 | 01:49:21 | 00:00:00 | |
| AA1-15 | 2026-09-03 00:08:40 | 53.88512 | 14.45489 | 97° | 9km/h | 22887m | 5.8m/s | -51.6°C | 0.5% | 37.4hPa | 2.5V | 18:12:15 | 01:49:10 | 00:00:00 | |
| AA1-15 | 2026-09-03 00:08:30 | 53.88507 | 14.45451 | 72° | 9km/h | 22837m | 4.4m/s | -51.5°C | 0.4% | 37.7hPa | 2.6V | 18:12:15 | 01:49:00 | 00:00:00 | |
| AA1-15 | 2026-09-03 00:08:19 | 53.88504 | 14.45399 | 116° | 4km/h | 22781m | 6.1m/s | -51.6°C | 0.4% | 38hPa | 2.6V | 18:12:15 | 01:48:49 | 00:00:00 | |
| AA1-15 | 2026-09-03 00:08:09 | 53.88520 | 14.45374 | 126° | 16km/h | 22730m | 5.1m/s | -51.7°C | 0.5% | 38.3hPa | 2.6V | 18:12:15 | 01:48:39 | 00:00:00 | |
| AA1-15 | 2026-09-03 00:07:58 | 53.88544 | 14.45327 | 137° | 9km/h | 22676m | 4.9m/s | -51.6°C | 0.4% | 38.6hPa | 2.6V | 18:12:15 | 01:48:28 | 00:00:00 | |
| AA1-15 | 2026-09-03 00:07:48 | 53.88562 | 14.45261 | 117° | 16km/h | 22625m | 5.8m/s | -51.6°C | 0.4% | 38.9hPa | 2.5V | 18:12:15 | 01:48:18 | 00:00:00 | |
| AA1-15 | 2026-09-03 00:07:37 | 53.88587 | 14.45196 | 138° | 20km/h | 22573m | 4.1m/s | -51.6°C | 0.5% | 39.2hPa | 2.6V | 18:12:15 | 01:48:07 | 00:00:00 | |
| AA1-15 | 2026-09-03 00:07:27 | 53.88630 | 14.45118 | 123° | 22km/h | 22525m | 4.2m/s | -51.4°C | 0.4% | 39.5hPa | 2.6V | 18:12:15 | 01:47:57 | 00:00:00 | |
| AA1-15 | 2026-09-03 00:07:16 | 53.88672 | 14.45024 | 112° | 22km/h | 22473m | 5.2m/s | -51.4°C | 0.4% | 39.8hPa | 2.6V | 18:12:15 | 01:47:46 | 00:00:00 | |
| AA1-15 | 2026-09-03 00:07:06 | 53.88699 | 14.44894 | 113° | 33km/h | 22424m | 4.7m/s | -51.5°C | 0.3% | 40.1hPa | 2.6V | 18:12:15 | 01:47:36 | 00:00:00 | |
| AA1-15 | 2026-09-03 00:06:55 | 53.88730 | 14.44753 | 99° | 40km/h | 22372m | 4.2m/s | -51.7°C | 0.4% | 40.5hPa | 2.5V | 18:12:15 | 01:47:25 | 00:00:00 | |
| AA1-15 | 2026-09-03 00:06:45 | 53.88742 | 14.44624 | 103° | 27km/h | 22323m | 3.8m/s | -52.1°C | 0.4% | 40.7hPa | 2.5V | 18:12:15 | 01:47:15 | 00:00:00 | |
| AA1-15 | 2026-09-03 00:06:34 | 53.88735 | 14.44472 | 72° | 27km/h | 22271m | 4.6m/s | -52.2°C | 0.5% | 41.1hPa | 2.6V | 18:12:15 | 01:47:04 | 00:00:00 | |
| AA1-15 | 2026-09-03 00:06:24 | 53.88706 | 14.44364 | 71° | 26km/h | 22223m | 5.1m/s | -52.6°C | 0.5% | 41.4hPa | 2.6V | 18:12:15 | 01:46:54 | 00:00:00 | |
| AA1-15 | 2026-09-03 00:06:13 | 53.88671 | 14.44283 | 35° | 24km/h | 22168m | 5.6m/s | -52.7°C | 0.6% | 41.8hPa | 2.6V | 18:12:15 | 01:46:43 | 00:00:00 | |
| AA1-15 | 2026-09-03 00:06:03 | 53.88634 | 14.44227 | 48° | 20km/h | 22120m | 4.7m/s | -52.7°C | 0.6% | 42.1hPa | 2.6V | 18:12:15 | 01:46:33 | 00:00:00 | |
| AA1-15 | 2026-09-03 00:05:52 | 53.88606 | 14.44188 | 88° | 15km/h | 22068m | 5.6m/s | -52.3°C | 0.6% | 42.4hPa | 2.5V | 18:12:15 | 01:46:22 | 00:00:00 | |
| AA1-15 | 2026-09-03 00:05:42 | 53.88592 | 14.44127 | 45° | 11km/h | 22018m | 5.8m/s | -52.1°C | 0.5% | 42.7hPa | 2.5V | 18:12:15 | 01:46:12 | 00:00:00 | |
| AA1-15 | 2026-09-03 00:05:31 | 53.88586 | 14.44063 | 76° | 13km/h | 21964m | 4.8m/s | -51.9°C | 0.4% | 43.1hPa | 2.5V | 18:12:15 | 01:46:01 | 00:00:00 | |
| DK1YY | 2026-09-03 00:05:28 | 53.88585 | 14.44048 | 108° | 7km/h | 21945m | 4.2m/s | -51.8°C | -1.0% | 43.2hPa | 2.6V | 00:00:00 | 00:00:00 | 00:00:00 | |
| AA1-15 | 2026-09-03 00:05:21 | 53.88617 | 14.43938 | 128° | 15km/h | 21851m | 4.1m/s | -51.6°C | 0.4% | 43.8hPa | 2.6V | 18:12:15 | 01:45:38 | 00:00:00 | |
| AA1-15 | 2026-09-03 00:05:08 | 53.88620 | 14.43932 | 126° | 16km/h | 21846m | 6m/s | -51.6°C | 0.5% | 43.9hPa | 2.5V | 18:12:15 | 01:45:37 | 00:00:00 | |
| AA1-15 | 2026-09-03 00:04:57 | 53.88643 | 14.43900 | 178° | 11km/h | 21796m | 3.6m/s | -51.4°C | 0.4% | 44.2hPa | 2.5V | 18:12:15 | 01:45:27 | 00:00:00 | |
| AA1-15 | 2026-09-03 00:04:46 | 53.88666 | 14.43855 | 88° | 7km/h | 21744m | 4.9m/s | -51.3°C | 0.3% | 44.6hPa | 2.5V | 18:12:15 | 01:45:16 | 00:00:00 | |
| EDDB2-11 | 2026-09-03 00:04:45 | 53.88665 | 14.43851 | 47° | 4km/h | 21733m | 4.8m/s | 0°C | -1.0% | -1.0hPa | 2.5V | 00:00:00 | 00:00:00 | 00:00:00 | |
| AA1-15 | 2026-09-03 00:04:35 | 53.88686 | 14.43829 | 137° | 15km/h | 21688m | 4m/s | -51.4°C | 0.4% | 45hPa | 2.5V | 18:12:15 | 01:45:05 | 00:00:00 | |
| AA1-15 | 2026-09-03 00:04:25 | 53.88690 | 14.43807 | 167° | 13km/h | 21638m | 5.7m/s | -51.8°C | 0.4% | 45.3hPa | 2.5V | 18:12:15 | 01:44:55 | 00:00:00 | |
| AA1-15 | 2026-09-03 00:04:15 | 53.88717 | 14.43776 | 80° | 4km/h | 21577m | 4.3m/s | -51.9°C | 0.5% | 45.8hPa | 2.6V | 18:12:15 | 01:44:43 | 00:00:00 | |
| AA1-15 | 2026-09-03 00:04:04 | 53.88732 | 14.43761 | 121° | 9km/h | 21532m | 5.1m/s | -51.7°C | 0.4% | 46hPa | 2.6V | 18:12:15 | 01:44:34 | 00:00:00 | |
| AA1-15 | 2026-09-03 00:03:54 | 53.88728 | 14.43737 | 107° | 7km/h | 21472m | 5.8m/s | -51.6°C | 0.4% | 46.5hPa | 2.5V | 18:12:15 | 01:44:22 | 00:00:00 | |
| AA1-15 | 2026-09-03 00:03:41 | 53.88732 | 14.43686 | 85° | 11km/h | 21418m | 4.1m/s | -51.5°C | 0.5% | 46.9hPa | 2.5V | 18:12:15 | 01:44:11 | 00:00:00 | |
| AA1-15 | 2026-09-03 00:03:30 | 53.88742 | 14.43628 | 116° | 16km/h | 21364m | 5.7m/s | -51.6°C | 0.5% | 47.3hPa | 2.5V | 18:12:15 | 01:44:00 | 00:00:00 | |
| AA1-15 | 2026-09-03 00:03:20 | 53.88761 | 14.43552 | 111° | 20km/h | 21313m | 5.6m/s | -51.3°C | 0.4% | 47.6hPa | 2.5V | 18:12:15 | 01:43:50 | 00:00:00 | |
| AA1-15 | 2026-09-03 00:03:09 | 53.88769 | 14.43454 | 92° | 24km/h | 21257m | 4.5m/s | -51.4°C | 0.4% | 48hPa | 2.6V | 18:12:15 | 01:43:39 | 00:00:00 | |
| MECKS9 | 2026-09-03 00:03:08 | 53.88769 | 14.43453 | 93° | 24km/h | 21258m | 4.5m/s | -51.4°C | 1.0% | 48.0hPa | 2.6V | 00:00:00 | 00:00:00 | 00:00:00 | |
| SP3WXH-11 | 2026-09-03 00:03:00 | 53.88715 | 14.43148 | 56° | 16km/h | 21064m | 5.7m/s | -51.6°C | 1.0% | 49.5hPa | 2.6V | 00:00:00 | 00:00:00 | 00:00:00 | |
| AA1-15 | 2026-09-03 00:02:58 | 53.88764 | 14.43337 | 80° | 18km/h | 21202m | 4.6m/s | -51.5°C | 0.4% | 48.4hPa | 2.6V | 18:12:15 | 01:43:28 | 00:00:00 | |
| AA1-15 | 2026-09-03 00:02:48 | 53.88749 | 14.43249 | 58° | 18km/h | 21150m | 5.4m/s | -51.5°C | 0.4% | 48.9hPa | 2.5V | 18:12:15 | 01:43:17 | 00:00:00 | |
| DJ2DS-15 | 2026-09-03 00:02:45 | 53.88714 | 14.43084 | 125° | 13km/h | 21018m | 4.6m/s | -51.7°C | 1.0% | 49.9hPa | 2.6V | 00:00:00 | 00:00:00 | 00:00:00 | |
| AM1SDL-15 | 2026-09-03 00:02:41 | 53.88717 | 14.43071 | 98° | 20km/h | 21010m | 3.7m/s | -51.7°C | 3.6% | 49.9hPa | 2.6V | 00:00:00 | 01:42:48 | 00:00:00 | |
| AA1-15 | 2026-09-03 00:02:37 | 53.88727 | 14.43180 | 69° | 15km/h | 21103m | 4.3m/s | -51.5°C | 0.4% | 49.2hPa | 2.5V | 18:12:15 | 01:43:07 | 00:00:00 | |
| AM1SDL-15 | 2026-09-03 00:02:27 | 53.88711 | 14.42971 | 99° | 26km/h | 20954m | 4.8m/s | -52.0°C | 3.7% | 50.3hPa | 2.5V | 00:00:00 | 01:42:36 | 00:00:00 | |
| AA1-15 | 2026-09-03 00:02:26 | 53.88708 | 14.43127 | 71° | 20km/h | 21049m | 5.8m/s | -51.6°C | 0.4% | 49.6hPa | 2.5V | 18:12:15 | 01:42:56 | 00:00:00 | |
| MECKS9 | 2026-09-03 00:02:20 | 53.88713 | 14.42930 | 90° | 26km/h | 20936m | 3.7m/s | -52.0°C | 1.0% | 50.5hPa | 2.5V | 00:00:00 | 00:00:00 | 00:00:00 | |
| SP3WXH-11 | 2026-09-03 00:02:17 | 53.88711 | 14.42880 | 81° | 27km/h | 20918m | 4.9m/s | -52.0°C | 1.0% | 50.6hPa | 2.5V | 00:00:00 | 00:00:00 | 00:00:00 | |
| AA1-15 | 2026-09-03 00:02:15 | 53.88714 | 14.43051 | 65° | 16km/h | 20996m | 4.3m/s | -51.9°C | 0.4% | 50hPa | 2.5V | 18:12:15 | 01:42:45 | 00:00:00 | |
| AM1SDL-15 | 2026-09-03 00:02:10 | 53.88705 | 14.42836 | 79° | 24km/h | 20899m | 4.6m/s | -51.9°C | 3.7% | 50.7hPa | 2.5V | 00:00:00 | 01:42:24 | 00:00:00 | |
| MECKS9 | 2026-09-03 00:02:08 | 53.88703 | 14.42816 | 85° | 22km/h | 20890m | 5.1m/s | -52.0°C | 1.0% | 50.8hPa | 2.5V | 00:00:00 | 00:00:00 | 00:00:00 | |
| AA1-15 | 2026-09-03 00:02:05 | 53.88712 | 14.42961 | 95° | 24km/h | 20949m | 4.2m/s | -52°C | 0.5% | 50.4hPa | 2.5V | 18:12:15 | 01:42:35 | 00:00:00 | |
| AM1SDL-15 | 2026-09-03 00:01:56 | 53.88715 | 14.42703 | 100° | 31km/h | 20837m | 4.0m/s | -51.9°C | 3.7% | 51.2hPa | 2.5V | 00:00:00 | 01:42:11 | 00:00:00 | |
| MECKS9 | 2026-09-03 00:01:54 | 53.88715 | 14.42703 | 101° | 29km/h | 20837m | 4.1m/s | -52.0°C | 1.0% | 51.3hPa | 2.6V | 00:00:00 | 00:00:00 | 00:00:00 | |
| AA1-15 | 2026-09-03 00:01:54 | 53.88705 | 14.42837 | 78° | 26km/h | 20898m | 4.6m/s | -52°C | 0.5% | 50.8hPa | 2.6V | 18:12:15 | 01:42:24 | 00:00:00 | |
| S3001 | 2026-09-03 00:01:50 | 53.88746 | 14.42342 | 103° | 27km/h | 20718m | 5.3m/s | -52.2°C | 1.0% | 52.2hPa | 2.6V | 00:00:00 | 00:00:00 | 00:00:00 | |
| AA1-15 | 2026-09-03 00:01:43 | 53.88713 | 14.42727 | 101° | 27km/h | 20846m | 5.3m/s | -51.9°C | 0.5% | 51.2hPa | 2.6V | 18:12:15 | 01:42:13 | 00:00:00 | |
| AM1SDL-15 | 2026-09-03 00:01:42 | 53.88738 | 14.42545 | 103° | 31km/h | 20782m | 3.7m/s | -52.1°C | 3.7% | 51.6hPa | 2.6V | 00:00:00 | 01:41:59 | 00:00:00 | |
| SP3WXH-11 | 2026-09-03 00:01:41 | 53.88740 | 14.42515 | 91° | 31km/h | 20772m | 4.4m/s | -52.1°C | 1.0% | 51.8hPa | 2.6V | 00:00:00 | 00:00:00 | 00:00:00 | |
| DJ2DS-15 | 2026-09-03 00:01:35 | 53.88739 | 14.42473 | 88° | 24km/h | 20758m | 4.6m/s | -52.1°C | 3.7% | 51.8hPa | 2.6V | 00:00:00 | 01:41:54 | 00:00:00 | |
| AA1-15 | 2026-09-03 00:01:34 | 53.88728 | 14.42607 | 108° | 35km/h | 20799m | 4.5m/s | -52.1°C | 0.4% | 51.6hPa | 2.6V | 18:12:15 | 01:42:03 | 00:00:00 | |
| AA1-15 | 2026-09-03 00:01:22 | 53.88738 | 14.42442 | 89° | 37km/h | 20750m | 3.7m/s | -52.1°C | 0.5% | 52hPa | 2.5V | 18:12:15 | 01:41:52 | 00:00:00 | |
| DJ2DS-15 | 2026-09-03 00:01:16 | 53.88750 | 14.42263 | 81° | 29km/h | 20684m | 4.1m/s | -52.2°C | 1.1% | 52.5hPa | 2.5V | 00:00:00 | 00:00:00 | 00:00:00 | |
| S3001 | 2026-09-03 00:01:13 | 53.88748 | 14.42158 | 91° | 29km/h | 20646m | 5.0m/s | -52.0°C | 1.1% | 52.8hPa | 2.5V | 00:00:00 | 00:00:00 | 00:00:00 | |
| AA1-15 | 2026-09-03 00:01:12 | 53.88750 | 14.42310 | 100° | 26km/h | 20703m | 5.3m/s | -52.2°C | 0.6% | 52.3hPa | 2.5V | 18:12:15 | 01:41:42 | 00:00:00 | |
| AM1SDL-15 | 2026-09-03 00:01:05 | 53.88748 | 14.42158 | 92° | 24km/h | 20646m | 4.9m/s | -51.9°C | 3.7% | 52.7hPa | 2.6V | 00:00:00 | 01:41:30 | 00:00:00 | |
| AA1-15 | 2026-09-03 00:01:02 | 53.88748 | 14.42158 | 92° | 29km/h | 20646m | 5m/s | -52°C | 0.6% | 52.8hPa | 2.6V | 18:12:15 | 01:41:30 | 00:00:00 | |
| SP3WXH-11 | 2026-09-03 00:00:57 | 53.88744 | 14.42114 | 70° | 22km/h | 20629m | 3.6m/s | -51.8°C | 1.0% | 52.9hPa | 2.5V | 00:00:00 | 00:00:00 | 00:00:00 | |
| AA1-15 | 2026-09-03 00:00:50 | 53.88741 | 14.42051 | 89° | 24km/h | 20602m | 5.7m/s | -51.7°C | 0.5% | 53.1hPa | 2.5V | 18:12:15 | 01:41:20 | 00:00:00 | |
| AM1SDL-15 | 2026-09-03 00:00:48 | 53.88741 | 14.41998 | 73° | 20km/h | 20572m | 5.8m/s | -51.4°C | 3.6% | 53.3hPa | 2.6V | 00:00:00 | 01:41:14 | 08:30:00 | |
| S3001 | 2026-09-03 00:00:43 | 53.88736 | 14.41932 | 89° | 20km/h | 20535m | 4.5m/s | -51.1°C | 1.0% | 53.7hPa | 2.6V | 00:00:00 | 00:00:00 | 00:00:00 | |
| DJ2DS-15 | 2026-09-03 00:00:40 | 53.88736 | 14.41913 | 90° | 20km/h | 20525m | 4.8m/s | -51.0°C | 3.5% | 53.7hPa | 2.6V | 00:00:00 | 01:41:04 | 00:00:00 | |
| AA1-15 | 2026-09-03 00:00:40 | 53.88736 | 14.41949 | 88° | 20km/h | 20544m | 5.7m/s | -51.2°C | 0.4% | 53.6hPa | 2.6V | 18:12:15 | 01:41:08 | 00:00:00 | |
| AM1SDL-15 | 2026-09-03 00:00:35 | 53.88734 | 14.41887 | 68° | 20km/h | 20511m | 5.8m/s | -50.9°C | 3.5% | 53.8hPa | 2.6V | 00:00:00 | 01:41:01 | 00:00:00 | |
| AA1-15 | 2026-09-03 00:00:30 | 53.88730 | 14.41875 | 55° | 16km/h | 20501m | 4.8m/s | -50.9°C | 0.4% | 54hPa | 2.6V | 18:12:15 | 01:40:59 | 00:00:00 | |
| AM1SDL-15 | 2026-09-03 00:00:21 | 53.88727 | 14.41788 | 100° | 15km/h | 20453m | 3.3m/s | -51.3°C | 3.6% | 54.3hPa | 2.6V | 00:00:00 | 01:40:49 | 00:00:00 | |
| AA1-15 | 2026-09-03 00:00:19 | 53.88728 | 14.41788 | 100° | 20km/h | 20453m | 3.4m/s | -51.3°C | 0.4% | 54.4hPa | 2.6V | 18:12:15 | 01:40:49 | 00:00:00 | |
| DJ2DS-15 | 2026-09-03 00:00:14 | 53.88725 | 14.41761 | 71° | 29km/h | 20430m | 4.4m/s | -51.4°C | 3.7% | 54.5hPa | 2.6V | 00:00:00 | 01:40:44 | 00:00:00 | |
| AA1-15 | 2026-09-03 00:00:09 | 53.88724 | 14.41736 | 98° | 15km/h | 20408m | 5.1m/s | -51.2°C | 0.4% | 54.8hPa | 2.6V | 18:12:15 | 01:40:39 | 00:00:00 | |
| S3001 | 2026-09-03 00:00:06 | 53.88711 | 14.41604 | 69° | 11km/h | 20286m | 6.1m/s | -51.2°C | 1.0% | 55.8hPa | 2.6V | 00:00:00 | 00:00:00 | 00:00:00 | |
| AA1-15 | 2026-09-02 23:59:58 | 53.88715 | 14.41676 | 93° | 11km/h | 20354m | 4.2m/s | -51.1°C | 0.4% | 55.2hPa | 2.6V | 18:12:15 | 01:40:28 | 00:00:00 | |
| AM1SDL-15 | 2026-09-02 23:59:57 | 53.88716 | 14.41666 | 95° | 13km/h | 20345m | 5.5m/s | -51.0°C | 3.4% | 55.3hPa | 2.5V | 00:00:00 | 01:40:26 | 00:00:00 | |
| SP3WXH-11 | 2026-09-02 23:59:55 | 53.88716 | 14.41654 | 99° | 13km/h | 20335m | 5.2m/s | -51.1°C | 1.0% | 55.4hPa | 2.6V | 00:00:00 | 00:00:00 | 00:00:00 | |
| AA1-15 | 2026-09-02 23:59:48 | 53.88715 | 14.41622 | 66° | 15km/h | 20307m | 4.7m/s | -51.1°C | 0.4% | 55.6hPa | 2.6V | 18:12:15 | 01:40:18 | 00:00:00 | |
| AM1SDL-15 | 2026-09-02 23:59:42 | 53.88709 | 14.41591 | 84° | 20km/h | 20275m | 4.2m/s | -51.2°C | 3.6% | 55.8hPa | 2.6V | 00:00:00 | 01:40:12 | 00:00:00 | |
| AA1-15 | 2026-09-02 23:59:38 | 53.88709 | 14.41559 | 94° | 22km/h | 20255m | 5.3m/s | -51.3°C | 0.4% | 56.1hPa | 2.6V | 18:12:15 | 01:40:08 | 00:00:00 | |
| AM1SDL-15 | 2026-09-02 23:59:30 | 53.88706 | 14.41490 | 78° | 18km/h | 20216m | 4.9m/s | -51.3°C | 3.6% | 56.3hPa | 2.5V | 00:00:00 | 01:40:00 | 00:00:00 | |
| AA1-15 | 2026-09-02 23:59:27 | 53.88706 | 14.41476 | 100° | 11km/h | 20200m | 4.3m/s | -51.3°C | 0.5% | 56.5hPa | 2.5V | 18:12:15 | 01:39:57 | 00:00:00 | |
| SP3WXH-11 | 2026-09-02 23:59:24 | 53.88710 | 14.41452 | 110° | 18km/h | 20180m | 4.8m/s | -51.2°C | 1.0% | 56.7hPa | 2.5V | 00:00:00 | 00:00:00 | 00:00:00 | |
| DJ2DS-15 | 2026-09-02 23:59:20 | 53.88716 | 14.41425 | 105° | 24km/h | 20165m | 4.3m/s | -51.2°C | 1.0% | 56.8hPa | 2.5V | 00:00:00 | 00:00:00 | 00:00:00 | |
| AM1SDL-15 | 2026-09-02 23:59:18 | 53.88721 | 14.41399 | 119° | 18km/h | 20151m | 4.8m/s | -51.1°C | 3.6% | 56.9hPa | 2.5V | 00:00:00 | 01:39:47 | 00:00:00 | |
| AA1-15 | 2026-09-02 23:59:16 | 53.88723 | 14.41392 | 120° | 16km/h | 20146m | 4.7m/s | -51.1°C | 0.4% | 57hPa | 2.5V | 18:12:15 | 01:39:46 | 00:00:00 | |
| AA1-15 | 2026-09-02 23:59:06 | 53.88750 | 14.41328 | 120° | 20km/h | 20098m | 5.5m/s | -50.9°C | 0.3% | 57.4hPa | 2.5V | 18:12:15 | 01:39:36 | 00:00:00 | |
| AM1SDL-15 | 2026-09-02 23:59:03 | 53.88758 | 14.41310 | 125° | 15km/h | 20083m | 5.6m/s | -50.8°C | 3.5% | 57.5hPa | 2.5V | 00:00:00 | 01:39:33 | 00:00:00 | |
| AA1-15 | 2026-09-02 23:58:56 | 53.88775 | 14.41286 | 139° | 13km/h | 20048m | 5.4m/s | -50.8°C | 0.4% | 57.8hPa | 2.5V | 18:12:15 | 01:39:26 | 00:00:00 | |
| AA1-15 | 2026-09-02 23:58:45 | 53.88801 | 14.41233 | 151° | 11km/h | 19996m | 3.8m/s | -51°C | 0.4% | 58.3hPa | 2.6V | 18:12:15 | 01:39:15 | 00:00:00 | |
| DJ2DS-15 | 2026-09-02 23:58:44 | 53.88804 | 14.41230 | 142° | 11km/h | 19992m | 5.3m/s | -51.0°C | 1.0% | 58.4hPa | 2.6V | 00:00:00 | 00:00:00 | 00:00:00 | |
| AA1-15 | 2026-09-02 23:58:35 | 53.88827 | 14.41175 | 121° | 22km/h | 19949m | 4.9m/s | -50.9°C | 0.3% | 58.8hPa | 2.6V | 18:12:15 | 01:39:05 | 00:00:00 | |
| AA1-15 | 2026-09-02 23:58:25 | 53.88851 | 14.41100 | 117° | 24km/h | 19900m | 6m/s | -51.1°C | 0.4% | 59.2hPa | 2.6V | 18:12:15 | 01:38:55 | 00:00:00 | |
| AA1-15 | 2026-09-02 23:58:14 | 53.88865 | 14.40979 | 84° | 24km/h | 19846m | 4.7m/s | -51.2°C | 0.5% | 59.7hPa | 2.6V | 18:12:15 | 01:38:44 | 00:00:00 | |
| AA1-15 | 2026-09-02 23:58:03 | 53.88863 | 14.40864 | 87° | 20km/h | 19792m | 5.3m/s | -51°C | 0.4% | 60.2hPa | 2.6V | 18:12:15 | 01:38:33 | 00:00:00 | |
| AA1-15 | 2026-09-02 23:57:53 | 53.88867 | 14.40789 | 104° | 22km/h | 19743m | 4.8m/s | -50.9°C | 0.3% | 60.6hPa | 2.6V | 18:12:15 | 01:38:23 | 00:00:00 | |
| SP3WXH-11 | 2026-09-02 23:57:51 | 53.88870 | 14.40764 | 100° | 16km/h | 19729m | 4.7m/s | -50.8°C | 1.0% | 60.7hPa | 2.7V | 00:00:00 | 00:00:00 | 00:00:00 | |
| AA1-15 | 2026-09-02 23:57:42 | 53.88894 | 14.40710 | 137° | 22km/h | 19690m | 4.5m/s | -50.8°C | 0.4% | 61.1hPa | 2.7V | 18:12:15 | 01:38:12 | 00:00:00 | |
| AA1-15 | 2026-09-02 23:57:31 | 53.88933 | 14.40622 | 140° | 26km/h | 19637m | 4.5m/s | -51.1°C | 0.5% | 61.6hPa | 2.6V | 18:12:15 | 01:38:01 | 00:00:00 | |
| AA1-15 | 2026-09-02 23:57:21 | 53.88993 | 14.40534 | 128° | 33km/h | 19590m | 5.8m/s | -50.8°C | 0.4% | 62.1hPa | 2.6V | 18:12:15 | 01:37:51 | 00:00:00 | |
| AA1-15 | 2026-09-02 23:57:10 | 53.89035 | 14.40417 | 126° | 29km/h | 19537m | 4.4m/s | -51°C | 0.4% | 62.6hPa | 2.6V | 18:12:15 | 01:37:40 | 00:00:00 | |
| AA1-15 | 2026-09-02 23:57:00 | 53.89066 | 14.40296 | 101° | 31km/h | 19489m | 4m/s | -51°C | 0.4% | 63.1hPa | 2.7V | 18:12:15 | 01:37:30 | 00:00:00 | |
| AA1-15 | 2026-09-02 23:56:49 | 53.89069 | 14.40171 | 96° | 29km/h | 19434m | 4.1m/s | -51°C | 0.4% | 63.6hPa | 2.6V | 18:12:15 | 01:37:19 | 00:00:00 | |
| SP3WXH-11 | 2026-09-02 23:56:49 | 53.89070 | 14.40159 | 97° | 27km/h | 19429m | 4.2m/s | -50.9°C | 1.0% | 63.6hPa | 2.6V | 00:00:00 | 00:00:00 | 00:00:00 | |
| AA1-15 | 2026-09-02 23:56:38 | 53.89072 | 14.40047 | 87° | 26km/h | 19381m | 5.8m/s | -50.9°C | 0.4% | 64.1hPa | 2.6V | 18:12:15 | 01:37:08 | 00:00:00 | |
| AA1-15 | 2026-09-02 23:56:28 | 53.89072 | 14.39940 | 93° | 27km/h | 19334m | 5.3m/s | -51.2°C | 0.4% | 64.5hPa | 2.7V | 18:12:15 | 01:36:58 | 00:00:00 | |
| AA1-15 | 2026-09-02 23:56:18 | 53.89092 | 14.39861 | 120° | 27km/h | 19289m | 4.6m/s | -51.2°C | 0.4% | 65hPa | 2.7V | 18:12:15 | 01:36:48 | 00:00:00 | |
| AA1-15 | 2026-09-02 23:56:08 | 53.89120 | 14.39747 | 122° | 27km/h | 19242m | 4.5m/s | -51°C | 0.4% | 65.5hPa | 2.6V | 18:12:15 | 01:36:38 | 00:00:00 | |
| AA1-15 | 2026-09-02 23:55:57 | 53.89161 | 14.39623 | 110° | 29km/h | 19189m | 4.8m/s | -50.9°C | 0.4% | 66hPa | 2.6V | 18:12:15 | 01:36:27 | 00:00:00 | |
| AA1-15 | 2026-09-02 23:55:46 | 53.89208 | 14.39501 | 115° | 31km/h | 19137m | 5.6m/s | -50.5°C | 0.4% | 66.5hPa | 2.6V | 18:12:15 | 01:36:16 | 00:00:00 | |
| AA1-15 | 2026-09-02 23:55:36 | 53.89249 | 14.39386 | 128° | 31km/h | 19088m | 4.4m/s | -50.4°C | 0.4% | 67hPa | 2.6V | 18:12:15 | 01:36:06 | 00:00:00 | |
| AA1-15 | 2026-09-02 23:55:26 | 53.89282 | 14.39253 | 109° | 37km/h | 19040m | 4.5m/s | -50°C | 0.4% | 67.5hPa | 2.6V | 18:12:15 | 01:35:56 | 00:00:00 | |
| AA1-15 | 2026-09-02 23:55:15 | 53.89318 | 14.39100 | 105° | 37km/h | 18986m | 5.4m/s | -49.7°C | 0.2% | 68.1hPa | 2.6V | 18:12:15 | 01:35:45 | 00:00:00 | |
| AA1-15 | 2026-09-02 23:55:04 | 53.89346 | 14.38943 | 108° | 33km/h | 18931m | 5.1m/s | -49.8°C | 0.3% | 68.7hPa | 2.6V | 18:12:15 | 01:35:34 | 00:00:00 | |
| AA1-15 | 2026-09-02 23:54:53 | 53.89368 | 14.38767 | 105° | 37km/h | 18875m | 4.6m/s | -50°C | 0.3% | 69.3hPa | 2.6V | 18:12:15 | 01:35:23 | 00:00:00 | |
| SP3WXH-11 | 2026-09-02 23:54:44 | 53.89381 | 14.38612 | 92° | 46km/h | 18830m | 4.5m/s | -50.2°C | 1.0% | 69.7hPa | 2.5V | 00:00:00 | 00:00:00 | 00:00:00 | |
| AA1-15 | 2026-09-02 23:54:43 | 53.89381 | 14.38592 | 95° | 46km/h | 18825m | 4.7m/s | -50.1°C | 0.4% | 69.8hPa | 2.5V | 18:12:15 | 01:35:13 | 00:00:00 | |
| AA1-15 | 2026-09-02 23:54:32 | 53.89385 | 14.38405 | 79° | 38km/h | 18769m | 5.8m/s | -49.7°C | 0.3% | 70.4hPa | 2.6V | 18:12:15 | 01:35:02 | 00:00:00 | |
| AA1-15 | 2026-09-02 23:54:21 | 53.89381 | 14.38245 | 82° | 33km/h | 18713m | 4.6m/s | -49.6°C | 0.3% | 71hPa | 2.6V | 18:12:15 | 01:34:51 | 00:00:00 | |
| AA1-15 | 2026-09-02 23:54:10 | 53.89360 | 14.38092 | 82° | 27km/h | 18659m | 4.5m/s | -49.4°C | 0.3% | 71.6hPa | 2.6V | 18:12:15 | 01:34:40 | 00:00:00 | |
| AA1-15 | 2026-09-02 23:53:59 | 53.89327 | 14.37971 | 64° | 22km/h | 18604m | 4.1m/s | -49.5°C | 0.2% | 72.2hPa | 2.6V | 18:12:15 | 01:34:29 | 00:00:00 | |
| AA1-15 | 2026-09-02 23:53:48 | 53.89311 | 14.37824 | 70° | 31km/h | 18551m | 5.2m/s | -49.9°C | 0.2% | 72.8hPa | 2.6V | 18:12:15 | 01:34:18 | 00:00:00 | |
| AA1-15 | 2026-09-02 23:53:37 | 53.89300 | 14.37678 | 83° | 38km/h | 18501m | 4.2m/s | -50.2°C | 0.3% | 73.3hPa | 2.6V | 18:12:15 | 01:34:07 | 00:00:00 | |
| AA1-15 | 2026-09-02 23:53:27 | 53.89286 | 14.37512 | 82° | 38km/h | 18455m | 5m/s | -50.3°C | 0.3% | 73.8hPa | 2.6V | 18:12:15 | 01:33:57 | 00:00:00 | |
| AA1-15 | 2026-09-02 23:53:16 | 53.89276 | 14.37360 | 85° | 35km/h | 18405m | 5.6m/s | -50°C | 0.2% | 74.4hPa | 2.7V | 18:12:15 | 01:33:46 | 00:00:00 | |
| AA1-15 | 2026-09-02 23:53:06 | 53.89277 | 14.37211 | 95° | 33km/h | 18360m | 4.2m/s | -50.1°C | 0.2% | 74.9hPa | 2.7V | 18:12:15 | 01:33:36 | 00:00:00 | |
| AA1-15 | 2026-09-02 23:52:55 | 53.89279 | 14.37043 | 94° | 37km/h | 18312m | 3.9m/s | -50.7°C | 0.4% | 75.4hPa | 2.7V | 18:12:15 | 01:33:25 | 00:00:00 | |
| AA1-15 | 2026-09-02 23:52:45 | 53.89303 | 14.36882 | 94° | 42km/h | 18268m | 4.9m/s | -50.6°C | 0.3% | 76hPa | 2.6V | 18:12:15 | 01:33:15 | 00:00:00 | |
| AA1-15 | 2026-09-02 23:52:34 | 53.89315 | 14.36702 | 114° | 33km/h | 18220m | 4.1m/s | -50.8°C | 0.3% | 76.5hPa | 2.6V | 18:12:15 | 01:33:04 | 00:00:00 | |
| AA1-15 | 2026-09-02 23:52:23 | 53.89341 | 14.36534 | 97° | 42km/h | 18175m | 3.6m/s | -51°C | 0.4% | 77hPa | 2.6V | 18:12:15 | 01:32:53 | 00:00:00 | |
| AA1-15 | 2026-09-02 23:52:13 | 53.89368 | 14.36394 | 110° | 37km/h | 18133m | 5m/s | -51.1°C | 0.4% | 77.6hPa | 2.6V | 18:12:15 | 01:32:43 | 00:00:00 | |
| AA1-15 | 2026-09-02 23:52:02 | 53.89396 | 14.36219 | 113° | 38km/h | 18087m | 3.3m/s | -51°C | 0.3% | 78.1hPa | 2.6V | 18:12:15 | 01:32:32 | 00:00:00 | |
| AA1-15 | 2026-09-02 23:51:51 | 53.89431 | 14.36016 | 104° | 44km/h | 18039m | 3.7m/s | -51.4°C | 0.4% | 78.7hPa | 2.7V | 18:12:15 | 01:32:21 | 00:00:00 | |
| EDDB2-11 | 2026-09-02 23:51:49 | 53.89440 | 14.35963 | 111° | 44km/h | 18026m | 4.2m/s | -51.5°C | 1.1% | 78.8hPa | 2.7V | 00:00:00 | 00:00:00 | 00:00:00 | |
| S3001 | 2026-09-02 23:51:48 | 53.89440 | 14.35963 | 111° | 44km/h | 18026m | 4.2m/s | -51.5°C | 1.1% | 78.8hPa | 2.7V | 00:00:00 | 00:00:00 | 00:00:00 | |
| AA1-15 | 2026-09-02 23:51:41 | 53.89467 | 14.35826 | 102° | 57km/h | 17997m | 3.8m/s | -51.7°C | 0.4% | 79.2hPa | 2.7V | 18:12:15 | 01:32:11 | 00:00:00 | |
| AA1-15 | 2026-09-02 23:51:31 | 53.89492 | 14.35622 | 103° | 42km/h | 17953m | 4.1m/s | -51.6°C | 0.4% | 79.7hPa | 2.6V | 18:12:15 | 01:32:01 | 00:00:00 | |
| AA1-15 | 2026-09-02 23:51:21 | 53.89515 | 14.35430 | 106° | 42km/h | 17910m | 3.5m/s | -52.2°C | 0.5% | 80.3hPa | 2.7V | 18:12:15 | 01:31:51 | 00:00:00 | |
| AA1-15 | 2026-09-02 23:51:10 | 53.89552 | 14.35255 | 109° | 42km/h | 17864m | 4.7m/s | -52°C | 0.5% | 80.8hPa | 2.7V | 18:12:15 | 01:31:40 | 00:00:00 | |
| AA1-15 | 2026-09-02 23:51:00 | 53.89588 | 14.35099 | 106° | 40km/h | 17821m | 4.1m/s | -51.8°C | 0.4% | 81.4hPa | 2.6V | 18:12:15 | 01:31:30 | 00:00:00 | |
| AA1-15 | 2026-09-02 23:50:49 | 53.89617 | 14.34917 | 100° | 46km/h | 17770m | 5.2m/s | -51.7°C | 0.5% | 82hPa | 2.6V | 18:12:15 | 01:31:19 | 00:00:00 | |
| EDDB2-11 | 2026-09-02 23:50:47 | 53.89621 | 14.34858 | 95° | 46km/h | 17756m | 5.0m/s | -51.7°C | 1.1% | -1.0hPa | 2.6V | 00:00:00 | 00:00:00 | 00:00:00 | |
| AA1-15 | 2026-09-02 23:50:38 | 53.89632 | 14.34725 | 106° | 37km/h | 17720m | 5.1m/s | -51.9°C | 0.5% | 82.6hPa | 2.6V | 18:12:15 | 01:31:08 | 00:00:00 | |
| AA1-15 | 2026-09-02 23:50:28 | 53.89649 | 14.34559 | 99° | 40km/h | 17674m | 3.4m/s | -51.7°C | 0.4% | 83.2hPa | 2.7V | 18:12:15 | 01:30:58 | 00:00:00 | |
| AA1-15 | 2026-09-02 23:50:18 | 53.89668 | 14.34394 | 95° | 42km/h | 17629m | 4.9m/s | -51.7°C | 0.5% | 83.8hPa | 2.6V | 18:12:15 | 01:30:48 | 00:00:00 | |
| AA1-15 | 2026-09-02 23:50:07 | 53.89704 | 14.34208 | 104° | 42km/h | 17576m | 5.2m/s | -51.8°C | 0.4% | 84.5hPa | 2.6V | 18:12:15 | 01:30:37 | 00:00:00 | |
| AA1-15 | 2026-09-02 23:49:57 | 53.89731 | 14.34036 | 113° | 42km/h | 17529m | 4m/s | -51.9°C | 0.5% | 85.1hPa | 2.7V | 18:12:15 | 01:30:27 | 00:00:00 | |
| AA1-15 | 2026-09-02 23:49:46 | 53.89752 | 14.33864 | 106° | 42km/h | 17480m | 5m/s | -51.8°C | 0.4% | 85.8hPa | 2.6V | 18:12:15 | 01:30:16 | 00:00:00 | |
| S3001 | 2026-09-02 23:49:44 | 53.89758 | 14.33829 | 110° | 42km/h | 17471m | 4.3m/s | -51.8°C | 1.1% | 85.9hPa | 2.6V | 00:00:00 | 00:00:00 | 00:00:00 | |
| AA1-15 | 2026-09-02 23:49:35 | 53.89783 | 14.33687 | 99° | 38km/h | 17429m | 5.2m/s | -51.7°C | 0.4% | 86.4hPa | 2.6V | 18:12:15 | 01:30:05 | 00:00:00 | |
| AA1-15 | 2026-09-02 23:49:25 | 53.89804 | 14.33517 | 107° | 40km/h | 17382m | 3.7m/s | -51.5°C | 0.4% | 87.1hPa | 2.7V | 18:12:15 | 01:29:55 | 00:00:00 | |
| AA1-15 | 2026-09-02 23:49:14 | 53.89839 | 14.33322 | 111° | 44km/h | 17333m | 4.4m/s | -52°C | 0.5% | 87.7hPa | 2.6V | 18:12:15 | 01:29:44 | 00:00:00 | |
| AA1-15 | 2026-09-02 23:49:04 | 53.89869 | 14.33123 | 94° | 47km/h | 17288m | 4m/s | -51.9°C | 0.5% | 88.3hPa | 2.7V | 18:12:15 | 01:29:34 | 00:00:00 | |
| AA1-15 | 2026-09-02 23:48:53 | 53.89885 | 14.32911 | 97° | 44km/h | 17238m | 4.3m/s | -51.9°C | 0.5% | 89hPa | 2.7V | 18:12:15 | 01:29:23 | 00:00:00 | |
| AA1-15 | 2026-09-02 23:48:43 | 53.89888 | 14.32735 | 90° | 40km/h | 17194m | 3.3m/s | -51.7°C | 0.5% | 89.7hPa | 2.6V | 18:12:15 | 01:29:13 | 00:00:00 | |
| AA1-15 | 2026-09-02 23:48:32 | 53.89890 | 14.32545 | 95° | 38km/h | 17144m | 4.6m/s | -51.4°C | 0.4% | 90.3hPa | 2.6V | 18:12:15 | 01:29:02 | 00:00:00 | |
| AA1-15 | 2026-09-02 23:48:21 | 53.89891 | 14.32379 | 97° | 35km/h | 17093m | 4.5m/s | -51°C | 0.4% | 91hPa | 2.7V | 18:12:15 | 01:28:51 | 00:00:00 | |
| AA1-15 | 2026-09-02 23:48:11 | 53.89893 | 14.32243 | 85° | 26km/h | 17050m | 5.4m/s | -50.7°C | 0.4% | 91.6hPa | 2.6V | 18:12:15 | 01:28:41 | 00:00:00 | |
| AA1-15 | 2026-09-02 23:48:00 | 53.89892 | 14.32120 | 96° | 27km/h | 16999m | 5m/s | -50.7°C | 0.3% | 92.4hPa | 2.7V | 18:12:15 | 01:28:30 | 00:00:00 | |
| AA1-15 | 2026-09-02 23:47:50 | 53.89889 | 14.32024 | 96° | 27km/h | 16957m | 4.7m/s | -50.5°C | 0.3% | 93hPa | 2.6V | 18:12:15 | 01:28:20 | 00:00:00 | |
| AA1-15 | 2026-09-02 23:47:39 | 53.89887 | 14.31889 | 82° | 24km/h | 16911m | 3.2m/s | -50.7°C | 0.4% | 93.6hPa | 2.6V | 18:12:15 | 01:28:09 | 00:00:00 | |
| AA1-15 | 2026-09-02 23:47:29 | 53.89875 | 14.31750 | 76° | 33km/h | 16868m | 4.4m/s | -50.6°C | 0.4% | 94.2hPa | 2.7V | 18:12:15 | 01:27:59 | 00:00:00 | |
| AA1-15 | 2026-09-02 23:47:19 | 53.89862 | 14.31607 | 81° | 37km/h | 16823m | 5.3m/s | -50.2°C | 0.4% | 94.8hPa | 2.6V | 18:12:15 | 01:27:49 | 00:00:00 | |
| AA1-15 | 2026-09-02 23:47:08 | 53.89854 | 14.31477 | 98° | 27km/h | 16774m | 5.2m/s | -49.9°C | 0.4% | 95.6hPa | 2.7V | 18:12:15 | 01:27:38 | 00:00:00 | |
| AA1-15 | 2026-09-02 23:46:57 | 53.89847 | 14.31343 | 111° | 26km/h | 16725m | 4.6m/s | -50°C | 0.3% | 96.4hPa | 2.6V | 18:12:15 | 01:27:27 | 00:00:00 | |
| AA1-15 | 2026-09-02 23:46:46 | 53.89873 | 14.31220 | 116° | 29km/h | 16673m | 4.7m/s | -50.3°C | 0.3% | 97.1hPa | 2.6V | 18:12:15 | 01:27:16 | 00:00:00 | |
| AA1-15 | 2026-09-02 23:46:35 | 53.89914 | 14.31089 | 121° | 40km/h | 16624m | 6m/s | -50.7°C | 0.4% | 97.8hPa | 2.7V | 18:12:15 | 01:27:05 | 00:00:00 | |
| AA1-15 | 2026-09-02 23:46:24 | 53.89956 | 14.30918 | 116° | 35km/h | 16574m | 2.9m/s | -51°C | 0.4% | 98.5hPa | 2.6V | 18:12:15 | 01:26:54 | 00:00:00 | |
| AA1-15 | 2026-09-02 23:46:14 | 53.89996 | 14.30750 | 105° | 42km/h | 16531m | 4m/s | -51.4°C | 0.5% | 99.2hPa | 2.7V | 18:12:15 | 01:26:44 | 00:00:00 | |
| AA1-15 | 2026-09-02 23:46:03 | 53.90023 | 14.30550 | 99° | 47km/h | 16484m | 3.2m/s | -51.2°C | 0.5% | 99.9hPa | 2.6V | 18:12:15 | 01:26:33 | 00:00:00 | |
| AA1-15 | 2026-09-02 23:45:52 | 53.90048 | 14.30368 | 100° | 40km/h | 16436m | 3.3m/s | -51.2°C | 0.5% | 100.7hPa | 2.7V | 18:12:15 | 01:26:22 | 00:00:00 | |
| SONDE2-11 | 2026-09-02 23:45:47 | 53.90052 | 14.30285 | 97° | 37km/h | 16416m | 4.4m/s | -51.4°C | 1.2% | 101.0hPa | 2.6V | 00:00:00 | 00:00:00 | 00:00:00 | |
| AA1-15 | 2026-09-02 23:45:41 | 53.90069 | 14.30188 | 105° | 35km/h | 16389m | 3.3m/s | -51.5°C | 0.6% | 101.4hPa | 2.6V | 18:12:15 | 01:26:11 | 00:00:00 | |
| AA1-15 | 2026-09-02 23:45:31 | 53.90103 | 14.30022 | 117° | 51km/h | 16342m | 4.2m/s | -51.6°C | 0.6% | 102.1hPa | 2.7V | 18:12:15 | 01:26:01 | 00:00:00 | |
| AA1-15 | 2026-09-02 23:45:21 | 53.90153 | 14.29818 | 113° | 42km/h | 16291m | 5.3m/s | -51.5°C | 0.6% | 102.9hPa | 2.6V | 18:12:15 | 01:25:50 | 00:00:00 | |
| AA1-15 | 2026-09-02 23:45:10 | 53.90201 | 14.29645 | 113° | 46km/h | 16247m | 3.4m/s | -51.4°C | 0.5% | 103.7hPa | 2.7V | 18:12:15 | 01:25:40 | 00:00:00 | |
| AA1-15 | 2026-09-02 23:44:59 | 53.90255 | 14.29456 | 107° | 46km/h | 16200m | 4.7m/s | -51.4°C | 0.6% | 104.4hPa | 2.6V | 18:12:15 | 01:25:29 | 00:00:00 | |
| AA1-15 | 2026-09-02 23:44:48 | 53.90292 | 14.29259 | 110° | 42km/h | 16152m | 5.4m/s | -51.7°C | 0.5% | 105.2hPa | 2.6V | 18:12:15 | 01:25:18 | 00:00:00 | |
| SONDE2-11 | 2026-09-02 23:44:45 | 53.90303 | 14.29208 | 110° | 40km/h | 16138m | 4.8m/s | -51.8°C | 1.2% | 105.4hPa | 2.6V | 00:00:00 | 00:00:00 | 00:00:00 | |
| AA1-15 | 2026-09-02 23:44:38 | 53.90336 | 14.29083 | 116° | 47km/h | 16106m | 4.5m/s | -51.8°C | 0.6% | 105.9hPa | 2.6V | 18:12:15 | 01:25:08 | 00:00:00 | |
| AA1-15 | 2026-09-02 23:44:28 | 53.90380 | 14.28889 | 116° | 51km/h | 16061m | 3.9m/s | -51.7°C | 0.6% | 106.6hPa | 2.6V | 18:12:15 | 01:24:58 | 00:00:00 | |
| AA1-15 | 2026-09-02 23:44:17 | 53.90429 | 14.28667 | 108° | 46km/h | 16011m | 4.2m/s | -51.6°C | 0.6% | 107.5hPa | 2.6V | 18:12:15 | 01:24:47 | 00:00:00 | |
| AA1-15 | 2026-09-02 23:44:07 | 53.90468 | 14.28453 | 110° | 55km/h | 15966m | 5.3m/s | -51.5°C | 0.5% | 108.2hPa | 2.6V | 18:12:15 | 01:24:37 | 00:00:00 | |
| AA1-15 | 2026-09-02 23:43:56 | 53.90523 | 14.28216 | 115° | 57km/h | 15912m | 4.1m/s | -51.6°C | 0.6% | 109.1hPa | 2.7V | 18:12:15 | 01:24:25 | 00:00:00 | |
| AA1-15 | 2026-09-02 23:43:45 | 53.90567 | 14.28029 | 114° | 49km/h | 15868m | 4.9m/s | -51.8°C | 0.6% | 109.9hPa | 2.6V | 18:12:15 | 01:24:15 | 00:00:00 | |
| AA1-15 | 2026-09-02 23:43:35 | 53.90613 | 14.27813 | 105° | 53km/h | 15825m | 4.5m/s | -51.9°C | 0.5% | 110.6hPa | 2.7V | 18:12:15 | 01:24:05 | 00:00:00 | |
| AA1-15 | 2026-09-02 23:43:25 | 53.90643 | 14.27591 | 102° | 53km/h | 15782m | 3.7m/s | -51.8°C | 0.5% | 111.3hPa | 2.6V | 18:12:15 | 01:23:55 | 00:00:00 | |
| AA1-15 | 2026-09-02 23:43:16 | 53.90665 | 14.27355 | 100° | 58km/h | 15739m | 3.7m/s | -52.2°C | 0.7% | 112hPa | 2.6V | 18:12:15 | 01:23:45 | 00:00:00 | |
| AA1-15 | 2026-09-02 23:43:04 | 53.90673 | 14.27112 | 92° | 46km/h | 15692m | 3.8m/s | -52.1°C | 0.6% | 112.8hPa | 2.7V | 18:12:15 | 01:23:34 | 00:00:00 | |
| AA1-15 | 2026-09-02 23:42:54 | 53.90689 | 14.26900 | 105° | 47km/h | 15648m | 4m/s | -51.9°C | 0.6% | 113.7hPa | 2.6V | 18:12:15 | 01:23:24 | 00:00:00 | |
| SP3WXH-11 | 2026-09-02 23:42:51 | 53.90701 | 14.26819 | 101° | 49km/h | 15630m | 4.0m/s | -51.7°C | 1.2% | 114.0hPa | 2.6V | 00:00:00 | 00:00:00 | 00:00:00 | |
| AA1-15 | 2026-09-02 23:42:43 | 53.90721 | 14.26674 | 106° | 49km/h | 15600m | 4.5m/s | -51.5°C | 0.6% | 114.5hPa | 2.6V | 18:12:15 | 01:23:13 | 00:00:00 | |
| AA1-15 | 2026-09-02 23:42:32 | 53.90775 | 14.26462 | 108° | 47km/h | 15551m | 3.7m/s | -51.3°C | 0.5% | 115.4hPa | 2.7V | 18:12:15 | 01:23:02 | 00:00:00 | |
| AA1-15 | 2026-09-02 23:42:22 | 53.90825 | 14.26274 | 122° | 49km/h | 15510m | 5.1m/s | -51.2°C | 0.6% | 116.1hPa | 2.6V | 18:12:15 | 01:22:52 | 00:00:00 | |
| AA1-15 | 2026-09-02 23:42:12 | 53.90894 | 14.26070 | 126° | 51km/h | 15463m | 4.7m/s | -51.2°C | 0.6% | 116.9hPa | 2.6V | 18:12:15 | 01:22:41 | 00:00:00 | |
| AA1-15 | 2026-09-02 23:42:00 | 53.90980 | 14.25864 | 118° | 57km/h | 15416m | 4.6m/s | -51.1°C | 0.5% | 117.8hPa | 2.7V | 18:12:15 | 01:22:30 | 00:00:00 | |
| AA1-15 | 2026-09-02 23:41:50 | 53.91055 | 14.25669 | 124° | 57km/h | 15376m | 4.2m/s | -50.7°C | 0.5% | 118.5hPa | 2.6V | 18:12:15 | 01:22:20 | 00:00:00 | |
| SP3WXH-11 | 2026-09-02 23:41:48 | 53.91071 | 14.25627 | 123° | 62km/h | 15367m | 4.4m/s | -50.6°C | 1.2% | 118.7hPa | 2.7V | 00:00:00 | 00:00:00 | 00:00:00 | |
| AA1-15 | 2026-09-02 23:41:40 | 53.91138 | 14.25451 | 119° | 62km/h | 15333m | 4.4m/s | -50.4°C | 0.4% | 119.3hPa | 2.7V | 18:12:15 | 01:22:10 | 00:00:00 | |
| AA1-15 | 2026-09-02 23:41:29 | 53.91229 | 14.25194 | 122° | 64km/h | 15287m | 5.2m/s | -51°C | 0.5% | 120.2hPa | 2.7V | 18:12:15 | 01:21:59 | 00:00:00 | |
| AA1-15 | 2026-09-02 23:41:18 | 53.91316 | 14.24921 | 114° | 69km/h | 15241m | 4.4m/s | -51.1°C | 0.5% | 121hPa | 2.7V | 18:12:15 | 01:21:48 | 00:00:00 | |
| AA1-15 | 2026-09-02 23:41:07 | 53.91393 | 14.24622 | 113° | 68km/h | 15198m | 3.5m/s | -51°C | 0.5% | 121.8hPa | 2.6V | 18:12:15 | 01:21:37 | 00:00:00 | |
| AA1-15 | 2026-09-02 23:40:57 | 53.91449 | 14.24351 | 107° | 64km/h | 15158m | 4.7m/s | -50.8°C | 0.5% | 122.6hPa | 2.6V | 18:12:15 | 01:21:27 | 00:00:00 | |
| EDDB2-11 | 2026-09-02 23:40:57 | 53.91454 | 14.24324 | 104° | 64km/h | 15154m | 4.4m/s | -50.8°C | 1.2% | 122.7hPa | 2.7V | 00:00:00 | 00:00:00 | 00:00:00 | |
| S3001 | 2026-09-02 23:40:56 | 53.91454 | 14.24324 | 104° | 64km/h | 15154m | 4.4m/s | -50.8°C | 1.2% | 122.7hPa | 2.7V | 00:00:00 | 00:00:00 | 00:00:00 | |
| DG6HD-11 | 2026-09-02 23:40:55 | 53.91458 | 14.24297 | 105° | 64km/h | 15149m | 4.5m/s | -50.8°C | 3.6% | 122.7hPa | 2.7V | 00:00:00 | 00:00:00 | 00:00:00 | |
| DO2SHX-10 | 2026-09-02 23:40:54 | 53.91462 | 14.24270 | 106° | 69km/h | 15145m | 4.6m/s | -50.8°C | 3.6% | 122.8hPa | 2.6V | 00:00:00 | 01:21:24 | 00:00:00 | |
| MECKS9 | 2026-09-02 23:40:49 | 53.91479 | 14.24155 | 104° | 71km/h | 15129m | 3.1m/s | -51.0°C | 1.3% | 123.1hPa | 2.6V | 00:00:00 | 00:00:00 | 00:00:00 | |
| DL1XH-15 | 2026-09-02 23:40:48 | 53.91506 | 14.23959 | 101° | 64km/h | 15102m | 3.9m/s | -50.9°C | 3.6% | 123.6hPa | 2.6V | 08:30:00 | 01:21:13 | 00:00:00 | |
| AA1-15 | 2026-09-02 23:40:46 | 53.91496 | 14.24042 | 104° | 66km/h | 15114m | 3.8m/s | -50.9°C | 0.6% | 123.4hPa | 2.7V | 18:12:15 | 01:21:16 | 00:00:00 | |
| AA1-15 | 2026-09-02 23:40:35 | 53.91538 | 14.23749 | 107° | 62km/h | 15067m | 3.6m/s | -50.7°C | 0.5% | 124.3hPa | 2.7V | 18:12:15 | 01:21:05 | 00:00:00 | |
| AA1-15 | 2026-09-02 23:40:24 | 53.91584 | 14.23477 | 107° | 57km/h | 15024m | 3.3m/s | -50.6°C | 0.6% | 125.1hPa | 2.7V | 18:12:15 | 01:20:54 | 00:00:00 | |
| AA1-15 | 2026-09-02 23:40:14 | 53.91634 | 14.23224 | 112° | 64km/h | 14984m | 4.3m/s | -50.4°C | 0.5% | 125.9hPa | 2.6V | 18:12:15 | 01:20:44 | 00:00:00 | |
| AA1-15 | 2026-09-02 23:40:03 | 53.91694 | 14.22947 | 114° | 64km/h | 14939m | 4.6m/s | -50.2°C | 0.5% | 126.7hPa | 2.6V | 18:12:15 | 01:20:33 | 00:00:00 | |
| AA1-15 | 2026-09-02 23:39:52 | 53.91767 | 14.22685 | 114° | 57km/h | 14893m | 4.9m/s | -49.8°C | 0.5% | 127.6hPa | 2.7V | 18:12:15 | 01:20:22 | 00:00:00 | |
| SP3WXH-11 | 2026-09-02 23:39:44 | 53.91826 | 14.22510 | 121° | 57km/h | 14857m | 4.3m/s | -49.8°C | 1.2% | 128.3hPa | 2.7V | 00:00:00 | 00:00:00 | 00:00:00 | |
| AA1-15 | 2026-09-02 23:39:42 | 53.91840 | 14.22468 | 118° | 57km/h | 14849m | 3.6m/s | -49.8°C | 0.5% | 128.4hPa | 2.7V | 18:12:15 | 01:20:12 | 00:00:00 | |
| AA1-15 | 2026-09-02 23:39:31 | 53.91908 | 14.22243 | 121° | 49km/h | 14802m | 5m/s | -50°C | 0.5% | 129.4hPa | 2.6V | 18:12:15 | 01:20:01 | 00:00:00 | |
| AA1-15 | 2026-09-02 23:39:20 | 53.91975 | 14.22043 | 126° | 44km/h | 14757m | 3.5m/s | -50.5°C | 0.6% | 130.3hPa | 2.6V | 18:12:15 | 01:19:50 | 00:00:00 | |
| AA1-15 | 2026-09-02 23:39:09 | 53.92056 | 14.21870 | 124° | 53km/h | 14712m | 4m/s | -50.7°C | 0.7% | 131.2hPa | 2.6V | 18:12:15 | 01:19:39 | 00:00:00 | |
| DO2SHX-10 | 2026-09-02 23:39:09 | 53.92056 | 14.21869 | 125° | 55km/h | 14712m | 4.0m/s | -50.7°C | 3.7% | 131.2hPa | 2.7V | 00:00:00 | 01:19:39 | 00:00:00 | |
| DM0DOS-11 | 2026-09-02 23:39:08 | 53.92086 | 14.21789 | 121° | 58km/h | 14694m | 4.5m/s | 0°C | 0% | 0hPa | 2.7V | 08:30:00 | 01:19:35 | 00:00:00 | |
| DO2SHX-10 | 2026-09-02 23:39:06 | 53.92078 | 14.21810 | 122° | 57km/h | 14699m | 3.9m/s | -50.8°C | 3.7% | 131.5hPa | 2.7V | 00:00:00 | 01:19:36 | 00:00:00 | |
| DO2SHX-10 | 2026-09-02 23:39:03 | 53.92101 | 14.21747 | 122° | 55km/h | 14686m | 3.5m/s | -50.8°C | 3.7% | 131.7hPa | 2.6V | 00:00:00 | 01:19:33 | 00:00:00 | |
| DL1XH-15 | 2026-09-02 23:39:01 | 53.92136 | 14.21647 | 120° | 53km/h | 14665m | 3.4m/s | -50.8°C | 3.7% | 132.2hPa | 2.6V | 08:30:00 | 01:19:28 | 00:00:00 | |
| AA1-15 | 2026-09-02 23:38:59 | 53.92129 | 14.21667 | 121° | 53km/h | 14669m | 4.2m/s | -50.9°C | 0.7% | 132.1hPa | 2.6V | 18:12:15 | 01:19:29 | 00:00:00 | |
| DJ2DS-15 | 2026-09-02 23:38:59 | 53.92129 | 14.21667 | 120° | 53km/h | 14669m | 4.2m/s | -50.9°C | 1.4% | 132.1hPa | 2.6V | 00:00:00 | 00:00:00 | 00:00:00 | |
| DO2SHX-10 | 2026-09-02 23:38:57 | 53.92143 | 14.21627 | 120° | 58km/h | 14661m | 4.8m/s | -50.8°C | 3.7% | 132.2hPa | 2.6V | 00:00:00 | 01:19:27 | 00:00:00 | |
| DM0DOS-11 | 2026-09-02 23:38:53 | 53.92173 | 14.21539 | 121° | 58km/h | 14644m | 4.1m/s | 0°C | 0% | 0hPa | 2.6V | 08:30:00 | 01:19:23 | 00:00:00 | |
| AA1-15 | 2026-09-02 23:38:48 | 53.92210 | 14.21428 | 118° | 57km/h | 14624m | 5m/s | -50.9°C | 0.7% | 133hPa | 2.6V | 18:12:15 | 01:19:18 | 00:00:00 | |
| AA1-15 | 2026-09-02 23:38:38 | 53.92275 | 14.21208 | 114° | 62km/h | 14581m | 3.5m/s | -51.2°C | 0.9% | 133.9hPa | 2.7V | 18:12:15 | 01:19:08 | 00:00:00 | |
| DO2SHX-10 | 2026-09-02 23:38:36 | 53.92286 | 14.21160 | 112° | 58km/h | 14573m | 4.9m/s | -51.1°C | 3.9% | 134.0hPa | 2.7V | 00:00:00 | 01:19:06 | 00:00:00 | |
| DM0DOS-11 | 2026-09-02 23:38:33 | 53.92305 | 14.21066 | 106° | 60km/h | 14555m | 4m/s | 0°C | 0% | 0hPa | 2.7V | 00:00:00 | 01:19:02 | 00:00:00 | |
| AA1-15 | 2026-09-02 23:38:28 | 53.92322 | 14.20970 | 107° | 60km/h | 14538m | 4.3m/s | -51°C | 0.8% | 134.7hPa | 2.6V | 18:12:15 | 01:18:58 | 00:00:00 | |
| DO2SHX-10 | 2026-09-02 23:38:27 | 53.92327 | 14.20945 | 109° | 62km/h | 14534m | 4.6m/s | -50.9°C | 3.8% | 134.8hPa | 2.7V | 00:00:00 | 01:18:57 | 00:00:00 | |
| DO2SHX-10 | 2026-09-02 23:38:24 | 53.92342 | 14.20872 | 111° | 58km/h | 14522m | 4.4m/s | -50.8°C | 3.8% | 135.1hPa | 2.7V | 00:00:00 | 01:18:54 | 00:00:00 | |
| DM0DOS-11 | 2026-09-02 23:38:23 | 53.92357 | 14.20803 | 112° | 57km/h | 14508m | 4.2m/s | 0°C | 0% | 0hPa | 2.7V | 00:00:00 | 01:18:51 | 00:00:00 | |
| AA1-15 | 2026-09-02 23:38:17 | 53.92382 | 14.20716 | 116° | 57km/h | 14489m | 4.5m/s | -50.8°C | 0.8% | 135.8hPa | 2.6V | 18:12:15 | 01:18:47 | 00:00:00 | |
| DM0DOS-11 | 2026-09-02 23:38:13 | 53.92434 | 14.20532 | 116° | 58km/h | 14455m | 3.5m/s | 0°C | 0% | 0hPa | 2.7V | 00:00:00 | 01:18:39 | 00:00:00 | |
| DO2SHX-10 | 2026-09-02 23:38:12 | 53.92414 | 14.20602 | 115° | 60km/h | 14468m | 4.3m/s | -50.9°C | 3.7% | 136.2hPa | 2.6V | 00:00:00 | 01:18:42 | 00:00:00 | |
| AA1-15 | 2026-09-02 23:38:07 | 53.92446 | 14.20489 | 117° | 57km/h | 14446m | 4.5m/s | -50.9°C | 0.8% | 136.7hPa | 2.6V | 18:12:15 | 01:18:37 | 00:00:00 | |
| DO2SHX-10 | 2026-09-02 23:38:00 | 53.92495 | 14.20351 | 121° | 55km/h | 14418m | 3.6m/s | -50.8°C | 3.8% | 137.2hPa | 2.7V | 00:00:00 | 01:18:30 | 00:00:00 | |
| MECKS9 | 2026-09-02 23:37:59 | 53.92495 | 14.20351 | 122° | 57km/h | 14418m | 3.6m/s | -50.9°C | 1.5% | 137.3hPa | 2.7V | 00:00:00 | 00:00:00 | 00:00:00 | |
| DM0DOS-11 | 2026-09-02 23:37:58 | 53.92536 | 14.20228 | 117° | 53km/h | 14391m | 5.4m/s | 0°C | 0% | 0hPa | 2.7V | 00:00:00 | 01:18:24 | 00:00:00 | |
| AA1-15 | 2026-09-02 23:37:56 | 53.92524 | 14.20269 | 117° | 55km/h | 14399m | 4.5m/s | -51°C | 0.9% | 137.6hPa | 2.6V | 18:12:15 | 01:18:26 | 00:00:00 | |
| AA1-15 | 2026-09-02 23:37:46 | 53.92596 | 14.20072 | 127° | 60km/h | 14356m | 4.7m/s | -51.1°C | 0.9% | 138.6hPa | 2.6V | 18:12:15 | 01:18:16 | 00:00:00 | |
| AA1-15 | 2026-09-02 23:37:35 | 53.92680 | 14.19812 | 115° | 64km/h | 14305m | 4.5m/s | -51.2°C | 0.9% | 139.7hPa | 2.6V | 18:12:15 | 01:18:05 | 00:00:00 | |
| AA1-15 | 2026-09-02 23:37:24 | 53.92753 | 14.19522 | 117° | 64km/h | 14257m | 3.7m/s | -51°C | 0.8% | 140.7hPa | 2.6V | 18:12:15 | 01:17:54 | 00:00:00 | |
| DM0DOS-11 | 2026-09-02 23:37:23 | 53.92779 | 14.19423 | 113° | 64km/h | 14240m | 4.9m/s | 0°C | 0% | 0hPa | 2.7V | 00:00:00 | 01:17:50 | 00:00:00 | |
| AA1-15 | 2026-09-02 23:37:13 | 53.92824 | 14.19241 | 116° | 66km/h | 14210m | 4.2m/s | -50.8°C | 0.8% | 141.7hPa | 2.6V | 18:12:15 | 01:17:43 | 00:00:00 | |
| DO2SHX-10 | 2026-09-02 23:37:12 | 53.92831 | 14.19216 | 116° | 69km/h | 14205m | 5.0m/s | -50.7°C | 3.8% | 141.7hPa | 2.7V | 00:00:00 | 01:17:42 | 00:00:00 | |
| DL1XH-15 | 2026-09-02 23:37:11 | 53.92862 | 14.19111 | 117° | 69km/h | 14188m | 4.2m/s | -50.6°C | 3.8% | 142.2hPa | 2.7V | 08:30:00 | 01:17:38 | 00:00:00 | |
| MECKS9 | 2026-09-02 23:37:08 | 53.92853 | 14.19137 | 118° | 69km/h | 14193m | 5.1m/s | -50.6°C | 1.5% | 142.1hPa | 2.7V | 00:00:00 | 00:00:00 | 00:00:00 | |
| AA1-15 | 2026-09-02 23:37:03 | 53.92899 | 14.18976 | 115° | 68km/h | 14167m | 4.5m/s | -50.4°C | 0.7% | 142.7hPa | 2.7V | 18:12:15 | 01:17:33 | 00:00:00 | |
| AA1-15 | 2026-09-02 23:36:53 | 53.92970 | 14.18709 | 116° | 69km/h | 14122m | 4m/s | -50.2°C | 0.7% | 143.6hPa | 2.7V | 18:12:15 | 01:17:23 | 00:00:00 | |
| S3001 | 2026-09-02 23:36:48 | 53.93009 | 14.18571 | 115° | 69km/h | 14100m | 3.8m/s | -50.2°C | 1.5% | 144.1hPa | 2.7V | 00:00:00 | 00:00:00 | 00:00:00 | |
| AA1-15 | 2026-09-02 23:36:42 | 53.93051 | 14.18406 | 112° | 68km/h | 14075m | 4.2m/s | -50.1°C | 0.8% | 144.7hPa | 2.7V | 18:12:15 | 01:17:12 | 00:00:00 | |
| AA1-15 | 2026-09-02 23:36:32 | 53.93125 | 14.18130 | 115° | 73km/h | 14033m | 3.5m/s | -49.9°C | 0.7% | 145.6hPa | 2.6V | 18:12:15 | 01:17:02 | 00:00:00 | |
| DL1XH-west | 2026-09-02 23:36:22 | 53.93187 | 14.17836 | 113° | 71km/h | 13992m | 4.3m/s | 0°C | 0% | 0hPa | 2.7V | 18:12:15 | 01:16:52 | 00:00:00 | |
| AA1-15 | 2026-09-02 23:36:21 | 53.93194 | 14.17808 | 113° | 71km/h | 13988m | 4.3m/s | -49.6°C | 0.7% | 146.6hPa | 2.7V | 18:12:15 | 01:16:51 | 00:00:00 | |
| DL1XH-west | 2026-09-02 23:36:11 | 53.93262 | 14.17512 | 111° | 73km/h | 13946m | 4.5m/s | 0°C | 0% | 0hPa | 2.7V | 18:12:15 | 01:16:41 | 00:00:00 | |
| AA1-15 | 2026-09-02 23:36:10 | 53.93269 | 14.17483 | 110° | 71km/h | 13942m | 4.2m/s | -49.7°C | 0.7% | 147.7hPa | 2.7V | 18:12:15 | 01:16:40 | 00:00:00 | |
| AA1-15 | 2026-09-02 23:35:59 | 53.93342 | 14.17162 | 111° | 77km/h | 13895m | 3.1m/s | -49.6°C | 0.7% | 148.7hPa | 2.7V | 18:12:15 | 01:16:29 | 00:00:00 | |
| AA1-15 | 2026-09-02 23:35:49 | 53.93425 | 14.16858 | 116° | 77km/h | 13853m | 5m/s | -49.6°C | 0.7% | 149.7hPa | 2.7V | 18:12:15 | 01:16:19 | 00:00:00 | |
| S3001 | 2026-09-02 23:35:46 | 53.93451 | 14.16768 | 116° | 78km/h | 13839m | 5.3m/s | -49.5°C | 1.4% | 150.0hPa | 2.7V | 00:00:00 | 00:00:00 | 00:00:00 | |
| AA1-15 | 2026-09-02 23:35:38 | 53.93528 | 14.16527 | 117° | 77km/h | 13805m | 3.7m/s | -49.6°C | 0.7% | 150.8hPa | 2.7V | 18:12:15 | 01:16:08 | 00:00:00 | |
| AA1-15 | 2026-09-02 23:35:28 | 53.93610 | 14.16230 | 116° | 77km/h | 13761m | 4.1m/s | -49.6°C | 0.8% | 151.8hPa | 2.7V | 18:12:15 | 01:15:58 | 00:00:00 | |
| AA1-15 | 2026-09-02 23:35:17 | 53.93692 | 14.15915 | 110° | 73km/h | 13713m | 4.4m/s | -49.7°C | 0.7% | 152.9hPa | 2.7V | 18:12:15 | 01:15:47 | 00:00:00 | |
| AA1-15 | 2026-09-02 23:35:06 | 53.93773 | 14.15586 | 112° | 80km/h | 13667m | 5.1m/s | -49.9°C | 0.9% | 153.9hPa | 2.7V | 18:12:15 | 01:15:36 | 00:00:00 | |
| AA1-15 | 2026-09-02 23:34:56 | 53.93844 | 14.15247 | 113° | 80km/h | 13618m | 4.2m/s | -49.6°C | 0.8% | 155.1hPa | 2.6V | 18:12:15 | 01:15:25 | 00:00:00 | |
| SONDE2-11 | 2026-09-02 23:34:56 | 53.93860 | 14.15182 | 113° | 82km/h | 13610m | 4.4m/s | -49.7°C | 1.5% | 155.3hPa | 2.6V | 00:00:00 | 00:00:00 | 00:00:00 | |
| DO2SHX-10 | 2026-09-02 23:34:54 | 53.93852 | 14.15215 | 114° | 82km/h | 13614m | 3.2m/s | -49.6°C | 3.7% | 155.2hPa | 2.6V | 00:00:00 | 01:15:24 | 00:00:00 | |
| DO2SHX-10 | 2026-09-02 23:34:51 | 53.93877 | 14.15119 | 114° | 78km/h | 13602m | 3.7m/s | -49.6°C | 3.8% | 155.4hPa | 2.6V | 00:00:00 | 01:15:21 | 00:00:00 | |
| DL1XH-15 | 2026-09-02 23:34:50 | 53.93918 | 14.14937 | 111° | 73km/h | 13577m | 4m/s | -49.5°C | 3.7% | 156.1hPa | 2.6V | 08:30:00 | 01:15:15 | 00:00:00 | |
| AA1-15 | 2026-09-02 23:34:44 | 53.93925 | 14.14907 | 112° | 75km/h | 13573m | 4.6m/s | -49.5°C | 0.9% | 156.2hPa | 2.6V | 18:12:15 | 01:15:14 | 00:00:00 | |
| AA1-15 | 2026-09-02 23:34:33 | 53.94012 | 14.14565 | 113° | 69km/h | 13528m | 5m/s | -49.1°C | 0.7% | 157.3hPa | 2.6V | 18:12:15 | 01:15:03 | 00:00:00 | |
| AA1-15 | 2026-09-02 23:34:23 | 53.94080 | 14.14287 | 111° | 73km/h | 13484m | 4.2m/s | -49.1°C | 0.9% | 158.3hPa | 2.6V | 18:12:15 | 01:14:53 | 00:00:00 | |
| AA1-15 | 2026-09-02 23:34:13 | 53.94141 | 14.14013 | 114° | 68km/h | 13442m | 3.6m/s | -49.1°C | 0.8% | 159.3hPa | 2.6V | 18:12:15 | 01:14:43 | 00:00:00 | |
| AA1-15 | 2026-09-02 23:34:02 | 53.94204 | 14.13726 | 108° | 68km/h | 13395m | 4.9m/s | -48.9°C | 0.8% | 160.5hPa | 2.6V | 18:12:15 | 01:14:32 | 00:00:00 | |
| AA1-15 | 2026-09-02 23:33:52 | 53.94249 | 14.13474 | 110° | 60km/h | 13353m | 4.5m/s | -48.9°C | 0.8% | 161.5hPa | 2.6V | 18:12:15 | 01:14:22 | 00:00:00 | |
| DO2SHX-10 | 2026-09-02 23:33:51 | 53.94254 | 14.13450 | 110° | 62km/h | 13349m | 4.2m/s | -48.8°C | 3.6% | 161.6hPa | 2.7V | 00:00:00 | 01:14:21 | 08:30:00 | |
| DL1XH-15 | 2026-09-02 23:33:50 | 53.94286 | 14.13294 | 108° | 64km/h | 13323m | 3.8m/s | -48.6°C | 3.5% | 162.3hPa | 2.7V | 08:30:00 | 01:14:15 | 00:00:00 | |
| AA1-15 | 2026-09-02 23:33:41 | 53.94308 | 14.13196 | 115° | 62km/h | 13303m | 5.4m/s | -48.5°C | 0.8% | 162.8hPa | 2.6V | 18:12:15 | 01:14:11 | 00:00:00 | |
| DO2SHX-10 | 2026-09-02 23:33:39 | 53.94323 | 14.13148 | 119° | 64km/h | 13295m | 3.9m/s | -48.7°C | 3.6% | 162.9hPa | 2.7V | 00:00:00 | 01:14:09 | 00:00:00 | |
| DO2SHX-10 | 2026-09-02 23:33:36 | 53.94349 | 14.13078 | 123° | 66km/h | 13280m | 4.8m/s | -48.8°C | 3.6% | 163.3hPa | 2.7V | 00:00:00 | 01:14:06 | 00:00:00 | |
| DL1XH-15 | 2026-09-02 23:33:34 | 53.94402 | 14.12907 | 120° | 64km/h | 13248m | 6.8m/s | -48.8°C | 3.5% | 164.1hPa | 2.7V | 08:30:00 | 01:13:59 | 00:00:00 | |
| AA1-15 | 2026-09-02 23:33:31 | 53.94387 | 14.12955 | 116° | 64km/h | 13257m | 3.5m/s | -48.8°C | 0.7% | 163.9hPa | 2.7V | 18:12:15 | 01:14:01 | 00:00:00 | |
| AA1-15 | 2026-09-02 23:33:20 | 53.94476 | 14.12694 | 121° | 58km/h | 13209m | 3.5m/s | -48.7°C | 0.7% | 165.1hPa | 2.7V | 18:12:15 | 01:13:50 | 00:00:00 | |
| AA1-15 | 2026-09-02 23:33:10 | 53.94556 | 14.12479 | 125° | 62km/h | 13169m | 4.6m/s | -49°C | 0.7% | 166.1hPa | 2.7V | 18:12:15 | 01:13:40 | 00:00:00 | |
| AM1SDL-15 | 2026-09-02 23:33:10 | 53.94556 | 14.12479 | 126° | 64km/h | 13169m | 4.6m/s | -48.9°C | 3.6% | 166.1hPa | 2.7V | 00:00:00 | 01:13:40 | 00:00:00 | |
| DO2SHX-10 | 2026-09-02 23:33:08 | 53.94575 | 14.12434 | 127° | 62km/h | 13160m | 4.4m/s | -48.9°C | 3.5% | 166.3hPa | 2.7V | 00:00:00 | 01:13:38 | 00:00:00 | |
| DO2SHX-10 | 2026-09-02 23:33:05 | 53.94602 | 14.12370 | 123° | 66km/h | 13148m | 4.8m/s | -48.9°C | 3.5% | 166.6hPa | 2.7V | 00:00:00 | 01:13:35 | 00:00:00 | |
| DJ2DS-15 | 2026-09-02 23:33:04 | 53.94610 | 14.12346 | 121° | 69km/h | 13143m | 4.1m/s | -48.8°C | 3.5% | 166.7hPa | 2.6V | 00:00:00 | 01:13:34 | 00:00:00 | |
| DL1XH-15 | 2026-09-02 23:33:02 | 53.94665 | 14.12168 | 119° | 66km/h | 13113m | 4.8m/s | -48.9°C | 3.5% | 167.5hPa | 2.6V | 08:30:00 | 01:13:27 | 00:00:00 | |
| AA1-15 | 2026-09-02 23:32:59 | 53.94648 | 14.12219 | 117° | 68km/h | 13122m | 3.9m/s | -48.9°C | 0.8% | 167.3hPa | 2.7V | 18:12:15 | 01:13:29 | 00:00:00 | |
| AA1-15 | 2026-09-02 23:32:49 | 53.94737 | 14.11966 | 117° | 75km/h | 13080m | 4.7m/s | -48.8°C | 0.8% | 168.4hPa | 2.6V | 18:12:15 | 01:13:19 | 00:00:00 | |
| AA1-15 | 2026-09-02 23:32:39 | 53.94816 | 14.11690 | 117° | 68km/h | 13042m | 3.3m/s | -48.8°C | 0.7% | 169.3hPa | 2.7V | 18:12:15 | 01:13:09 | 00:00:00 | |
| AA1-15 | 2026-09-02 23:32:29 | 53.94905 | 14.11406 | 122° | 77km/h | 13003m | 4.5m/s | -49.2°C | 0.9% | 170.4hPa | 2.7V | 18:12:15 | 01:12:59 | 00:00:00 | |
| AA1-15 | 2026-09-02 23:32:19 | 53.95011 | 14.11090 | 121° | 78km/h | 12960m | 4.1m/s | -49.4°C | 0.9% | 171.5hPa | 2.7V | 18:12:15 | 01:12:48 | 00:00:00 | |
| AA1-15 | 2026-09-02 23:32:08 | 53.95116 | 14.10788 | 120° | 80km/h | 12920m | 3.4m/s | -49.6°C | 1% | 172.6hPa | 2.6V | 18:12:15 | 01:12:38 | 00:00:00 | |
| AA1-15 | 2026-09-02 23:31:58 | 53.95207 | 14.10469 | 115° | 80km/h | 12878m | 4.6m/s | -49.4°C | 1% | 173.6hPa | 2.6V | 18:12:15 | 01:12:28 | 00:00:00 | |
| AA1-15 | 2026-09-02 23:31:47 | 53.95301 | 14.10121 | 113° | 80km/h | 12832m | 4.1m/s | -49.1°C | 1% | 174.8hPa | 2.6V | 18:12:15 | 01:12:17 | 00:00:00 | |
| DJ2DS-15 | 2026-09-02 23:31:46 | 53.95309 | 14.10089 | 113° | 80km/h | 12829m | 2.9m/s | -49.1°C | 1.7% | 174.9hPa | 2.7V | 00:00:00 | 00:00:00 | 00:00:00 | |
| AA1-15 | 2026-09-02 23:31:36 | 53.95395 | 14.09757 | 114° | 84km/h | 12790m | 3.9m/s | -49.4°C | 1% | 176hPa | 2.7V | 18:12:15 | 01:12:06 | 00:00:00 | |
| AA1-15 | 2026-09-02 23:31:25 | 53.95480 | 14.09389 | 111° | 80km/h | 12745m | 4.2m/s | -49.4°C | 1.1% | 177.1hPa | 2.7V | 18:12:15 | 01:11:55 | 00:00:00 | |
| DO2SHX-10 | 2026-09-02 23:31:23 | 53.95494 | 14.09326 | 112° | 78km/h | 12737m | 4.2m/s | -49.3°C | 4.0% | 177.3hPa | 2.6V | 00:00:00 | 01:11:53 | 00:00:00 | |
| DL1XH-15 | 2026-09-02 23:31:21 | 53.95542 | 14.09111 | 111° | 77km/h | 12709m | 3.6m/s | -49.1°C | 3.9% | 178.1hPa | 2.6V | 08:30:00 | 01:11:46 | 00:00:00 | |
| AA1-15 | 2026-09-02 23:31:14 | 53.95556 | 14.09048 | 110° | 80km/h | 12700m | 3.5m/s | -49.1°C | 1.2% | 178.3hPa | 2.7V | 18:12:15 | 01:11:44 | 00:00:00 | |
| DO2SHX-10 | 2026-09-02 23:31:14 | 53.95556 | 14.09048 | 111° | 80km/h | 12700m | 3.5m/s | -49.0°C | 3.9% | 178.3hPa | 2.6V | 00:00:00 | 01:11:44 | 00:00:00 | |
| DO2SHX-10 | 2026-09-02 23:31:11 | 53.95579 | 14.08951 | 114° | 80km/h | 12689m | 3.7m/s | -48.9°C | 3.8% | 178.6hPa | 2.6V | 00:00:00 | 01:11:41 | 00:00:00 | |
| DJ2DS-15 | 2026-09-02 23:31:10 | 53.95587 | 14.08919 | 113° | 78km/h | 12685m | 4.4m/s | -49.0°C | 1.7% | 178.8hPa | 2.6V | 00:00:00 | 00:00:00 | 00:00:00 | |
| DO2SHX-10 | 2026-09-02 23:31:08 | 53.95603 | 14.08857 | 115° | 77km/h | 12677m | 4.5m/s | -48.8°C | 3.7% | 179.0hPa | 2.6V | 00:00:00 | 01:11:38 | 08:30:00 | |
| DL1XH-15 | 2026-09-02 23:31:07 | 53.95618 | 14.08796 | 113° | 77km/h | 12668m | 4.4m/s | -48.8°C | 3.7% | 179.2hPa | 2.8V | 08:30:00 | 01:11:36 | 00:00:00 | |
| AA1-15 | 2026-09-02 23:31:04 | 53.95633 | 14.08736 | 112° | 77km/h | 12660m | 3.3m/s | -48.8°C | 1% | 179.4hPa | 2.7V | 18:12:15 | 01:11:34 | 00:00:00 | |
| DJ2DS-15 | 2026-09-02 23:31:03 | 53.95640 | 14.08706 | 113° | 78km/h | 12657m | 4.8m/s | 0°C | 0% | 0hPa | 2.6V | 00:00:00 | 01:11:33 | 00:00:00 | |
| DO2SHX-10 | 2026-09-02 23:31:02 | 53.95648 | 14.08675 | 114° | 78km/h | 12652m | 3.8m/s | -48.6°C | 3.8% | 179.6hPa | 2.6V | 00:00:00 | 01:11:32 | 00:00:00 | |
| DL1XH-15 | 2026-09-02 23:31:01 | 53.95697 | 14.08491 | 117° | 77km/h | 12628m | 3.6m/s | -48.5°C | 3.7% | 180.3hPa | 2.6V | 08:30:00 | 01:11:26 | 00:00:00 | |
| AA1-15 | 2026-09-02 23:30:54 | 53.95714 | 14.08433 | 116° | 75km/h | 12619m | 3.3m/s | -48.6°C | 1.1% | 180.6hPa | 2.7V | 18:12:15 | 01:11:24 | 00:00:00 | |
| DO2SHX-10 | 2026-09-02 23:30:53 | 53.95723 | 14.08404 | 117° | 77km/h | 12615m | 3.8m/s | -48.6°C | 3.7% | 180.6hPa | 2.7V | 00:00:00 | 01:11:23 | 00:00:00 | |
| AM1SDL-15 | 2026-09-02 23:30:52 | 53.95732 | 14.08375 | 117° | 82km/h | 12611m | 4.0m/s | -48.6°C | 3.7% | 180.7hPa | 2.7V | 00:00:00 | 01:11:22 | 00:00:00 | |
| DO2SHX-10 | 2026-09-02 23:30:50 | 53.95749 | 14.08315 | 115° | 80km/h | 12604m | 4.5m/s | -48.9°C | 3.8% | 181.0hPa | 2.7V | 00:00:00 | 01:11:20 | 00:00:00 | |
| DL1XH-15 | 2026-09-02 23:30:47 | 53.95784 | 14.08186 | 116° | 84km/h | 12588m | 3.6m/s | -49.1°C | 3.9% | 181.4hPa | 2.6V | 08:30:00 | 01:11:16 | 00:00:00 | |
| SONDE2-11 | 2026-09-02 23:30:47 | 53.95793 | 14.08154 | 116° | 82km/h | 12584m | 4.2m/s | -49.1°C | 1.8% | 181.5hPa | 2.8V | 00:00:00 | 00:00:00 | 00:00:00 | |
| AA1-15 | 2026-09-02 23:30:43 | 53.95812 | 14.08090 | 116° | 82km/h | 12576m | 3m/s | -49.1°C | 1.1% | 181.8hPa | 2.8V | 18:12:15 | 01:11:13 | 00:00:00 | |
| DJ2DS-15 | 2026-09-02 23:30:43 | 53.95812 | 14.08090 | 116° | 82km/h | 12577m | 3.0m/s | 0°C | 0% | 0hPa | 2.6V | 00:00:00 | 01:11:13 | 00:00:00 | |
| DL1XH-15 | 2026-09-02 23:30:41 | 53.95893 | 14.07840 | 120° | 82km/h | 12545m | 4.9m/s | -48.9°C | 3.9% | 182.6hPa | 2.6V | 08:30:00 | 01:11:05 | 00:00:00 | |
| AA1-15 | 2026-09-02 23:30:32 | 53.95925 | 14.07746 | 118° | 84km/h | 12533m | 4.1m/s | -48.8°C | 1.2% | 183hPa | 2.7V | 18:12:15 | 01:11:02 | 00:00:00 | |
| DO2SHX-10 | 2026-09-02 23:30:32 | 53.95925 | 14.07746 | 118° | 84km/h | 12533m | 4.1m/s | -48.8°C | 3.9% | 182.9hPa | 2.7V | 00:00:00 | 01:11:02 | 00:00:00 | |
| DL1XH-15 | 2026-09-02 23:30:30 | 53.95993 | 14.07528 | 118° | 80km/h | 12504m | 5m/s | -48.6°C | 3.7% | 183.8hPa | 2.6V | 08:30:00 | 01:10:55 | 00:00:00 | |
| AA1-15 | 2026-09-02 23:30:21 | 53.96030 | 14.07407 | 115° | 78km/h | 12487m | 4.1m/s | -48.5°C | 1.1% | 184.3hPa | 2.8V | 18:12:15 | 01:10:51 | 00:00:00 | |
| DO2SHX-10 | 2026-09-02 23:30:20 | 53.96038 | 14.07377 | 115° | 77km/h | 12483m | 4.2m/s | -48.4°C | 3.7% | 184.4hPa | 2.7V | 00:00:00 | 01:10:50 | 00:00:00 | |
| DL1XH-15 | 2026-09-02 23:30:17 | 53.96082 | 14.07226 | 117° | 82km/h | 12463m | 3.6m/s | -48.3°C | 3.6% | 184.9hPa | 2.7V | 08:30:00 | 01:10:45 | 00:00:00 | |
| AA1-15 | 2026-09-02 23:30:11 | 53.96121 | 14.07103 | 117° | 82km/h | 12448m | 4.2m/s | -48.3°C | 1% | 185.4hPa | 2.7V | 18:12:15 | 01:10:41 | 00:00:00 | |
| AA1-15 | 2026-09-02 23:30:00 | 53.96211 | 14.06760 | 112° | 78km/h | 12404m | 4.1m/s | -49.2°C | 1.1% | 186.6hPa | 2.8V | 18:12:15 | 01:10:30 | 00:00:00 | |
| AA1-15 | 2026-09-02 23:29:49 | 53.96291 | 14.06403 | 112° | 80km/h | 12358m | 3.7m/s | -49°C | 0.9% | 187.8hPa | 2.7V | 18:12:15 | 01:10:19 | 00:00:00 | |
| DO2SHX-10 | 2026-09-02 23:29:47 | 53.96306 | 14.06340 | 112° | 80km/h | 12350m | 3.3m/s | -48.9°C | 3.7% | 188.1hPa | 2.7V | 00:00:00 | 01:10:17 | 08:30:00 | |
| DO2SHX-10 | 2026-09-02 23:29:44 | 53.96329 | 14.06244 | 114° | 80km/h | 12338m | 3.4m/s | -48.8°C | 3.6% | 188.5hPa | 2.7V | 00:00:00 | 01:10:14 | 00:00:00 | |
| DO2SHX-10 | 2026-09-02 23:29:41 | 53.96355 | 14.06150 | 117° | 82km/h | 12327m | 3.1m/s | -48.9°C | 3.6% | 188.7hPa | 2.7V | 00:00:00 | 01:10:11 | 00:00:00 | |
| DL1XH-15 | 2026-09-02 23:29:40 | 53.96410 | 14.05956 | 115° | 82km/h | 12301m | 4.4m/s | -49.1°C | 3.7% | 189.5hPa | 2.7V | 08:30:00 | 01:10:05 | 00:00:00 | |
| AA1-15 | 2026-09-02 23:29:39 | 53.96374 | 14.06086 | 116° | 86km/h | 12318m | 3.9m/s | -49°C | 0.9% | 189hPa | 2.8V | 18:12:15 | 01:10:09 | 00:00:00 | |
| AA1-15 | 2026-09-02 23:29:29 | 53.96464 | 14.05752 | 115° | 91km/h | 12275m | 4.8m/s | -49.3°C | 1% | 190.3hPa | 2.8V | 18:12:15 | 01:09:59 | 00:00:00 | |
| DL1XH-15 | 2026-09-02 23:29:25 | 53.96504 | 14.05611 | 115° | 91km/h | 12259m | 3.7m/s | -49.3°C | 3.8% | 190.7hPa | 2.8V | 08:30:00 | 01:09:55 | 00:00:00 | |
| AA1-15 | 2026-09-02 23:29:18 | 53.96570 | 14.05367 | 116° | 86km/h | 12230m | 3.8m/s | -49.2°C | 1.2% | 191.6hPa | 2.8V | 18:12:15 | 01:09:48 | 00:00:00 | |
| DO2SHX-10 | 2026-09-02 23:29:17 | 53.96580 | 14.05334 | 117° | 82km/h | 12226m | 4.8m/s | -49.1°C | 3.9% | 191.6hPa | 2.7V | 00:00:00 | 01:09:47 | 00:00:00 | |
| DL1XH-15 | 2026-09-02 23:29:15 | 53.96600 | 14.05271 | 119° | 82km/h | 12218m | 4.5m/s | -49.2°C | 3.9% | 191.9hPa | 2.7V | 08:30:00 | 01:09:45 | 00:00:00 | |
| DK1YY | 2026-09-02 23:29:15 | 53.96610 | 14.05240 | 120° | 82km/h | 12214m | 4.1m/s | -49.2°C | 1.8% | 192.1hPa | 2.7V | 00:00:00 | 00:00:00 | 00:00:00 | |
| DO2SHX-10 | 2026-09-02 23:29:14 | 53.96610 | 14.05240 | 121° | 84km/h | 12214m | 4.0m/s | -49.2°C | 3.9% | 192.1hPa | 2.7V | 00:00:00 | 01:09:44 | 00:00:00 | |
| AM1SDL-15 | 2026-09-02 23:29:12 | 53.96631 | 14.05178 | 119° | 86km/h | 12206m | 4.7m/s | -49.1°C | 3.9% | 192.2hPa | 2.7V | 00:00:00 | 01:09:42 | 08:30:00 | |
| DO2SHX-10 | 2026-09-02 23:29:11 | 53.96641 | 14.05146 | 117° | 86km/h | 12202m | 3.9m/s | -49.1°C | 3.9% | 192.4hPa | 2.7V | 00:00:00 | 01:09:41 | 00:00:00 | |
| DL1XH-15 | 2026-09-02 23:29:10 | 53.96696 | 14.04943 | 115° | 82km/h | 12177m | 3.9m/s | -49.2°C | 3.9% | 193.1hPa | 2.8V | 08:30:00 | 01:09:35 | 00:00:00 | |
| AA1-15 | 2026-09-02 23:29:07 | 53.96678 | 14.05010 | 114° | 89km/h | 12185m | 3.2m/s | -49.2°C | 1.2% | 192.9hPa | 2.7V | 18:12:15 | 01:09:37 | 00:00:00 | |
| AA1-15 | 2026-09-02 23:28:57 | 53.96772 | 14.04706 | 118° | 84km/h | 12144m | 3.7m/s | -49.3°C | 1.3% | 194.2hPa | 2.7V | 18:12:15 | 01:09:27 | 00:00:00 | |
| DL1XH-15 | 2026-09-02 23:28:55 | 53.96791 | 14.04641 | 114° | 84km/h | 12135m | 4.5m/s | -49.2°C | 3.9% | 194.4hPa | 2.7V | 08:30:00 | 01:09:25 | 00:00:00 | |
| DO2SHX-10 | 2026-09-02 23:28:53 | 53.96809 | 14.04575 | 116° | 84km/h | 12128m | 4.5m/s | -49.1°C | 3.9% | 194.6hPa | 2.7V | 00:00:00 | 01:09:23 | 08:30:00 | |
| DO2SHX-10 | 2026-09-02 23:28:50 | 53.96836 | 14.04480 | 118° | 77km/h | 12115m | 4.7m/s | -49.1°C | 4.0% | 195.0hPa | 2.7V | 00:00:00 | 01:09:20 | 00:00:00 | |
| AM1SDL-15 | 2026-09-02 23:28:48 | 53.96855 | 14.04423 | 120° | 80km/h | 12108m | 3.8m/s | -49.2°C | 4.0% | 195.2hPa | 2.7V | 00:00:00 | 01:09:18 | 00:00:00 | |
| DL1XH-15 | 2026-09-02 23:28:47 | 53.96883 | 14.04336 | 117° | 78km/h | 12096m | 4.4m/s | -49.3°C | 4% | 195.6hPa | 2.7V | 08:30:00 | 01:09:15 | 00:00:00 | |
| AA1-15 | 2026-09-02 23:28:47 | 53.96864 | 14.04395 | 120° | 77km/h | 12104m | 3.7m/s | -49.3°C | 1.5% | 195.4hPa | 2.8V | 18:12:15 | 01:09:17 | 00:00:00 | |
| DJ2DS-15 | 2026-09-02 23:28:46 | 53.96883 | 14.04336 | 117° | 78km/h | 12096m | 4.4m/s | 0°C | -1.0% | 195.6hPa | 2.7V | 00:00:00 | 00:00:00 | 00:00:00 | |
| AA1-15 | 2026-09-02 23:28:36 | 53.96964 | 14.04052 | 116° | 84km/h | 12058m | 4.9m/s | -49.5°C | 1.7% | 196.7hPa | 2.7V | 18:12:15 | 01:09:06 | 00:00:00 | |
| DL1XH-15 | 2026-09-02 23:28:35 | 53.96973 | 14.04019 | 117° | 84km/h | 12054m | 3.3m/s | -49.6°C | 4.2% | 196.8hPa | 2.7V | 08:30:00 | 01:09:05 | 00:00:00 | |
| DO2SHX-10 | 2026-09-02 23:28:35 | 53.96973 | 14.04019 | 118° | 84km/h | 12055m | 3.2m/s | -49.5°C | 4.2% | 196.8hPa | 2.7V | 00:00:00 | 01:09:05 | 00:00:00 | |
| AM1SDL-15 | 2026-09-02 23:28:34 | 53.96983 | 14.03987 | 118° | 82km/h | 12051m | 3.8m/s | -49.5°C | 4.2% | 196.8hPa | 2.7V | 00:00:00 | 01:09:04 | 00:00:00 | |
| DG6HD-11 | 2026-09-02 23:28:33 | 53.96993 | 14.03955 | 118° | 80km/h | 12047m | 4.7m/s | -49.6°C | 4.3% | 197.0hPa | 2.8V | 00:00:00 | 00:00:00 | 00:00:00 | |
| DO2SHX-10 | 2026-09-02 23:28:32 | 53.97003 | 14.03923 | 117° | 86km/h | 12043m | 3.7m/s | -49.6°C | 4.3% | 197.1hPa | 2.8V | 00:00:00 | 01:09:02 | 00:00:00 | |
| S3001 | 2026-09-02 23:28:31 | 53.97013 | 14.03890 | 116° | 86km/h | 12038m | 5.1m/s | -49.7°C | 2.2% | 197.3hPa | 2.8V | 00:00:00 | 00:00:00 | 00:00:00 | |
| DO2SHX-10 | 2026-09-02 23:28:29 | 53.97032 | 14.03823 | 116° | 84km/h | 12030m | 4.7m/s | -49.6°C | 4.4% | 197.5hPa | 2.8V | 00:00:00 | 01:08:59 | 00:00:00 | |
| DL1XH-15 | 2026-09-02 23:28:25 | 53.97070 | 14.03699 | 120° | 78km/h | 12012m | 3.8m/s | -49.8°C | 4.7% | 198hPa | 2.8V | 08:30:00 | 01:08:55 | 00:00:00 | |
| AA1-15 | 2026-09-02 23:28:25 | 53.97070 | 14.03699 | 121° | 78km/h | 12012m | 3.8m/s | -49.8°C | 2.4% | 198hPa | 2.8V | 18:12:15 | 01:08:55 | 00:00:00 | |
| SP3WXH-11 | 2026-09-02 23:28:22 | 53.97110 | 14.03587 | 121° | 75km/h | 11997m | 5.0m/s | -50.0°C | 2.7% | 198.6hPa | 2.7V | 00:00:00 | 00:00:00 | 00:00:00 | |
| DO2SHX-10 | 2026-09-02 23:28:19 | 53.97130 | 14.03529 | 119° | 78km/h | 11989m | 4.8m/s | -50.0°C | 4.9% | 198.7hPa | 2.7V | 00:00:00 | 01:08:49 | 00:00:00 | |
| DL1XH-15 | 2026-09-02 23:28:15 | 53.97167 | 14.03408 | 118° | 82km/h | 11973m | 3.4m/s | -50.2°C | 5.1% | 199.3hPa | 2.7V | 08:30:00 | 01:08:45 | 00:00:00 | |
| AA1-15 | 2026-09-02 23:28:15 | 53.97167 | 14.03408 | 119° | 82km/h | 11973m | 3.4m/s | -50.2°C | 3.1% | 199.3hPa | 2.7V | 18:12:15 | 01:08:45 | 00:00:00 | |
| DO2SHX-10 | 2026-09-02 23:28:13 | 53.97187 | 14.03348 | 122° | 78km/h | 11965m | 4.1m/s | -50.1°C | 5.2% | 199.4hPa | 2.7V | 00:00:00 | 01:08:43 | 00:00:00 | |
| DK1YY | 2026-09-02 23:28:12 | 53.97220 | 14.03262 | 124° | 80km/h | 11953m | 4.5m/s | -50.2°C | 3.2% | 199.9hPa | 2.7V | 00:00:00 | 00:00:00 | 00:00:00 | |
| DO2SHX-10 | 2026-09-02 23:28:10 | 53.97219 | 14.03262 | 125° | 80km/h | 11953m | 4.5m/s | -50.1°C | 5.4% | 199.8hPa | 2.7V | 00:00:00 | 01:08:40 | 00:00:00 | |
| DL1XH-15 | 2026-09-02 23:28:07 | 53.97279 | 14.03124 | 126° | 82km/h | 11932m | 4.5m/s | -50.2°C | 6.1% | 200.5hPa | 2.7V | 08:30:00 | 01:08:35 | 00:00:00 | |
| AA1-15 | 2026-09-02 23:28:04 | 53.97291 | 14.03095 | 128° | 84km/h | 11928m | 3.7m/s | -50.2°C | 4.5% | 200.7hPa | 2.7V | 18:12:15 | 01:08:34 | 00:00:00 | |
| DO2SHX-10 | 2026-09-02 23:28:03 | 53.97304 | 14.03067 | 128° | 84km/h | 11924m | 4.9m/s | -50.2°C | 6.4% | 200.7hPa | 2.8V | 00:00:00 | 01:08:33 | 00:00:00 | |
| DL1XH-15 | 2026-09-02 23:28:00 | 53.97407 | 14.02844 | 131° | 84km/h | 11894m | 4.7m/s | -50.9°C | 7.3% | 201.7hPa | 2.8V | 08:30:00 | 01:08:25 | 00:00:00 | |
| AA1-15 | 2026-09-02 23:27:53 | 53.97435 | 14.02789 | 131° | 84km/h | 11886m | 3.8m/s | -50.9°C | 6.2% | 201.9hPa | 2.7V | 18:12:15 | 01:08:23 | 00:00:00 | |
| SP3WXH-11 | 2026-09-02 23:27:51 | 53.97476 | 14.02707 | 130° | 86km/h | 11874m | 5.3m/s | -50.8°C | -1.0% | -1.0hPa | 2.7V | 00:00:00 | 00:00:00 | 00:00:00 | |
| DL1XH-15 | 2026-09-02 23:27:50 | 53.97547 | 14.02553 | 127° | 95km/h | 11852m | 5.1m/s | -50.7°C | 8.1% | 203hPa | 2.7V | 08:30:00 | 01:08:15 | 00:00:00 | |
| AA1-15 | 2026-09-02 23:27:42 | 53.97592 | 14.02456 | 129° | 97km/h | 11838m | 5.2m/s | -50.8°C | 7.5% | 203.4hPa | 2.7V | 18:12:15 | 01:08:12 | 00:00:00 | |
| DO2SHX-10 | 2026-09-02 23:27:41 | 53.97607 | 14.02424 | 130° | 95km/h | 11834m | 3.5m/s | -50.8°C | 8.3% | 203.5hPa | 2.8V | 00:00:00 | 01:08:11 | 00:00:00 | |
| DL1XH-15 | 2026-09-02 23:27:40 | 53.97701 | 14.02242 | 129° | 93km/h | 11811m | 5m/s | -50.7°C | 8.9% | 204.2hPa | 2.8V | 08:30:00 | 01:08:05 | 00:00:00 | |
| AA1-15 | 2026-09-02 23:27:32 | 53.97745 | 14.02144 | 127° | 99km/h | 11799m | 4.4m/s | -50.6°C | 9.2% | 204.6hPa | 2.8V | 18:12:15 | 01:08:02 | 00:00:00 | |
| DO2SHX-10 | 2026-09-02 23:27:32 | 53.97745 | 14.02144 | 128° | 100km/h | 11799m | 4.3m/s | -50.6°C | 9.5% | 204.6hPa | 2.8V | 00:00:00 | 01:08:02 | 00:00:00 | |
| DO2SHX-10 | 2026-09-02 23:27:29 | 53.97793 | 14.02043 | 131° | 100km/h | 11784m | 4.9m/s | -50.7°C | 9.7% | 205.1hPa | 2.8V | 00:00:00 | 01:07:59 | 00:00:00 | |
| DL1XH-15 | 2026-09-02 23:27:25 | 53.97859 | 14.01915 | 133° | 97km/h | 11765m | 4.5m/s | -51.7°C | 10.6% | 205.7hPa | 2.8V | 08:30:00 | 01:07:55 | 00:00:00 | |
| AA1-15 | 2026-09-02 23:27:21 | 53.97923 | 14.01788 | 125° | 100km/h | 11749m | 4.6m/s | -51.9°C | 11.3% | 206.2hPa | 2.8V | 18:12:15 | 01:07:51 | 00:00:00 | |
| DO2SHX-10 | 2026-09-02 23:27:20 | 53.97937 | 14.01752 | 124° | 104km/h | 11743m | 6.1m/s | -51.8°C | 10.9% | 206.3hPa | 2.8V | 00:00:00 | 01:07:50 | 00:00:00 | |
| SP3BTT-10 | 2026-09-02 23:27:18 | 53.97967 | 14.01678 | 126° | 106km/h | 11730m | 6.3m/s | -51.9°C | 11.2% | 206.8hPa | 2.8V | 00:00:00 | 00:00:00 | 00:00:00 | |
| DL1XH-15 | 2026-09-02 23:27:17 | 53.98015 | 14.01568 | 126° | 108km/h | 11715m | 3.6m/s | -52.3°C | 11.9% | 207.3hPa | 2.8V | 08:30:00 | 01:07:45 | 00:00:00 | |
| AA1-15 | 2026-09-02 23:27:11 | 53.98077 | 14.01416 | 124° | 110km/h | 11699m | 3.3m/s | -52.5°C | 12.9% | 207.8hPa | 2.7V | 18:12:15 | 01:07:41 | 00:00:00 | |
| AA1-15 | 2026-09-02 23:27:00 | 53.98259 | 14.00976 | 126° | 115km/h | 11656m | 4.2m/s | -53.2°C | 14.4% | 209.2hPa | 2.7V | 18:12:15 | 01:07:30 | 00:00:00 | |
| AA1-15 | 2026-09-02 23:26:49 | 53.98435 | 14.00528 | 122° | 111km/h | 11614m | 4m/s | -54°C | 15.9% | 210.5hPa | 2.8V | 18:12:15 | 01:07:19 | 00:00:00 | |
| AA1-15 | 2026-09-02 23:26:39 | 53.98575 | 14.00119 | 119° | 108km/h | 11576m | 3.4m/s | -53.8°C | 16.6% | 211.8hPa | 2.8V | 18:12:15 | 01:07:09 | 00:00:00 | |
| DO2SHX-10 | 2026-09-02 23:26:38 | 53.98588 | 14.00079 | 119° | 106km/h | 11573m | 4.4m/s | -53.8°C | 16.4% | 211.9hPa | 2.7V | 00:00:00 | 01:07:08 | 00:00:00 | |
| DL1XH-15 | 2026-09-02 23:26:37 | 53.98627 | 13.99959 | 118° | 108km/h | 11561m | 3.7m/s | -53.8°C | 16.7% | 212.3hPa | 2.7V | 08:30:00 | 01:07:05 | 00:00:00 | |
| DO2SHX-10 | 2026-09-02 23:26:35 | 53.98627 | 13.99958 | 119° | 108km/h | 11561m | 3.6m/s | -53.7°C | 16.7% | 212.3hPa | 2.7V | 00:00:00 | 01:07:05 | 00:00:00 | |
| DG6HD-11 | 2026-09-02 23:26:33 | 53.98652 | 13.99877 | 118° | 108km/h | 11553m | 3.4m/s | -53.6°C | 16.7% | 212.5hPa | 2.7V | 00:00:00 | 00:00:00 | 00:00:00 | |
| DO2SHX-10 | 2026-09-02 23:26:32 | 53.98664 | 13.99836 | 117° | 110km/h | 11549m | 4.7m/s | -53.6°C | 16.8% | 212.6hPa | 2.7V | 00:00:00 | 01:07:02 | 08:30:00 | |
| AM1SDL-15 | 2026-09-02 23:26:31 | 53.98677 | 13.99794 | 117° | 108km/h | 11544m | 3.8m/s | -53.6°C | 16.9% | 212.8hPa | 2.8V | 00:00:00 | 01:07:01 | 00:00:00 | |
| DL1XH-15 | 2026-09-02 23:26:30 | 53.98751 | 13.99542 | 118° | 106km/h | 11522m | 3.3m/s | -53.7°C | 18% | 213.6hPa | 2.8V | 08:30:00 | 01:06:55 | 00:00:00 | |
| AA1-15 | 2026-09-02 23:26:29 | 53.98702 | 13.99708 | 116° | 111km/h | 11537m | 3.6m/s | -53.7°C | 17.8% | 213.1hPa | 2.7V | 18:12:15 | 01:06:59 | 00:00:00 | |
| AA1-15 | 2026-09-02 23:26:18 | 53.98839 | 13.99268 | 118° | 106km/h | 11496m | 3.4m/s | -54°C | 19.6% | 214.5hPa | 2.7V | 18:12:15 | 01:06:48 | 00:00:00 | |
| SP3BTT-10 | 2026-09-02 23:26:18 | 53.98839 | 13.99268 | 118° | 110km/h | 11496m | 3.4m/s | -53.9°C | 18.9% | 214.4hPa | 2.8V | 00:00:00 | 00:00:00 | 00:00:00 | |
| DO2SHX-10 | 2026-09-02 23:26:17 | 53.98852 | 13.99227 | 118° | 108km/h | 11493m | 3.7m/s | -54.0°C | 19.1% | 214.5hPa | 2.8V | 00:00:00 | 01:06:47 | 00:00:00 | |
| DL1XH-15 | 2026-09-02 23:26:16 | 53.98877 | 13.99145 | 117° | 108km/h | 11485m | 3.7m/s | -54.1°C | 19.6% | 214.8hPa | 2.8V | 08:30:00 | 01:06:45 | 00:00:00 | |
| DO2SHX-10 | 2026-09-02 23:26:14 | 53.98890 | 13.99103 | 118° | 108km/h | 11481m | 4.5m/s | -54.1°C | 19.9% | 214.9hPa | 2.7V | 00:00:00 | 01:06:44 | 00:00:00 | |
| KRY50SP | 2026-09-02 23:26:12 | 53.98902 | 13.99063 | 119° | 108km/h | 11477m | 3.6m/s | 0°C | 0% | 0hPa | 2.7V | 00:00:00 | 00:00:00 | 00:00:00 | |
| DO2SHX-10 | 2026-09-02 23:26:11 | 53.98929 | 13.98982 | 121° | 108km/h | 11468m | 3.8m/s | -54.1°C | 20.6% | 215.4hPa | 2.7V | 00:00:00 | 01:06:41 | 00:00:00 | |
| DL1XH-15 | 2026-09-02 23:26:10 | 53.99008 | 13.98746 | 119° | 106km/h | 11444m | 3.7m/s | -54.1°C | 20.6% | 216.2hPa | 2.7V | 08:30:00 | 01:06:35 | 00:00:00 | |
| AA1-15 | 2026-09-02 23:26:08 | 53.98969 | 13.98863 | 119° | 104km/h | 11457m | 3.3m/s | -54.1°C | 21% | 215.8hPa | 2.8V | 18:12:15 | 01:06:38 | 00:00:00 | |
| AA1-15 | 2026-09-02 23:25:57 | 53.99109 | 13.98432 | 119° | 102km/h | 11413m | 3.3m/s | -54.1°C | 22% | 217.2hPa | 2.8V | 18:12:15 | 01:06:27 | 00:00:00 | |
| DL1XH-15 | 2026-09-02 23:25:56 | 53.99135 | 13.98355 | 120° | 106km/h | 11405m | 4.3m/s | -54.1°C | 21.8% | 217.5hPa | 2.8V | 08:30:00 | 01:06:25 | 00:00:00 | |
| DO2SHX-10 | 2026-09-02 23:25:56 | 53.99121 | 13.98393 | 120° | 106km/h | 11410m | 4.4m/s | -54.1°C | 21.5% | 217.3hPa | 2.7V | 00:00:00 | 01:06:26 | 00:00:00 | |
| DO2SHX-10 | 2026-09-02 23:25:53 | 53.99163 | 13.98276 | 122° | 106km/h | 11398m | 4.2m/s | -54.0°C | 22.0% | 217.7hPa | 2.8V | 00:00:00 | 01:06:23 | 00:00:00 | |
| MECKS9 | 2026-09-02 23:25:52 | 53.99163 | 13.98276 | 122° | 108km/h | 11398m | 4.2m/s | -54.1°C | 17.6% | 217.8hPa | 2.8V | 00:00:00 | 00:00:00 | 00:00:00 | |
| DL1XH-15 | 2026-09-02 23:25:50 | 53.99272 | 13.97970 | 120° | 100km/h | 11365m | 3.5m/s | -54.1°C | 22.9% | 218.8hPa | 2.8V | 08:30:00 | 01:06:15 | 00:00:00 | |
| AA1-15 | 2026-09-02 23:25:46 | 53.99259 | 13.98008 | 120° | 102km/h | 11368m | 2.8m/s | -54.1°C | 23.9% | 218.8hPa | 2.7V | 18:12:15 | 01:06:16 | 00:00:00 | |
| DO2SHX-10 | 2026-09-02 23:25:44 | 53.99285 | 13.97934 | 123° | 99km/h | 11362m | 4.3m/s | -54.1°C | 23.4% | 218.9hPa | 2.7V | 00:00:00 | 01:06:14 | 00:00:00 | |
| AM1SDL-15 | 2026-09-02 23:25:43 | 53.99299 | 13.97899 | 124° | 100km/h | 11357m | 4.3m/s | -54.2°C | 23.9% | 219.1hPa | 2.7V | 00:00:00 | 01:06:13 | 00:00:00 | |
| KRY50SP | 2026-09-02 23:25:42 | 53.99299 | 13.97898 | 125° | 99km/h | 11357m | 4.3m/s | 0°C | 0% | 0hPa | 2.7V | 00:00:00 | 00:00:00 | 00:00:00 | |
| DO2SHX-10 | 2026-09-02 23:25:41 | 53.99327 | 13.97829 | 125° | 99km/h | 11349m | 3.9m/s | -54.4°C | 24.6% | 219.3hPa | 2.7V | 00:00:00 | 01:06:11 | 00:00:00 | |
| DO2SHX-10 | 2026-09-02 23:25:38 | 53.99370 | 13.97722 | 126° | 102km/h | 11338m | 4.6m/s | -54.5°C | 24.7% | 219.7hPa | 2.7V | 00:00:00 | 01:06:08 | 08:30:00 | |
| DL1XH-15 | 2026-09-02 23:25:37 | 53.99416 | 13.97615 | 125° | 102km/h | 11325m | 5.1m/s | -54.6°C | 25% | 220.2hPa | 2.7V | 08:30:00 | 01:06:05 | 00:00:00 | |
| AA1-15 | 2026-09-02 23:25:36 | 53.99401 | 13.97651 | 126° | 102km/h | 11330m | 3.2m/s | -54.6°C | 26% | 220.1hPa | 2.7V | 18:12:15 | 01:06:06 | 00:00:00 | |
| DO2SHX-10 | 2026-09-02 23:25:35 | 53.99416 | 13.97615 | 126° | 102km/h | 11326m | 5.1m/s | -54.5°C | 25.0% | 220.1hPa | 2.8V | 00:00:00 | 01:06:05 | 00:00:00 | |
| DG6HD-11 | 2026-09-02 23:25:33 | 53.99445 | 13.97543 | 124° | 108km/h | 11317m | 3.8m/s | -54.6°C | 25.5% | 220.5hPa | 2.8V | 00:00:00 | 00:00:00 | 00:00:00 | |
| DO2SHX-10 | 2026-09-02 23:25:32 | 53.99459 | 13.97507 | 125° | 104km/h | 11313m | 3.6m/s | -54.6°C | 25.9% | 220.6hPa | 2.8V | 00:00:00 | 01:06:02 | 00:00:00 | |
| DL1XH-15 | 2026-09-02 23:25:30 | 53.99568 | 13.97248 | 127° | 111km/h | 11286m | 4.4m/s | -54.7°C | 26.9% | 221.6hPa | 2.8V | 08:30:00 | 01:05:55 | 00:00:00 | |
| AA1-15 | 2026-09-02 23:25:26 | 53.99552 | 13.97285 | 127° | 110km/h | 11290m | 4.1m/s | -54.7°C | 27.5% | 221.4hPa | 2.8V | 18:12:15 | 01:05:56 | 00:00:00 | |
| S3001 | 2026-09-02 23:25:26 | 53.99568 | 13.97248 | 127° | 110km/h | 11286m | 4.4m/s | -54.7°C | 22.0% | 221.6hPa | 2.7V | 00:00:00 | 00:00:00 | 00:00:00 | |
| DO2SHX-10 | 2026-09-02 23:25:23 | 53.99602 | 13.97172 | 129° | 110km/h | 11277m | 5.2m/s | -54.8°C | 27.0% | 221.8hPa | 2.7V | 00:00:00 | 01:05:53 | 00:00:00 | |
| DO2SHX-10 | 2026-09-02 23:25:20 | 53.99653 | 13.97060 | 128° | 113km/h | 11265m | 4.1m/s | -54.8°C | 27.7% | 222.2hPa | 2.7V | 00:00:00 | 01:05:50 | 00:00:00 | |
| SP3BTT-10 | 2026-09-02 23:25:18 | 53.99687 | 13.96982 | 126° | 110km/h | 11258m | 4.3m/s | -54.8°C | 28.0% | 222.5hPa | 2.7V | 00:00:00 | 00:00:00 | 08:30:00 | |
| DO2SHX-10 | 2026-09-02 23:25:17 | 53.99704 | 13.96943 | 127° | 111km/h | 11254m | 3.9m/s | -54.8°C | 28.3% | 222.6hPa | 2.8V | 00:00:00 | 01:05:47 | 00:00:00 | |
| DL1XH-15 | 2026-09-02 23:25:16 | 53.99738 | 13.96865 | 125° | 111km/h | 11247m | 4.5m/s | -54.8°C | 28.2% | 223hPa | 2.8V | 08:30:00 | 01:05:45 | 00:00:00 | |
| AA1-15 | 2026-09-02 23:25:15 | 53.99738 | 13.96865 | 126° | 111km/h | 11247m | 4.6m/s | -54.8°C | 28.9% | 223hPa | 2.8V | 18:12:15 | 01:05:45 | 00:00:00 | |
| DO2SHX-10 | 2026-09-02 23:25:14 | 53.99754 | 13.96826 | 126° | 111km/h | 11242m | 4.5m/s | -54.7°C | 28.5% | 223.1hPa | 2.7V | 00:00:00 | 01:05:44 | 00:00:00 | |
| DO2SHX-10 | 2026-09-02 23:25:11 | 53.99803 | 13.96710 | 127° | 110km/h | 11230m | 3.3m/s | -54.6°C | 28.8% | 223.5hPa | 2.7V | 00:00:00 | 01:05:41 | 08:30:00 | |
| DL1XH-15 | 2026-09-02 23:25:10 | 53.99900 | 13.96481 | 125° | 110km/h | 11206m | 5m/s | -54.8°C | 30.1% | 224.4hPa | 2.7V | 08:30:00 | 01:05:35 | 00:00:00 | |
| AA1-15 | 2026-09-02 23:25:05 | 53.99900 | 13.96481 | 125° | 110km/h | 11206m | 5m/s | -54.8°C | 30.7% | 224.4hPa | 2.7V | 18:12:15 | 01:05:35 | 00:00:00 | |
| DO2SHX-10 | 2026-09-02 23:25:05 | 53.99900 | 13.96481 | 126° | 110km/h | 11206m | 5.0m/s | -54.8°C | 30.1% | 224.3hPa | 2.7V | 00:00:00 | 01:05:35 | 00:00:00 | |
| DG6HD-11 | 2026-09-02 23:25:03 | 53.99931 | 13.96404 | 124° | 108km/h | 11197m | 4.6m/s | -54.7°C | 30.6% | 224.6hPa | 2.7V | 00:00:00 | 00:00:00 | 00:00:00 | |
| DO2SHX-10 | 2026-09-02 23:25:02 | 53.99947 | 13.96365 | 125° | 110km/h | 11193m | 3.5m/s | -54.7°C | 30.9% | 224.8hPa | 2.7V | 00:00:00 | 01:05:32 | 00:00:00 | |
| DO2SHX-10 | 2026-09-02 23:24:59 | 53.99993 | 13.96247 | 123° | 110km/h | 11182m | 3.5m/s | -54.7°C | 31.1% | 225.2hPa | 2.8V | 00:00:00 | 01:05:29 | 00:00:00 | |
| DL1XH-15 | 2026-09-02 23:24:56 | 54.00053 | 13.96093 | 124° | 106km/h | 11165m | 4.3m/s | -54.6°C | 31% | 225.8hPa | 2.8V | 08:30:00 | 01:05:25 | 00:00:00 | |
| AA1-15 | 2026-09-02 23:24:55 | 54.00053 | 13.96093 | 124° | 106km/h | 11165m | 4.3m/s | -54.6°C | 31.7% | 225.8hPa | 2.8V | 18:12:15 | 01:05:25 | 00:00:00 | |
| S3001 | 2026-09-02 23:24:54 | 54.00068 | 13.96056 | 124° | 104km/h | 11161m | 4.0m/s | -54.6°C | 25.9% | 225.9hPa | 2.7V | 00:00:00 | 00:00:00 | 00:00:00 | |
| DO2SHX-10 | 2026-09-02 23:24:53 | 54.00083 | 13.96019 | 126° | 106km/h | 11158m | 3.0m/s | -54.6°C | 30.9% | 226.0hPa | 2.7V | 00:00:00 | 01:05:23 | 00:00:00 | |
| DL1XH-15 | 2026-09-02 23:24:50 | 54.00216 | 13.95718 | 123° | 111km/h | 11126m | 3.7m/s | -54.7°C | 33.5% | 227.2hPa | 2.8V | 08:30:00 | 01:05:15 | 00:00:00 | |
| AA1-15 | 2026-09-02 23:24:44 | 54.00231 | 13.95678 | 123° | 110km/h | 11122m | 4.1m/s | -54.7°C | 33.8% | 227.3hPa | 2.8V | 18:12:15 | 01:05:14 | 00:00:00 | |
| DO2SHX-10 | 2026-09-02 23:24:44 | 54.00231 | 13.95678 | 124° | 110km/h | 11122m | 4.1m/s | -54.6°C | 33.6% | 227.3hPa | 2.7V | 00:00:00 | 01:05:14 | 08:30:00 | |
| DO2SHX-10 | 2026-09-02 23:24:41 | 54.00277 | 13.95563 | 126° | 104km/h | 11109m | 4.1m/s | -54.7°C | 34.0% | 227.7hPa | 2.7V | 00:00:00 | 01:05:11 | 00:00:00 | |
| DO2SHX-10 | 2026-09-02 23:24:38 | 54.00323 | 13.95456 | 127° | 100km/h | 11097m | 4.2m/s | -54.8°C | 34.1% | 228.1hPa | 2.7V | 00:00:00 | 01:05:08 | 00:00:00 | |
| DL1XH-15 | 2026-09-02 23:24:36 | 54.00367 | 13.95351 | 125° | 100km/h | 11086m | 4m/s | -54.9°C | 34.3% | 228.6hPa | 2.7V | 08:30:00 | 01:05:05 | 00:00:00 | |
| AA1-15 | 2026-09-02 23:24:34 | 54.00382 | 13.95315 | 126° | 104km/h | 11082m | 4m/s | -54.9°C | 35% | 228.7hPa | 2.8V | 18:12:15 | 01:05:04 | 00:00:00 | |
| DG6HD-11 | 2026-09-02 23:24:33 | 54.00398 | 13.95278 | 126° | 108km/h | 11078m | 3.8m/s | -54.8°C | 34.6% | 228.9hPa | 2.7V | 00:00:00 | 01:05:03 | 00:00:00 | |
| DO2SHX-10 | 2026-09-02 23:24:32 | 54.00414 | 13.95240 | 126° | 110km/h | 11074m | 4.4m/s | -54.8°C | 34.7% | 229.0hPa | 2.7V | 00:00:00 | 01:05:02 | 00:00:00 | |
| DL1XH-15 | 2026-09-02 23:24:30 | 54.00523 | 13.94964 | 124° | 111km/h | 11047m | 4.7m/s | -54.8°C | 34.3% | 230hPa | 2.7V | 08:30:00 | 01:04:55 | 00:00:00 | |
| AA1-15 | 2026-09-02 23:24:24 | 54.00539 | 13.94925 | 125° | 110km/h | 11043m | 3.3m/s | -54.8°C | 35.7% | 230.2hPa | 2.8V | 18:12:15 | 01:04:54 | 00:00:00 | |
| DO2SHX-10 | 2026-09-02 23:24:23 | 54.00555 | 13.94886 | 125° | 110km/h | 11040m | 3.3m/s | -54.7°C | 34.5% | 230.2hPa | 2.7V | 00:00:00 | 01:04:53 | 00:00:00 | |
| DO2SHX-10 | 2026-09-02 23:24:20 | 54.00599 | 13.94768 | 120° | 108km/h | 11027m | 3.8m/s | -54.7°C | 34.4% | 230.6hPa | 2.7V | 00:00:00 | 01:04:50 | 00:00:00 | |
| DO2SHX-10 | 2026-09-02 23:24:17 | 54.00639 | 13.94647 | 120° | 108km/h | 11015m | 3.6m/s | -54.9°C | 35.3% | 231.1hPa | 2.7V | 00:00:00 | 01:04:47 | 08:30:00 | |
| DL1XH-15 | 2026-09-02 23:24:16 | 54.00666 | 13.94567 | 120° | 110km/h | 11007m | 3.9m/s | -55°C | 35.8% | 231.4hPa | 2.7V | 08:30:00 | 01:04:45 | 00:00:00 | |
| AA1-15 | 2026-09-02 23:24:14 | 54.00680 | 13.94527 | 121° | 108km/h | 11004m | 3.4m/s | -55°C | 36.2% | 231.6hPa | 2.7V | 18:12:15 | 01:04:44 | 00:00:00 | |
| DL1XH-west | 2026-09-02 23:24:13 | 54.00694 | 13.94488 | 122° | 106km/h | 11000m | 4.2m/s | 0°C | 0% | 0hPa | 2.8V | 18:12:15 | 01:04:43 | 00:00:00 | |
| DO2SHX-10 | 2026-09-02 23:24:11 | 54.00723 | 13.94410 | 123° | 104km/h | 10992m | 4.3m/s | -55.0°C | 36.7% | 231.9hPa | 2.7V | 00:00:00 | 01:04:41 | 00:00:00 | |
| MECKS9 | 2026-09-02 23:24:10 | 54.00723 | 13.94410 | 123° | 106km/h | 10992m | 4.4m/s | -55.1°C | 30.9% | 232.0hPa | 2.7V | 00:00:00 | 00:00:00 | 00:00:00 | |
| DO2SHX-10 | 2026-09-02 23:24:08 | 54.00766 | 13.94297 | 124° | 104km/h | 10981m | 3.6m/s | -55.0°C | 37.3% | 232.3hPa | 2.7V | 00:00:00 | 01:04:38 | 00:00:00 | |
| DL1XH-15 | 2026-09-02 23:24:06 | 54.00810 | 13.94185 | 122° | 106km/h | 10970m | 3.3m/s | -55°C | 37.1% | 232.8hPa | 2.7V | 08:30:00 | 01:04:35 | 00:00:00 | |
| AA1-15 | 2026-09-02 23:24:03 | 54.00838 | 13.94107 | 121° | 108km/h | 10962m | 3.8m/s | -55°C | 36.9% | 233.1hPa | 2.8V | 18:12:15 | 01:04:33 | 00:00:00 | |
| DG6HD-11 | 2026-09-02 23:24:03 | 54.00838 | 13.94107 | 122° | 102km/h | 10962m | 3.8m/s | -54.9°C | 36.6% | 233.0hPa | 2.7V | 00:00:00 | 00:00:00 | 00:00:00 | |
| DO2SHX-10 | 2026-09-02 23:24:02 | 54.00852 | 13.94067 | 121° | 111km/h | 10959m | 3.9m/s | -54.9°C | 36.4% | 233.2hPa | 2.7V | 00:00:00 | 01:04:32 | 00:00:00 | |
| DO2SHX-10 | 2026-09-02 23:23:59 | 54.00896 | 13.93945 | 123° | 108km/h | 10948m | 4.3m/s | -54.9°C | 36.5% | 233.6hPa | 2.7V | 00:00:00 | 01:04:29 | 00:00:00 | |
| DL1XH-15 | 2026-09-02 23:23:56 | 54.00956 | 13.93793 | 124° | 104km/h | 10933m | 4m/s | -54.9°C | 36.8% | 234.2hPa | 2.7V | 08:30:00 | 01:04:25 | 00:00:00 | |
| AA1-15 | 2026-09-02 23:23:52 | 54.00999 | 13.93684 | 122° | 100km/h | 10920m | 3.3m/s | -54.9°C | 38% | 234.7hPa | 2.8V | 18:12:15 | 01:04:22 | 00:00:00 | |
| S3001 | 2026-09-02 23:23:52 | 54.01012 | 13.93647 | 121° | 100km/h | 10916m | 4.4m/s | -54.9°C | 31.3% | 234.8hPa | 2.7V | 00:00:00 | 00:00:00 | 00:00:00 | |
| DL1XH-15 | 2026-09-02 23:23:50 | 54.01095 | 13.93424 | 124° | 99km/h | 10893m | 3m/s | -55°C | 38.9% | 235.7hPa | 2.7V | 08:30:00 | 01:04:15 | 00:00:00 | |
| AA1-15 | 2026-09-02 23:23:42 | 54.01139 | 13.93320 | 126° | 99km/h | 10881m | 3.5m/s | -55.1°C | 39.4% | 236.1hPa | 2.8V | 18:12:15 | 01:04:12 | 00:00:00 | |
| DB0DAN | 2026-09-02 23:23:40 | 54.01167 | 13.93251 | 124° | 91km/h | 10874m | 3.7m/s | -55.1°C | 33.4% | 236.33hPa | 2.7V | 00:00:00 | 00:00:00 | 00:00:00 | |
| DL1XH-west | 2026-09-02 23:23:37 | 54.01206 | 13.93145 | 121° | 99km/h | 10861m | 3.5m/s | 0°C | 0% | 0hPa | 2.8V | 18:12:15 | 01:04:07 | 00:00:00 | |
| DL1XH-15 | 2026-09-02 23:23:36 | 54.01231 | 13.93072 | 119° | 97km/h | 10853m | 3.6m/s | -55.2°C | 39.5% | 237.1hPa | 2.7V | 08:30:00 | 01:04:05 | 00:00:00 | |
| AA1-15 | 2026-09-02 23:23:31 | 54.01281 | 13.92925 | 122° | 99km/h | 10838m | 4.9m/s | -55.1°C | 39.5% | 237.6hPa | 2.8V | 18:12:15 | 01:04:01 | 00:00:00 | |
| SP3BTT-10 | 2026-09-02 23:23:31 | 54.01281 | 13.92925 | 123° | 99km/h | 10838m | 4.8m/s | -55.1°C | 39.9% | 237.6hPa | 2.7V | 00:00:00 | 00:00:00 | 00:00:00 | |
| DL1XH-15 | 2026-09-02 23:23:29 | 54.01368 | 13.92718 | 126° | 97km/h | 10814m | 4.7m/s | -55.1°C | 39.5% | 238.6hPa | 2.7V | 08:30:00 | 01:03:55 | 00:00:00 | |
| AA1-15 | 2026-09-02 23:23:20 | 54.01435 | 13.92550 | 124° | 93km/h | 10794m | 4.5m/s | -55.1°C | 39.6% | 239.2hPa | 2.8V | 18:12:15 | 01:03:50 | 00:00:00 | |
| DO2SHX-10 | 2026-09-02 23:23:20 | 54.01435 | 13.92550 | 124° | 93km/h | 10795m | 4.4m/s | -55.0°C | 39.5% | 239.2hPa | 2.8V | 00:00:00 | 01:03:50 | 00:00:00 | |
| DO2SHX-10 | 2026-09-02 23:23:17 | 54.01474 | 13.92449 | 123° | 99km/h | 10783m | 4.3m/s | -55.0°C | 39.7% | 239.7hPa | 2.8V | 00:00:00 | 01:03:47 | 00:00:00 | |
| DL1XH-15 | 2026-09-02 23:23:16 | 54.01501 | 13.92377 | 123° | 102km/h | 10775m | 4.2m/s | -55°C | 39.7% | 240hPa | 2.8V | 08:30:00 | 01:03:45 | 00:00:00 | |
| DO2SHX-10 | 2026-09-02 23:23:14 | 54.01516 | 13.92340 | 124° | 104km/h | 10771m | 4.2m/s | -55.0°C | 39.6% | 240.2hPa | 2.7V | 00:00:00 | 01:03:44 | 00:00:00 | |
| DO2SHX-10 | 2026-09-02 23:23:11 | 54.01560 | 13.92228 | 124° | 102km/h | 10759m | 3.2m/s | -55.0°C | 40.0% | 240.6hPa | 2.8V | 00:00:00 | 01:03:41 | 00:00:00 | |
| DL1XH-15 | 2026-09-02 23:23:10 | 54.01641 | 13.92014 | 121° | 97km/h | 10737m | 3m/s | -54.9°C | 39.5% | 241.4hPa | 2.8V | 08:30:00 | 01:03:35 | 00:00:00 | |
| AA1-15 | 2026-09-02 23:23:10 | 54.01574 | 13.92191 | 124° | 102km/h | 10755m | 4.1m/s | -55°C | 39.2% | 240.8hPa | 2.8V | 18:12:15 | 01:03:40 | 00:00:00 | |
| AA1-15 | 2026-09-02 23:23:00 | 54.01715 | 13.91838 | 128° | 104km/h | 10719m | 3m/s | -54.8°C | 38.3% | 242.2hPa | 2.8V | 18:12:15 | 01:03:30 | 00:00:00 | |
| AA1-15 | 2026-09-02 23:22:50 | 54.01856 | 13.91491 | 124° | 102km/h | 10680m | 4.1m/s | -54.8°C | 37.8% | 243.6hPa | 2.7V | 18:12:15 | 01:03:20 | 00:00:00 | |
| S3001 | 2026-09-02 23:22:50 | 54.01870 | 13.91455 | 124° | 102km/h | 10677m | 3.6m/s | -54.8°C | 32.2% | 243.7hPa | 2.8V | 00:00:00 | 00:00:00 | 00:00:00 | |
| AA1-15 | 2026-09-02 23:22:39 | 54.02010 | 13.91081 | 121° | 99km/h | 10638m | 3.3m/s | -54.6°C | 37.8% | 245.2hPa | 2.8V | 18:12:15 | 01:03:09 | 00:00:00 | |
| DO2SHX-10 | 2026-09-02 23:22:38 | 54.02023 | 13.91045 | 122° | 100km/h | 10634m | 4.0m/s | -54.6°C | 38.2% | 245.3hPa | 2.7V | 00:00:00 | 01:03:08 | 00:00:00 | |
| DL1XH-15 | 2026-09-02 23:22:37 | 54.02065 | 13.90937 | 123° | 100km/h | 10623m | 4.2m/s | -54.6°C | 37.8% | 245.8hPa | 2.8V | 08:30:00 | 01:03:05 | 00:00:00 | |
| DO2SHX-10 | 2026-09-02 23:22:35 | 54.02064 | 13.90937 | 124° | 102km/h | 10623m | 4.2m/s | -54.5°C | 37.8% | 245.7hPa | 2.7V | 00:00:00 | 01:03:05 | 00:00:00 | |
| DG6HD-11 | 2026-09-02 23:22:33 | 54.02093 | 13.90864 | 124° | 106km/h | 10615m | 4.1m/s | -54.5°C | 37.3% | 246.0hPa | 2.7V | 00:00:00 | 00:00:00 | 00:00:00 | |
| DO2SHX-10 | 2026-09-02 23:22:32 | 54.02107 | 13.90827 | 124° | 102km/h | 10611m | 3.3m/s | -54.5°C | 37.2% | 246.2hPa | 2.7V | 00:00:00 | 01:03:02 | 00:00:00 | |
| DK1YY | 2026-09-02 23:22:31 | 54.02121 | 13.90790 | 121° | 102km/h | 10608m | 3.3m/s | -54.5°C | 30.9% | 246.4hPa | 2.7V | 00:00:00 | 00:00:00 | 00:00:00 | |
| DL1XH-15 | 2026-09-02 23:22:30 | 54.02198 | 13.90559 | 122° | 102km/h | 10586m | 3.8m/s | -54.4°C | 36% | 247.2hPa | 2.7V | 08:30:00 | 01:02:55 | 00:00:00 | |
| AA1-15 | 2026-09-02 23:22:29 | 54.02147 | 13.90713 | 118° | 102km/h | 10600m | 3.3m/s | -54.5°C | 36% | 246.6hPa | 2.8V | 18:12:15 | 01:02:59 | 00:00:00 | |
| AA1-15 | 2026-09-02 23:22:18 | 54.02300 | 13.90287 | 122° | 110km/h | 10556m | 4.3m/s | -54.3°C | 36.2% | 248.3hPa | 2.7V | 18:12:15 | 01:02:48 | 00:00:00 | |
| DL1XH-15 | 2026-09-02 23:22:17 | 54.02344 | 13.90168 | 122° | 108km/h | 10545m | 4.3m/s | -54.2°C | 37.3% | 248.8hPa | 2.8V | 08:30:00 | 01:02:45 | 00:00:00 | |
| DO2SHX-10 | 2026-09-02 23:22:17 | 54.02315 | 13.90247 | 122° | 108km/h | 10552m | 3.9m/s | -54.2°C | 36.8% | 248.4hPa | 2.7V | 00:00:00 | 01:02:47 | 00:00:00 | |
| DO2SHX-10 | 2026-09-02 23:22:14 | 54.02359 | 13.90130 | 124° | 104km/h | 10542m | 2.6m/s | -54.1°C | 37.4% | 248.9hPa | 2.7V | 00:00:00 | 01:02:44 | 00:00:00 | |
| DO2SHX-10 | 2026-09-02 23:22:11 | 54.02402 | 13.90018 | 123° | 106km/h | 10530m | 3.7m/s | -54.1°C | 36.8% | 249.3hPa | 2.7V | 00:00:00 | 01:02:41 | 00:00:00 | |
| DL1XH-15 | 2026-09-02 23:22:10 | 54.02489 | 13.89785 | 123° | 106km/h | 10506m | 2.9m/s | -54°C | 37.8% | 250.3hPa | 2.8V | 08:30:00 | 01:02:35 | 00:00:00 | |
| AA1-15 | 2026-09-02 23:22:08 | 54.02446 | 13.89903 | 123° | 110km/h | 10517m | 3.2m/s | -54°C | 37.5% | 249.9hPa | 2.7V | 18:12:15 | 01:02:38 | 00:00:00 | |
| AA1-15 | 2026-09-02 23:21:57 | 54.02610 | 13.89488 | 122° | 104km/h | 10472m | 3.7m/s | -53.8°C | 39.4% | 251.6hPa | 2.8V | 18:12:15 | 01:02:27 | 00:00:00 | |
| DL1XH-15 | 2026-09-02 23:21:57 | 54.02638 | 13.89414 | 124° | 102km/h | 10463m | 4.5m/s | -53.8°C | 39.6% | 251.9hPa | 2.7V | 08:30:00 | 01:02:25 | 00:00:00 | |
| DO2SHX-10 | 2026-09-02 23:21:56 | 54.02623 | 13.89450 | 124° | 102km/h | 10467m | 4.7m/s | -53.7°C | 39.1% | 251.7hPa | 2.7V | 00:00:00 | 01:02:26 | 00:00:00 | |
| DO2SHX-10 | 2026-09-02 23:21:53 | 54.02667 | 13.89342 | 125° | 100km/h | 10456m | 4.6m/s | -53.7°C | 39.8% | 252.2hPa | 2.7V | 00:00:00 | 01:02:23 | 00:00:00 | |
| DL1XH-15 | 2026-09-02 23:21:50 | 54.02781 | 13.89059 | 124° | 100km/h | 10424m | 3.3m/s | -53.8°C | 42.3% | 253.5hPa | 2.8V | 08:30:00 | 01:02:15 | 00:00:00 | |
| AA1-15 | 2026-09-02 23:21:46 | 54.02766 | 13.89095 | 124° | 100km/h | 10428m | 3.6m/s | -53.8°C | 41.8% | 253.3hPa | 2.7V | 18:12:15 | 01:02:16 | 00:00:00 | |
| SP3BTT-10 | 2026-09-02 23:21:46 | 54.02766 | 13.89095 | 125° | 100km/h | 10428m | 3.6m/s | -53.7°C | 42.1% | 253.3hPa | 2.7V | 00:00:00 | 00:00:00 | 00:00:00 | |
| DO2SHX-10 | 2026-09-02 23:21:44 | 54.02795 | 13.89023 | 125° | 100km/h | 10420m | 4.5m/s | -53.7°C | 42.8% | 253.6hPa | 2.7V | 00:00:00 | 01:02:14 | 00:00:00 | |
| DO2SHX-10 | 2026-09-02 23:21:41 | 54.02838 | 13.88917 | 123° | 100km/h | 10409m | 3.5m/s | -53.7°C | 43.4% | 254.0hPa | 2.8V | 00:00:00 | 01:02:11 | 00:00:00 | |
| DO2SHX-10 | 2026-09-02 23:21:38 | 54.02880 | 13.88808 | 126° | 100km/h | 10399m | 3.9m/s | -53.7°C | 44.7% | 254.5hPa | 2.8V | 00:00:00 | 01:02:08 | 00:00:00 | |
| DL1XH-15 | 2026-09-02 23:21:37 | 54.02925 | 13.88703 | 125° | 100km/h | 10387m | 3.7m/s | -53.7°C | 45.8% | 254.9hPa | 2.8V | 08:30:00 | 01:02:05 | 00:00:00 | |
| AA1-15 | 2026-09-02 23:21:36 | 54.02910 | 13.88738 | 126° | 100km/h | 10392m | 4.4m/s | -53.7°C | 44.7% | 254.8hPa | 2.8V | 18:12:15 | 01:02:06 | 00:00:00 | |
| DO2SHX-10 | 2026-09-02 23:21:35 | 54.02925 | 13.88703 | 126° | 99km/h | 10388m | 3.7m/s | -53.7°C | 45.8% | 254.9hPa | 2.7V | 00:00:00 | 01:02:05 | 08:30:00 | |
| DG6HD-11 | 2026-09-02 23:21:33 | 54.02953 | 13.88634 | 125° | 99km/h | 10380m | 4.5m/s | -53.6°C | 46.1% | 255.2hPa | 2.7V | 00:00:00 | 00:00:00 | 00:00:00 | |
| DO2SHX-10 | 2026-09-02 23:21:32 | 54.02967 | 13.88600 | 125° | 95km/h | 10376m | 3.2m/s | -53.6°C | 46.6% | 255.3hPa | 2.7V | 00:00:00 | 01:02:02 | 00:00:00 | |
| DL1XH-15 | 2026-09-02 23:21:30 | 54.03067 | 13.88365 | 126° | 102km/h | 10349m | 4.4m/s | -53.6°C | 47.8% | 256.4hPa | 2.7V | 08:30:00 | 01:01:55 | 00:00:00 | |
| AA1-15 | 2026-09-02 23:21:25 | 54.03067 | 13.88364 | 126° | 102km/h | 10349m | 4.4m/s | -53.6°C | 47.9% | 256.4hPa | 2.7V | 18:12:15 | 01:01:55 | 00:00:00 | |
| AM1SDL-15 | 2026-09-02 23:21:25 | 54.03067 | 13.88364 | 127° | 100km/h | 10350m | 4.3m/s | -53.6°C | 47.8% | 256.3hPa | 2.8V | 00:00:00 | 01:01:55 | 00:00:00 | |
| DO2SHX-10 | 2026-09-02 23:21:23 | 54.03098 | 13.88291 | 126° | 104km/h | 10343m | 3.2m/s | -53.5°C | 48.7% | 256.6hPa | 2.8V | 00:00:00 | 01:01:53 | 00:00:00 | |
| DO2SHX-10 | 2026-09-02 23:21:20 | 54.03144 | 13.88184 | 128° | 99km/h | 10331m | 3.8m/s | -53.5°C | 50.2% | 257.1hPa | 2.8V | 00:00:00 | 01:01:50 | 00:00:00 | |
| DL1XH-15 | 2026-09-02 23:21:17 | 54.03219 | 13.88018 | 125° | 97km/h | 10313m | 3.8m/s | -53.5°C | 53% | 257.9hPa | 2.8V | 08:30:00 | 01:01:45 | 00:00:00 | |
| AA1-15 | 2026-09-02 23:21:14 | 54.03233 | 13.87984 | 126° | 97km/h | 10309m | 4.5m/s | -53.5°C | 52.7% | 258.1hPa | 2.8V | 18:12:15 | 01:01:44 | 00:00:00 | |
| DO2SHX-10 | 2026-09-02 23:21:14 | 54.03233 | 13.87984 | 126° | 97km/h | 10309m | 4.5m/s | -53.5°C | 54.1% | 258.0hPa | 2.7V | 00:00:00 | 01:01:44 | 00:00:00 | |
| AM1SDL-15 | 2026-09-02 23:21:13 | 54.03247 | 13.87950 | 125° | 99km/h | 10305m | 3.8m/s | -53.5°C | 55.7% | 258.2hPa | 2.7V | 00:00:00 | 01:01:43 | 00:00:00 | |
| DO2SHX-10 | 2026-09-02 23:21:11 | 54.03274 | 13.87882 | 123° | 97km/h | 10296m | 3.4m/s | -53.6°C | 57.7% | 258.5hPa | 2.8V | 00:00:00 | 01:01:41 | 00:00:00 | |
| DL1XH-15 | 2026-09-02 23:21:10 | 54.03360 | 13.87676 | 126° | 100km/h | 10274m | 4.1m/s | -53.4°C | 60% | 259.4hPa | 2.8V | 08:30:00 | 01:01:35 | 00:00:00 | |
| AA1-15 | 2026-09-02 23:21:03 | 54.03388 | 13.87606 | 123° | 99km/h | 10266m | 4.9m/s | -53.4°C | 59.4% | 259.8hPa | 2.8V | 18:12:15 | 01:01:33 | 00:00:00 | |
| DG6HD-11 | 2026-09-02 23:21:03 | 54.03388 | 13.87606 | 123° | 97km/h | 10266m | 4.8m/s | -53.3°C | 61.6% | 259.7hPa | 2.7V | 00:00:00 | 00:00:00 | 00:00:00 | |
| DO2SHX-10 | 2026-09-02 23:21:02 | 54.03401 | 13.87570 | 121° | 97km/h | 10262m | 3.4m/s | -53.3°C | 62.5% | 259.9hPa | 2.7V | 00:00:00 | 01:01:32 | 00:00:00 | |
| AM1SDL-15 | 2026-09-02 23:21:01 | 54.03413 | 13.87534 | 120° | 95km/h | 10259m | 3.4m/s | -53.3°C | 63.0% | 260.0hPa | 2.7V | 00:00:00 | 01:01:31 | 00:00:00 | |
| DO2SHX-10 | 2026-09-02 23:20:59 | 54.03438 | 13.87462 | 122° | 99km/h | 10250m | 5.0m/s | -53.3°C | 64.9% | 260.4hPa | 2.7V | 00:00:00 | 01:01:29 | 00:00:00 | |
| DL1XH-15 | 2026-09-02 23:20:57 | 54.03494 | 13.87321 | 126° | 97km/h | 10233m | 5.2m/s | -53.2°C | 66.8% | 261.1hPa | 2.7V | 08:30:00 | 01:01:25 | 00:00:00 | |
| AA1-15 | 2026-09-02 23:20:52 | 54.03537 | 13.87223 | 126° | 95km/h | 10221m | 4.2m/s | -53.2°C | 67.8% | 261.6hPa | 2.8V | 18:12:15 | 01:01:22 | 00:00:00 | |
| DL1XH-15 | 2026-09-02 23:20:50 | 54.03621 | 13.86989 | 121° | 91km/h | 10194m | 4.2m/s | -53.2°C | 79.3% | 262.6hPa | 2.7V | 08:30:00 | 01:01:15 | 00:00:00 | |
| S3001 | 2026-09-02 23:20:46 | 54.03621 | 13.86989 | 121° | 91km/h | 10194m | 4.2m/s | -53.2°C | 71.4% | 262.6hPa | 2.8V | 00:00:00 | 00:00:00 | 00:00:00 | |
| AA1-15 | 2026-09-02 23:20:42 | 54.03659 | 13.86887 | 122° | 97km/h | 10182m | 4.4m/s | -53.3°C | 77% | 263.1hPa | 2.8V | 18:12:15 | 01:01:12 | 00:00:00 | |
| DO2SHX-10 | 2026-09-02 23:20:41 | 54.03673 | 13.86851 | 122° | 100km/h | 10178m | 4.2m/s | -53.2°C | 81.2% | 263.3hPa | 2.7V | 00:00:00 | 01:01:11 | 08:30:00 | |
| DO2SHX-10 | 2026-09-02 23:20:38 | 54.03713 | 13.86739 | 122° | 100km/h | 10166m | 4.0m/s | -53.3°C | 82.0% | 263.7hPa | 2.7V | 00:00:00 | 01:01:08 | 00:00:00 | |
| DL1XH-15 | 2026-09-02 23:20:37 | 54.03753 | 13.86628 | 120° | 99km/h | 10154m | 3.5m/s | -53.3°C | 84.4% | 264.3hPa | 2.7V | 08:30:00 | 01:01:05 | 00:00:00 | |
| AA1-15 | 2026-09-02 23:20:31 | 54.03801 | 13.86485 | 118° | 95km/h | 10139m | 3.9m/s | -53.2°C | 79.7% | 264.9hPa | 2.8V | 18:12:15 | 01:01:01 | 00:00:00 | |
| DL1XH-15 | 2026-09-02 23:20:30 | 54.03870 | 13.86276 | 121° | 93km/h | 10117m | 4.7m/s | -53.1°C | 79.4% | 265.8hPa | 2.7V | 08:30:00 | 01:00:55 | 00:00:00 | |
| AA1-15 | 2026-09-02 23:20:21 | 54.03920 | 13.86137 | 119° | 95km/h | 10102m | 3.4m/s | -53°C | 71.1% | 266.4hPa | 2.8V | 18:12:15 | 01:00:51 | 00:00:00 | |
| AA1-15 | 2026-09-02 23:20:10 | 54.04035 | 13.85765 | 119° | 91km/h | 10059m | 5.3m/s | -52.7°C | 70.8% | 268.2hPa | 2.7V | 18:12:15 | 01:00:40 | 00:00:00 | |
| DL1XH-west | 2026-09-02 23:20:07 | 54.04068 | 13.85662 | 118° | 91km/h | 10046m | 3.8m/s | -52.6°C | 72.1% | 268.8hPa | 2.8V | 18:12:15 | 01:00:37 | 00:00:00 | |
| AA1-15 | 2026-09-02 23:19:59 | 54.04150 | 13.85379 | 116° | 88km/h | 10010m | 5.7m/s | -52.2°C | 75.6% | 270.3hPa | 2.7V | 18:12:15 | 01:00:29 | 00:00:00 | |
| DO2SHX-10 | 2026-09-02 23:19:59 | 54.04150 | 13.85379 | 117° | 88km/h | 10011m | 5.6m/s | -52.2°C | 81.1% | 270.2hPa | 2.8V | 00:00:00 | 01:00:29 | 00:00:00 | |
| DL1XH1-15 | 2026-09-02 23:19:58 | 54.04181 | 13.85280 | 118° | 86km/h | 9996m | 5.1m/s | 0°C | 0% | 0hPa | 2.8V | 00:00:00 | 01:00:26 | 00:00:00 | |
| DL1XH-15 | 2026-09-02 23:19:57 | 54.04191 | 13.85248 | 117° | 86km/h | 9992m | 4.2m/s | -52.1°C | 82.9% | 271hPa | 2.7V | 08:30:00 | 01:00:25 | 00:00:00 | |
| DL1XH-west | 2026-09-02 23:19:57 | 54.04171 | 13.85313 | 118° | 86km/h | 10002m | 6.1m/s | -52.1°C | 76.4% | 270.6hPa | 2.8V | 18:12:15 | 01:00:27 | 00:00:00 | |
| SONDE2-11 | 2026-09-02 23:19:54 | 54.04281 | 13.84954 | 111° | 91km/h | 9952m | 3.8m/s | -51.8°C | 79.6% | 272.7hPa | 2.8V | 00:00:00 | 00:00:00 | 00:00:00 | |
| DO2SHX-10 | 2026-09-02 23:19:53 | 54.04210 | 13.85184 | 118° | 82km/h | 9984m | 4.9m/s | -51.9°C | 82.8% | 271.3hPa | 2.8V | 00:00:00 | 01:00:23 | 00:00:00 | |
| DL1XH1-15 | 2026-09-02 23:19:51 | 54.04281 | 13.84954 | 111° | 93km/h | 9952m | 3.8m/s | 0°C | 0% | 0hPa | 2.8V | 00:00:00 | 01:00:16 | 00:00:00 | |
| DL1XH-15 | 2026-09-02 23:19:50 | 54.04290 | 13.84917 | 111° | 91km/h | 9948m | 4m/s | -51.8°C | 86.7% | 272.9hPa | 2.7V | 08:30:00 | 01:00:15 | 00:00:00 | |
| AA1-15 | 2026-09-02 23:19:49 | 54.04251 | 13.85059 | 119° | 88km/h | 9965m | 3.6m/s | -51.9°C | 79.5% | 272.2hPa | 2.7V | 18:12:15 | 01:00:19 | 00:00:00 | |
| DL1XH-west | 2026-09-02 23:19:46 | 54.04281 | 13.84954 | 112° | 93km/h | 9952m | 3.8m/s | -51.8°C | 79.7% | 272.7hPa | 2.8V | 18:12:15 | 01:00:16 | 00:00:00 | |
| SP3BTT-10 | 2026-09-02 23:19:46 | 54.04281 | 13.84954 | 112° | 88km/h | 9952m | 3.7m/s | -51.7°C | 87.6% | 272.7hPa | 2.8V | 00:00:00 | 00:00:00 | 00:00:00 | |
| DO2SHX-10 | 2026-09-02 23:19:44 | 54.04298 | 13.84881 | 114° | 88km/h | 9944m | 4.0m/s | -51.7°C | 86.4% | 273.0hPa | 2.8V | 00:00:00 | 01:00:14 | 00:00:00 | |
| S3001 | 2026-09-02 23:19:43 | 54.04308 | 13.84847 | 116° | 86km/h | 9940m | 4.3m/s | -51.7°C | 77.6% | 273.3hPa | 2.8V | 00:00:00 | 00:00:00 | 00:00:00 | |
| DO2SHX-10 | 2026-09-02 23:19:41 | 54.04329 | 13.84782 | 122° | 88km/h | 9932m | 5.0m/s | -51.6°C | 82.6% | 273.5hPa | 2.8V | 00:00:00 | 01:00:11 | 00:00:00 | |
| DL1XH1-15 | 2026-09-02 23:19:40 | 54.04383 | 13.84619 | 116° | 86km/h | 9909m | 3.9m/s | 0°C | 0% | 0hPa | 2.8V | 00:00:00 | 01:00:06 | 00:00:00 | |
| AA1-15 | 2026-09-02 23:19:38 | 54.04363 | 13.84685 | 120° | 88km/h | 9918m | 4.9m/s | -51.5°C | 76.5% | 274.2hPa | 2.7V | 18:12:15 | 01:00:08 | 00:00:00 | |
| DO2SHX-10 | 2026-09-02 23:19:38 | 54.04363 | 13.84685 | 120° | 86km/h | 9918m | 4.8m/s | -51.4°C | 82.1% | 274.1hPa | 2.7V | 00:00:00 | 01:00:08 | 00:00:00 | |
| DL1XH-15 | 2026-09-02 23:19:37 | 54.04393 | 13.84586 | 115° | 86km/h | 9905m | 3.9m/s | -51.4°C | 80.2% | 274.7hPa | 2.8V | 08:30:00 | 01:00:05 | 00:00:00 | |
| DL1XH-west | 2026-09-02 23:19:36 | 54.04384 | 13.84619 | 116° | 86km/h | 9909m | 3.9m/s | -51.4°C | 75.7% | 274.5hPa | 2.8V | 18:12:15 | 01:00:06 | 00:00:00 | |
| DO2SHX-10 | 2026-09-02 23:19:35 | 54.04393 | 13.84586 | 116° | 88km/h | 9905m | 3.9m/s | -51.3°C | 80.2% | 274.7hPa | 2.8V | 00:00:00 | 01:00:05 | 00:00:00 | |
| DG6HD-11 | 2026-09-02 23:19:33 | 54.04412 | 13.84518 | 114° | 88km/h | 9896m | 5.9m/s | -51.2°C | 78.7% | 275.0hPa | 2.8V | 00:00:00 | 00:00:00 | 00:00:00 | |
| DO2SHX-10 | 2026-09-02 23:19:32 | 54.04421 | 13.84482 | 114° | 93km/h | 9890m | 5.0m/s | -51.2°C | 78.4% | 275.2hPa | 2.8V | 00:00:00 | 01:00:02 | 00:00:00 | |
| DL1XH-15 | 2026-09-02 23:19:30 | 54.04489 | 13.84234 | 116° | 88km/h | 9859m | 3.1m/s | -51°C | 78.3% | 276.7hPa | 2.8V | 08:30:00 | 00:59:55 | 00:00:00 | |
| DO2SHX-10 | 2026-09-02 23:19:29 | 54.04449 | 13.84373 | 114° | 91km/h | 9876m | 3.6m/s | -51.1°C | 78.7% | 275.9hPa | 2.7V | 00:00:00 | 00:59:59 | 00:00:00 | |
| DL1XH1-15 | 2026-09-02 23:19:28 | 54.04478 | 13.84268 | 117° | 88km/h | 9863m | 4.5m/s | 0°C | 0% | 0hPa | 2.7V | 00:00:00 | 00:59:56 | 00:00:00 | |
| AA1-15 | 2026-09-02 23:19:28 | 54.04459 | 13.84337 | 115° | 91km/h | 9872m | 5.1m/s | -51.1°C | 73.7% | 276.1hPa | 2.8V | 18:12:15 | 00:59:58 | 00:00:00 | |
| DL1XH-west | 2026-09-02 23:19:26 | 54.04479 | 13.84268 | 117° | 88km/h | 9863m | 4.5m/s | -51°C | 73.2% | 276.5hPa | 2.7V | 18:12:15 | 00:59:56 | 00:00:00 | |
| DO2SHX-10 | 2026-09-02 23:19:26 | 54.04479 | 13.84268 | 118° | 88km/h | 9863m | 4.4m/s | -50.9°C | 78.1% | 276.5hPa | 2.7V | 00:00:00 | 00:59:56 | 00:00:00 | |
| DL1XH1-15 | 2026-09-02 23:19:21 | 54.04568 | 13.83920 | 111° | 89km/h | 9821m | 2.8m/s | 0°C | 0% | 0hPa | 2.7V | 00:00:00 | 00:59:46 | 00:00:00 | |
| AA1-15 | 2026-09-02 23:19:17 | 54.04560 | 13.83955 | 111° | 88km/h | 9826m | 5.5m/s | -50.7°C | 73.8% | 278.1hPa | 2.7V | 18:12:15 | 00:59:47 | 00:00:00 | |
| DL1XH-15 | 2026-09-02 23:19:17 | 54.04576 | 13.83884 | 111° | 89km/h | 9818m | 5m/s | -50.6°C | 80% | 278.4hPa | 2.8V | 08:30:00 | 00:59:45 | 00:00:00 | |
| DL1XH-west | 2026-09-02 23:19:16 | 54.04568 | 13.83920 | 112° | 89km/h | 9822m | 2.8m/s | -50.6°C | 74.2% | 278.3hPa | 2.7V | 18:12:15 | 00:59:46 | 00:00:00 | |
| DO2SHX-10 | 2026-09-02 23:19:14 | 54.04584 | 13.83849 | 112° | 88km/h | 9813m | 5.0m/s | -50.6°C | 80.7% | 278.6hPa | 2.7V | 00:00:00 | 00:59:44 | 00:00:00 | |
| S3001 | 2026-09-02 23:19:12 | 54.04602 | 13.83780 | 114° | 84km/h | 9803m | 5.0m/s | -50.5°C | 72.6% | 279.0hPa | 2.7V | 00:00:00 | 00:00:00 | 00:00:00 | |
| DO2SHX-10 | 2026-09-02 23:19:11 | 54.04610 | 13.83747 | 117° | 82km/h | 9798m | 4.6m/s | -50.4°C | 79.4% | 279.2hPa | 2.7V | 00:00:00 | 00:59:41 | 00:00:00 | |
| DL1XH-15 | 2026-09-02 23:19:10 | 54.04671 | 13.83556 | 116° | 86km/h | 9770m | 4.5m/s | -50.2°C | 83.2% | 280.4hPa | 2.7V | 08:30:00 | 00:59:35 | 00:00:00 | |
| AA1-15 | 2026-09-02 23:19:06 | 54.04661 | 13.83588 | 118° | 86km/h | 9775m | 4.9m/s | -50.3°C | 77.3% | 280.2hPa | 2.7V | 18:12:15 | 00:59:36 | 00:00:00 | |
| DL1XH-west | 2026-09-02 23:19:05 | 54.04671 | 13.83556 | 117° | 86km/h | 9770m | 4.5m/s | -50.2°C | 77.7% | 280.4hPa | 2.7V | 18:12:15 | 00:59:35 | 00:00:00 | |
| DO2SHX-10 | 2026-09-02 23:19:05 | 54.04671 | 13.83556 | 117° | 86km/h | 9770m | 4.5m/s | -50.2°C | 83.2% | 280.4hPa | 2.7V | 00:00:00 | 00:59:35 | 00:00:00 | |
| DG6HD-11 | 2026-09-02 23:19:03 | 54.04690 | 13.83490 | 115° | 84km/h | 9763m | 4.0m/s | -50.1°C | 83.0% | 280.7hPa | 2.7V | 00:00:00 | 00:00:00 | 00:00:00 | |
| DO2SHX-10 | 2026-09-02 23:19:02 | 54.04699 | 13.83456 | 114° | 88km/h | 9758m | 4.6m/s | -50.1°C | 83.1% | 280.9hPa | 2.7V | 00:00:00 | 00:59:32 | 00:00:00 | |
| DO2SHX-10 | 2026-09-02 23:18:59 | 54.04724 | 13.83350 | 113° | 89km/h | 9747m | 4.6m/s | -50.0°C | 83.8% | 281.4hPa | 2.7V | 00:00:00 | 00:59:29 | 00:00:00 | |
| DL1XH-15 | 2026-09-02 23:18:57 | 54.04758 | 13.83210 | 110° | 84km/h | 9731m | 3.2m/s | -49.9°C | 85.7% | 282.2hPa | 2.7V | 08:30:00 | 00:59:25 | 00:00:00 | |
| AA1-15 | 2026-09-02 23:18:56 | 54.04750 | 13.83244 | 111° | 86km/h | 9735m | 4.4m/s | -49.9°C | 79.3% | 282hPa | 2.8V | 18:12:15 | 00:59:26 | 00:00:00 | |
| DL1XH-west | 2026-09-02 23:18:54 | 54.04765 | 13.83176 | 111° | 82km/h | 9728m | 4m/s | -49.9°C | 79.7% | 282.3hPa | 2.7V | 18:12:15 | 00:59:24 | 00:00:00 | |
| SONDE2-11 | 2026-09-02 23:18:52 | 54.04790 | 13.83079 | 114° | 82km/h | 9717m | 4.5m/s | -49.8°C | 78.3% | 282.8hPa | 2.7V | 00:00:00 | 00:00:00 | 00:00:00 | |
| DL1XH-15 | 2026-09-02 23:18:50 | 54.04844 | 13.82880 | 113° | 89km/h | 9692m | 3.9m/s | -49.5°C | 87.8% | 283.8hPa | 2.7V | 08:30:00 | 00:59:15 | 00:00:00 | |
| AA1-15 | 2026-09-02 23:18:45 | 54.04844 | 13.82880 | 113° | 89km/h | 9692m | 3.9m/s | -49.5°C | 80.2% | 283.8hPa | 2.7V | 18:12:15 | 00:59:15 | 00:00:00 | |
| DL1XH-west | 2026-09-02 23:18:44 | 54.04853 | 13.82844 | 112° | 89km/h | 9689m | 2.9m/s | -49.5°C | 80.3% | 284hPa | 2.7V | 18:12:15 | 00:59:14 | 00:00:00 | |
| DO2SHX-10 | 2026-09-02 23:18:44 | 54.04853 | 13.82844 | 112° | 88km/h | 9689m | 2.9m/s | -49.5°C | 87.5% | 283.9hPa | 2.7V | 00:00:00 | 00:59:14 | 00:00:00 | |
| DO2SHX-10 | 2026-09-02 23:18:41 | 54.04877 | 13.82740 | 113° | 80km/h | 9677m | 4.2m/s | -49.3°C | 86.4% | 284.5hPa | 2.8V | 00:00:00 | 00:59:11 | 00:00:00 | |
| DO2SHX-10 | 2026-09-02 23:18:38 | 54.04902 | 13.82646 | 116° | 77km/h | 9664m | 4.0m/s | -49.2°C | 86.9% | 285.0hPa | 2.8V | 00:00:00 | 00:59:08 | 00:00:00 | |
| DL1XH-15 | 2026-09-02 23:18:37 | 54.04928 | 13.82557 | 118° | 80km/h | 9653m | 4m/s | -49.2°C | 89.9% | 285.5hPa | 2.8V | 08:30:00 | 00:59:05 | 00:00:00 | |
| AA1-15 | 2026-09-02 23:18:34 | 54.04938 | 13.82526 | 118° | 84km/h | 9649m | 3.7m/s | -49.1°C | 83.7% | 285.7hPa | 2.7V | 18:12:15 | 00:59:04 | 00:00:00 | |
| DL1XH-west | 2026-09-02 23:18:32 | 54.04958 | 13.82458 | 114° | 91km/h | 9642m | 3.9m/s | -49.1°C | 83.5% | 286hPa | 2.8V | 18:12:15 | 00:59:02 | 00:00:00 | |
| DO2SHX-10 | 2026-09-02 23:18:32 | 54.04958 | 13.82458 | 114° | 93km/h | 9642m | 3.8m/s | -49.0°C | 0% | 286.0hPa | 2.8V | 00:00:00 | 00:59:02 | 00:00:00 | |
| DL1XH-15 | 2026-09-02 23:18:30 | 54.05019 | 13.82209 | 115° | 80km/h | 9614m | 5.6m/s | -48.8°C | 90.8% | 287.2hPa | 2.8V | 08:30:00 | 00:58:55 | 00:00:00 | |
| AA1-15 | 2026-09-02 23:18:23 | 54.05037 | 13.82148 | 116° | 78km/h | 9605m | 4m/s | -48.7°C | 83.9% | 287.6hPa | 2.7V | 18:12:15 | 00:58:53 | 00:00:00 | |
| DL1XH-west | 2026-09-02 23:18:22 | 54.05045 | 13.82117 | 114° | 78km/h | 9601m | 3.6m/s | -48.7°C | 84% | 287.8hPa | 2.7V | 18:12:15 | 00:58:52 | 00:00:00 | |
| DO2SHX-10 | 2026-09-02 23:18:20 | 54.05061 | 13.82054 | 113° | 88km/h | 9592m | 4.4m/s | 0°C | 0% | 0hPa | 2.8V | 00:00:00 | 00:58:50 | 00:00:00 | |
| DL1XH-15 | 2026-09-02 23:18:17 | 54.05104 | 13.81877 | 114° | 89km/h | 9569m | 5.4m/s | -48.3°C | 92% | 289.2hPa | 2.8V | 08:30:00 | 00:58:45 | 00:00:00 | |
| AA1-15 | 2026-09-02 23:18:12 | 54.05132 | 13.81776 | 116° | 82km/h | 9554m | 5.3m/s | -48.2°C | 85.5% | 289.9hPa | 2.8V | 18:12:15 | 00:58:42 | 00:00:00 | |
| DL1XH-west | 2026-09-02 23:18:11 | 54.05141 | 13.81744 | 115° | 80km/h | 9549m | 4.8m/s | -48.1°C | 85.7% | 290.1hPa | 2.7V | 18:12:15 | 00:58:41 | 00:00:00 | |
| DO2SHX-10 | 2026-09-02 23:18:11 | 54.05141 | 13.81744 | 115° | 77km/h | 9549m | 4.8m/s | 0°C | 0% | 0hPa | 2.7V | 00:00:00 | 00:58:41 | 00:00:00 | |
| DL1XH-15 | 2026-09-02 23:18:10 | 54.05182 | 13.81560 | 104° | 84km/h | 9518m | 5.4m/s | -47.9°C | 91.1% | 291.4hPa | 2.7V | 08:30:00 | 00:58:35 | 00:00:00 | |
| DO2SHX-10 | 2026-09-02 23:18:08 | 54.05164 | 13.81655 | 111° | 77km/h | 9534m | 5.3m/s | 0°C | 0% | 0hPa | 2.8V | 00:00:00 | 00:58:38 | 00:00:00 | |
| MECKS9 | 2026-09-02 23:18:07 | 54.05164 | 13.81655 | 112° | 75km/h | 9534m | 5.3m/s | -48.0°C | 84.2% | 290.7hPa | 2.8V | 00:00:00 | 00:00:00 | 00:00:00 | |
| DL1XH1-15 | 2026-09-02 23:18:05 | 54.05210 | 13.81413 | 113° | 91km/h | 9500m | 3.8m/s | 0°C | 0% | 0hPa | 2.8V | 00:00:00 | 00:58:31 | 00:00:00 | |
| AA1-15 | 2026-09-02 23:18:02 | 54.05202 | 13.81450 | 111° | 91km/h | 9504m | 4m/s | -47.8°C | 84.9% | 292.1hPa | 2.8V | 18:12:15 | 00:58:32 | 00:00:00 | |
| DL1XH-west | 2026-09-02 23:18:00 | 54.05220 | 13.81378 | 116° | 89km/h | 9495m | 4.6m/s | -47.7°C | 85.1% | 292.4hPa | 2.7V | 18:12:15 | 00:58:30 | 00:00:00 | |
| DO2SHX-10 | 2026-09-02 23:17:59 | 54.05230 | 13.81344 | 118° | 82km/h | 9491m | 5.3m/s | 0°C | 0% | 0hPa | 2.7V | 00:00:00 | 00:58:29 | 00:00:00 | |
| SP3BTT-10 | 2026-09-02 23:17:57 | 54.05251 | 13.81282 | 121° | 80km/h | 9481m | 4.2m/s | -47.5°C | 92.8% | 293.0hPa | 2.7V | 00:00:00 | 00:00:00 | 08:30:00 | |
| DO2SHX-10 | 2026-09-02 23:17:56 | 54.05261 | 13.81253 | 120° | 78km/h | 9477m | 4.5m/s | 0°C | 0% | 0hPa | 2.8V | 00:00:00 | 00:58:26 | 00:00:00 | |
| DL1XH1-15 | 2026-09-02 23:17:55 | 54.05303 | 13.81061 | 106° | 86km/h | 9446m | 4.5m/s | 0°C | 0% | 0hPa | 2.8V | 00:00:00 | 00:58:20 | 00:00:00 | |
| AA1-15 | 2026-09-02 23:17:51 | 54.05297 | 13.81096 | 105° | 82km/h | 9452m | 5.9m/s | -47.3°C | 86.2% | 294.4hPa | 2.8V | 18:12:15 | 00:58:21 | 00:00:00 | |
| DL1XH-west | 2026-09-02 23:17:50 | 54.05303 | 13.81061 | 107° | 86km/h | 9446m | 4.5m/s | -47.3°C | 86.2% | 0hPa | 2.8V | 18:12:15 | 00:58:20 | 00:00:00 | |
| DO2SHX-10 | 2026-09-02 23:17:50 | 54.05303 | 13.81061 | 107° | 88km/h | 9447m | 4.4m/s | 0°C | 0% | 0hPa | 2.8V | 00:00:00 | 00:58:20 | 00:00:00 | |
| DO2SHX-10 | 2026-09-02 23:17:47 | 54.05327 | 13.80953 | 115° | 88km/h | 9431m | 4.5m/s | 0°C | 0% | 0hPa | 2.8V | 00:00:00 | 00:58:17 | 00:00:00 | |
| DL1XH1-15 | 2026-09-02 23:17:45 | 54.05384 | 13.80725 | 104° | 80km/h | 9400m | 4.9m/s | 0°C | 0% | 0hPa | 2.8V | 00:00:00 | 00:58:10 | 00:00:00 | |
| AA1-15 | 2026-09-02 23:17:40 | 54.05384 | 13.80725 | 105° | 80km/h | 9400m | 4.9m/s | -46.9°C | 84% | 296.6hPa | 2.8V | 18:12:15 | 00:58:10 | 00:00:00 | |
| DL1XH-west | 2026-09-02 23:17:39 | 54.05389 | 13.80692 | 104° | 80km/h | 9394m | 7.3m/s | -46.8°C | 83.3% | 0hPa | 2.8V | 18:12:15 | 00:58:09 | 00:00:00 | |
| DL1XH-15 | 2026-09-02 23:17:37 | 54.05414 | 13.80556 | 111° | 84km/h | 9374m | 3.2m/s | -46.6°C | 90.3% | 297.8hPa | 2.8V | 08:30:00 | 00:58:05 | 00:00:00 | |
| DL1XH1-15 | 2026-09-02 23:17:35 | 54.05455 | 13.80391 | 111° | 86km/h | 9353m | 4m/s | 0°C | 0% | 0hPa | 2.8V | 00:00:00 | 00:58:00 | 00:00:00 | |
| DO2SHX-10 | 2026-09-02 23:17:35 | 54.05414 | 13.80556 | 112° | 82km/h | 9374m | 3.2m/s | 0°C | 0% | 0hPa | 2.7V | 00:00:00 | 00:58:05 | 00:00:00 | |
| DL1XH-15 | 2026-09-02 23:17:30 | 54.05494 | 13.80224 | 112° | 78km/h | 9332m | 3.7m/s | -46.2°C | 88.7% | 299.6hPa | 2.7V | 08:30:00 | 00:57:55 | 00:00:00 | |
| AA1-15 | 2026-09-02 23:17:29 | 54.05463 | 13.80357 | 111° | 86km/h | 9349m | 3.7m/s | -46.4°C | 82.6% | 298.9hPa | 2.8V | 18:12:15 | 00:57:59 | 00:00:00 | |
| DL1XH-west | 2026-09-02 23:17:28 | 54.05471 | 13.80323 | 112° | 86km/h | 9345m | 4.4m/s | -46.4°C | 82.6% | 0hPa | 2.8V | 18:12:15 | 00:57:58 | 00:00:00 | |
| DL1XH-west | 2026-09-02 23:17:18 | 54.05545 | 13.80015 | 112° | 82km/h | 9304m | 4.8m/s | 0°C | 0% | 0hPa | 2.8V | 18:12:15 | 00:57:48 | 00:00:00 | |
| DL1XH-15 | 2026-09-02 23:17:17 | 54.05569 | 13.79912 | 110° | 88km/h | 9291m | 4.5m/s | -45.9°C | 87.5% | 301.5hPa | 2.8V | 08:30:00 | 00:57:45 | 00:00:00 | |
| DO2SHX-10 | 2026-09-02 23:17:15 | 54.05569 | 13.79912 | 111° | 88km/h | 9291m | 4.5m/s | 0°C | 0% | 0hPa | 2.8V | 00:00:00 | 00:57:45 | 00:00:00 | |
| DO2SHX-10 | 2026-09-02 23:17:12 | 54.05593 | 13.79809 | 113° | 80km/h | 9279m | 3.5m/s | 0°C | 0% | 0hPa | 2.8V | 00:00:00 | 00:57:42 | 00:00:00 | |
| AM1SDL-15 | 2026-09-02 23:17:11 | 54.05601 | 13.79777 | 113° | 78km/h | 9275m | 4.1m/s | -45.6°C | 88.1% | 302.2hPa | 2.8V | 00:00:00 | 00:57:41 | 00:00:00 | |
| DL1XH-15 | 2026-09-02 23:17:10 | 54.05649 | 13.79594 | 114° | 77km/h | 9250m | 4m/s | -45.5°C | 87.7% | 303.4hPa | 2.8V | 08:30:00 | 00:57:35 | 00:00:00 | |
| DL1XH-west | 2026-09-02 23:17:08 | 54.05625 | 13.79685 | 114° | 77km/h | 9263m | 4.6m/s | 0°C | 0% | 0hPa | 2.7V | 18:12:15 | 00:57:38 | 00:00:00 | |
| AA1-15 | 2026-09-02 23:17:07 | 54.05633 | 13.79654 | 115° | 77km/h | 9259m | 3.8m/s | -45.6°C | 81.1% | 302.9hPa | 2.7V | 18:12:15 | 00:57:37 | 00:00:00 | |
| MECKS9 | 2026-09-02 23:17:05 | 54.05641 | 13.79624 | 116° | 77km/h | 9255m | 4.8m/s | -45.5°C | 80.7% | 303.1hPa | 2.7V | 00:00:00 | 00:00:00 | 00:00:00 | |
| DO2SHX-10 | 2026-09-02 23:17:04 | 54.05657 | 13.79564 | 114° | 78km/h | 9247m | 3.9m/s | 0°C | 0% | 0hPa | 2.7V | 00:00:00 | 00:57:34 | 00:00:00 | |
| DO2SHX-10 | 2026-09-02 23:17:01 | 54.05680 | 13.79468 | 111° | 82km/h | 9235m | 5.3m/s | 0°C | 0% | 0hPa | 2.7V | 00:00:00 | 00:57:31 | 00:00:00 | |
| DO2SHX-10 | 2026-09-02 23:16:58 | 54.05701 | 13.79368 | 110° | 82km/h | 9222m | 3.3m/s | 0°C | 0% | 0hPa | 2.7V | 00:00:00 | 00:57:28 | 00:00:00 | |
| DL1XH-15 | 2026-09-02 23:16:57 | 54.05722 | 13.79270 | 110° | 78km/h | 9209m | 4.3m/s | -45.1°C | 84.8% | 305.2hPa | 2.7V | 08:30:00 | 00:57:25 | 00:00:00 | |
| AA1-15 | 2026-09-02 23:16:57 | 54.05708 | 13.79334 | 110° | 82km/h | 9218m | 3.6m/s | -45.2°C | 78.8% | 304.8hPa | 2.8V | 18:12:15 | 00:57:27 | 00:00:00 | |
| DO2SHX-10 | 2026-09-02 23:16:55 | 54.05721 | 13.79270 | 111° | 78km/h | 9209m | 4.3m/s | 0°C | 0% | 0hPa | 2.8V | 00:00:00 | 00:57:25 | 00:00:00 | |
| MECKS9 | 2026-09-02 23:16:54 | 54.05721 | 13.79270 | 111° | 78km/h | 9209m | 4.3m/s | -45.1°C | 78.5% | 305.2hPa | 2.8V | 00:00:00 | 00:00:00 | 00:00:00 | |
| DO2SHX-10 | 2026-09-02 23:16:52 | 54.05744 | 13.79175 | 115° | 80km/h | 9197m | 3.5m/s | 0°C | 0% | 0hPa | 2.8V | 00:00:00 | 00:57:22 | 00:00:00 | |
| DL1XH-15 | 2026-09-02 23:16:50 | 54.05806 | 13.78958 | 114° | 78km/h | 9169m | 4.8m/s | -44.7°C | 82.3% | 307.1hPa | 2.8V | 08:30:00 | 00:57:15 | 00:00:00 | |
| AA1-15 | 2026-09-02 23:16:46 | 54.05797 | 13.78989 | 115° | 80km/h | 9173m | 3.4m/s | -44.7°C | 76.4% | 306.9hPa | 2.8V | 18:12:15 | 00:57:16 | 00:00:00 | |
| SP3BTT-10 | 2026-09-02 23:16:45 | 54.05805 | 13.78958 | 115° | 77km/h | 9169m | 4.7m/s | -44.6°C | 82.3% | 307.0hPa | 2.8V | 00:00:00 | 00:00:00 | 00:00:00 | |
| MECKS9 | 2026-09-02 23:16:40 | 54.05834 | 13.78834 | 111° | 77km/h | 9153m | 3.9m/s | -44.5°C | 74.9% | 307.8hPa | 2.8V | 00:00:00 | 00:00:00 | 00:00:00 | |
| DG6HD-11 | 2026-09-02 23:16:39 | 54.05848 | 13.78773 | 112° | 77km/h | 9144m | 3.5m/s | -44.4°C | 81.2% | 308.3hPa | 2.8V | 00:00:00 | 00:00:00 | 00:00:00 | |
| DL1XH-15 | 2026-09-02 23:16:37 | 54.05877 | 13.78652 | 114° | 78km/h | 9128m | 4.1m/s | -44.3°C | 80.3% | 309hPa | 2.8V | 08:30:00 | 00:57:05 | 00:00:00 | |
| AA1-15 | 2026-09-02 23:16:35 | 54.05877 | 13.78652 | 115° | 78km/h | 9128m | 4.1m/s | -44.3°C | 74.7% | 309hPa | 2.8V | 18:12:15 | 00:57:05 | 00:00:00 | |
| DL1XH-15 | 2026-09-02 23:16:30 | 54.05954 | 13.78342 | 111° | 75km/h | 9086m | 4.6m/s | -43.9°C | 78.5% | 310.9hPa | 2.7V | 08:30:00 | 00:56:55 | 00:00:00 | |
| AA1-15 | 2026-09-02 23:16:25 | 54.05955 | 13.78342 | 111° | 75km/h | 9086m | 4.6m/s | -43.9°C | 72.7% | 310.9hPa | 2.7V | 18:12:15 | 00:56:55 | 00:00:00 | |
| DL1XH-15 | 2026-09-02 23:16:17 | 54.06031 | 13.78039 | 111° | 69km/h | 9040m | 3.9m/s | -43.5°C | 79.6% | 313.1hPa | 2.8V | 08:30:00 | 00:56:45 | 00:00:00 | |
| AA1-15 | 2026-09-02 23:16:14 | 54.06037 | 13.78010 | 108° | 69km/h | 9037m | 4.2m/s | -43.5°C | 72.1% | 313.2hPa | 2.8V | 18:12:15 | 00:56:44 | 00:00:00 | |
| DL1XH-15 | 2026-09-02 23:16:10 | 54.06103 | 13.77728 | 114° | 71km/h | 8989m | 4.2m/s | -43°C | 77.7% | 315.4hPa | 2.7V | 08:30:00 | 00:56:35 | 00:00:00 | |
| AA1-15 | 2026-09-02 23:16:03 | 54.06116 | 13.77672 | 111° | 68km/h | 8979m | 5.4m/s | -43°C | 72% | 315.9hPa | 2.8V | 18:12:15 | 00:56:33 | 00:00:00 | |
| DL1XH-15 | 2026-09-02 23:15:57 | 54.06166 | 13.77429 | 112° | 80km/h | 8936m | 3m/s | -42.6°C | 80.2% | 317.9hPa | 2.8V | 08:30:00 | 00:56:25 | 00:00:00 | |
| AA1-15 | 2026-09-02 23:15:53 | 54.06181 | 13.77364 | 111° | 80km/h | 8928m | 5.3m/s | -42.5°C | 72.2% | 318.4hPa | 2.8V | 18:12:15 | 00:56:23 | 00:00:00 | |
| DL1XH-15 | 2026-09-02 23:15:51 | 54.06233 | 13.77105 | 105° | 71km/h | 8885m | 6.6m/s | -42.1°C | 77.4% | 320.3hPa | 2.8V | 08:30:00 | 00:56:15 | 00:00:00 | |
| SONDE2-11 | 2026-09-02 23:15:46 | 54.06227 | 13.77135 | 107° | 73km/h | 8891m | 6.2m/s | -42.2°C | 72.4% | 320.0hPa | 2.8V | 00:00:00 | 00:00:00 | 00:00:00 | |
| AA1-15 | 2026-09-02 23:15:42 | 54.06247 | 13.77016 | 107° | 75km/h | 8871m | 3.4m/s | -42°C | 72.3% | 321hPa | 2.8V | 18:12:15 | 00:56:12 | 00:00:00 | |
| DG6HD-11 | 2026-09-02 23:15:39 | 54.06267 | 13.76927 | 116° | 75km/h | 8854m | 7.1m/s | -41.8°C | 77.3% | 321.7hPa | 2.8V | 00:00:00 | 00:00:00 | 00:00:00 | |
| DL1XH-15 | 2026-09-02 23:15:37 | 54.06304 | 13.76812 | 116° | 77km/h | 8829m | 4.5m/s | -41.6°C | 78.8% | 323hPa | 2.8V | 08:30:00 | 00:56:05 | 00:00:00 | |
| AA1-15 | 2026-09-02 23:15:32 | 54.06328 | 13.76725 | 113° | 69km/h | 8813m | 5.6m/s | -41.5°C | 72.7% | 323.8hPa | 2.8V | 18:12:15 | 00:56:02 | 00:00:00 | |
| DL1XH-15 | 2026-09-02 23:15:30 | 54.06369 | 13.76511 | 107° | 75km/h | 8778m | 4.8m/s | -41.2°C | 81.3% | 325.4hPa | 2.8V | 08:30:00 | 00:55:55 | 00:00:00 | |
| AA1-15 | 2026-09-02 23:15:22 | 54.06390 | 13.76420 | 114° | 78km/h | 8763m | 4.9m/s | -41.1°C | 74.6% | 326.1hPa | 2.8V | 18:12:15 | 00:55:52 | 00:00:00 | |
| DL1XH-15 | 2026-09-02 23:15:17 | 54.06443 | 13.76206 | 111° | 69km/h | 8725m | 3.3m/s | -40.7°C | 80.7% | 328hPa | 2.8V | 08:30:00 | 00:55:45 | 00:00:00 | |
| AA1-15 | 2026-09-02 23:15:12 | 54.06463 | 13.76123 | 113° | 75km/h | 8708m | 5.9m/s | -40.6°C | 73.1% | 328.7hPa | 2.8V | 18:12:15 | 00:55:42 | 00:00:00 | |
| DL1XH-15 | 2026-09-02 23:15:11 | 54.06527 | 13.75905 | 113° | 86km/h | 8672m | 4.2m/s | -40.2°C | 81.4% | 330.4hPa | 2.9V | 08:30:00 | 00:55:35 | 00:00:00 | |
| AA1-15 | 2026-09-02 23:15:01 | 54.06561 | 13.75780 | 118° | 69km/h | 8652m | 5.7m/s | -40.1°C | 74% | 331.4hPa | 2.7V | 18:12:15 | 00:55:31 | 00:00:00 | |
| DL1XH-15 | 2026-09-02 23:14:57 | 54.06604 | 13.75626 | 109° | 71km/h | 8620m | 5.2m/s | -39.7°C | 78.2% | 333hPa | 2.8V | 08:30:00 | 00:55:25 | 00:00:00 | |
| AA1-15 | 2026-09-02 23:14:51 | 54.06632 | 13.75506 | 114° | 73km/h | 8601m | 4.6m/s | -39.6°C | 72.2% | 333.8hPa | 2.9V | 18:12:15 | 00:55:21 | 00:00:00 | |
| DL1XH-15 | 2026-09-02 23:14:50 | 54.06674 | 13.75333 | 113° | 77km/h | 8575m | 3.9m/s | -39.3°C | 75.8% | 335.1hPa | 2.9V | 08:30:00 | 00:55:15 | 00:00:00 | |
| AA1-15 | 2026-09-02 23:14:41 | 54.06706 | 13.75207 | 113° | 78km/h | 8556m | 5.5m/s | -39.2°C | 69.1% | 336.1hPa | 2.8V | 18:12:15 | 00:55:11 | 00:00:00 | |
| AA1-15 | 2026-09-02 23:14:31 | 54.06784 | 13.74923 | 118° | 73km/h | 8512m | 5.5m/s | -38.7°C | 72.1% | 338.2hPa | 2.9V | 18:12:15 | 00:55:01 | 00:00:00 | |
| AA1-15 | 2026-09-02 23:14:20 | 54.06862 | 13.74599 | 107° | 75km/h | 8448m | 5.6m/s | -38.2°C | 73.4% | 341.4hPa | 2.8V | 18:12:15 | 00:54:50 | 00:00:00 | |
| DL1XH-15 | 2026-09-02 23:14:17 | 54.06897 | 13.74436 | 113° | 77km/h | 8419m | 4.8m/s | -37.9°C | 81.8% | 342.9hPa | 2.9V | 08:30:00 | 00:54:45 | 00:00:00 | |
| SP3BTT-10 | 2026-09-02 23:14:16 | 54.06889 | 13.74468 | 113° | 78km/h | 8425m | 5.6m/s | -37.9°C | 80.7% | 342.5hPa | 2.9V | 00:00:00 | 00:00:00 | 00:00:00 | |
| DL1XH-15 | 2026-09-02 23:14:10 | 54.06954 | 13.74146 | 111° | 82km/h | 8367m | 6.8m/s | -37.5°C | 81.3% | 345.3hPa | 2.8V | 08:30:00 | 00:54:35 | 00:00:00 | |
| AA1-15 | 2026-09-02 23:14:09 | 54.06932 | 13.74271 | 104° | 68km/h | 8391m | 5.4m/s | -37.6°C | 74.7% | 344.3hPa | 2.9V | 18:12:15 | 00:54:39 | 00:00:00 | |
| AA1-15 | 2026-09-02 23:13:58 | 54.07011 | 13.73942 | 119° | 71km/h | 8326m | 4.1m/s | -37.1°C | 74.3% | 347.5hPa | 2.8V | 18:12:15 | 00:54:28 | 00:00:00 | |
| DL1XH-15 | 2026-09-02 23:13:57 | 54.07035 | 13.73859 | 113° | 75km/h | 8312m | 5.2m/s | -37°C | 80.9% | 348.2hPa | 2.9V | 08:30:00 | 00:54:25 | 00:00:00 | |
| AA1-15 | 2026-09-02 23:13:47 | 54.07095 | 13.73612 | 117° | 77km/h | 8274m | 4.4m/s | -36.7°C | 75.3% | 350.1hPa | 2.9V | 18:12:15 | 00:54:17 | 00:00:00 | |
| AM1SDL-15 | 2026-09-02 23:13:42 | 54.07130 | 13.73464 | 109° | 73km/h | 8245m | 5.1m/s | -36.4°C | 82.2% | 351.4hPa | 2.7V | 00:00:00 | 00:54:12 | 00:00:00 | |
| DG6HD-11 | 2026-09-02 23:13:39 | 54.07149 | 13.73376 | 116° | 80km/h | 8227m | 4.2m/s | -36.2°C | 82.6% | 352.4hPa | 2.9V | 00:00:00 | 00:00:00 | 00:00:00 | |
| DL1XH-15 | 2026-09-02 23:13:37 | 54.07209 | 13.73163 | 115° | 78km/h | 8185m | 7.4m/s | -35.9°C | 81.7% | 354.6hPa | 2.9V | 08:30:00 | 00:54:02 | 00:00:00 | |
| AA1-15 | 2026-09-02 23:13:37 | 54.07167 | 13.73316 | 117° | 80km/h | 8216m | 5.8m/s | -36.1°C | 76.6% | 353hPa | 2.9V | 18:12:15 | 00:54:07 | 00:00:00 | |
| AA1-15 | 2026-09-02 23:13:26 | 54.07257 | 13.72974 | 111° | 78km/h | 8151m | 5.3m/s | -35.6°C | 77.5% | 356.3hPa | 2.9V | 18:12:15 | 00:53:56 | 00:00:00 | |
| DL1XH-15 | 2026-09-02 23:13:23 | 54.07286 | 13.72854 | 111° | 77km/h | 8130m | 5.5m/s | -35.4°C | 83.9% | 357.5hPa | 2.9V | 08:30:00 | 00:53:52 | 00:00:00 | |
| DL1XH-15 | 2026-09-02 23:13:17 | 54.07359 | 13.72525 | 121° | 77km/h | 8078m | 5.8m/s | -35°C | 84.6% | 360.2hPa | 2.8V | 08:30:00 | 00:53:42 | 00:00:00 | |
| AA1-15 | 2026-09-02 23:13:15 | 54.07332 | 13.72616 | 113° | 82km/h | 8093m | 4.8m/s | -35.1°C | 77.2% | 359.4hPa | 2.9V | 18:12:15 | 00:53:45 | 00:00:00 | |
| AA1-15 | 2026-09-02 23:13:05 | 54.07421 | 13.72306 | 112° | 86km/h | 8037m | 8m/s | -34.6°C | 78.3% | 362.4hPa | 2.8V | 18:12:15 | 00:53:35 | 00:00:00 | |
| DL1XH-15 | 2026-09-02 23:13:03 | 54.07447 | 13.72204 | 112° | 84km/h | 8016m | 6.6m/s | -34.4°C | 84.8% | 363.3hPa | 2.9V | 08:30:00 | 00:53:32 | 00:00:00 | |
| S3001 | 2026-09-02 23:13:00 | 54.07463 | 13.72137 | 110° | 84km/h | 8003m | 6.9m/s | -34.3°C | 80.0% | 363.9hPa | 2.9V | 00:00:00 | 00:00:00 | 00:00:00 | |
| DL1XH-15 | 2026-09-02 23:12:57 | 54.07517 | 13.71888 | 111° | 77km/h | 7959m | 4.8m/s | -33.9°C | 84.1% | 366.5hPa | 2.9V | 08:30:00 | 00:53:22 | 00:00:00 | |
| AA1-15 | 2026-09-02 23:12:55 | 54.07498 | 13.71977 | 109° | 71km/h | 7974m | 5.8m/s | -34.1°C | 77.8% | 365.5hPa | 2.9V | 18:12:15 | 00:53:25 | 00:00:00 | |
| AA1-15 | 2026-09-02 23:12:44 | 54.07580 | 13.71647 | 114° | 69km/h | 7914m | 5.5m/s | -33.5°C | 76.8% | 368.7hPa | 2.9V | 18:12:15 | 00:53:14 | 00:00:00 | |
| DL1XH-15 | 2026-09-02 23:12:43 | 54.07594 | 13.71594 | 114° | 66km/h | 7905m | 5.2m/s | -33.4°C | 82.8% | 369.2hPa | 2.8V | 08:30:00 | 00:53:12 | 00:00:00 | |
| AM1SDL-15 | 2026-09-02 23:12:40 | 54.07610 | 13.71539 | 117° | 80km/h | 7896m | 3.5m/s | -33.3°C | 83.7% | 369.6hPa | 2.9V | 00:00:00 | 00:53:10 | 00:00:00 | |
| DG6HD-11 | 2026-09-02 23:12:39 | 54.07618 | 13.71510 | 118° | 78km/h | 7892m | 5.3m/s | -33.3°C | 82.6% | 369.9hPa | 2.9V | 00:00:00 | 00:00:00 | 00:00:00 | |
| SP3BTT-10 | 2026-09-02 23:12:38 | 54.07628 | 13.71479 | 118° | 78km/h | 7887m | 3.5m/s | -33.2°C | 81.9% | 370.1hPa | 2.9V | 00:00:00 | 00:00:00 | 00:00:00 | |
| DL1XH-15 | 2026-09-02 23:12:37 | 54.07683 | 13.71284 | 111° | 77km/h | 7858m | 5.7m/s | -33°C | 82.6% | 371.6hPa | 2.9V | 08:30:00 | 00:53:02 | 00:00:00 | |
| AA1-15 | 2026-09-02 23:12:34 | 54.07668 | 13.71347 | 114° | 82km/h | 7869m | 5m/s | -33.1°C | 77.8% | 371.1hPa | 2.8V | 18:12:15 | 00:53:04 | 00:00:00 | |
| S3001 | 2026-09-02 23:12:29 | 54.07710 | 13.71159 | 110° | 77km/h | 7834m | 4.7m/s | -32.8°C | 78.9% | 373.0hPa | 2.9V | 00:00:00 | 00:00:00 | 00:00:00 | |
| AM1SDL-15 | 2026-09-02 23:12:28 | 54.07710 | 13.71159 | 111° | 75km/h | 7835m | 4.7m/s | -32.8°C | 83.1% | 372.9hPa | 2.9V | 00:00:00 | 00:52:58 | 00:00:00 | |
| DG6HD-15 | 2026-09-02 23:12:25 | 54.07723 | 13.71098 | 111° | 73km/h | 7825m | 4.3m/s | -32.8°C | 78.7% | 373.5hPa | 2.9V | 00:00:00 | 00:00:00 | 00:00:00 | |
| DL1XH-15 | 2026-09-02 23:12:23 | 54.07747 | 13.70984 | 111° | 71km/h | 7804m | 6m/s | -32.6°C | 83.9% | 374.6hPa | 2.9V | 08:30:00 | 00:52:52 | 00:00:00 | |
| AA1-15 | 2026-09-02 23:12:23 | 54.07741 | 13.71013 | 110° | 69km/h | 7810m | 6.1m/s | -32.6°C | 76.3% | 374.3hPa | 2.9V | 18:12:15 | 00:52:53 | 00:00:00 | |
| DL1XH-15 | 2026-09-02 23:12:17 | 54.07839 | 13.70644 | 110° | 71km/h | 7742m | 5.5m/s | -32°C | 84.4% | 377.9hPa | 2.9V | 08:30:00 | 00:52:41 | 00:00:00 | |
| AA1-15 | 2026-09-02 23:12:12 | 54.07832 | 13.70673 | 113° | 73km/h | 7747m | 4.6m/s | -32.1°C | 79.9% | 377.6hPa | 2.9V | 18:12:15 | 00:52:42 | 00:00:00 | |
| DG6HD-11 | 2026-09-02 23:12:09 | 54.07850 | 13.70586 | 108° | 75km/h | 7731m | 5.6m/s | -31.9°C | 84.8% | 378.3hPa | 2.9V | 00:00:00 | 00:00:00 | 00:00:00 | |
| SP3BTT-10 | 2026-09-02 23:12:08 | 54.07856 | 13.70556 | 109° | 75km/h | 7725m | 5.8m/s | -31.8°C | 85.0% | 378.6hPa | 2.9V | 00:00:00 | 00:00:00 | 08:30:00 | |
| AM1SDL-15 | 2026-09-02 23:12:04 | 54.07885 | 13.70440 | 116° | 73km/h | 7709m | 3.7m/s | -31.7°C | 85.1% | 379.5hPa | 2.8V | 00:00:00 | 00:52:34 | 00:00:00 | |
| DL1XH-15 | 2026-09-02 23:12:03 | 54.07906 | 13.70354 | 108° | 75km/h | 7697m | 3.5m/s | -31.6°C | 86% | 380.3hPa | 2.8V | 08:30:00 | 00:52:31 | 00:00:00 | |
| AA1-15 | 2026-09-02 23:12:02 | 54.07900 | 13.70383 | 110° | 71km/h | 7700m | 3.8m/s | -31.6°C | 79.4% | 380.1hPa | 2.8V | 18:12:15 | 00:52:32 | 00:00:00 | |
| S3001 | 2026-09-02 23:11:58 | 54.07929 | 13.70230 | 107° | 75km/h | 7679m | 3.9m/s | -31.5°C | 82.7% | 381.2hPa | 2.9V | 00:00:00 | 00:00:00 | 00:00:00 | |
| DG6HD-15 | 2026-09-02 23:11:56 | 54.07929 | 13.70230 | 109° | 75km/h | 7679m | 3.9m/s | -31.5°C | 82.8% | 381.2hPa | 2.9V | 00:00:00 | 00:00:00 | 00:00:00 | |
| DL1XH-15 | 2026-09-02 23:11:53 | 54.07960 | 13.70053 | 110° | 75km/h | 7654m | 3.5m/s | -31.2°C | 86.5% | 382.5hPa | 2.9V | 08:30:00 | 00:52:21 | 00:00:00 | |
| AA1-15 | 2026-09-02 23:11:52 | 54.07954 | 13.70083 | 107° | 71km/h | 7658m | 4m/s | -31.3°C | 79.8% | 382.3hPa | 2.9V | 18:12:15 | 00:52:22 | 00:00:00 | |
| DL1XH-15 | 2026-09-02 23:11:43 | 54.08024 | 13.69734 | 112° | 73km/h | 7594m | 4.5m/s | -30.8°C | 87.3% | 385.9hPa | 2.9V | 08:30:00 | 00:52:11 | 00:00:00 | |
| AA1-15 | 2026-09-02 23:11:42 | 54.08017 | 13.69764 | 110° | 77km/h | 7599m | 5.5m/s | -30.8°C | 80.3% | 385.5hPa | 2.9V | 18:12:15 | 00:52:12 | 00:00:00 | |
| AM1SDL-15 | 2026-09-02 23:11:40 | 54.08032 | 13.69706 | 115° | 77km/h | 7589m | 5.6m/s | -30.7°C | 87.0% | 386.0hPa | 2.9V | 00:00:00 | 00:52:10 | 00:00:00 | |
| DG6HD-11 | 2026-09-02 23:11:39 | 54.08039 | 13.69679 | 115° | 77km/h | 7584m | 4.9m/s | -30.7°C | 87.4% | 386.3hPa | 2.9V | 00:00:00 | 00:00:00 | 00:00:00 | |
| SONDE2-11 | 2026-09-02 23:11:38 | 54.08052 | 13.69622 | 110° | 71km/h | 7574m | 5.8m/s | -30.6°C | 83.9% | 386.9hPa | 2.9V | 00:00:00 | 00:00:00 | 00:00:00 | |
| DG6HD-15 | 2026-09-02 23:11:35 | 54.08058 | 13.69591 | 107° | 77km/h | 7568m | 5.0m/s | -30.6°C | 83.8% | 387.3hPa | 2.9V | 00:00:00 | 00:00:00 | 00:00:00 | |
| DL1XH-15 | 2026-09-02 23:11:33 | 54.08083 | 13.69422 | 106° | 80km/h | 7537m | 5.8m/s | -30.3°C | 87.5% | 388.9hPa | 2.9V | 08:30:00 | 00:52:01 | 00:00:00 | |
| AA1-15 | 2026-09-02 23:11:31 | 54.08083 | 13.69422 | 106° | 80km/h | 7537m | 5.8m/s | -30.3°C | 81.8% | 388.9hPa | 2.9V | 18:12:15 | 00:52:01 | 00:00:00 | |
| MECKS9 | 2026-09-02 23:11:30 | 54.08082 | 13.69422 | 107° | 80km/h | 7537m | 5.8m/s | -30.3°C | 83.5% | 388.9hPa | 2.9V | 00:00:00 | 00:00:00 | 00:00:00 | |
| AM1SDL-15 | 2026-09-02 23:11:28 | 54.08103 | 13.69325 | 115° | 75km/h | 7519m | 5.2m/s | -30.1°C | 87.1% | 389.9hPa | 2.9V | 00:00:00 | 00:51:58 | 00:00:00 | |
| S3001 | 2026-09-02 23:11:27 | 54.08119 | 13.69265 | 111° | 75km/h | 7506m | 7.0m/s | -30.1°C | 82.8% | 390.5hPa | 2.9V | 00:00:00 | 00:00:00 | 00:00:00 | |
| DL1XH-15 | 2026-09-02 23:11:23 | 54.08144 | 13.69118 | 101° | 73km/h | 7477m | 3.5m/s | -29.9°C | 86.8% | 392hPa | 2.9V | 08:30:00 | 00:51:51 | 00:00:00 | |
| AA1-15 | 2026-09-02 23:11:21 | 54.08144 | 13.69119 | 102° | 73km/h | 7477m | 3.5m/s | -29.9°C | 81% | 392hPa | 2.9V | 18:12:15 | 00:51:51 | 00:00:00 | |
| MECKS9 | 2026-09-02 23:11:19 | 54.08147 | 13.69087 | 102° | 78km/h | 7473m | 3.6m/s | -29.9°C | 82.9% | 392.2hPa | 2.9V | 00:00:00 | 00:00:00 | 00:00:00 | |
| AM1SDL-15 | 2026-09-02 23:11:16 | 54.08164 | 13.68957 | 106° | 77km/h | 7454m | 5.2m/s | -29.7°C | 87.5% | 393.1hPa | 2.9V | 00:00:00 | 00:51:46 | 08:30:00 | |
| DG6HD-15 | 2026-09-02 23:11:15 | 54.08164 | 13.68957 | 107° | 75km/h | 7454m | 5.3m/s | -29.7°C | 83.6% | 393.2hPa | 2.9V | 00:00:00 | 00:00:00 | 00:00:00 | |
| DL1XH-15 | 2026-09-02 23:11:13 | 54.08195 | 13.68806 | 108° | 77km/h | 7429m | 5.2m/s | -29.5°C | 86.1% | 394.6hPa | 2.9V | 08:30:00 | 00:51:41 | 00:00:00 | |
| AA1-15 | 2026-09-02 23:11:11 | 54.08195 | 13.68806 | 109° | 77km/h | 7429m | 5.2m/s | -29.5°C | 80% | 394.6hPa | 2.9V | 18:12:15 | 00:51:41 | 00:00:00 | |
| DG6HD-11 | 2026-09-02 23:11:09 | 54.08208 | 13.68744 | 109° | 75km/h | 7418m | 4.5m/s | -29.3°C | 86.9% | 395.3hPa | 2.9V | 00:00:00 | 00:00:00 | 00:00:00 | |
| SP3BTT-10 | 2026-09-02 23:11:08 | 54.08214 | 13.68713 | 107° | 78km/h | 7413m | 5.1m/s | -29.3°C | 86.5% | 395.5hPa | 2.9V | 00:00:00 | 00:00:00 | 00:00:00 | |
| SONDE2-11 | 2026-09-02 23:11:07 | 54.08225 | 13.68648 | 106° | 80km/h | 7402m | 3.8m/s | -29.3°C | 82.9% | 396.1hPa | 2.9V | 00:00:00 | 00:00:00 | 00:00:00 | |
| AM1SDL-15 | 2026-09-02 23:11:04 | 54.08236 | 13.68582 | 105° | 75km/h | 7391m | 5.9m/s | -29.1°C | 85.7% | 396.6hPa | 2.9V | 00:00:00 | 00:51:34 | 00:00:00 | |
| DL1XH-15 | 2026-09-02 23:11:03 | 54.08249 | 13.68486 | 102° | 78km/h | 7375m | 4.8m/s | -29.1°C | 86.2% | 397.6hPa | 2.9V | 08:30:00 | 00:51:31 | 00:00:00 | |
| AA1-15 | 2026-09-02 23:11:00 | 54.08254 | 13.68452 | 105° | 80km/h | 7371m | 3m/s | -29°C | 79.9% | 397.9hPa | 2.9V | 18:12:15 | 00:51:30 | 00:00:00 | |
| S3001 | 2026-09-02 23:10:56 | 54.08303 | 13.68218 | 110° | 62km/h | 7327m | 4.4m/s | -28.7°C | 80.0% | 400.3hPa | 2.9V | 00:00:00 | 00:00:00 | 00:00:00 | |
| DG6HD-15 | 2026-09-02 23:10:54 | 54.08285 | 13.68295 | 113° | 69km/h | 7343m | 6.4m/s | -28.8°C | 80.7% | 399.5hPa | 2.9V | 00:00:00 | 00:00:00 | 00:00:00 | |
| AM1SDL-15 | 2026-09-02 23:10:52 | 54.08303 | 13.68218 | 111° | 73km/h | 7328m | 4.4m/s | -28.6°C | 83.7% | 400.2hPa | 2.9V | 00:00:00 | 00:51:22 | 00:00:00 | |
| DL1XH-15 | 2026-09-02 23:10:50 | 54.08340 | 13.68007 | 107° | 75km/h | 7293m | 4.8m/s | -28.4°C | 82.7% | 402.5hPa | 2.9V | 08:30:00 | 00:51:15 | 00:00:00 | |
| AA1-15 | 2026-09-02 23:10:50 | 54.08314 | 13.68164 | 107° | 69km/h | 7319m | 3.9m/s | -28.6°C | 77.7% | 400.8hPa | 2.9V | 18:12:15 | 00:51:20 | 00:00:00 | |
| AA1-15 | 2026-09-02 23:10:41 | 54.08378 | 13.67858 | 115° | 78km/h | 7263m | 6.6m/s | -28.2°C | 77.2% | 404hPa | 2.9V | 18:12:15 | 00:51:10 | 00:00:00 | |
| AM1SDL-15 | 2026-09-02 23:10:41 | 54.08378 | 13.67858 | 115° | 73km/h | 7263m | 6.6m/s | -28.1°C | 80.5% | 403.9hPa | 2.9V | 00:00:00 | 00:51:10 | 00:00:00 | |
| DG6HD-11 | 2026-09-02 23:10:39 | 54.08386 | 13.67827 | 112° | 71km/h | 7258m | 5.4m/s | -28.1°C | 80.6% | 404.4hPa | 2.8V | 00:00:00 | 00:51:09 | 00:00:00 | |
| SP3BTT-10 | 2026-09-02 23:10:38 | 54.08393 | 13.67796 | 111° | 73km/h | 7252m | 5.8m/s | 0°C | 0% | 0hPa | 2.8V | 00:00:00 | 00:00:00 | 00:00:00 | |
| SONDE2-11 | 2026-09-02 23:10:36 | 54.08412 | 13.67705 | 110° | 71km/h | 7236m | 3.8m/s | -28.0°C | 77.5% | 405.6hPa | 2.8V | 00:00:00 | 00:00:00 | 00:00:00 | |
| DG6HD-15 | 2026-09-02 23:10:33 | 54.08418 | 13.67675 | 112° | 73km/h | 7231m | 5.3m/s | -27.9°C | 77.7% | 405.8hPa | 2.8V | 00:00:00 | 00:00:00 | 00:00:00 | |
| DL1XH-15 | 2026-09-02 23:10:30 | 54.08482 | 13.67418 | 114° | 78km/h | 7192m | 4m/s | -27.6°C | 81.5% | 408.1hPa | 2.8V | 08:30:00 | 00:50:55 | 00:00:00 | |
| AA1-15 | 2026-09-02 23:10:30 | 54.08446 | 13.67563 | 111° | 69km/h | 7213m | 3.3m/s | -27.8°C | 77.2% | 406.9hPa | 2.9V | 18:12:15 | 00:51:00 | 00:00:00 | |
| AA1-15 | 2026-09-02 23:10:19 | 54.08529 | 13.67236 | 111° | 73km/h | 7168m | 3.2m/s | -27.4°C | 77% | 409.5hPa | 2.8V | 18:12:15 | 00:50:49 | 00:00:00 | |
| MECKS9 | 2026-09-02 23:10:17 | 54.08535 | 13.67208 | 112° | 69km/h | 7165m | 4.9m/s | -27.4°C | 77.9% | 409.7hPa | 2.9V | 00:00:00 | 00:00:00 | 00:00:00 | |
| DL1XH-15 | 2026-09-02 23:10:16 | 54.08554 | 13.67129 | 112° | 64km/h | 7151m | 4.9m/s | -27.3°C | 81.5% | 410.4hPa | 2.9V | 08:30:00 | 00:50:45 | 00:00:00 | |
| DG6HD-15 | 2026-09-02 23:10:13 | 54.08560 | 13.67103 | 113° | 66km/h | 7146m | 4.8m/s | -27.2°C | 78.6% | 410.7hPa | 2.9V | 00:00:00 | 00:00:00 | 00:00:00 | |
| DL1XH-15 | 2026-09-02 23:10:10 | 54.08620 | 13.66841 | 118° | 71km/h | 7109m | 3.8m/s | -27°C | 82.7% | 412.8hPa | 2.9V | 08:30:00 | 00:50:35 | 00:00:00 | |
| AA1-15 | 2026-09-02 23:10:08 | 54.08597 | 13.66927 | 109° | 75km/h | 7122m | 4.3m/s | -27.1°C | 75.9% | 412.1hPa | 2.9V | 18:12:15 | 00:50:38 | 00:00:00 | |
| AA1-15 | 2026-09-02 23:09:57 | 54.08694 | 13.66623 | 113° | 71km/h | 7074m | 4.2m/s | -26.8°C | 78.7% | 414.9hPa | 2.9V | 18:12:15 | 00:50:27 | 00:00:00 | |
| DL1XH-15 | 2026-09-02 23:09:56 | 54.08707 | 13.66568 | 112° | 68km/h | 7060m | 9.1m/s | -26.6°C | 82.5% | 415.6hPa | 2.9V | 08:30:00 | 00:50:25 | 00:00:00 | |
| AM1SDL-15 | 2026-09-02 23:09:52 | 54.08728 | 13.66493 | 118° | 64km/h | 7038m | 6.7m/s | -26.5°C | 82.5% | 416.9hPa | 2.9V | 00:00:00 | 00:50:22 | 00:00:00 | |
| DL1XH-15 | 2026-09-02 23:09:50 | 54.08769 | 13.66307 | 110° | 64km/h | 6998m | 3.8m/s | -26.2°C | 84.1% | 419.4hPa | 2.9V | 08:30:00 | 00:50:15 | 00:00:00 | |
| AA1-15 | 2026-09-02 23:09:47 | 54.08759 | 13.66362 | 107° | 68km/h | 7008m | 5.7m/s | -26.3°C | 76.2% | 418.8hPa | 2.9V | 18:12:15 | 00:50:17 | 00:00:00 | |
| AM1SDL-15 | 2026-09-02 23:09:40 | 54.08801 | 13.66195 | 115° | 64km/h | 6974m | 3.4m/s | -26.0°C | 84.9% | 420.7hPa | 2.9V | 00:00:00 | 00:50:10 | 00:00:00 | |
| DG6HD-11 | 2026-09-02 23:09:39 | 54.08807 | 13.66172 | 113° | 62km/h | 6970m | 5.5m/s | -25.9°C | 84.4% | 421.0hPa | 2.9V | 00:00:00 | 00:00:00 | 00:00:00 | |
| SP3BTT-10 | 2026-09-02 23:09:38 | 54.08812 | 13.66149 | 108° | 64km/h | 6964m | 6.5m/s | 0°C | 0% | 0hPa | 2.9V | 00:00:00 | 00:00:00 | 00:00:00 | |
| MECKS9 | 2026-09-02 23:09:37 | 54.08812 | 13.66149 | 108° | 58km/h | 6964m | 6.6m/s | -25.9°C | 80.8% | 421.3hPa | 2.9V | 00:00:00 | 00:00:00 | 00:00:00 | |
| DL1XH-15 | 2026-09-02 23:09:36 | 54.08825 | 13.66070 | 105° | 69km/h | 6943m | 7.6m/s | -25.7°C | 82.6% | 422.5hPa | 2.9V | 08:30:00 | 00:50:05 | 00:00:00 | |
| AA1-15 | 2026-09-02 23:09:36 | 54.08821 | 13.66098 | 105° | 66km/h | 6951m | 8.2m/s | -25.8°C | 78.8% | 422.1hPa | 2.9V | 18:12:15 | 00:50:06 | 00:00:00 | |
| SONDE2-11 | 2026-09-02 23:09:34 | 54.08834 | 13.66011 | 104° | 69km/h | 6927m | 7.0m/s | -25.6°C | 79.1% | 423.3hPa | 2.9V | 00:00:00 | 00:00:00 | 00:00:00 | |
| DG6HD-15 | 2026-09-02 23:09:32 | 54.08834 | 13.66011 | 105° | 69km/h | 6927m | 7.0m/s | 0°C | 0% | 423.3hPa | 2.9V | 00:00:00 | 00:00:00 | 00:00:00 | |
| DL1XH-15 | 2026-09-02 23:09:30 | 54.08873 | 13.65798 | 108° | 62km/h | 6881m | 6.8m/s | -25.2°C | 82.5% | 426.1hPa | 2.9V | 08:30:00 | 00:49:55 | 00:00:00 | |
| AA1-15 | 2026-09-02 23:09:25 | 54.08873 | 13.65798 | 108° | 62km/h | 6881m | 6.8m/s | -25.2°C | 76.1% | 426.1hPa | 2.9V | 18:12:15 | 00:49:55 | 00:00:00 | |
| S3001 | 2026-09-02 23:09:22 | 54.08889 | 13.65727 | 114° | 60km/h | 6865m | 5.3m/s | -25.1°C | 78.3% | -1.0hPa | 2.9V | 00:00:00 | 00:00:00 | 00:00:00 | |
| DL1XH-15 | 2026-09-02 23:09:16 | 54.08931 | 13.65554 | 98° | 60km/h | 6834m | 6.1m/s | -24.8°C | 84.5% | 428.8hPa | 2.9V | 08:30:00 | 00:49:45 | 00:00:00 | |
| AA1-15 | 2026-09-02 23:09:15 | 54.08931 | 13.65554 | 99° | 60km/h | 6834m | 6.1m/s | -24.8°C | 80.9% | 428.8hPa | 2.9V | 18:12:15 | 00:49:45 | 00:00:00 | |
| DG6HD-15 | 2026-09-02 23:09:11 | 54.08938 | 13.65479 | 103° | 57km/h | 6816m | 6.0m/s | 0°C | 0% | 429.8hPa | 2.9V | 00:00:00 | 00:00:00 | 00:00:00 | |
| DL1XH-15 | 2026-09-02 23:09:10 | 54.08974 | 13.65303 | 110° | 68km/h | 6781m | 5.5m/s | -24.4°C | 86.1% | 432.1hPa | 2.9V | 08:30:00 | 00:49:35 | 00:00:00 | |
| DB0DAN | 2026-09-02 23:09:10 | 54.08946 | 13.65432 | 109° | 55km/h | 6805m | 4.9m/s | -24.6°C | 82% | 430.57hPa | 2.8V | 00:00:00 | 00:00:00 | 00:00:00 | |
| AA1-15 | 2026-09-02 23:09:04 | 54.08981 | 13.65276 | 110° | 68km/h | 6776m | 3.5m/s | -24.4°C | 81.3% | 432.4hPa | 2.9V | 18:12:15 | 00:49:34 | 00:00:00 | |
| SONDE2-11 | 2026-09-02 23:09:02 | 54.08993 | 13.65222 | 110° | 64km/h | 6768m | 4.3m/s | -24.3°C | 83.7% | 433.0hPa | 2.9V | 00:00:00 | 00:00:00 | 00:00:00 | |
| MECKS9 | 2026-09-02 23:08:57 | 54.09012 | 13.65125 | 107° | 57km/h | 6750m | 5.8m/s | -24.2°C | 83.3% | 434.1hPa | 2.9V | 00:00:00 | 00:00:00 | 00:00:00 | |
| DL1XH-15 | 2026-09-02 23:08:56 | 54.09022 | 13.65051 | 101° | 62km/h | 6738m | 4.5m/s | -24.2°C | 88.1% | 434.8hPa | 2.9V | 08:30:00 | 00:49:25 | 00:00:00 | |
| DB0DAN | 2026-09-02 23:08:55 | 54.09022 | 13.65051 | 101° | 58km/h | 6738m | 4.5m/s | -24.2°C | 84.9% | 434.76hPa | 2.9V | 00:00:00 | 00:00:00 | 00:00:00 | |
| AA1-15 | 2026-09-02 23:08:53 | 54.09028 | 13.64998 | 101° | 64km/h | 6730m | 5.1m/s | -24.2°C | 81.3% | 435.2hPa | 2.9V | 18:12:15 | 00:49:23 | 00:00:00 | |
| DL1XH-15 | 2026-09-02 23:08:50 | 54.09062 | 13.64806 | 115° | 60km/h | 6682m | 5.3m/s | -24°C | 90% | 438hPa | 2.8V | 08:30:00 | 00:49:15 | 00:00:00 | |
| AA1-15 | 2026-09-02 23:08:43 | 54.09074 | 13.64758 | 109° | 62km/h | 6670m | 6.7m/s | -24°C | 85% | 438.7hPa | 2.9V | 18:12:15 | 00:49:13 | 00:00:00 | |
| AM1SDL-15 | 2026-09-02 23:08:40 | 54.09084 | 13.64679 | 98° | 62km/h | 6654m | 5.6m/s | -23.8°C | 90.0% | 439.8hPa | 2.9V | 00:00:00 | 00:49:10 | 00:00:00 | |
| DG6HD-11 | 2026-09-02 23:08:39 | 54.09086 | 13.64652 | 98° | 62km/h | 6648m | 5.6m/s | -23.7°C | 90.2% | 440.1hPa | 2.9V | 00:00:00 | 00:00:00 | 08:30:00 | |
| SP3BTT-10 | 2026-09-02 23:08:38 | 54.09089 | 13.64625 | 101° | 62km/h | 6643m | 4.6m/s | 0°C | 0% | 0hPa | 2.9V | 00:00:00 | 00:00:00 | 00:00:00 | |
| DL1XH-15 | 2026-09-02 23:08:36 | 54.09101 | 13.64550 | 109° | 58km/h | 6627m | 6m/s | -23.7°C | 91% | 441.4hPa | 2.9V | 08:30:00 | 00:49:05 | 00:00:00 | |
| AA1-15 | 2026-09-02 23:08:32 | 54.09119 | 13.64477 | 111° | 64km/h | 6611m | 6m/s | -23.6°C | 84.3% | 442.4hPa | 2.9V | 18:12:15 | 00:49:02 | 00:00:00 | |
| DL1XH-15 | 2026-09-02 23:08:30 | 54.09146 | 13.64281 | 104° | 71km/h | 6565m | 6.4m/s | -23.4°C | 89.9% | 444.9hPa | 2.9V | 08:30:00 | 00:48:55 | 00:00:00 | |
| AM1SDL-15 | 2026-09-02 23:08:28 | 54.09134 | 13.64369 | 101° | 62km/h | 6587m | 7.2m/s | -23.4°C | 90.5% | 443.8hPa | 2.9V | 00:00:00 | 00:48:58 | 00:00:00 | |
| DB0DAN | 2026-09-02 23:08:25 | 54.09146 | 13.64281 | 104° | 68km/h | 6565m | 6.4m/s | -23.4°C | 86.7% | 444.96hPa | 2.9V | 00:00:00 | 00:00:00 | 00:00:00 | |
| AA1-15 | 2026-09-02 23:08:21 | 54.09164 | 13.64176 | 106° | 57km/h | 6545m | 5.6m/s | -23.2°C | 84.4% | 446.3hPa | 2.9V | 18:12:15 | 00:48:51 | 00:00:00 | |
| DL1XH-15 | 2026-09-02 23:08:16 | 54.09187 | 13.64034 | 105° | 66km/h | 6507m | 4m/s | -23°C | 88.4% | 448.6hPa | 2.9V | 08:30:00 | 00:48:45 | 00:00:00 | |
| AA1-15 | 2026-09-02 23:08:11 | 54.09204 | 13.63934 | 107° | 53km/h | 6490m | 4.5m/s | -23°C | 82.7% | 449.7hPa | 2.8V | 18:12:15 | 00:48:41 | 00:00:00 | |
| DL1XH-15 | 2026-09-02 23:08:10 | 54.09214 | 13.63810 | 97° | 49km/h | 6464m | 5.3m/s | -22.9°C | 88.4% | 451.3hPa | 2.8V | 08:30:00 | 00:48:35 | 00:00:00 | |
| DB0DAN | 2026-09-02 23:08:10 | 54.09208 | 13.63912 | 102° | 46km/h | 6485m | 5.6m/s | -22.9°C | 84.9% | 449.9hPa | 2.9V | 00:00:00 | 00:00:00 | 00:00:00 | |
| AA1-15 | 2026-09-02 23:08:01 | 54.09226 | 13.63714 | 103° | 62km/h | 6440m | 7.8m/s | -22.8°C | 82.5% | 452.7hPa | 2.9V | 18:12:15 | 00:48:31 | 00:00:00 | |
| SONDE2-11 | 2026-09-02 23:08:00 | 54.09230 | 13.63689 | 104° | 60km/h | 6433m | 6.5m/s | 0°C | -1.0% | 453.1hPa | 2.9V | 00:00:00 | 00:00:00 | 00:00:00 | |
| DL1XH-15 | 2026-09-02 23:07:53 | 54.09249 | 13.63491 | 93° | 57km/h | 6385m | 4.3m/s | -22.8°C | 86.5% | 455.9hPa | 2.9V | 08:30:00 | 00:48:22 | 00:00:00 | |
| AA1-15 | 2026-09-02 23:07:50 | 54.09253 | 13.63441 | 101° | 58km/h | 6375m | 4.7m/s | -22.8°C | 81.1% | 456.5hPa | 2.9V | 18:12:15 | 00:48:20 | 00:00:00 | |
| S3001 | 2026-09-02 23:07:49 | 54.09264 | 13.63368 | 105° | 57km/h | 6360m | 5.0m/s | -22.9°C | -1.0% | -1.0hPa | 2.9V | 00:00:00 | 00:00:00 | 00:00:00 | |
| DL1XH-15 | 2026-09-02 23:07:43 | 54.09282 | 13.63245 | 94° | 44km/h | 6330m | 5.2m/s | -22.9°C | 80.3% | 459.6hPa | 2.9V | 08:30:00 | 00:48:11 | 00:00:00 | |
| AA1-15 | 2026-09-02 23:07:40 | 54.09282 | 13.63226 | 91° | 46km/h | 6325m | 4.1m/s | -22.8°C | 73.6% | 459.8hPa | 2.9V | 18:12:15 | 00:48:10 | 00:00:00 | |
| AM1SDL-15 | 2026-09-02 23:07:40 | 54.09282 | 13.63226 | 91° | 44km/h | 6326m | 4.0m/s | -22.8°C | 80.0% | 459.8hPa | 2.9V | 00:00:00 | 00:48:10 | 08:30:00 | |
| DG6HD-11 | 2026-09-02 23:07:39 | 54.09282 | 13.63206 | 90° | 44km/h | 6321m | 4.5m/s | -22.7°C | 79.1% | 459.9hPa | 2.9V | 00:00:00 | 00:00:00 | 00:00:00 | |
| DL1XH-15 | 2026-09-02 23:07:33 | 54.09280 | 13.63054 | 95° | 37km/h | 6280m | 3.5m/s | -22.5°C | 76.4% | 462.6hPa | 2.9V | 08:30:00 | 00:48:01 | 00:00:00 | |
| AA1-15 | 2026-09-02 23:07:30 | 54.09281 | 13.63039 | 95° | 35km/h | 6275m | 5.8m/s | -22.4°C | 71.3% | 462.9hPa | 2.9V | 18:12:15 | 00:48:00 | 00:00:00 | |
| AM1SDL-15 | 2026-09-02 23:07:28 | 54.09284 | 13.63008 | 104° | 47km/h | 6262m | 6.7m/s | -22.3°C | 74.5% | 463.7hPa | 2.9V | 00:00:00 | 00:47:58 | 00:00:00 | |
| DB0DAN | 2026-09-02 23:07:25 | 54.09294 | 13.62952 | 107° | 47km/h | 6244m | 5.6m/s | -22.2°C | 71.4% | 464.92hPa | 2.9V | 00:00:00 | 00:00:00 | 00:00:00 | |
| DL1XH-15 | 2026-09-02 23:07:23 | 54.09313 | 13.62875 | 117° | 49km/h | 6225m | 4.4m/s | -22.1°C | 72.4% | 466.1hPa | 2.9V | 08:30:00 | 00:47:51 | 00:00:00 | |
| AA1-15 | 2026-09-02 23:07:20 | 54.09319 | 13.62856 | 118° | 51km/h | 6220m | 4.5m/s | -22°C | 67.9% | 466.3hPa | 2.9V | 18:12:15 | 00:47:50 | 00:00:00 | |
| SP3BTT-10 | 2026-09-02 23:07:19 | 54.09325 | 13.62836 | 113° | 47km/h | 6216m | 3.4m/s | 0°C | 0% | 0hPa | 2.9V | 00:00:00 | 00:00:00 | 00:00:00 | |
| AM1SDL-15 | 2026-09-02 23:07:16 | 54.09334 | 13.62772 | 97° | 44km/h | 6202m | 6.2m/s | -21.8°C | 69.8% | 467.4hPa | 2.9V | 00:00:00 | 00:47:46 | 00:00:00 | |
| MECKS9 | 2026-09-02 23:07:15 | 54.09334 | 13.62772 | 97° | 46km/h | 6202m | 6.2m/s | -21.9°C | 67.3% | 467.5hPa | 2.9V | 00:00:00 | 00:00:00 | 00:00:00 | |
| DL1XH-15 | 2026-09-02 23:07:13 | 54.09343 | 13.62686 | 109° | 42km/h | 6178m | 3.8m/s | -21.6°C | 68% | 469.1hPa | 2.9V | 08:30:00 | 00:47:41 | 00:00:00 | |
| AA1-15 | 2026-09-02 23:07:10 | 54.09352 | 13.62648 | 112° | 49km/h | 6170m | 3.5m/s | -21.6°C | 62.6% | 469.6hPa | 2.9V | 18:12:15 | 00:47:39 | 00:00:00 | |
| DG6HD-11 | 2026-09-02 23:07:09 | 54.09351 | 13.62648 | 113° | 44km/h | 6170m | 3.5m/s | -21.5°C | 67.5% | 469.6hPa | 2.9V | 00:00:00 | 00:00:00 | 00:00:00 | |
| AM1SDL-15 | 2026-09-02 23:07:04 | 54.09369 | 13.62554 | 98° | 40km/h | 6151m | 4.3m/s | -21.3°C | 66.7% | 470.8hPa | 2.9V | 00:00:00 | 00:47:34 | 00:00:00 | |
| DL1XH-15 | 2026-09-02 23:07:03 | 54.09370 | 13.62505 | 89° | 38km/h | 6139m | 4.5m/s | -21.2°C | 66% | 471.6hPa | 2.8V | 08:30:00 | 00:47:31 | 00:00:00 | |
| AA1-15 | 2026-09-02 23:06:58 | 54.09374 | 13.62453 | 102° | 40km/h | 6126m | 5.9m/s | -21.1°C | 61.3% | 472.5hPa | 2.9V | 18:12:15 | 00:47:28 | 00:00:00 | |
| DL1XH-15 | 2026-09-02 23:06:53 | 54.09401 | 13.62336 | 109° | 40km/h | 6080m | 5.3m/s | -20.7°C | 61.6% | 475.3hPa | 2.9V | 08:30:00 | 00:47:21 | 00:00:00 | |
| AA1-15 | 2026-09-02 23:06:47 | 54.09410 | 13.62240 | 94° | 47km/h | 6058m | 6m/s | -20.5°C | 57.9% | 476.7hPa | 2.9V | 18:12:15 | 00:47:16 | 00:00:00 | |
| DL1XH-15 | 2026-09-02 23:06:43 | 54.09413 | 13.62139 | 93° | 42km/h | 6031m | 5.3m/s | -20.3°C | 58.5% | 478.4hPa | 2.8V | 08:30:00 | 00:47:11 | 00:00:00 | |
| AA1-15 | 2026-09-02 23:06:36 | 54.09425 | 13.62050 | 111° | 49km/h | 6008m | 5.1m/s | -20°C | 55.1% | 479.9hPa | 2.9V | 18:12:15 | 00:47:06 | 00:00:00 | |
| AM1SDL-15 | 2026-09-02 23:06:35 | 54.09430 | 13.62030 | 111° | 46km/h | 6004m | 4.3m/s | -19.9°C | 57.5% | 480.3hPa | 2.9V | 00:00:00 | 00:47:05 | 00:00:00 | |
| DL1XH-15 | 2026-09-02 23:06:33 | 54.09443 | 13.61954 | 96° | 40km/h | 5985m | 4.4m/s | -19.8°C | 56.7% | 481.6hPa | 2.9V | 08:30:00 | 00:47:01 | 00:00:00 | |
| AA1-15 | 2026-09-02 23:06:26 | 54.09444 | 13.61862 | 91° | 46km/h | 5962m | 4.5m/s | -19.6°C | 55.8% | 482.9hPa | 2.9V | 18:12:15 | 00:46:56 | 00:00:00 | |
| AA1-15 | 2026-09-02 23:06:16 | 54.09458 | 13.61657 | 105° | 51km/h | 5913m | 2.8m/s | -19.3°C | 49.5% | 486.1hPa | 2.9V | 18:12:15 | 00:46:46 | 00:00:00 | |
| DB0DAN | 2026-09-02 23:06:10 | 54.09474 | 13.61554 | 99° | 40km/h | 5888m | 3.7m/s | -19.4°C | 50.4% | 487.78hPa | 2.9V | 00:00:00 | 00:00:00 | 00:00:00 | |
| DG6HD-11 | 2026-09-02 23:06:09 | 54.09476 | 13.61536 | 98° | 44km/h | 5884m | 4.5m/s | -19.3°C | 52.1% | 488.0hPa | 2.9V | 00:00:00 | 00:00:00 | 00:00:00 | |
| DL1XH-15 | 2026-09-02 23:06:06 | 54.09488 | 13.61365 | 88° | 46km/h | 5847m | 4.3m/s | -19.4°C | 56.4% | 490.4hPa | 2.9V | 08:30:00 | 00:46:31 | 00:00:00 | |
| AA1-15 | 2026-09-02 23:06:05 | 54.09484 | 13.61450 | 100° | 53km/h | 5864m | 3.2m/s | -19.4°C | 53.4% | 489.2hPa | 2.9V | 18:12:15 | 00:46:35 | 00:00:00 | |
| AA1-15 | 2026-09-02 23:05:55 | 54.09495 | 13.61261 | 103° | 38km/h | 5824m | 4.3m/s | -19.3°C | 56.5% | 491.9hPa | 2.9V | 18:12:15 | 00:46:25 | 00:00:00 | |
| DL1XH-15 | 2026-09-02 23:05:53 | 54.09503 | 13.61195 | 104° | 40km/h | 5809m | 3.8m/s | -19.2°C | 58.2% | 492.9hPa | 2.9V | 08:30:00 | 00:46:21 | 00:00:00 | |
| MECKS9 | 2026-09-02 23:05:49 | 54.09505 | 13.61179 | 106° | 38km/h | 5806m | 3.3m/s | -19.2°C | 56.4% | 493.1hPa | 2.9V | 00:00:00 | 00:00:00 | 00:00:00 | |
| AM1SDL-15 | 2026-09-02 23:05:47 | 54.09512 | 13.61127 | 102° | 40km/h | 5795m | 3.8m/s | -19.1°C | 58.7% | 493.8hPa | 2.9V | 00:00:00 | 00:46:17 | 08:30:00 | |
| DL1XH-15 | 2026-09-02 23:05:46 | 54.09518 | 13.61011 | 82° | 42km/h | 5772m | 4m/s | -18.9°C | 58.9% | 495.3hPa | 2.9V | 08:30:00 | 00:46:11 | 00:00:00 | |
| AA1-15 | 2026-09-02 23:05:45 | 54.09518 | 13.61067 | 97° | 46km/h | 5784m | 3.4m/s | -19°C | 55.6% | 494.6hPa | 2.9V | 18:12:15 | 00:46:14 | 00:00:00 | |
| AA1-15 | 2026-09-02 23:05:33 | 54.09519 | 13.60878 | 89° | 44km/h | 5730m | 6.4m/s | -18.7°C | 57.2% | 498hPa | 2.9V | 18:12:15 | 00:46:03 | 00:00:00 | |
| DL1XH-15 | 2026-09-02 23:05:33 | 54.09519 | 13.60839 | 88° | 44km/h | 5718m | 5.5m/s | -18.6°C | 58.7% | 498.9hPa | 2.8V | 08:30:00 | 00:46:01 | 00:00:00 | |
| AM1SDL-15 | 2026-09-02 23:05:33 | 54.09519 | 13.60878 | 90° | 47km/h | 5730m | 6.4m/s | -18.7°C | 58.8% | 498.0hPa | 2.9V | 00:00:00 | 00:46:03 | 00:00:00 | |
| DL1XH-15 | 2026-09-02 23:05:23 | 54.09533 | 13.60638 | 94° | 42km/h | 5668m | 4.3m/s | -18.2°C | 56.7% | 502.4hPa | 2.9V | 08:30:00 | 00:45:51 | 00:00:00 | |
| AA1-15 | 2026-09-02 23:05:22 | 54.09532 | 13.60657 | 97° | 47km/h | 5672m | 4.5m/s | -18.2°C | 54.3% | 502.2hPa | 2.9V | 18:12:15 | 00:45:52 | 00:00:00 | |
| DL1XH-15 | 2026-09-02 23:05:13 | 54.09555 | 13.60484 | 105° | 42km/h | 5622m | 4.2m/s | -17.8°C | 54.8% | 505.4hPa | 2.9V | 08:30:00 | 00:45:41 | 00:00:00 | |
| AA1-15 | 2026-09-02 23:05:11 | 54.09555 | 13.60484 | 106° | 42km/h | 5622m | 4.2m/s | -17.8°C | 53% | 505.4hPa | 2.9V | 18:12:15 | 00:45:41 | 00:00:00 | |
| DG6HD-11 | 2026-09-02 23:05:09 | 54.09560 | 13.60447 | 100° | 40km/h | 5610m | 6.3m/s | 0°C | 0% | 0hPa | 2.9V | 00:00:00 | 00:00:00 | 00:00:00 | |
| DL1XH-15 | 2026-09-02 23:05:03 | 54.09565 | 13.60312 | 97° | 35km/h | 5569m | 4.2m/s | -17.3°C | 52.2% | 509hPa | 2.9V | 08:30:00 | 00:45:31 | 00:00:00 | |
| AA1-15 | 2026-09-02 23:05:01 | 54.09565 | 13.60312 | 98° | 35km/h | 5569m | 4.2m/s | -17.4°C | 52.2% | 509hPa | 2.9V | 18:12:15 | 00:45:31 | 00:00:00 | |
| MECKS9 | 2026-09-02 23:04:58 | 54.09568 | 13.60282 | 105° | 38km/h | 5561m | 4.1m/s | -17.3°C | 50.3% | 509.7hPa | 2.8V | 00:00:00 | 00:00:00 | 00:00:00 | |
| AM1SDL-15 | 2026-09-02 23:04:57 | 54.09573 | 13.60248 | 103° | 42km/h | 5553m | 4.9m/s | -17.1°C | 51.6% | 510.2hPa | 2.8V | 00:00:00 | 00:45:27 | 00:00:00 | |
| DL1XH-15 | 2026-09-02 23:04:53 | 54.09583 | 13.60141 | 97° | 38km/h | 5528m | 4.9m/s | -17°C | 50.6% | 511.9hPa | 2.8V | 08:30:00 | 00:45:21 | 00:00:00 | |
| AA1-15 | 2026-09-02 23:04:51 | 54.09583 | 13.60141 | 98° | 38km/h | 5528m | 4.9m/s | -17°C | 50% | 511.9hPa | 2.8V | 18:12:15 | 00:45:21 | 00:00:00 | |
| AM1SDL-15 | 2026-09-02 23:04:45 | 54.09593 | 13.60037 | 96° | 40km/h | 5506m | 3.5m/s | -16.7°C | 50.2% | 513.4hPa | 2.9V | 00:00:00 | 00:45:15 | 00:00:00 | |
| DL1XH-15 | 2026-09-02 23:04:44 | 54.09595 | 13.59964 | 95° | 37km/h | 5490m | 3.3m/s | -16.6°C | 49.7% | 514.6hPa | 2.9V | 08:30:00 | 00:45:11 | 00:00:00 | |
| AA1-15 | 2026-09-02 23:04:40 | 54.09597 | 13.59949 | 101° | 33km/h | 5487m | 3.5m/s | -16.6°C | 49.3% | 514.8hPa | 2.9V | 18:12:15 | 00:45:10 | 00:00:00 | |
| DG6HD-11 | 2026-09-02 23:04:39 | 54.09598 | 13.59936 | 105° | 37km/h | 5483m | 3.9m/s | 0°C | 0% | 0hPa | 2.9V | 00:00:00 | 00:00:00 | 00:00:00 | |
| DL1XH-15 | 2026-09-02 23:04:33 | 54.09617 | 13.59787 | 97° | 46km/h | 5453m | 3.4m/s | -16.4°C | 49.1% | 517.1hPa | 2.9V | 08:30:00 | 00:45:01 | 00:00:00 | |
| AA1-15 | 2026-09-02 23:04:29 | 54.09620 | 13.59751 | 102° | 42km/h | 5442m | 6.6m/s | -16.3°C | 48.7% | 517.7hPa | 2.9V | 18:12:15 | 00:44:59 | 00:00:00 | |
| DB0DAN | 2026-09-02 23:04:25 | 54.09630 | 13.59685 | 101° | 35km/h | 5416m | 6m/s | -16.1°C | 47.5% | 519.47hPa | 2.9V | 00:00:00 | 00:00:00 | 00:00:00 | |
| DL1XH-15 | 2026-09-02 23:04:22 | 54.09633 | 13.59612 | 90° | 46km/h | 5396m | 4m/s | -16°C | 49% | 520.8hPa | 2.9V | 08:30:00 | 00:44:51 | 00:00:00 | |
| AA1-15 | 2026-09-02 23:04:19 | 54.09634 | 13.59573 | 96° | 42km/h | 5387m | 4.4m/s | -16°C | 49.7% | 521.6hPa | 2.9V | 18:12:15 | 00:44:49 | 00:00:00 | |
| MECKS9 | 2026-09-02 23:04:14 | 54.09641 | 13.59510 | 107° | 37km/h | 5364m | 6.2m/s | -15.8°C | 48.5% | 523.1hPa | 2.9V | 00:00:00 | 00:00:00 | 00:00:00 | |
| DL1XH-15 | 2026-09-02 23:04:12 | 54.09649 | 13.59437 | 94° | 46km/h | 5346m | 4.9m/s | -15.7°C | 50% | 524.4hPa | 2.9V | 08:30:00 | 00:44:41 | 00:00:00 | |
| DB0DAN | 2026-09-02 23:04:10 | 54.09650 | 13.59418 | 96° | 42km/h | 5341m | 4.1m/s | -15.7°C | 48.4% | 524.74hPa | 2.9V | 00:00:00 | 00:00:00 | 00:00:00 | |
| AA1-15 | 2026-09-02 23:04:08 | 54.09652 | 13.59381 | 98° | 42km/h | 5334m | 3.9m/s | -15.6°C | 50.7% | 525.3hPa | 2.8V | 18:12:15 | 00:44:38 | 00:00:00 | |
| MECKS9 | 2026-09-02 23:04:03 | 54.09660 | 13.59312 | 104° | 38km/h | 5317m | 4.2m/s | -15.5°C | 48.3% | 526.5hPa | 2.9V | 00:00:00 | 00:00:00 | 00:00:00 | |
| DL1XH-15 | 2026-09-02 23:04:02 | 54.09663 | 13.59266 | 88° | 37km/h | 5306m | 3.5m/s | -15.4°C | 49.5% | 527.2hPa | 2.9V | 08:30:00 | 00:44:31 | 00:00:00 | |
| AA1-15 | 2026-09-02 23:03:57 | 54.09665 | 13.59200 | 100° | 40km/h | 5292m | 3.1m/s | -15.3°C | 51% | 528.2hPa | 2.9V | 18:12:15 | 00:44:27 | 00:00:00 | |
| DB0DAN | 2026-09-02 23:03:55 | 54.09670 | 13.59164 | 104° | 40km/h | 5284m | 4.4m/s | -15.3°C | 49.1% | 528.81hPa | 2.9V | 00:00:00 | 00:00:00 | 00:00:00 | |
| AA1-15 | 2026-09-02 23:03:46 | 54.09686 | 13.59015 | 92° | 27km/h | 5248m | 4.3m/s | -15.2°C | 55.6% | 531.2hPa | 2.9V | 18:12:15 | 00:44:16 | 00:00:00 | |
| AA1-15 | 2026-09-02 23:03:35 | 54.09698 | 13.58835 | 99° | 37km/h | 5192m | 3.3m/s | -15.1°C | 60.6% | 535.2hPa | 2.9V | 18:12:15 | 00:44:05 | 00:00:00 | |
| AM1SDL-15 | 2026-09-02 23:03:33 | 54.09703 | 13.58805 | 111° | 38km/h | 5183m | 4.3m/s | -15.0°C | 61.8% | 535.8hPa | 2.8V | 00:00:00 | 00:44:03 | 00:00:00 | |
| DL1XH-15 | 2026-09-02 23:03:32 | 54.09710 | 13.58774 | 112° | 40km/h | 5175m | 3m/s | -14.9°C | 61.8% | 536.6hPa | 2.8V | 08:30:00 | 00:44:01 | 00:00:00 | |
| AA1-15 | 2026-09-02 23:03:25 | 54.09725 | 13.58678 | 91° | 35km/h | 5142m | 5.3m/s | -14.6°C | 61.1% | 538.9hPa | 2.9V | 18:12:15 | 00:43:55 | 00:00:00 | |
| DL1XH-15 | 2026-09-02 23:03:23 | 54.09725 | 13.58619 | 98° | 35km/h | 5121m | 5.5m/s | -14.5°C | 60.4% | 540.5hPa | 2.8V | 08:30:00 | 00:43:51 | 00:00:00 | |
| AA1-15 | 2026-09-02 23:03:14 | 54.09739 | 13.58503 | 99° | 42km/h | 5090m | 2.9m/s | -14.2°C | 59% | 542.6hPa | 2.9V | 18:12:15 | 00:43:44 | 00:00:00 | |
| DL1XH-15 | 2026-09-02 23:03:13 | 54.09744 | 13.58446 | 100° | 51km/h | 5078m | 5.7m/s | -14.1°C | 60.4% | 543.5hPa | 2.8V | 08:30:00 | 00:43:41 | 00:00:00 | |
| MECKS9 | 2026-09-02 23:03:12 | 54.09740 | 13.58485 | 99° | 42km/h | 5087m | 4.7m/s | -14.2°C | 59.1% | 543.0hPa | 2.9V | 00:00:00 | 00:00:00 | 00:00:00 | |
| DB0DAN | 2026-09-02 23:03:10 | 54.09746 | 13.58423 | 98° | 51km/h | 5074m | 4.3m/s | -14.1°C | 59.6% | 543.89hPa | 2.9V | 00:00:00 | 00:00:00 | 00:00:00 | |
| AM1SDL-15 | 2026-09-02 23:03:09 | 54.09748 | 13.58399 | 96° | 40km/h | 5069m | 4.5m/s | -14.0°C | 61.1% | 544.1hPa | 2.9V | 00:00:00 | 00:43:39 | 00:00:00 | |
| DL1XH-15 | 2026-09-02 23:03:03 | 54.09757 | 13.58261 | 103° | 31km/h | 5029m | 6.1m/s | -13.8°C | 63.5% | 547hPa | 2.9V | 08:30:00 | 00:43:31 | 00:00:00 | |
| AA1-15 | 2026-09-02 23:03:03 | 54.09754 | 13.58287 | 99° | 31km/h | 5043m | 7m/s | -13.9°C | 62.9% | 546hPa | 2.9V | 18:12:15 | 00:43:33 | 00:00:00 | |
| MECKS9 | 2026-09-02 23:03:01 | 54.09755 | 13.58274 | 103° | 29km/h | 5036m | 7.2m/s | -13.9°C | 62.1% | 546.5hPa | 2.9V | 00:00:00 | 00:00:00 | 00:00:00 | |
| AM1SDL-15 | 2026-09-02 23:02:57 | 54.09760 | 13.58196 | 90° | 49km/h | 5007m | 5.5m/s | -13.7°C | 62.8% | 548.5hPa | 2.9V | 00:00:00 | 00:43:27 | 00:00:00 | |
| DL1XH-15 | 2026-09-02 23:02:56 | 54.09764 | 13.58072 | 102° | 51km/h | 4974m | 5.2m/s | -13.5°C | 63.2% | 550.7hPa | 2.9V | 08:30:00 | 00:43:21 | 00:00:00 | |
| AA1-15 | 2026-09-02 23:02:52 | 54.09761 | 13.58094 | 101° | 51km/h | 4980m | 5.1m/s | -13.6°C | 63.2% | 550.2hPa | 2.9V | 18:12:15 | 00:43:22 | 00:00:00 | |
| DL1XH-15 | 2026-09-02 23:02:51 | 54.09778 | 13.57966 | 107° | 49km/h | 4952m | 4.7m/s | -13.4°C | 63.3% | 552.3hPa | 2.9V | 08:30:00 | 00:43:16 | 00:00:00 | |
| DL1XH-15 | 2026-09-02 23:02:46 | 54.09793 | 13.57876 | 100° | 37km/h | 4931m | 3.7m/s | -13.3°C | 66.1% | 553.9hPa | 2.9V | 08:30:00 | 00:43:11 | 00:00:00 | |
| AA1-15 | 2026-09-02 23:02:42 | 54.09791 | 13.57892 | 104° | 40km/h | 4935m | 3.6m/s | -13.3°C | 64.4% | 553.6hPa | 2.9V | 18:12:15 | 00:43:12 | 00:00:00 | |
| DL1XH-15 | 2026-09-02 23:02:41 | 54.09804 | 13.57797 | 106° | 44km/h | 4910m | 4.3m/s | -13.2°C | 67.7% | 555.4hPa | 2.9V | 08:30:00 | 00:43:06 | 00:00:00 | |
| DL1XH-15 | 2026-09-02 23:02:36 | 54.09813 | 13.57706 | 97° | 40km/h | 4887m | 4.5m/s | -13°C | 72.9% | 557hPa | 2.9V | 08:30:00 | 00:43:01 | 00:00:00 | |
| AA1-15 | 2026-09-02 23:02:32 | 54.09812 | 13.57723 | 97° | 40km/h | 4892m | 3.5m/s | -13°C | 67.6% | 556.7hPa | 2.9V | 18:12:15 | 00:43:02 | 00:00:00 | |
| DL1XH-15 | 2026-09-02 23:02:31 | 54.09830 | 13.57614 | 89° | 37km/h | 4860m | 3.6m/s | -12.8°C | 75.7% | 559hPa | 2.9V | 08:30:00 | 00:42:55 | 00:00:00 | |
| DL1XH-15 | 2026-09-02 23:02:26 | 54.09821 | 13.57540 | 84° | 35km/h | 4834m | 4.5m/s | -12.6°C | 75.1% | 560.9hPa | 2.9V | 08:30:00 | 00:42:50 | 00:00:00 | |
| DB0DAN | 2026-09-02 23:02:25 | 54.09830 | 13.57614 | 89° | 35km/h | 4860m | 3.6m/s | -12.8°C | 74% | 559.05hPa | 2.9V | 00:00:00 | 00:00:00 | 00:00:00 | |
| AA1-15 | 2026-09-02 23:02:21 | 54.09823 | 13.57555 | 80° | 33km/h | 4838m | 3.9m/s | -12.6°C | 72.9% | 560.6hPa | 2.9V | 18:12:15 | 00:42:51 | 00:00:00 | |
| DL1XH-15 | 2026-09-02 23:02:20 | 54.09825 | 13.57453 | 96° | 44km/h | 4806m | 5.1m/s | -12.4°C | 74.3% | 563hPa | 2.9V | 08:30:00 | 00:42:45 | 00:00:00 | |
| DL1XH-15 | 2026-09-02 23:02:15 | 54.09826 | 13.57368 | 90° | 35km/h | 4786m | 4.4m/s | -12.2°C | 74.1% | 564.7hPa | 2.9V | 08:30:00 | 00:42:40 | 00:00:00 | |
| AA1-15 | 2026-09-02 23:02:11 | 54.09826 | 13.57383 | 89° | 37km/h | 4790m | 3.9m/s | -12.3°C | 73% | 564.3hPa | 2.9V | 18:12:15 | 00:42:41 | 00:00:00 | |
| DB0DAN | 2026-09-02 23:02:10 | 54.09826 | 13.57368 | 91° | 33km/h | 4786m | 4.4m/s | -12.2°C | 72.4% | 564.69hPa | 2.9V | 00:00:00 | 00:00:00 | 00:00:00 | |
| AM1SDL-15 | 2026-09-02 23:02:09 | 54.09826 | 13.57353 | 92° | 38km/h | 4782m | 4.4m/s | -12.2°C | 73.7% | 564.9hPa | 2.9V | 00:00:00 | 00:42:39 | 08:30:00 | |
| DL1XH-15 | 2026-09-02 23:02:08 | 54.09828 | 13.57281 | 91° | 46km/h | 4765m | 4.1m/s | -12.1°C | 71.7% | 566.2hPa | 2.9V | 08:30:00 | 00:42:35 | 00:00:00 | |
| DL1XH-15 | 2026-09-02 23:02:03 | 54.09826 | 13.57195 | 84° | 37km/h | 4745m | 3.6m/s | -12°C | 72.1% | 567.7hPa | 2.9V | 08:30:00 | 00:42:30 | 00:00:00 | |
| AA1-15 | 2026-09-02 23:02:00 | 54.09826 | 13.57195 | 84° | 37km/h | 4745m | 3.6m/s | -12°C | 69.8% | 567.7hPa | 2.9V | 18:12:15 | 00:42:30 | 00:00:00 | |
| DB0DAN | 2026-09-02 23:01:55 | 54.09821 | 13.57116 | 91° | 35km/h | 4725m | 4.5m/s | -11.8°C | 68.9% | 569.17hPa | 2.9V | 00:00:00 | 00:00:00 | 00:00:00 | |
| MECKS9 | 2026-09-02 23:01:51 | 54.09825 | 13.57064 | 102° | 42km/h | 4713m | 4.4m/s | -11.7°C | 68.9% | 570.0hPa | 2.9V | 00:00:00 | 00:00:00 | 00:00:00 | |
| DL1XH-15 | 2026-09-02 23:01:50 | 54.09829 | 13.57029 | 97° | 38km/h | 4706m | 4.1m/s | -11.7°C | 70.6% | 570.6hPa | 2.9V | 08:30:00 | 00:42:20 | 00:00:00 | |
| DL1XH-15 | 2026-09-02 23:01:50 | 54.09829 | 13.56952 | 78° | 35km/h | 4684m | 3.4m/s | -11.4°C | 70.7% | 572.1hPa | 2.9V | 08:30:00 | 00:42:15 | 00:00:00 | |
| AA1-15 | 2026-09-02 23:01:50 | 54.09829 | 13.57029 | 98° | 38km/h | 4706m | 4.1m/s | -11.7°C | 68.8% | 570.6hPa | 2.9V | 18:12:15 | 00:42:20 | 00:00:00 | |
| DL1XH-15 | 2026-09-02 23:01:45 | 54.09817 | 13.56886 | 86° | 31km/h | 4666m | 4.7m/s | -11.3°C | 70.6% | 573.6hPa | 2.9V | 08:30:00 | 00:42:10 | 00:00:00 | |
| AM1SDL-15 | 2026-09-02 23:01:44 | 54.09826 | 13.56938 | 69° | 35km/h | 4680m | 4.7m/s | -11.4°C | 70.3% | 572.4hPa | 2.9V | 00:00:00 | 00:42:14 | 00:00:00 | |
| DL1XH-15 | 2026-09-02 23:01:40 | 54.09821 | 13.56809 | 98° | 38km/h | 4636m | 6.4m/s | -11°C | 70.8% | 575.9hPa | 2.9V | 08:30:00 | 00:42:05 | 00:00:00 | |
| AA1-15 | 2026-09-02 23:01:39 | 54.09817 | 13.56873 | 95° | 33km/h | 4661m | 4.9m/s | -11.2°C | 69.5% | 573.9hPa | 2.8V | 18:12:15 | 00:42:09 | 00:00:00 | |
| DL1XH-15 | 2026-09-02 23:01:35 | 54.09828 | 13.56730 | 93° | 33km/h | 4608m | 6m/s | -10.8°C | 70.6% | 577.9hPa | 2.9V | 08:30:00 | 00:42:00 | 00:00:00 | |
| AM1SDL-15 | 2026-09-02 23:01:32 | 54.09825 | 13.56760 | 100° | 38km/h | 4619m | 5.0m/s | -10.8°C | 70.6% | 577.1hPa | 2.9V | 00:00:00 | 00:42:02 | 00:00:00 | |
| DL1XH-15 | 2026-09-02 23:01:30 | 54.09827 | 13.56651 | 87° | 44km/h | 4577m | 6.1m/s | -10.7°C | 75% | 579.9hPa | 2.9V | 08:30:00 | 00:41:55 | 00:00:00 | |
| AA1-15 | 2026-09-02 23:01:28 | 54.09828 | 13.56702 | 88° | 35km/h | 4597m | 6.5m/s | -10.8°C | 71.4% | 578.7hPa | 2.9V | 18:12:15 | 00:41:58 | 00:00:00 | |
| DL1XH-15 | 2026-09-02 23:01:23 | 54.09825 | 13.56563 | 81° | 33km/h | 4554m | 4.3m/s | -10.6°C | 0% | 581.7hPa | 2.9V | 08:30:00 | 00:41:50 | 00:00:00 | |
| AA1-15 | 2026-09-02 23:01:18 | 54.09822 | 13.56538 | 73° | 27km/h | 4546m | 4.4m/s | -10.5°C | 73.5% | 582.3hPa | 2.9V | 18:12:15 | 00:41:48 | 00:00:00 | |
| DL1XH-15 | 2026-09-02 23:01:16 | 54.09819 | 13.56504 | 90° | 31km/h | 4533m | 4.2m/s | -10.5°C | 0% | 583.3hPa | 2.9V | 08:30:00 | 00:41:45 | 00:00:00 | |
| DL1XH-15 | 2026-09-02 23:01:11 | 54.09815 | 13.56429 | 77° | 37km/h | 4503m | 5.7m/s | 0°C | 0% | 0hPa | 2.9V | 08:30:00 | 00:41:40 | 00:00:00 | |
| DB0DAN | 2026-09-02 23:01:10 | 54.09815 | 13.56429 | 77° | 35km/h | 4503m | 5.7m/s | -10.4°C | 77.2% | 585.59hPa | 2.9V | 00:00:00 | 00:00:00 | 00:00:00 | |
| AA1-15 | 2026-09-02 23:01:08 | 54.09812 | 13.56394 | 83° | 44km/h | 4492m | 5.3m/s | -10.3°C | 76.3% | 586.3hPa | 2.9V | 18:12:15 | 00:41:38 | 00:00:00 | |
| AM1SDL-15 | 2026-09-02 23:01:07 | 54.09810 | 13.56374 | 87° | 40km/h | 4488m | 3.4m/s | -10.2°C | 78.6% | 586.6hPa | 2.9V | 00:00:00 | 00:41:37 | 00:00:00 | |
| DL1XH-15 | 2026-09-02 23:01:06 | 54.09809 | 13.56334 | 89° | 46km/h | 4479m | 4.6m/s | 0°C | 0% | 0hPa | 2.9V | 08:30:00 | 00:41:35 | 00:00:00 | |
| S3001 | 2026-09-02 23:01:06 | 54.09810 | 13.56335 | 89° | 46km/h | 4479m | 4.6m/s | 0°C | -1.0% | -1.0hPa | 2.9V | 00:00:00 | 00:00:00 | 00:00:00 | |
| DL1XH-15 | 2026-09-02 23:01:01 | 54.09803 | 13.56250 | 81° | 35km/h | 4453m | 6.2m/s | 0°C | 0% | 0hPa | 2.9V | 08:30:00 | 00:41:30 | 00:00:00 | |
| AA1-15 | 2026-09-02 23:00:57 | 54.09805 | 13.56206 | 102° | 37km/h | 4439m | 5.4m/s | -10.1°C | 79.8% | 590.4hPa | 2.9V | 18:12:15 | 00:41:27 | 00:00:00 | |
| DL1XH-15 | 2026-09-02 23:00:56 | 54.09809 | 13.56175 | 103° | 38km/h | 4430m | 4.4m/s | 0°C | 0% | 0hPa | 2.9V | 08:30:00 | 00:41:25 | 00:00:00 | |
| DB0DAN | 2026-09-02 23:00:55 | 54.09809 | 13.56175 | 104° | 37km/h | 4430m | 4.4m/s | -10°C | 79.7% | 591.14hPa | 2.9V | 00:00:00 | 00:00:00 | 00:00:00 | |
| DL1XH-15 | 2026-09-02 23:00:51 | 54.09822 | 13.56095 | 104° | 40km/h | 4407m | 3.9m/s | 0°C | 0% | 0hPa | 2.9V | 08:30:00 | 00:41:20 | 00:00:00 | |
| DL1XH-15 | 2026-09-02 23:00:46 | 54.09825 | 13.56012 | 84° | 38km/h | 4383m | 5.6m/s | 0°C | 0% | 0hPa | 2.9V | 08:30:00 | 00:41:15 | 00:00:00 | |
| AA1-15 | 2026-09-02 23:00:46 | 54.09826 | 13.56028 | 88° | 37km/h | 4388m | 5.4m/s | -9.9°C | 79.8% | 594.6hPa | 2.9V | 18:12:15 | 00:41:16 | 00:00:00 | |
| AM1SDL-15 | 2026-09-02 23:00:43 | 54.09822 | 13.55979 | 78° | 31km/h | 4376m | 3.3m/s | -9.7°C | 84.2% | 595.7hPa | 2.9V | 00:00:00 | 00:41:13 | 00:00:00 | |
| DL1XH-15 | 2026-09-02 23:00:41 | 54.09817 | 13.55937 | 77° | 29km/h | 4363m | 3.8m/s | 0°C | 0% | 0hPa | 2.9V | 08:30:00 | 00:41:10 | 00:00:00 | |
| DB0DAN | 2026-09-02 23:00:40 | 54.09817 | 13.55937 | 78° | 27km/h | 4363m | 3.8m/s | -9.6°C | 81.7% | 596.78hPa | 2.9V | 00:00:00 | 00:00:00 | 00:00:00 | |
| DL1XH-15 | 2026-09-02 23:00:36 | 54.09815 | 13.55882 | 92° | 26km/h | 4344m | 3.9m/s | 0°C | 0% | 0hPa | 2.9V | 08:30:00 | 00:41:05 | 00:00:00 | |
| AA1-15 | 2026-09-02 23:00:36 | 54.09815 | 13.55893 | 89° | 24km/h | 4349m | 4.9m/s | -9.5°C | 80.4% | 597.8hPa | 2.9V | 18:12:15 | 00:41:06 | 00:00:00 | |
| MECKS9 | 2026-09-02 23:00:32 | 54.09815 | 13.55855 | 92° | 38km/h | 4334m | 5.2m/s | !°C | 80.8% | 599.0hPa | 2.9V | 00:00:00 | 00:00:00 | 00:00:00 | |
| AM1SDL-15 | 2026-09-02 23:00:31 | 54.09815 | 13.55819 | 88° | 42km/h | 4322m | 6.6m/s | -9.2°C | 81.5% | 599.8hPa | 2.9V | 00:00:00 | 00:41:01 | 00:00:00 | |
| DL1XH-15 | 2026-09-02 23:00:26 | 54.09823 | 13.55705 | 100° | 38km/h | 4291m | 5.5m/s | 0°C | 0% | 0hPa | 2.9V | 08:30:00 | 00:40:55 | 00:00:00 | |
| DB0DAN | 2026-09-02 23:00:25 | 54.09823 | 13.55705 | 100° | 37km/h | 4291m | 5.5m/s | -9°C | 78.5% | 602.33hPa | 2.9V | 00:00:00 | 00:00:00 | 00:00:00 | |
| AA1-15 | 2026-09-02 23:00:25 | 54.09823 | 13.55705 | 100° | 38km/h | 4291m | 5.5m/s | -9°C | 77.4% | 602.3hPa | 2.9V | 18:12:15 | 00:40:55 | 00:00:00 | |
| MECKS9 | 2026-09-02 23:00:22 | 54.09825 | 13.55673 | 92° | 38km/h | 4279m | 7.5m/s | -8.9°C | 77.8% | 603.2hPa | 2.9V | 00:00:00 | 00:00:00 | 00:00:00 | |
| AM1SDL-15 | 2026-09-02 23:00:19 | 54.09821 | 13.55604 | 84° | 44km/h | 4253m | 6.7m/s | -8.7°C | 79.4% | 604.9hPa | 2.9V | 00:00:00 | 00:40:49 | 08:30:00 | |
| DL1XH-15 | 2026-09-02 23:00:16 | 54.09818 | 13.55565 | 83° | 27km/h | 4237m | 4.3m/s | 0°C | 0% | 0hPa | 2.9V | 08:30:00 | 00:40:46 | 00:00:00 | |
| AA1-15 | 2026-09-02 23:00:14 | 54.09816 | 13.55537 | 88° | 37km/h | 4229m | 4.1m/s | -8.6°C | 78.3% | 606.7hPa | 2.9V | 18:12:15 | 00:40:44 | 00:00:00 | |
| MECKS9 | 2026-09-02 23:00:11 | 54.09816 | 13.55501 | 87° | 46km/h | 4218m | 6.3m/s | -8.5°C | 77.6% | 607.6hPa | 2.8V | 00:00:00 | 00:00:00 | 00:00:00 | |
| DB0DAN | 2026-09-02 23:00:10 | 54.09813 | 13.55460 | 82° | 47km/h | 4205m | 6.5m/s | -8.5°C | 78.4% | 608.57hPa | 2.8V | 00:00:00 | 00:00:00 | 00:00:00 | |
| AA1-15 | 2026-09-02 23:00:04 | 54.09809 | 13.55334 | 91° | 47km/h | 4172m | 4.7m/s | -8.3°C | 80.3% | 611.2hPa | 2.9V | 18:12:15 | 00:40:34 | 00:00:00 | |
| MECKS9 | 2026-09-02 22:59:58 | 54.09806 | 13.55240 | 86° | 44km/h | 4153m | 3.7m/s | -8.1°C | 83.1% | 612.9hPa | 2.9V | 00:00:00 | 00:00:00 | 00:00:00 | |
| DL1XH-15 | 2026-09-02 22:59:55 | 54.09823 | 13.55080 | 101° | 44km/h | 4124m | 4.3m/s | 0°C | 0% | 0hPa | 2.9V | 08:30:00 | 00:40:21 | 00:00:00 | |
| DB0DAN | 2026-09-02 22:59:55 | 54.09810 | 13.55160 | 106° | 47km/h | 4138m | 3.7m/s | -8.1°C | 85.5% | 614.05hPa | 2.9V | 00:00:00 | 00:00:00 | 00:00:00 | |
| AA1-15 | 2026-09-02 22:59:54 | 54.09813 | 13.55139 | 108° | 49km/h | 4134m | 4.3m/s | -8.1°C | 85.4% | 614.3hPa | 2.9V | 18:12:15 | 00:40:24 | 00:00:00 | |
| AA1-15 | 2026-09-02 22:59:43 | 54.09826 | 13.54945 | 90° | 42km/h | 4086m | 3.6m/s | -7.6°C | 84.4% | 618hPa | 2.9V | 18:12:15 | 00:40:13 | 00:00:00 | |
| AM1SDL-15 | 2026-09-02 22:59:41 | 54.09825 | 13.54909 | 91° | 42km/h | 4079m | 3.9m/s | 0°C | 0% | 0hPa | 2.9V | 00:00:00 | 00:40:11 | 00:00:00 | |
| DL1XH-15 | 2026-09-02 22:59:34 | 54.09828 | 13.54732 | 96° | 40km/h | 4044m | 2.9m/s | 0°C | 0% | 0hPa | 2.9V | 08:30:00 | 00:40:01 | 00:00:00 | |
| AA1-15 | 2026-09-02 22:59:33 | 54.09826 | 13.54767 | 92° | 40km/h | 4051m | 3.1m/s | -7.5°C | 83.4% | 621hPa | 2.8V | 18:12:15 | 00:40:03 | 00:00:00 | |
| DL1XH-15 | 2026-09-02 22:59:29 | 54.09840 | 13.54644 | 110° | 42km/h | 4025m | 3.9m/s | 0°C | 0% | 0hPa | 2.9V | 00:00:00 | 00:39:56 | 00:00:00 | |
| AA1-15 | 2026-09-02 22:59:22 | 54.09857 | 13.54569 | 109° | 51km/h | 4012m | 3.4m/s | -7.3°C | 83.8% | 624hPa | 2.9V | 18:12:15 | 00:39:52 | 00:00:00 | |
| AA1-15 | 2026-09-02 22:59:11 | 54.09866 | 13.54388 | 84° | 42km/h | 3954m | 4.9m/s | -6.8°C | 79.7% | 628.6hPa | 2.8V | 18:12:15 | 00:39:41 | 00:00:00 | |
| AA1-15 | 2026-09-02 22:59:00 | 54.09857 | 13.54180 | 101° | 42km/h | 3904m | 4.4m/s | -6.4°C | 80.4% | 632.9hPa | 2.9V | 18:12:15 | 00:39:30 | 00:00:00 | |
| DB0DAN | 2026-09-02 22:58:55 | 54.09866 | 13.54094 | 91° | 37km/h | 3885m | 4.4m/s | -6.3°C | 81.4% | 634.49hPa | 2.9V | 00:00:00 | 00:00:00 | 00:00:00 | |
| AA1-15 | 2026-09-02 22:58:49 | 54.09868 | 13.53991 | 100° | 42km/h | 3863m | 4.4m/s | -6.1°C | 78.9% | 636.3hPa | 2.9V | 18:12:15 | 00:39:19 | 00:00:00 | |
| AA1-15 | 2026-09-02 22:58:38 | 54.09876 | 13.53850 | 95° | 33km/h | 3819m | 5.9m/s | -5.9°C | 81.6% | 639.9hPa | 2.9V | 18:12:15 | 00:39:08 | 00:00:00 | |
| AA1-15 | 2026-09-02 22:58:27 | 54.09876 | 13.53681 | 79° | 44km/h | 3762m | 5.5m/s | -5.5°C | 77.6% | 644.4hPa | 2.9V | 18:12:15 | 00:38:57 | 00:00:00 | |
| DB0DAN | 2026-09-02 22:58:25 | 54.09873 | 13.53647 | 85° | 33km/h | 3752m | 3.9m/s | -5.5°C | 77.5% | 645.25hPa | 2.9V | 00:00:00 | 00:00:00 | 00:00:00 | |
| AA1-15 | 2026-09-02 22:58:17 | 54.09882 | 13.53527 | 87° | 38km/h | 3719m | 4.6m/s | -5.3°C | 79.7% | 647.9hPa | 2.8V | 18:12:15 | 00:38:47 | 00:00:00 | |
| AM1SDL-15 | 2026-09-02 22:58:15 | 54.09879 | 13.53492 | 76° | 46km/h | 3709m | 4.2m/s | 0°C | 0% | 0hPa | 2.9V | 00:00:00 | 00:38:45 | 00:00:00 | |
| DB0DAN | 2026-09-02 22:58:10 | 54.09869 | 13.53397 | 88° | 47km/h | 3685m | 3.6m/s | -5.1°C | 79.2% | 650.66hPa | 2.9V | 00:00:00 | 00:00:00 | 00:00:00 | |
| AA1-15 | 2026-09-02 22:58:06 | 54.09863 | 13.53314 | 73° | 42km/h | 3664m | 3.8m/s | -5°C | 81.3% | 652.3hPa | 2.9V | 18:12:15 | 00:38:36 | 00:00:00 | |
| AA1-15 | 2026-09-02 22:57:56 | 54.09849 | 13.53152 | 91° | 42km/h | 3611m | 4m/s | -4.7°C | 79.8% | 656.9hPa | 2.9V | 18:12:15 | 00:38:26 | 00:00:00 | |
| DB0DAN | 2026-09-02 22:57:55 | 54.09849 | 13.53135 | 92° | 37km/h | 3607m | 4.1m/s | -4.7°C | 79.1% | 657.29hPa | 2.9V | 00:00:00 | 00:00:00 | 00:00:00 | |
| AA1-15 | 2026-09-02 22:57:45 | 54.09847 | 13.52971 | 81° | 37km/h | 3570m | 4m/s | -4.4°C | 79.3% | 660.3hPa | 2.9V | 18:12:15 | 00:38:15 | 00:00:00 | |
| DB0DAN | 2026-09-02 22:57:40 | 54.09845 | 13.52894 | 89° | 38km/h | 3555m | 3.5m/s | -4.3°C | 79% | 661.68hPa | 2.8V | 00:00:00 | 00:00:00 | 00:00:00 | |
| AA1-15 | 2026-09-02 22:57:34 | 54.09841 | 13.52803 | 93° | 24km/h | 3534m | 3.9m/s | -4.1°C | 78.1% | 663.3hPa | 2.9V | 18:12:15 | 00:38:04 | 00:00:00 | |
| MECKS9 | 2026-09-02 22:57:28 | 54.09841 | 13.52738 | 89° | 42km/h | 3516m | 3.5m/s | -3.9°C | 80.1% | 664.9hPa | 2.9V | 00:00:00 | 00:00:00 | 00:00:00 | |
| AM1SDL-15 | 2026-09-02 22:57:27 | 54.09842 | 13.52697 | 92° | 37km/h | 3507m | 6.1m/s | 0°C | 0% | 0hPa | 2.9V | 00:00:00 | 00:37:57 | 00:00:00 | |
| DB0DAN | 2026-09-02 22:57:25 | 54.09843 | 13.52660 | 97° | 35km/h | 3495m | 4.5m/s | -3.7°C | 79.1% | 666.78hPa | 2.9V | 00:00:00 | 00:00:00 | 00:00:00 | |
| AA1-15 | 2026-09-02 22:57:23 | 54.09845 | 13.52632 | 100° | 31km/h | 3486m | 6.7m/s | -3.7°C | 81.3% | 667.5hPa | 2.9V | 18:12:15 | 00:37:53 | 00:00:00 | |
| AA1-15 | 2026-09-02 22:57:12 | 54.09845 | 13.52467 | 97° | 40km/h | 3426m | 4.3m/s | -3.1°C | 77.4% | 672.4hPa | 2.9V | 18:12:15 | 00:37:42 | 00:00:00 | |
| DB0DAN | 2026-09-02 22:57:10 | 54.09850 | 13.52434 | 104° | 37km/h | 3419m | 4m/s | -3.1°C | 77.4% | 673.06hPa | 2.9V | 00:00:00 | 00:00:00 | 00:00:00 | |
| AA1-15 | 2026-09-02 22:57:02 | 54.09870 | 13.52297 | 90° | 49km/h | 3384m | 5.7m/s | -2.8°C | 78.9% | 675.7hPa | 2.9V | 18:12:15 | 00:37:32 | 00:00:00 | |
| AA1-15 | 2026-09-02 22:56:51 | 54.09860 | 13.52114 | 90° | 37km/h | 3331m | 5.2m/s | -2.6°C | 76.1% | 680.5hPa | 2.9V | 18:12:15 | 00:37:21 | 00:00:00 | |
| AA1-15 | 2026-09-02 22:56:41 | 54.09864 | 13.51940 | 91° | 35km/h | 3292m | 5m/s | -2.6°C | 85.6% | 683.9hPa | 2.9V | 18:12:15 | 00:37:11 | 00:00:00 | |
| AA1-15 | 2026-09-02 22:56:31 | 54.09857 | 13.51795 | 79° | 38km/h | 3239m | 4.6m/s | -2.5°C | 86.3% | 688.3hPa | 2.9V | 18:12:15 | 00:37:01 | 00:00:00 | |
| AA1-15 | 2026-09-02 22:56:20 | 54.09831 | 13.51647 | 84° | 31km/h | 3194m | 3m/s | -2.8°C | 87.9% | 692.2hPa | 2.9V | 18:12:15 | 00:36:50 | 00:00:00 | |
| MECKS9 | 2026-09-02 22:56:15 | 54.09823 | 13.51594 | 69° | 33km/h | 3181m | 3.8m/s | -2.7°C | 90.0% | 693.6hPa | 2.9V | 00:00:00 | 00:00:00 | 00:00:00 | |
| DB0DAN | 2026-09-02 22:56:10 | 54.09809 | 13.51495 | 94° | 47km/h | 3155m | 5.2m/s | -2.7°C | 91.6% | 695.85hPa | 2.9V | 00:00:00 | 00:00:00 | 00:00:00 | |
| AA1-15 | 2026-09-02 22:56:09 | 54.09810 | 13.51474 | 93° | 47km/h | 3150m | 4.3m/s | -2.7°C | 89.7% | 696.4hPa | 2.9V | 18:12:15 | 00:36:39 | 00:00:00 | |
| AA1-15 | 2026-09-02 22:55:59 | 54.09806 | 13.51308 | 92° | 26km/h | 3108m | 6.7m/s | -2.3°C | 91.3% | 700.2hPa | 2.9V | 18:12:15 | 00:36:29 | 00:00:00 | |
| DB0DAN | 2026-09-02 22:55:55 | 54.09810 | 13.51256 | 106° | 37km/h | 3083m | 6.2m/s | -2.1°C | 90.8% | 702.37hPa | 2.9V | 00:00:00 | 00:00:00 | 00:00:00 | |
| AA1-15 | 2026-09-02 22:55:49 | 54.09826 | 13.51167 | 107° | 33km/h | 3053m | 5.8m/s | -1.9°C | 89.3% | 704.9hPa | 2.9V | 18:12:15 | 00:36:19 | 00:00:00 | |
| DL1XH-15 | 2026-09-02 22:55:44 | 54.09838 | 13.51071 | 95° | 46km/h | 3029m | 4m/s | 0°C | 0% | 0hPa | 2.9V | 00:00:00 | 00:36:13 | 00:00:00 | |
| DB0DAN | 2026-09-02 22:55:40 | 54.09836 | 13.51011 | 80° | 44km/h | 3017m | 4.1m/s | -1.6°C | 88.2% | 708.15hPa | 2.9V | 00:00:00 | 00:00:00 | 00:00:00 | |
| DL1XH-15 | 2026-09-02 22:55:39 | 54.09832 | 13.50971 | 77° | 49km/h | 3008m | 5.5m/s | 0°C | 0% | 0hPa | 2.9V | 00:00:00 | 00:36:08 | 00:00:00 | |
| AA1-15 | 2026-09-02 22:55:39 | 54.09834 | 13.50991 | 81° | 47km/h | 3013m | 4.9m/s | -1.6°C | 88.5% | 708.5hPa | 2.9V | 18:12:15 | 00:36:09 | 00:00:00 | |
| AA1-15 | 2026-09-02 22:55:28 | 54.09841 | 13.50800 | 88° | 29km/h | 2961m | 4.6m/s | -1.2°C | 85.2% | 713.1hPa | 2.9V | 18:12:15 | 00:35:58 | 00:00:00 | |
| DB0DAN | 2026-09-02 22:55:25 | 54.09841 | 13.50758 | 94° | 35km/h | 2944m | 4.4m/s | -1°C | 84.8% | 714.63hPa | 2.9V | 00:00:00 | 00:00:00 | 00:00:00 | |
| AA1-15 | 2026-09-02 22:55:17 | 54.09851 | 13.50645 | 89° | 26km/h | 2909m | 4.2m/s | -0.7°C | 83.4% | 717.6hPa | 2.9V | 18:12:15 | 00:35:47 | 00:00:00 | |
| DB0DAN | 2026-09-02 22:55:10 | 54.09844 | 13.50526 | 87° | 46km/h | 2876m | 4.8m/s | -0.5°C | 82.8% | 720.6hPa | 2.9V | 00:00:00 | 00:00:00 | 00:00:00 | |
| AA1-15 | 2026-09-02 22:55:07 | 54.09842 | 13.50469 | 86° | 42km/h | 2864m | 5m/s | -0.4°C | 84.6% | 721.7hPa | 2.9V | 18:12:15 | 00:35:37 | 00:00:00 | |
| AA1-15 | 2026-09-02 22:54:56 | 54.09844 | 13.50321 | 88° | 26km/h | 2814m | 4.9m/s | -0.2°C | 85.8% | 726.3hPa | 2.9V | 18:12:15 | 00:35:26 | 00:00:00 | |
| DB0DAN | 2026-09-02 22:54:55 | 54.09844 | 13.50309 | 88° | 27km/h | 2810m | 3.5m/s | -0.2°C | 88.1% | 726.65hPa | 2.9V | 00:00:00 | 00:00:00 | 00:00:00 | |
| AA1-15 | 2026-09-02 22:54:46 | 54.09832 | 13.50166 | 74° | 40km/h | 2776m | 4m/s | -0.2°C | 92.3% | 729.6hPa | 2.9V | 18:12:15 | 00:35:16 | 00:00:00 | |
| AA1-15 | 2026-09-02 22:54:35 | 54.09819 | 13.49976 | 93° | 46km/h | 2724m | 2.8m/s | 0.2°C | 88.5% | 734.4hPa | 2.9V | 18:12:15 | 00:35:05 | 00:00:00 | |
| AA1-15 | 2026-09-02 22:54:24 | 54.09820 | 13.49808 | 110° | 37km/h | 2675m | 4.7m/s | 0.6°C | 87.7% | 738.9hPa | 2.9V | 18:12:15 | 00:34:54 | 00:00:00 | |
| AA1-15 | 2026-09-02 22:54:13 | 54.09846 | 13.49636 | 96° | 40km/h | 2618m | 4.9m/s | 1°C | 87.3% | 743.9hPa | 2.9V | 18:12:15 | 00:34:43 | 00:00:00 | |
| DB0DAN | 2026-09-02 22:54:10 | 54.09848 | 13.49586 | 91° | 31km/h | 2606m | 4.2m/s | 1.1°C | 87.9% | 745.3hPa | 2.9V | 00:00:00 | 00:00:00 | 00:00:00 | |
| AA1-15 | 2026-09-02 22:54:03 | 54.09856 | 13.49512 | 103° | 22km/h | 2583m | 3.4m/s | 1.3°C | 87.9% | 747.6hPa | 2.9V | 18:12:15 | 00:34:33 | 00:00:00 | |
| DB0DAN | 2026-09-02 22:53:55 | 54.09860 | 13.49391 | 95° | 47km/h | 2547m | 4.6m/s | 1.6°C | 85.4% | 750.84hPa | 2.9V | 00:00:00 | 00:00:00 | 00:00:00 | |
| AA1-15 | 2026-09-02 22:53:52 | 54.09859 | 13.49334 | 83° | 37km/h | 2535m | 3.4m/s | 1.6°C | 85.8% | 752hPa | 2.9V | 18:12:15 | 00:34:22 | 00:00:00 | |
| AA1-15 | 2026-09-02 22:53:42 | 54.09880 | 13.49204 | 109° | 31km/h | 2487m | 4.1m/s | 2°C | 84.5% | 756.4hPa | 2.9V | 18:12:15 | 00:34:12 | 00:00:00 | |
| DB0DAN | 2026-09-02 22:53:40 | 54.09883 | 13.49178 | 94° | 31km/h | 2477m | 4.5m/s | 2.1°C | 85.7% | 757.36hPa | 2.9V | 00:00:00 | 00:00:00 | 00:00:00 | |
| AA1-15 | 2026-09-02 22:53:34 | 54.09890 | 13.49040 | 95° | 49km/h | 2429m | 5.8m/s | 2.4°C | 84.7% | 761.9hPa | 2.9V | 18:12:15 | 00:34:02 | 00:00:00 | |
| AA1-15 | 2026-09-02 22:53:22 | 54.09881 | 13.48879 | 94° | 31km/h | 2382m | 5.5m/s | 2.7°C | 86.4% | 766.2hPa | 2.9V | 18:12:15 | 00:33:52 | 00:00:00 | |
| AA1-15 | 2026-09-02 22:53:11 | 54.09892 | 13.48709 | 89° | 47km/h | 2329m | 4.3m/s | 3°C | 83.3% | 771.3hPa | 2.9V | 18:12:15 | 00:33:41 | 00:00:00 | |
| DB0DAN | 2026-09-02 22:53:10 | 54.09892 | 13.48689 | 93° | 44km/h | 2325m | 3.6m/s | 3°C | 84.3% | 771.66hPa | 2.9V | 00:00:00 | 00:00:00 | 00:00:00 | |
| AA1-15 | 2026-09-02 22:53:00 | 54.09907 | 13.48531 | 92° | 42km/h | 2282m | 5.8m/s | 3.4°C | 82.4% | 775.8hPa | 2.9V | 18:12:15 | 00:33:30 | 00:00:00 | |
| DB0DAN | 2026-09-02 22:52:55 | 54.09912 | 13.48428 | 93° | 42km/h | 2258m | 3.9m/s | 3.6°C | 81.1% | 778.18hPa | 2.9V | 00:00:00 | 00:00:00 | 00:00:00 | |
| AA1-15 | 2026-09-02 22:52:49 | 54.09908 | 13.48328 | 87° | 46km/h | 2234m | 3.8m/s | 3.8°C | 81.5% | 780.5hPa | 2.9V | 18:12:15 | 00:33:19 | 00:00:00 | |
| DB0DAN | 2026-09-02 22:52:40 | 54.09919 | 13.48158 | 83° | 37km/h | 2192m | 3.3m/s | 4.1°C | 79.6% | 784.63hPa | 2.9V | 00:00:00 | 00:00:00 | 00:00:00 | |
| AA1-15 | 2026-09-02 22:52:38 | 54.09917 | 13.48125 | 91° | 38km/h | 2185m | 3m/s | 4.1°C | 80.5% | 785.3hPa | 2.9V | 18:12:15 | 00:33:08 | 00:00:00 | |
| AA1-15 | 2026-09-02 22:52:28 | 54.09937 | 13.47961 | 98° | 51km/h | 2143m | 4.2m/s | 4.3°C | 80.4% | 789.5hPa | 2.9V | 18:12:15 | 00:32:58 | 00:00:00 | |
| DB0DAN | 2026-09-02 22:52:25 | 54.09939 | 13.47891 | 90° | 53km/h | 2127m | 7.2m/s | 4.2°C | 77.2% | 791.01hPa | 2.9V | 00:00:00 | 00:00:00 | 00:00:00 | |
| AA1-15 | 2026-09-02 22:52:20 | 54.09955 | 13.47762 | 111° | 44km/h | 2091m | 4.1m/s | 4.5°C | 78.6% | 794.4hPa | 2.9V | 18:12:15 | 00:32:48 | 00:00:00 | |
| MECKS9 | 2026-09-02 22:52:11 | 54.09964 | 13.47646 | 98° | 51km/h | 2062m | 5.8m/s | 4.6°C | 0% | 797.5hPa | 2.9V | 00:00:00 | 00:00:00 | 00:00:00 | |
| DB0DAN | 2026-09-02 22:52:10 | 54.09967 | 13.47604 | 92° | 44km/h | 2053m | 4.3m/s | 4.6°C | 75.8% | 798.09hPa | 2.9V | 00:00:00 | 00:00:00 | 00:00:00 | |
| AA1-15 | 2026-09-02 22:52:08 | 54.09966 | 13.47567 | 82° | 42km/h | 2044m | 3.8m/s | 4.7°C | 76.1% | 799hPa | 2.9V | 18:12:15 | 00:32:38 | 00:00:00 | |
| AA1-15 | 2026-09-02 22:51:57 | 54.09975 | 13.47384 | 86° | 46km/h | 2000m | 5.2m/s | 4.9°C | 78.7% | 803.2hPa | 2.9V | 18:12:15 | 00:32:27 | 00:00:00 | |
| DB0DAN | 2026-09-02 22:51:55 | 54.09973 | 13.47342 | 87° | 49km/h | 1989m | 5.9m/s | 4.9°C | 76.6% | 804.18hPa | 2.9V | 00:00:00 | 00:00:00 | 00:00:00 | |
| AA1-15 | 2026-09-02 22:51:55 | 54.09973 | 13.47342 | 87° | 51km/h | 1989m | 5.9m/s | 4.9°C | 78.7% | 804.2hPa | 2.9V | 18:12:15 | 00:32:25 | 00:00:00 | |
| AA1-15 | 2026-09-02 22:51:54 | 54.09973 | 13.47320 | 94° | 55km/h | 1983m | 5.5m/s | 5°C | 78.1% | 804.9hPa | 2.9V | 18:12:15 | 00:32:24 | 00:00:00 | |
| AA1-15 | 2026-09-02 22:51:52 | 54.09977 | 13.47277 | 102° | 49km/h | 1975m | 4.7m/s | 5.1°C | 77.6% | 805.7hPa | 2.9V | 18:12:15 | 00:32:22 | 00:00:00 | |
| AA1-15 | 2026-09-02 22:51:51 | 54.09980 | 13.47257 | 106° | 46km/h | 1970m | 5.6m/s | 5.1°C | 76.7% | 806.1hPa | 2.9V | 18:12:15 | 00:32:21 | 00:00:00 | |
| AA1-15 | 2026-09-02 22:51:49 | 54.09984 | 13.47224 | 102° | 35km/h | 1960m | 5.5m/s | 5.2°C | 76.3% | 807.1hPa | 2.9V | 18:12:15 | 00:32:19 | 00:00:00 | |
| AA1-15 | 2026-09-02 22:51:47 | 54.09984 | 13.47174 | 82° | 44km/h | 1943m | 4.4m/s | 5.3°C | 75.3% | 808.8hPa | 2.9V | 18:12:15 | 00:32:16 | 00:00:00 | |
| AA1-15 | 2026-09-02 22:51:47 | 54.09982 | 13.47155 | 82° | 46km/h | 1939m | 3.8m/s | 5.3°C | 75.8% | 809.2hPa | 2.9V | 18:12:15 | 00:32:15 | 00:00:00 | |
| AA1-15 | 2026-09-02 22:51:43 | 54.09979 | 13.47113 | 83° | 51km/h | 1932m | 1.8m/s | 5.4°C | 77.8% | 809.9hPa | 2.9V | 18:12:15 | 00:32:13 | 00:00:00 | |
| AA1-15 | 2026-09-02 22:51:42 | 54.09977 | 13.47091 | 86° | 51km/h | 1930m | 3.5m/s | 5.4°C | 78.4% | 810.1hPa | 2.9V | 18:12:15 | 00:32:12 | 00:00:00 | |
| AA1-15 | 2026-09-02 22:51:41 | 54.09976 | 13.47069 | 84° | 51km/h | 1926m | 4.4m/s | 5.4°C | 78.6% | 810.4hPa | 2.9V | 18:12:15 | 00:32:11 | 00:00:00 | |
| DB0DAN | 2026-09-02 22:51:40 | 54.09975 | 13.47048 | 82° | 46km/h | 1921m | 5.6m/s | 5.5°C | 75.7% | 810.94hPa | 2.9V | 00:00:00 | 00:00:00 | 00:00:00 | |
| AA1-15 | 2026-09-02 22:51:39 | 54.09973 | 13.47029 | 80° | 44km/h | 1916m | 4.6m/s | 5.5°C | 77.3% | 811.5hPa | 2.9V | 18:12:15 | 00:32:09 | 00:00:00 | |
| AA1-15 | 2026-09-02 22:51:39 | 54.09972 | 13.47011 | 82° | 40km/h | 1911m | 4m/s | 5.6°C | 77.3% | 812hPa | 2.9V | 18:12:15 | 00:32:08 | 00:00:00 | |
| AA1-15 | 2026-09-02 22:51:36 | 54.09971 | 13.46977 | 91° | 38km/h | 1901m | 5.6m/s | 5.7°C | 77% | 813.1hPa | 2.9V | 18:12:15 | 00:32:06 | 00:00:00 | |
| AA1-15 | 2026-09-02 22:51:35 | 54.09971 | 13.46961 | 90° | 38km/h | 1894m | 7.2m/s | 5.7°C | 75.7% | 813.7hPa | 2.9V | 18:12:15 | 00:32:05 | 00:00:00 | |
| AA1-15 | 2026-09-02 22:51:33 | 54.09970 | 13.46927 | 87° | 42km/h | 1883m | 4.4m/s | 5.8°C | 72.7% | 814.8hPa | 2.9V | 18:12:15 | 00:32:03 | 00:00:00 | |
| AA1-15 | 2026-09-02 22:51:31 | 54.09969 | 13.46892 | 88° | 42km/h | 1875m | 3.2m/s | 5.9°C | 72% | 815.6hPa | 2.9V | 18:12:15 | 00:32:01 | 00:00:00 | |
| AA1-15 | 2026-09-02 22:51:30 | 54.09968 | 13.46874 | 81° | 42km/h | 1872m | 3.5m/s | 5.9°C | 72.2% | 815.9hPa | 2.9V | 18:12:15 | 00:32:00 | 00:00:00 | |
| AA1-15 | 2026-09-02 22:51:29 | 54.09966 | 13.46856 | 77° | 44km/h | 1869m | 3.1m/s | 5.9°C | 72.2% | 816.3hPa | 2.9V | 18:12:15 | 00:31:59 | 00:00:00 | |
| AA1-15 | 2026-09-02 22:51:28 | 54.09963 | 13.46837 | 77° | 44km/h | 1866m | 4.3m/s | 6°C | 72.4% | 816.6hPa | 2.9V | 18:12:15 | 00:31:58 | 00:00:00 | |
| AA1-15 | 2026-09-02 22:51:26 | 54.09957 | 13.46803 | 70° | 40km/h | 1859m | 2.1m/s | 6°C | 71.8% | 817.3hPa | 2.9V | 18:12:15 | 00:31:56 | 00:00:00 | |
| DB0DAN | 2026-09-02 22:51:25 | 54.09954 | 13.46787 | 72° | 37km/h | 1856m | 3.7m/s | 6°C | 70.6% | 817.54hPa | 2.9V | 00:00:00 | 00:00:00 | 00:00:00 | |
| AA1-15 | 2026-09-02 22:51:24 | 54.09951 | 13.46771 | 78° | 38km/h | 1853m | 3.8m/s | 6.1°C | 71.6% | 817.9hPa | 2.9V | 18:12:15 | 00:31:54 | 00:00:00 | |
| AA1-15 | 2026-09-02 22:51:22 | 54.09951 | 13.46739 | 94° | 38km/h | 1844m | 4.7m/s | 6.1°C | 73% | 818.7hPa | 2.9V | 18:12:15 | 00:31:52 | 00:00:00 | |
| AA1-15 | 2026-09-02 22:51:21 | 54.09952 | 13.46723 | 100° | 37km/h | 1838m | 6.8m/s | 6.2°C | 73% | 819.2hPa | 2.9V | 18:12:15 | 00:31:51 | 00:00:00 | |
| AA1-15 | 2026-09-02 22:51:19 | 54.09955 | 13.46695 | 95° | 31km/h | 1824m | 5.3m/s | 6.3°C | 70.7% | 820.5hPa | 2.9V | 18:12:15 | 00:31:49 | 00:00:00 | |
| AA1-15 | 2026-09-02 22:51:17 | 54.09954 | 13.46665 | 83° | 38km/h | 1816m | 3.7m/s | 6.4°C | 70.8% | 821.4hPa | 2.9V | 18:12:15 | 00:31:47 | 00:00:00 | |
| AA1-15 | 2026-09-02 22:51:16 | 54.09953 | 13.46647 | 84° | 42km/h | 1813m | 3.5m/s | 6.4°C | 71.4% | 821.9hPa | 2.9V | 18:12:15 | 00:31:46 | 00:00:00 | |
| AA1-15 | 2026-09-02 22:51:14 | 54.09951 | 13.46609 | 92° | 46km/h | 1802m | 6.7m/s | 6.5°C | 71.2% | 822.9hPa | 2.9V | 18:12:15 | 00:31:44 | 00:00:00 | |
| AA1-15 | 2026-09-02 22:51:12 | 54.09955 | 13.46550 | 99° | 47km/h | 1790m | 2.7m/s | 6.6°C | 70.5% | 824.2hPa | 2.9V | 18:12:15 | 00:31:41 | 00:00:00 | |
| AA1-15 | 2026-09-02 22:51:12 | 54.09957 | 13.46529 | 96° | 51km/h | 1787m | 4.9m/s | 6.6°C | 70.2% | 824.5hPa | 2.9V | 18:12:15 | 00:31:40 | 00:00:00 | |
| AA1-15 | 2026-09-02 22:51:08 | 54.09956 | 13.46487 | 85° | 49km/h | 1780m | 4.3m/s | 6.7°C | 70.1% | 825.2hPa | 2.9V | 18:12:15 | 00:31:38 | 00:00:00 | |
| AA1-15 | 2026-09-02 22:51:07 | 54.09954 | 13.46466 | 80° | 47km/h | 1775m | 4.8m/s | 6.7°C | 69.6% | 825.8hPa | 2.9V | 18:12:15 | 00:31:37 | 00:00:00 | |
| AA1-15 | 2026-09-02 22:51:06 | 54.09952 | 13.46446 | 79° | 47km/h | 1770m | 5.4m/s | 6.7°C | 69% | 826.2hPa | 2.9V | 18:12:15 | 00:31:36 | 00:00:00 | |
| AA1-15 | 2026-09-02 22:51:04 | 54.09949 | 13.46409 | 85° | 42km/h | 1760m | 4.9m/s | 6.8°C | 68.6% | 827.3hPa | 2.9V | 18:12:15 | 00:31:34 | 00:00:00 | |
| AA1-15 | 2026-09-02 22:51:02 | 54.09950 | 13.46376 | 101° | 33km/h | 1752m | 4.6m/s | 6.9°C | 69.6% | 828.1hPa | 2.9V | 18:12:15 | 00:31:32 | 00:00:00 | |
| AA1-15 | 2026-09-02 22:51:01 | 54.09951 | 13.46363 | 99° | 31km/h | 1747m | 4.5m/s | 6.9°C | 69.8% | 828.7hPa | 2.9V | 18:12:15 | 00:31:31 | 00:00:00 | |
| AA1-15 | 2026-09-02 22:50:59 | 54.09953 | 13.46338 | 91° | 27km/h | 1738m | 3.9m/s | 7°C | 69.7% | 829.6hPa | 2.9V | 18:12:15 | 00:31:29 | 00:00:00 | |
| AA1-15 | 2026-09-02 22:50:57 | 54.09953 | 13.46316 | 85° | 24km/h | 1729m | 5.6m/s | 7°C | 71.3% | 830.4hPa | 2.9V | 18:12:15 | 00:31:27 | 00:00:00 | |
| DB0DAN | 2026-09-02 22:50:55 | 54.09953 | 13.46294 | 100° | 26km/h | 1718m | 4.9m/s | 7.1°C | 68.2% | 831.46hPa | 2.9V | 00:00:00 | 00:00:00 | 00:00:00 | |
| AA1-15 | 2026-09-02 22:50:55 | 54.09953 | 13.46294 | 100° | 27km/h | 1718m | 4.9m/s | 7.1°C | 71.2% | 831.5hPa | 2.9V | 18:12:15 | 00:31:25 | 00:00:00 | |
| AA1-15 | 2026-09-02 22:50:54 | 54.09955 | 13.46281 | 104° | 33km/h | 1714m | 4.2m/s | 7.1°C | 71.2% | 831.9hPa | 2.9V | 18:12:15 | 00:31:24 | 00:00:00 | |
| AA1-15 | 2026-09-02 22:50:53 | 54.09957 | 13.46267 | 106° | 35km/h | 1709m | 4m/s | 7.1°C | 71.1% | 832.3hPa | 2.9V | 18:12:15 | 00:31:23 | 00:00:00 | |
| AA1-15 | 2026-09-02 22:50:51 | 54.09962 | 13.46236 | 107° | 38km/h | 1699m | 6m/s | 7.2°C | 70.7% | 833.3hPa | 2.9V | 18:12:15 | 00:31:21 | 00:00:00 | |
| AA1-15 | 2026-09-02 22:50:49 | 54.09966 | 13.46204 | 92° | 35km/h | 1690m | 3.3m/s | 7.2°C | 71.2% | 834.4hPa | 2.9V | 18:12:15 | 00:31:19 | 00:00:00 | |
| AA1-15 | 2026-09-02 22:50:47 | 54.09965 | 13.46175 | 81° | 33km/h | 1682m | 4.8m/s | 7.2°C | 72.3% | 835.1hPa | 2.9V | 18:12:15 | 00:31:17 | 00:00:00 | |
| AA1-15 | 2026-09-02 22:50:45 | 54.09961 | 13.46149 | 74° | 27km/h | 1673m | 5.3m/s | 7.3°C | 73.6% | 836.2hPa | 2.9V | 18:12:15 | 00:31:15 | 00:00:00 | |
| AA1-15 | 2026-09-02 22:50:43 | 54.09958 | 13.46126 | 85° | 27km/h | 1665m | 2.6m/s | 7.3°C | 74.9% | 837.1hPa | 2.9V | 18:12:15 | 00:31:13 | 00:00:00 | |
| AA1-15 | 2026-09-02 22:50:41 | 54.09959 | 13.46101 | 100° | 31km/h | 1659m | 3.3m/s | 7.3°C | 77.5% | 837.6hPa | 2.9V | 18:12:15 | 00:31:11 | 00:00:00 | |
| AA1-15 | 2026-09-02 22:50:39 | 54.09963 | 13.46073 | 106° | 37km/h | 1650m | 4.3m/s | 7.3°C | 77.8% | 838.3hPa | 2.9V | 18:12:15 | 00:31:09 | 00:00:00 | |
| AA1-15 | 2026-09-02 22:50:37 | 54.09968 | 13.46042 | 104° | 38km/h | 1639m | 6.6m/s | 7.4°C | 75.9% | 839.5hPa | 2.9V | 18:12:15 | 00:31:07 | 00:00:00 | |
| AA1-15 | 2026-09-02 22:50:36 | 54.09969 | 13.46026 | 93° | 38km/h | 1633m | 4.8m/s | 7.4°C | 75.9% | 840hPa | 2.9V | 18:12:15 | 00:31:06 | 00:00:00 | |
| AA1-15 | 2026-09-02 22:50:34 | 54.09967 | 13.45992 | 76° | 42km/h | 1624m | 4.7m/s | 7.4°C | 76.9% | 841.2hPa | 2.9V | 18:12:15 | 00:31:04 | 00:00:00 | |
| AA1-15 | 2026-09-02 22:50:33 | 54.09953 | 13.45890 | 85° | 49km/h | 1604m | 4m/s | 7.6°C | 75.9% | 843.1hPa | 2.9V | 18:12:15 | 00:30:59 | 00:00:00 | |
| AA1-15 | 2026-09-02 22:50:32 | 54.09952 | 13.45869 | 92° | 46km/h | 1600m | 4.2m/s | 7.6°C | 76.5% | 843.4hPa | 2.9V | 18:12:15 | 00:30:58 | 00:00:00 | |
| AA1-15 | 2026-09-02 22:50:26 | 54.09954 | 13.45834 | 95° | 37km/h | 1590m | 4.8m/s | 7.7°C | 76.8% | 844.4hPa | 2.9V | 18:12:15 | 00:30:56 | 00:00:00 | |
| DB0DAN | 2026-09-02 22:50:25 | 54.09954 | 13.45820 | 96° | 29km/h | 1586m | 4.7m/s | 7.7°C | 0% | 0hPa | 2.9V | 00:00:00 | 00:00:00 | 00:00:00 | |
| AA1-15 | 2026-09-02 22:50:25 | 54.09954 | 13.45820 | 96° | 31km/h | 1586m | 4.7m/s | 7.7°C | 76.9% | 845hPa | 2.9V | 18:12:15 | 00:30:55 | 00:00:00 | |
| AA1-15 | 2026-09-02 22:50:23 | 54.09955 | 13.45796 | 90° | 29km/h | 1576m | 3.9m/s | 7.8°C | 75.9% | 845.9hPa | 2.9V | 18:12:15 | 00:30:53 | 00:00:00 | |
| AA1-15 | 2026-09-02 22:50:21 | 54.09954 | 13.45767 | 84° | 40km/h | 1567m | 3.6m/s | 7.8°C | 76% | 846.9hPa | 2.9V | 18:12:15 | 00:30:51 | 00:00:00 | |
| AA1-15 | 2026-09-02 22:50:19 | 54.09951 | 13.45728 | 82° | 49km/h | 1558m | 4.2m/s | 7.9°C | 76.9% | 847.9hPa | 2.9V | 18:12:15 | 00:30:49 | 00:00:00 | |
| AA1-15 | 2026-09-02 22:50:17 | 54.09948 | 13.45685 | 85° | 47km/h | 1546m | 7.4m/s | 8°C | 77.2% | 848.9hPa | 2.9V | 18:12:15 | 00:30:47 | 00:00:00 | |
| AA1-15 | 2026-09-02 22:50:15 | 54.09947 | 13.45648 | 91° | 40km/h | 1536m | 3.3m/s | 8.1°C | 77.9% | 850.1hPa | 2.9V | 18:12:15 | 00:30:45 | 00:00:00 | |
| AA1-15 | 2026-09-02 22:50:14 | 54.09948 | 13.45631 | 97° | 40km/h | 1531m | 6.1m/s | 8.1°C | 78.5% | 850.5hPa | 2.9V | 18:12:15 | 00:30:44 | 00:00:00 | |
| AA1-15 | 2026-09-02 22:50:12 | 54.09950 | 13.45595 | 94° | 44km/h | 1519m | 4.5m/s | 8.2°C | 77.4% | 851.7hPa | 2.9V | 18:12:15 | 00:30:42 | 00:00:00 | |
| DB0DAN | 2026-09-02 22:50:10 | 54.09953 | 13.45555 | 95° | 46km/h | 1512m | 4.8m/s | 0°C | 0% | 0hPa | 2.9V | 00:00:00 | 00:00:00 | 00:00:00 | |
| AA1-15 | 2026-09-02 22:50:10 | 54.09953 | 13.45555 | 95° | 49km/h | 1512m | 4.8m/s | 8.2°C | 78.2% | 852.6hPa | 2.9V | 18:12:15 | 00:30:40 | 00:00:00 | |
| AA1-15 | 2026-09-02 22:50:08 | 54.09955 | 13.45515 | 96° | 46km/h | 1504m | 4.9m/s | 8.3°C | 78.3% | 853.5hPa | 2.9V | 18:12:15 | 00:30:38 | 00:00:00 | |
| AA1-15 | 2026-09-02 22:50:06 | 54.09957 | 13.45478 | 94° | 40km/h | 1494m | 4.2m/s | 8.4°C | 76.9% | 854.4hPa | 2.9V | 18:12:15 | 00:30:36 | 00:00:00 | |
| AA1-15 | 2026-09-02 22:50:04 | 54.09957 | 13.45445 | 86° | 37km/h | 1487m | 4.6m/s | 8.4°C | 77% | 855.2hPa | 2.9V | 18:12:15 | 00:30:34 | 00:00:00 | |
| AA1-15 | 2026-09-02 22:50:02 | 54.09954 | 13.45416 | 81° | 31km/h | 1477m | 5.1m/s | 8.5°C | 77.8% | 855.9hPa | 2.9V | 18:12:15 | 00:30:32 | 00:00:00 | |
| AA1-15 | 2026-09-02 22:50:00 | 54.09953 | 13.45389 | 90° | 35km/h | 1466m | 5.8m/s | 8.6°C | 78.4% | 857hPa | 2.9V | 18:12:15 | 00:30:30 | 00:00:00 | |
| AA1-15 | 2026-09-02 22:49:58 | 54.09954 | 13.45354 | 91° | 47km/h | 1457m | 4.7m/s | 8.6°C | 78.9% | 858hPa | 2.9V | 18:12:15 | 00:30:28 | 00:00:00 | |
| AA1-15 | 2026-09-02 22:49:56 | 54.09953 | 13.45310 | 83° | 53km/h | 1449m | 4.6m/s | 8.7°C | 79.6% | 858.8hPa | 2.9V | 18:12:15 | 00:30:26 | 00:00:00 | |
| AA1-15 | 2026-09-02 22:49:55 | 54.09951 | 13.45288 | 79° | 53km/h | 1444m | 5.8m/s | 8.7°C | 79.6% | 859.4hPa | 2.9V | 18:12:15 | 00:30:25 | 00:00:00 | |
| AA1-15 | 2026-09-02 22:49:53 | 54.09939 | 13.45230 | 65° | 44km/h | 1426m | 6.5m/s | 8.8°C | 80.3% | 861.3hPa | 2.9V | 18:12:15 | 00:30:22 | 00:00:00 | |
| AA1-15 | 2026-09-02 22:49:53 | 54.09935 | 13.45213 | 70° | 40km/h | 1421m | 5.7m/s | 8.8°C | 79.9% | 862hPa | 2.9V | 18:12:15 | 00:30:21 | 00:00:00 | |
| AA1-15 | 2026-09-02 22:49:51 | 54.09932 | 13.45198 | 68° | 37km/h | 1416m | 3.9m/s | 8.8°C | 80% | 862.4hPa | 2.9V | 18:12:15 | 00:30:20 | 00:00:00 | |
| AA1-15 | 2026-09-02 22:49:48 | 54.09926 | 13.45173 | 73° | 31km/h | 1407m | 4m/s | 8.9°C | 79.7% | 863.2hPa | 2.9V | 18:12:15 | 00:30:18 | 00:00:00 | |
| AA1-15 | 2026-09-02 22:49:47 | 54.09924 | 13.45159 | 75° | 33km/h | 1403m | 3.6m/s | 8.9°C | 79.3% | 863.6hPa | 2.9V | 18:12:15 | 00:30:17 | 00:00:00 | |
| AA1-15 | 2026-09-02 22:49:46 | 54.09922 | 13.45146 | 71° | 33km/h | 1399m | 3.2m/s | 8.9°C | 79.3% | 864hPa | 2.9V | 18:12:15 | 00:30:16 | 00:00:00 | |
| AA1-15 | 2026-09-02 22:49:44 | 54.09916 | 13.45117 | 73° | 37km/h | 1390m | 5.4m/s | 9°C | 79.1% | 864.8hPa | 2.9V | 18:12:15 | 00:30:14 | 00:00:00 | |
| AA1-15 | 2026-09-02 22:49:42 | 54.09910 | 13.45085 | 68° | 42km/h | 1379m | 5.2m/s | 9.1°C | 78.5% | 866hPa | 2.9V | 18:12:15 | 00:30:12 | 00:00:00 | |
| AA1-15 | 2026-09-02 22:49:41 | 54.09906 | 13.45068 | 69° | 46km/h | 1374m | 5.1m/s | 9.1°C | 78.4% | 866.5hPa | 2.9V | 18:12:15 | 00:30:11 | 00:00:00 | |
| AA1-15 | 2026-09-02 22:49:40 | 54.09902 | 13.45049 | 69° | 46km/h | 1369m | 4.8m/s | 9.1°C | 78.9% | 866.9hPa | 2.9V | 18:12:15 | 00:30:10 | 00:00:00 | |
| AA1-15 | 2026-09-02 22:49:38 | 54.09893 | 13.45012 | 67° | 47km/h | 1360m | 3.8m/s | 9.1°C | 76.6% | 867.9hPa | 2.9V | 18:12:15 | 00:30:08 | 00:00:00 | |
| AA1-15 | 2026-09-02 22:49:36 | 54.09883 | 13.44975 | 65° | 49km/h | 1355m | 3.1m/s | 9.2°C | 75.8% | 868.6hPa | 2.9V | 18:12:15 | 00:30:06 | 00:00:00 | |
| AA1-15 | 2026-09-02 22:49:35 | 54.09878 | 13.44956 | 65° | 49km/h | 1351m | 2.9m/s | 9.2°C | 75.7% | 869hPa | 2.9V | 18:12:15 | 00:30:05 | 00:00:00 | |
| AA1-15 | 2026-09-02 22:49:34 | 54.09873 | 13.44936 | 67° | 49km/h | 1348m | 3.5m/s | 9.2°C | 75.8% | 869.4hPa | 2.9V | 18:12:15 | 00:30:04 | 00:00:00 | |
| AA1-15 | 2026-09-02 22:49:33 | 54.09868 | 13.44916 | 71° | 53km/h | 1345m | 3.7m/s | 9.2°C | 76.1% | 869.6hPa | 2.9V | 18:12:15 | 00:30:03 | 00:00:00 | |
| AA1-15 | 2026-09-02 22:49:31 | 54.09861 | 13.44872 | 74° | 55km/h | 1338m | 3.7m/s | 9.2°C | 77.7% | 870.3hPa | 2.9V | 18:12:15 | 00:30:01 | 00:00:00 | |
| AA1-15 | 2026-09-02 22:49:29 | 54.09852 | 13.44827 | 70° | 55km/h | 1326m | 7.4m/s | 9.3°C | 81.3% | 871.5hPa | 2.9V | 18:12:15 | 00:29:59 | 00:00:00 | |
| AA1-15 | 2026-09-02 22:49:28 | 54.09847 | 13.44805 | 68° | 51km/h | 1320m | 5.8m/s | 9.3°C | 80.8% | 872.3hPa | 2.9V | 18:12:15 | 00:29:58 | 00:00:00 | |
| AA1-15 | 2026-09-02 22:49:26 | 54.09838 | 13.44769 | 65° | 42km/h | 1312m | 3.5m/s | 9.4°C | 80.5% | 873.2hPa | 2.9V | 18:12:15 | 00:29:56 | 00:00:00 | |
| AA1-15 | 2026-09-02 22:49:24 | 54.09829 | 13.44737 | 64° | 40km/h | 1303m | 5.4m/s | 9.5°C | 78.9% | 874.1hPa | 2.9V | 18:12:15 | 00:29:54 | 00:00:00 | |
| AA1-15 | 2026-09-02 22:49:22 | 54.09820 | 13.44706 | 66° | 38km/h | 1293m | 4.1m/s | 9.6°C | 76.8% | 875.1hPa | 2.9V | 18:12:15 | 00:29:52 | 00:00:00 | |
| AA1-15 | 2026-09-02 22:49:21 | 54.09816 | 13.44691 | 68° | 38km/h | 1290m | 3.4m/s | 9.6°C | 76.2% | 875.5hPa | 2.9V | 18:12:15 | 00:29:51 | 00:00:00 | |
| AA1-15 | 2026-09-02 22:49:20 | 54.09810 | 13.44640 | 88° | 46km/h | 1277m | 4.1m/s | 9.7°C | 76.3% | 876.9hPa | 2.9V | 18:12:15 | 00:29:48 | 00:00:00 | |
| AA1-15 | 2026-09-02 22:49:19 | 54.09810 | 13.44620 | 93° | 47km/h | 1273m | 4.5m/s | 9.8°C | 76.9% | 877.4hPa | 2.9V | 18:12:15 | 00:29:47 | 00:00:00 | |
| AA1-15 | 2026-09-02 22:49:15 | 54.09811 | 13.44578 | 94° | 51km/h | 1262m | 5.3m/s | 9.9°C | 74.8% | 878.3hPa | 2.9V | 18:12:15 | 00:29:45 | 00:00:00 | |
| AA1-15 | 2026-09-02 22:49:14 | 54.09812 | 13.44556 | 91° | 51km/h | 1258m | 4m/s | 9.9°C | 73.8% | 878.7hPa | 2.9V | 18:12:15 | 00:29:44 | 00:00:00 | |
| AA1-15 | 2026-09-02 22:49:12 | 54.09810 | 13.44515 | 79° | 46km/h | 1251m | 3.6m/s | 10°C | 74.3% | 879.6hPa | 2.9V | 18:12:15 | 00:29:42 | 00:00:00 | |
| AA1-15 | 2026-09-02 22:49:10 | 54.09804 | 13.44479 | 70° | 44km/h | 1242m | 4.7m/s | 10°C | 76% | 880.5hPa | 2.9V | 18:12:15 | 00:29:40 | 00:00:00 | |
| AA1-15 | 2026-09-02 22:49:08 | 54.09796 | 13.44440 | 72° | 51km/h | 1229m | 5.6m/s | 10.1°C | 75.5% | 881.8hPa | 2.9V | 18:12:15 | 00:29:38 | 00:00:00 | |
| AA1-15 | 2026-09-02 22:49:06 | 54.09790 | 13.44396 | 78° | 57km/h | 1221m | 4.1m/s | 10.1°C | 75.3% | 882.7hPa | 2.9V | 18:12:15 | 00:29:36 | 00:00:00 | |
| AA1-15 | 2026-09-02 22:49:05 | 54.09787 | 13.44372 | 78° | 53km/h | 1217m | 3.6m/s | 10.2°C | 75% | 883.2hPa | 2.9V | 18:12:15 | 00:29:35 | 00:00:00 | |
| AA1-15 | 2026-09-02 22:49:04 | 54.09784 | 13.44350 | 74° | 53km/h | 1214m | 3.1m/s | 10.2°C | 74.9% | 883.5hPa | 2.9V | 18:12:15 | 00:29:34 | 00:00:00 | |
| AA1-15 | 2026-09-02 22:49:03 | 54.09780 | 13.44329 | 70° | 51km/h | 1210m | 4.8m/s | 10.3°C | 74.8% | 884.1hPa | 2.9V | 18:12:15 | 00:29:33 | 00:00:00 | |
| AA1-15 | 2026-09-02 22:49:01 | 54.09770 | 13.44292 | 65° | 42km/h | 1201m | 3.6m/s | 10.3°C | 73.6% | 885.1hPa | 2.9V | 18:12:15 | 00:29:31 | 00:00:00 | |
| AA1-15 | 2026-09-02 22:49:00 | 54.09766 | 13.44276 | 66° | 38km/h | 1197m | 4.8m/s | 10.4°C | 73.4% | 885.5hPa | 2.9V | 18:12:15 | 00:29:30 | 00:00:00 | |
| AA1-15 | 2026-09-02 22:48:58 | 54.09759 | 13.44245 | 75° | 40km/h | 1189m | 3.9m/s | 10.4°C | 73.8% | 886.4hPa | 2.9V | 18:12:15 | 00:29:28 | 00:00:00 | |
| AA1-15 | 2026-09-02 22:48:56 | 54.09754 | 13.44208 | 78° | 49km/h | 1180m | 4.8m/s | 10.4°C | 76.7% | 887.3hPa | 2.9V | 18:12:15 | 00:29:26 | 00:00:00 | |
| AA1-15 | 2026-09-02 22:48:55 | 54.09751 | 13.44187 | 74° | 49km/h | 1175m | 5.7m/s | 10.4°C | 81% | 887.8hPa | 2.9V | 18:12:15 | 00:29:25 | 00:00:00 | |
| AA1-15 | 2026-09-02 22:48:53 | 54.09742 | 13.44148 | 66° | 46km/h | 1162m | 5.7m/s | 10.5°C | 83% | 889.3hPa | 2.9V | 18:12:15 | 00:29:23 | 00:00:00 | |
| AA1-15 | 2026-09-02 22:48:51 | 54.09734 | 13.44115 | 70° | 37km/h | 1152m | 5.3m/s | 10.6°C | 82.5% | 890.3hPa | 2.9V | 18:12:15 | 00:29:21 | 00:00:00 | |
| AA1-15 | 2026-09-02 22:48:49 | 54.09731 | 13.44085 | 87° | 37km/h | 1142m | 6.3m/s | 10.7°C | 80.5% | 891.4hPa | 2.9V | 18:12:15 | 00:29:19 | 00:00:00 | |
| AA1-15 | 2026-09-02 22:48:47 | 54.09731 | 13.44050 | 95° | 44km/h | 1130m | 4.1m/s | 10.8°C | 75.9% | 892.5hPa | 2.9V | 18:12:15 | 00:29:17 | 00:00:00 | |
| AA1-15 | 2026-09-02 22:48:46 | 54.09733 | 13.44012 | 95° | 44km/h | 1122m | 3.9m/s | 10.9°C | 73.3% | 893.6hPa | 2.9V | 18:12:15 | 00:29:15 | 00:00:00 | |
| AA1-15 | 2026-09-02 22:48:45 | 54.09734 | 13.43994 | 90° | 40km/h | 1118m | 4.4m/s | 11°C | 73.8% | 893.9hPa | 2.9V | 18:12:15 | 00:29:14 | 00:00:00 | |
| AA1-15 | 2026-09-02 22:48:42 | 54.09732 | 13.43962 | 80° | 37km/h | 1108m | 4m/s | 11°C | 72.4% | 895.1hPa | 2.9V | 18:12:15 | 00:29:12 | 00:00:00 | |
| AA1-15 | 2026-09-02 22:48:41 | 54.09730 | 13.43946 | 75° | 38km/h | 1104m | 5.1m/s | 11.1°C | 73% | 895.4hPa | 2.9V | 18:12:15 | 00:29:11 | 00:00:00 | |
| AA1-15 | 2026-09-02 22:48:39 | 54.09724 | 13.43910 | 77° | 47km/h | 1093m | 6.1m/s | 11.2°C | 72.9% | 896.5hPa | 2.9V | 18:12:15 | 00:29:09 | 00:00:00 | |
| AA1-15 | 2026-09-02 22:48:38 | 54.09722 | 13.43889 | 81° | 49km/h | 1088m | 4.5m/s | 11.2°C | 72.5% | 897.1hPa | 2.9V | 18:12:15 | 00:29:08 | 00:00:00 | |
| AA1-15 | 2026-09-02 22:48:37 | 54.09720 | 13.43867 | 83° | 51km/h | 1083m | 5.3m/s | 11.3°C | 72.3% | 897.6hPa | 2.9V | 18:12:15 | 00:29:07 | 00:00:00 | |
| AA1-15 | 2026-09-02 22:48:36 | 54.09718 | 13.43846 | 82° | 51km/h | 1078m | 5.6m/s | 11.3°C | 71.8% | 898.3hPa | 2.9V | 18:12:15 | 00:29:06 | 00:00:00 | |
| AA1-15 | 2026-09-02 22:48:34 | 54.09713 | 13.43805 | 71° | 46km/h | 1068m | 3.7m/s | 11.4°C | 70.7% | 899.5hPa | 2.9V | 18:12:15 | 00:29:04 | 00:00:00 | |
| AA1-15 | 2026-09-02 22:48:32 | 54.09705 | 13.43770 | 71° | 42km/h | 1060m | 5.7m/s | 11.5°C | 71.5% | 900.1hPa | 2.9V | 18:12:15 | 00:29:02 | 00:00:00 | |
| AA1-15 | 2026-09-02 22:48:30 | 54.09700 | 13.43735 | 82° | 44km/h | 1048m | 5.1m/s | 0°C | 0% | 901.4hPa | 2.9V | 18:12:15 | 00:29:00 | 00:00:00 | |
| AA1-15 | 2026-09-02 22:48:29 | 54.09699 | 13.43716 | 83° | 46km/h | 1042m | 5.3m/s | 0°C | 0% | 901.8hPa | 2.9V | 18:12:15 | 00:28:59 | 00:00:00 | |
| AA1-15 | 2026-09-02 22:48:28 | 54.09697 | 13.43695 | 83° | 51km/h | 1037m | 6.7m/s | 0°C | 0% | 902.7hPa | 2.9V | 18:12:15 | 00:28:58 | 00:00:00 | |
| AA1-15 | 2026-09-02 22:48:23 | 54.09680 | 13.43598 | 66° | 46km/h | 1017m | 4.5m/s | 0°C | 0% | 904.7hPa | 2.9V | 18:12:15 | 00:28:53 | 00:00:00 | |
| AA1-15 | 2026-09-02 22:48:22 | 54.09675 | 13.43579 | 69° | 47km/h | 1012m | 4.3m/s | 0°C | 0% | 905.2hPa | 2.9V | 18:12:15 | 00:28:52 | 00:00:00 | |
| AA1-15 | 2026-09-02 22:48:20 | 54.09670 | 13.43539 | 86° | 49km/h | 1003m | 4.8m/s | 0°C | 0% | 906.1hPa | 2.9V | 18:12:15 | 00:28:50 | 00:00:00 | |
| AA1-15 | 2026-09-02 22:48:18 | 54.09671 | 13.43499 | 99° | 46km/h | 994m | 4.6m/s | 0°C | 0% | 907hPa | 2.9V | 18:12:15 | 00:28:48 | 00:00:00 | |
| AA1-15 | 2026-09-02 22:48:17 | 54.09673 | 13.43480 | 101° | 40km/h | 989m | 4.7m/s | 0°C | 0% | 907.5hPa | 2.9V | 18:12:15 | 00:28:47 | 00:00:00 | |
| AA1-15 | 2026-09-02 22:48:16 | 54.09675 | 13.43463 | 103° | 40km/h | 985m | 4.4m/s | 0°C | 0% | 908hPa | 2.9V | 18:12:15 | 00:28:46 | 00:00:00 | |
| AA1-15 | 2026-09-02 22:48:14 | 54.09678 | 13.43433 | 95° | 35km/h | 977m | 3m/s | 0°C | 0% | 0hPa | 2.9V | 18:12:15 | 00:28:44 | 00:00:00 | |
| AA1-15 | 2026-09-02 22:48:13 | 54.09678 | 13.43418 | 89° | 35km/h | 974m | 4.5m/s | 0°C | 0% | 0hPa | 2.9V | 18:12:15 | 00:28:43 | 00:00:00 | |
| AA1-15 | 2026-09-02 22:48:11 | 54.09676 | 13.43387 | 78° | 37km/h | 965m | 5.1m/s | 0°C | 0% | 0hPa | 2.9V | 18:12:15 | 00:28:41 | 00:00:00 | |
| MECKS9 | 2026-09-02 22:48:10 | 54.09676 | 13.43387 | 78° | 37km/h | 965m | 5.1m/s | 0°C | 0% | 0hPa | 2.9V | 00:00:00 | 00:00:00 | 00:00:00 | |
| AA1-15 | 2026-09-02 22:48:09 | 54.09671 | 13.43356 | 71° | 37km/h | 954m | 5.7m/s | 0°C | 0% | 0hPa | 2.9V | 18:12:15 | 00:28:39 | 00:00:00 | |
| AA1-15 | 2026-09-02 22:48:07 | 54.09666 | 13.43294 | 92° | 40km/h | 937m | 3.9m/s | 0°C | 0% | 0hPa | 2.9V | 18:12:15 | 00:28:35 | 00:00:00 | |
| AA1-15 | 2026-09-02 22:48:07 | 54.09666 | 13.43276 | 90° | 44km/h | 932m | 5.2m/s | 0°C | 0% | 0hPa | 2.9V | 18:12:15 | 00:28:34 | 00:00:00 | |
| AA1-15 | 2026-09-02 22:48:02 | 54.09663 | 13.43237 | 77° | 46km/h | 922m | 3.6m/s | 0°C | 0% | 0hPa | 2.9V | 18:12:15 | 00:28:32 | 00:00:00 | |
| AA1-15 | 2026-09-02 22:48:00 | 54.09656 | 13.43201 | 70° | 42km/h | 913m | 6.1m/s | 0°C | 0% | 0hPa | 2.9V | 18:12:15 | 00:28:30 | 00:00:00 | |
| AA1-15 | 2026-09-02 22:47:59 | 54.09653 | 13.43185 | 72° | 38km/h | 906m | 6.1m/s | 0°C | 0% | 0hPa | 2.9V | 18:12:15 | 00:28:29 | 00:00:00 |